<?xml version="1.0" encoding="UTF-8" standalone="no" ?>
<gpx xmlns="http://www.topografix.com/GPX/1/1" xmlns:xsi="http://www.w3.org/2001/XMLSchema-instance" xsi:schemaLocation="http://www.topografix.com/GPX/1/1 http://www.topografix.com/GPX/1/1/gpx.xsd" version="1.1" creator="VisuGPX - https://www.visugpx.com">
  <metadata>
    <name>22-10-06</name>
    <desc><![CDATA[Méral]]></desc>
  </metadata>
  <trk>
    <name><![CDATA[22-10-06]]></name>
    <trkseg>
      <trkpt lat="46.78682" lon="3.09734">
        <ele>212.19999694824</ele>
        <time>2022-10-06T05:09:26.000Z</time>
      </trkpt>
      <trkpt lat="46.78683" lon="3.09734">
        <ele>212.39999389648</ele>
        <time>2022-10-06T05:09:30.000Z</time>
      </trkpt>
      <trkpt lat="46.78685" lon="3.09733">
        <ele>212.60000610352</ele>
        <time>2022-10-06T05:09:32.000Z</time>
      </trkpt>
      <trkpt lat="46.78686" lon="3.09732">
        <ele>212.19999694824</ele>
        <time>2022-10-06T05:09:39.000Z</time>
      </trkpt>
      <trkpt lat="46.78687" lon="3.09733">
        <ele>212.19999694824</ele>
        <time>2022-10-06T05:09:45.000Z</time>
      </trkpt>
      <trkpt lat="46.78687" lon="3.09733">
        <ele>212.19999694824</ele>
        <time>2022-10-06T05:09:58.000Z</time>
      </trkpt>
      <trkpt lat="46.78694" lon="3.09732">
        <ele>212</ele>
        <time>2022-10-06T05:10:06.000Z</time>
      </trkpt>
      <trkpt lat="46.78706" lon="3.0974">
        <ele>211.80000305176</ele>
        <time>2022-10-06T05:10:13.000Z</time>
      </trkpt>
      <trkpt lat="46.78714" lon="3.09736">
        <ele>211.60000610352</ele>
        <time>2022-10-06T05:10:18.000Z</time>
      </trkpt>
      <trkpt lat="46.78716" lon="3.09737">
        <ele>211.39999389648</ele>
        <time>2022-10-06T05:10:23.000Z</time>
      </trkpt>
      <trkpt lat="46.78716" lon="3.09738">
        <ele>211.39999389648</ele>
        <time>2022-10-06T05:10:27.000Z</time>
      </trkpt>
      <trkpt lat="46.78715" lon="3.09738">
        <ele>211.39999389648</ele>
        <time>2022-10-06T05:10:32.000Z</time>
      </trkpt>
      <trkpt lat="46.78715" lon="3.09737">
        <ele>211.39999389648</ele>
        <time>2022-10-06T05:10:37.000Z</time>
      </trkpt>
      <trkpt lat="46.78716" lon="3.09736">
        <ele>211.39999389648</ele>
        <time>2022-10-06T05:10:39.000Z</time>
      </trkpt>
      <trkpt lat="46.78716" lon="3.09737">
        <ele>211.60000610352</ele>
        <time>2022-10-06T05:10:58.000Z</time>
      </trkpt>
      <trkpt lat="46.78721" lon="3.09741">
        <ele>211.60000610352</ele>
        <time>2022-10-06T05:11:00.000Z</time>
      </trkpt>
      <trkpt lat="46.78735" lon="3.09762">
        <ele>212</ele>
        <time>2022-10-06T05:11:05.000Z</time>
      </trkpt>
      <trkpt lat="46.78754" lon="3.09797">
        <ele>211.80000305176</ele>
        <time>2022-10-06T05:11:11.000Z</time>
      </trkpt>
      <trkpt lat="46.78771" lon="3.09833">
        <ele>212</ele>
        <time>2022-10-06T05:11:16.000Z</time>
      </trkpt>
      <trkpt lat="46.78773" lon="3.09841">
        <ele>212</ele>
        <time>2022-10-06T05:11:17.000Z</time>
      </trkpt>
      <trkpt lat="46.78788" lon="3.09909">
        <ele>211.80000305176</ele>
        <time>2022-10-06T05:11:25.000Z</time>
      </trkpt>
      <trkpt lat="46.78803" lon="3.09992">
        <ele>211.80000305176</ele>
        <time>2022-10-06T05:11:34.000Z</time>
      </trkpt>
      <trkpt lat="46.78805" lon="3.10001">
        <ele>212</ele>
        <time>2022-10-06T05:11:35.000Z</time>
      </trkpt>
      <trkpt lat="46.78818" lon="3.1007">
        <ele>211.39999389648</ele>
        <time>2022-10-06T05:11:42.000Z</time>
      </trkpt>
      <trkpt lat="46.78819" lon="3.1008">
        <ele>211.19999694824</ele>
        <time>2022-10-06T05:11:43.000Z</time>
      </trkpt>
      <trkpt lat="46.78821" lon="3.10091">
        <ele>211.19999694824</ele>
        <time>2022-10-06T05:11:44.000Z</time>
      </trkpt>
      <trkpt lat="46.7883" lon="3.10142">
        <ele>210.39999389648</ele>
        <time>2022-10-06T05:11:49.000Z</time>
      </trkpt>
      <trkpt lat="46.78834" lon="3.10161">
        <ele>210</ele>
        <time>2022-10-06T05:11:51.000Z</time>
      </trkpt>
      <trkpt lat="46.78848" lon="3.10238">
        <ele>209.60000610352</ele>
        <time>2022-10-06T05:11:59.000Z</time>
      </trkpt>
      <trkpt lat="46.78853" lon="3.10267">
        <ele>209.60000610352</ele>
        <time>2022-10-06T05:12:02.000Z</time>
      </trkpt>
      <trkpt lat="46.78866" lon="3.10334">
        <ele>209.60000610352</ele>
        <time>2022-10-06T05:12:09.000Z</time>
      </trkpt>
      <trkpt lat="46.78873" lon="3.10372">
        <ele>209.60000610352</ele>
        <time>2022-10-06T05:12:13.000Z</time>
      </trkpt>
      <trkpt lat="46.78888" lon="3.10455">
        <ele>210.19999694824</ele>
        <time>2022-10-06T05:12:22.000Z</time>
      </trkpt>
      <trkpt lat="46.78891" lon="3.10473">
        <ele>210.19999694824</ele>
        <time>2022-10-06T05:12:24.000Z</time>
      </trkpt>
      <trkpt lat="46.78897" lon="3.10508">
        <ele>210.19999694824</ele>
        <time>2022-10-06T05:12:28.000Z</time>
      </trkpt>
      <trkpt lat="46.78903" lon="3.10541">
        <ele>210.60000610352</ele>
        <time>2022-10-06T05:12:32.000Z</time>
      </trkpt>
      <trkpt lat="46.78915" lon="3.10606">
        <ele>211</ele>
        <time>2022-10-06T05:12:40.000Z</time>
      </trkpt>
      <trkpt lat="46.78923" lon="3.10646">
        <ele>211.39999389648</ele>
        <time>2022-10-06T05:12:45.000Z</time>
      </trkpt>
      <trkpt lat="46.7893" lon="3.10678">
        <ele>211.39999389648</ele>
        <time>2022-10-06T05:12:49.000Z</time>
      </trkpt>
      <trkpt lat="46.78936" lon="3.10701">
        <ele>211.60000610352</ele>
        <time>2022-10-06T05:12:52.000Z</time>
      </trkpt>
      <trkpt lat="46.78953" lon="3.10766">
        <ele>211.60000610352</ele>
        <time>2022-10-06T05:13:00.000Z</time>
      </trkpt>
      <trkpt lat="46.78971" lon="3.1083">
        <ele>211.80000305176</ele>
        <time>2022-10-06T05:13:08.000Z</time>
      </trkpt>
      <trkpt lat="46.78985" lon="3.10887">
        <ele>212</ele>
        <time>2022-10-06T05:13:15.000Z</time>
      </trkpt>
      <trkpt lat="46.78994" lon="3.10954">
        <ele>212.19999694824</ele>
        <time>2022-10-06T05:13:23.000Z</time>
      </trkpt>
      <trkpt lat="46.78998" lon="3.10987">
        <ele>212.60000610352</ele>
        <time>2022-10-06T05:13:27.000Z</time>
      </trkpt>
      <trkpt lat="46.79" lon="3.11004">
        <ele>212.60000610352</ele>
        <time>2022-10-06T05:13:29.000Z</time>
      </trkpt>
      <trkpt lat="46.79004" lon="3.11029">
        <ele>213</ele>
        <time>2022-10-06T05:13:32.000Z</time>
      </trkpt>
      <trkpt lat="46.79018" lon="3.1109">
        <ele>212.80000305176</ele>
        <time>2022-10-06T05:13:40.000Z</time>
      </trkpt>
      <trkpt lat="46.79032" lon="3.11152">
        <ele>212.19999694824</ele>
        <time>2022-10-06T05:13:48.000Z</time>
      </trkpt>
      <trkpt lat="46.79044" lon="3.11211">
        <ele>211.39999389648</ele>
        <time>2022-10-06T05:13:55.000Z</time>
      </trkpt>
      <trkpt lat="46.79061" lon="3.11291">
        <ele>211</ele>
        <time>2022-10-06T05:14:04.000Z</time>
      </trkpt>
      <trkpt lat="46.79073" lon="3.11344">
        <ele>210.80000305176</ele>
        <time>2022-10-06T05:14:10.000Z</time>
      </trkpt>
      <trkpt lat="46.79077" lon="3.11361">
        <ele>210.80000305176</ele>
        <time>2022-10-06T05:14:12.000Z</time>
      </trkpt>
      <trkpt lat="46.79089" lon="3.11419">
        <ele>210.80000305176</ele>
        <time>2022-10-06T05:14:19.000Z</time>
      </trkpt>
      <trkpt lat="46.79106" lon="3.11494">
        <ele>211.39999389648</ele>
        <time>2022-10-06T05:14:28.000Z</time>
      </trkpt>
      <trkpt lat="46.79109" lon="3.11509">
        <ele>211.39999389648</ele>
        <time>2022-10-06T05:14:30.000Z</time>
      </trkpt>
      <trkpt lat="46.7911" lon="3.11514">
        <ele>211.39999389648</ele>
        <time>2022-10-06T05:14:31.000Z</time>
      </trkpt>
      <trkpt lat="46.79111" lon="3.11522">
        <ele>211.80000305176</ele>
        <time>2022-10-06T05:14:33.000Z</time>
      </trkpt>
      <trkpt lat="46.79111" lon="3.11537">
        <ele>212.19999694824</ele>
        <time>2022-10-06T05:14:36.000Z</time>
      </trkpt>
      <trkpt lat="46.79109" lon="3.11541">
        <ele>212</ele>
        <time>2022-10-06T05:14:37.000Z</time>
      </trkpt>
      <trkpt lat="46.79094" lon="3.11566">
        <ele>212.39999389648</ele>
        <time>2022-10-06T05:14:42.000Z</time>
      </trkpt>
      <trkpt lat="46.79091" lon="3.11569">
        <ele>212.80000305176</ele>
        <time>2022-10-06T05:14:43.000Z</time>
      </trkpt>
      <trkpt lat="46.79085" lon="3.11573">
        <ele>212.60000610352</ele>
        <time>2022-10-06T05:14:45.000Z</time>
      </trkpt>
      <trkpt lat="46.79081" lon="3.11573">
        <ele>212.60000610352</ele>
        <time>2022-10-06T05:14:46.000Z</time>
      </trkpt>
      <trkpt lat="46.79046" lon="3.11572">
        <ele>213</ele>
        <time>2022-10-06T05:14:53.000Z</time>
      </trkpt>
      <trkpt lat="46.79041" lon="3.11574">
        <ele>212.80000305176</ele>
        <time>2022-10-06T05:14:54.000Z</time>
      </trkpt>
      <trkpt lat="46.79032" lon="3.1158">
        <ele>212.80000305176</ele>
        <time>2022-10-06T05:14:56.000Z</time>
      </trkpt>
      <trkpt lat="46.79025" lon="3.11591">
        <ele>212.80000305176</ele>
        <time>2022-10-06T05:14:58.000Z</time>
      </trkpt>
      <trkpt lat="46.79022" lon="3.11602">
        <ele>212.60000610352</ele>
        <time>2022-10-06T05:15:00.000Z</time>
      </trkpt>
      <trkpt lat="46.7902" lon="3.11612">
        <ele>212.60000610352</ele>
        <time>2022-10-06T05:15:02.000Z</time>
      </trkpt>
      <trkpt lat="46.79019" lon="3.11615">
        <ele>212.39999389648</ele>
        <time>2022-10-06T05:15:04.000Z</time>
      </trkpt>
      <trkpt lat="46.79022" lon="3.11616">
        <ele>212.39999389648</ele>
        <time>2022-10-06T05:15:05.000Z</time>
      </trkpt>
      <trkpt lat="46.79024" lon="3.1161">
        <ele>212.19999694824</ele>
        <time>2022-10-06T05:15:07.000Z</time>
      </trkpt>
      <trkpt lat="46.79023" lon="3.11606">
        <ele>212.19999694824</ele>
        <time>2022-10-06T05:15:08.000Z</time>
      </trkpt>
      <trkpt lat="46.7902" lon="3.116">
        <ele>212.19999694824</ele>
        <time>2022-10-06T05:15:10.000Z</time>
      </trkpt>
      <trkpt lat="46.79013" lon="3.11598">
        <ele>212.19999694824</ele>
        <time>2022-10-06T05:15:12.000Z</time>
      </trkpt>
      <trkpt lat="46.78992" lon="3.11599">
        <ele>212.19999694824</ele>
        <time>2022-10-06T05:15:17.000Z</time>
      </trkpt>
      <trkpt lat="46.78988" lon="3.11601">
        <ele>212.19999694824</ele>
        <time>2022-10-06T05:15:18.000Z</time>
      </trkpt>
      <trkpt lat="46.78984" lon="3.11604">
        <ele>212.19999694824</ele>
        <time>2022-10-06T05:15:19.000Z</time>
      </trkpt>
      <trkpt lat="46.78975" lon="3.11613">
        <ele>212.19999694824</ele>
        <time>2022-10-06T05:15:21.000Z</time>
      </trkpt>
      <trkpt lat="46.78967" lon="3.11624">
        <ele>212.19999694824</ele>
        <time>2022-10-06T05:15:23.000Z</time>
      </trkpt>
      <trkpt lat="46.78957" lon="3.1164">
        <ele>212.39999389648</ele>
        <time>2022-10-06T05:15:26.000Z</time>
      </trkpt>
      <trkpt lat="46.78952" lon="3.11652">
        <ele>212.60000610352</ele>
        <time>2022-10-06T05:15:28.000Z</time>
      </trkpt>
      <trkpt lat="46.78944" lon="3.11674">
        <ele>212.60000610352</ele>
        <time>2022-10-06T05:15:31.000Z</time>
      </trkpt>
      <trkpt lat="46.78937" lon="3.11687">
        <ele>212.80000305176</ele>
        <time>2022-10-06T05:15:33.000Z</time>
      </trkpt>
      <trkpt lat="46.78937" lon="3.11687">
        <ele>212.80000305176</ele>
        <time>2022-10-06T05:15:34.000Z</time>
      </trkpt>
      <trkpt lat="46.78917" lon="3.11735">
        <ele>213.39999389648</ele>
        <time>2022-10-06T05:15:40.000Z</time>
      </trkpt>
      <trkpt lat="46.78914" lon="3.11742">
        <ele>213.80000305176</ele>
        <time>2022-10-06T05:15:41.000Z</time>
      </trkpt>
      <trkpt lat="46.78893" lon="3.11788">
        <ele>214.39999389648</ele>
        <time>2022-10-06T05:15:48.000Z</time>
      </trkpt>
      <trkpt lat="46.78889" lon="3.11797">
        <ele>214.60000610352</ele>
        <time>2022-10-06T05:15:49.000Z</time>
      </trkpt>
      <trkpt lat="46.78863" lon="3.11849">
        <ele>215.19999694824</ele>
        <time>2022-10-06T05:15:57.000Z</time>
      </trkpt>
      <trkpt lat="46.78851" lon="3.11869">
        <ele>215.60000610352</ele>
        <time>2022-10-06T05:16:00.000Z</time>
      </trkpt>
      <trkpt lat="46.7884" lon="3.11885">
        <ele>215.80000305176</ele>
        <time>2022-10-06T05:16:03.000Z</time>
      </trkpt>
      <trkpt lat="46.78836" lon="3.1189">
        <ele>215.80000305176</ele>
        <time>2022-10-06T05:16:04.000Z</time>
      </trkpt>
      <trkpt lat="46.78827" lon="3.11906">
        <ele>216.19999694824</ele>
        <time>2022-10-06T05:16:07.000Z</time>
      </trkpt>
      <trkpt lat="46.78825" lon="3.1192">
        <ele>216.19999694824</ele>
        <time>2022-10-06T05:16:09.000Z</time>
      </trkpt>
      <trkpt lat="46.78826" lon="3.11938">
        <ele>216.80000305176</ele>
        <time>2022-10-06T05:16:12.000Z</time>
      </trkpt>
      <trkpt lat="46.78827" lon="3.11958">
        <ele>217.19999694824</ele>
        <time>2022-10-06T05:16:15.000Z</time>
      </trkpt>
      <trkpt lat="46.78828" lon="3.11964">
        <ele>217.39999389648</ele>
        <time>2022-10-06T05:16:16.000Z</time>
      </trkpt>
      <trkpt lat="46.78828" lon="3.11985">
        <ele>217.60000610352</ele>
        <time>2022-10-06T05:16:19.000Z</time>
      </trkpt>
      <trkpt lat="46.78829" lon="3.11996">
        <ele>217.60000610352</ele>
        <time>2022-10-06T05:16:21.000Z</time>
      </trkpt>
      <trkpt lat="46.78827" lon="3.12003">
        <ele>217.60000610352</ele>
        <time>2022-10-06T05:16:23.000Z</time>
      </trkpt>
      <trkpt lat="46.78813" lon="3.12005">
        <ele>217.60000610352</ele>
        <time>2022-10-06T05:16:27.000Z</time>
      </trkpt>
      <trkpt lat="46.78803" lon="3.12004">
        <ele>217.80000305176</ele>
        <time>2022-10-06T05:16:29.000Z</time>
      </trkpt>
      <trkpt lat="46.78795" lon="3.12003">
        <ele>217.80000305176</ele>
        <time>2022-10-06T05:16:31.000Z</time>
      </trkpt>
      <trkpt lat="46.78761" lon="3.11991">
        <ele>218.19999694824</ele>
        <time>2022-10-06T05:16:37.000Z</time>
      </trkpt>
      <trkpt lat="46.7871" lon="3.11973">
        <ele>218.80000305176</ele>
        <time>2022-10-06T05:16:46.000Z</time>
      </trkpt>
      <trkpt lat="46.78705" lon="3.11972">
        <ele>219</ele>
        <time>2022-10-06T05:16:47.000Z</time>
      </trkpt>
      <trkpt lat="46.78655" lon="3.11956">
        <ele>219.60000610352</ele>
        <time>2022-10-06T05:16:56.000Z</time>
      </trkpt>
      <trkpt lat="46.78638" lon="3.11951">
        <ele>219.80000305176</ele>
        <time>2022-10-06T05:16:59.000Z</time>
      </trkpt>
      <trkpt lat="46.78606" lon="3.11938">
        <ele>220.39999389648</ele>
        <time>2022-10-06T05:17:05.000Z</time>
      </trkpt>
      <trkpt lat="46.78594" lon="3.11932">
        <ele>220.60000610352</ele>
        <time>2022-10-06T05:17:07.000Z</time>
      </trkpt>
      <trkpt lat="46.7857" lon="3.11912">
        <ele>220.80000305176</ele>
        <time>2022-10-06T05:17:12.000Z</time>
      </trkpt>
      <trkpt lat="46.78558" lon="3.11897">
        <ele>221</ele>
        <time>2022-10-06T05:17:15.000Z</time>
      </trkpt>
      <trkpt lat="46.78526" lon="3.11859">
        <ele>221.19999694824</ele>
        <time>2022-10-06T05:17:22.000Z</time>
      </trkpt>
      <trkpt lat="46.78491" lon="3.11829">
        <ele>221.60000610352</ele>
        <time>2022-10-06T05:17:29.000Z</time>
      </trkpt>
      <trkpt lat="46.78479" lon="3.11823">
        <ele>221.60000610352</ele>
        <time>2022-10-06T05:17:31.000Z</time>
      </trkpt>
      <trkpt lat="46.78462" lon="3.11819">
        <ele>221.80000305176</ele>
        <time>2022-10-06T05:17:34.000Z</time>
      </trkpt>
      <trkpt lat="46.78433" lon="3.11816">
        <ele>222</ele>
        <time>2022-10-06T05:17:39.000Z</time>
      </trkpt>
      <trkpt lat="46.78415" lon="3.11817">
        <ele>222.60000610352</ele>
        <time>2022-10-06T05:17:42.000Z</time>
      </trkpt>
      <trkpt lat="46.78387" lon="3.11818">
        <ele>223.19999694824</ele>
        <time>2022-10-06T05:17:47.000Z</time>
      </trkpt>
      <trkpt lat="46.78365" lon="3.11818">
        <ele>223.60000610352</ele>
        <time>2022-10-06T05:17:51.000Z</time>
      </trkpt>
      <trkpt lat="46.78328" lon="3.1182">
        <ele>224.19999694824</ele>
        <time>2022-10-06T05:17:58.000Z</time>
      </trkpt>
      <trkpt lat="46.78323" lon="3.1182">
        <ele>224.39999389648</ele>
        <time>2022-10-06T05:17:59.000Z</time>
      </trkpt>
      <trkpt lat="46.78293" lon="3.11821">
        <ele>225.39999389648</ele>
        <time>2022-10-06T05:18:05.000Z</time>
      </trkpt>
      <trkpt lat="46.78288" lon="3.11822">
        <ele>225.80000305176</ele>
        <time>2022-10-06T05:18:06.000Z</time>
      </trkpt>
      <trkpt lat="46.78263" lon="3.11823">
        <ele>226.60000610352</ele>
        <time>2022-10-06T05:18:11.000Z</time>
      </trkpt>
      <trkpt lat="46.78247" lon="3.11824">
        <ele>227.39999389648</ele>
        <time>2022-10-06T05:18:14.000Z</time>
      </trkpt>
      <trkpt lat="46.78241" lon="3.11825">
        <ele>227.80000305176</ele>
        <time>2022-10-06T05:18:15.000Z</time>
      </trkpt>
      <trkpt lat="46.78218" lon="3.11826">
        <ele>228.80000305176</ele>
        <time>2022-10-06T05:18:20.000Z</time>
      </trkpt>
      <trkpt lat="46.78198" lon="3.11826">
        <ele>230</ele>
        <time>2022-10-06T05:18:24.000Z</time>
      </trkpt>
      <trkpt lat="46.7817" lon="3.11832">
        <ele>231</ele>
        <time>2022-10-06T05:18:30.000Z</time>
      </trkpt>
      <trkpt lat="46.78155" lon="3.11836">
        <ele>231.60000610352</ele>
        <time>2022-10-06T05:18:33.000Z</time>
      </trkpt>
      <trkpt lat="46.78146" lon="3.11839">
        <ele>232.19999694824</ele>
        <time>2022-10-06T05:18:35.000Z</time>
      </trkpt>
      <trkpt lat="46.78129" lon="3.11847">
        <ele>233.39999389648</ele>
        <time>2022-10-06T05:18:39.000Z</time>
      </trkpt>
      <trkpt lat="46.78125" lon="3.11849">
        <ele>233.80000305176</ele>
        <time>2022-10-06T05:18:40.000Z</time>
      </trkpt>
      <trkpt lat="46.78114" lon="3.11856">
        <ele>234.39999389648</ele>
        <time>2022-10-06T05:18:43.000Z</time>
      </trkpt>
      <trkpt lat="46.78104" lon="3.11863">
        <ele>235.60000610352</ele>
        <time>2022-10-06T05:18:47.000Z</time>
      </trkpt>
      <trkpt lat="46.78091" lon="3.11872">
        <ele>236.19999694824</ele>
        <time>2022-10-06T05:18:50.000Z</time>
      </trkpt>
      <trkpt lat="46.78084" lon="3.11877">
        <ele>236.80000305176</ele>
        <time>2022-10-06T05:18:52.000Z</time>
      </trkpt>
      <trkpt lat="46.7807" lon="3.11888">
        <ele>237.80000305176</ele>
        <time>2022-10-06T05:18:56.000Z</time>
      </trkpt>
      <trkpt lat="46.78066" lon="3.1189">
        <ele>238</ele>
        <time>2022-10-06T05:18:57.000Z</time>
      </trkpt>
      <trkpt lat="46.78053" lon="3.11899">
        <ele>239</ele>
        <time>2022-10-06T05:19:01.000Z</time>
      </trkpt>
      <trkpt lat="46.78035" lon="3.1191">
        <ele>240.39999389648</ele>
        <time>2022-10-06T05:19:06.000Z</time>
      </trkpt>
      <trkpt lat="46.78017" lon="3.11923">
        <ele>241.39999389648</ele>
        <time>2022-10-06T05:19:11.000Z</time>
      </trkpt>
      <trkpt lat="46.78001" lon="3.11935">
        <ele>242.60000610352</ele>
        <time>2022-10-06T05:19:16.000Z</time>
      </trkpt>
      <trkpt lat="46.77995" lon="3.1194">
        <ele>243</ele>
        <time>2022-10-06T05:19:18.000Z</time>
      </trkpt>
      <trkpt lat="46.77986" lon="3.11948">
        <ele>243.60000610352</ele>
        <time>2022-10-06T05:19:21.000Z</time>
      </trkpt>
      <trkpt lat="46.77975" lon="3.11955">
        <ele>244.60000610352</ele>
        <time>2022-10-06T05:19:24.000Z</time>
      </trkpt>
      <trkpt lat="46.77972" lon="3.11957">
        <ele>244.80000305176</ele>
        <time>2022-10-06T05:19:25.000Z</time>
      </trkpt>
      <trkpt lat="46.7795" lon="3.1197">
        <ele>246</ele>
        <time>2022-10-06T05:19:31.000Z</time>
      </trkpt>
      <trkpt lat="46.77947" lon="3.11972">
        <ele>246.19999694824</ele>
        <time>2022-10-06T05:19:32.000Z</time>
      </trkpt>
      <trkpt lat="46.77938" lon="3.1198">
        <ele>247</ele>
        <time>2022-10-06T05:19:35.000Z</time>
      </trkpt>
      <trkpt lat="46.77925" lon="3.1199">
        <ele>248</ele>
        <time>2022-10-06T05:19:39.000Z</time>
      </trkpt>
      <trkpt lat="46.77918" lon="3.11995">
        <ele>248.60000610352</ele>
        <time>2022-10-06T05:19:41.000Z</time>
      </trkpt>
      <trkpt lat="46.77908" lon="3.12004">
        <ele>249.39999389648</ele>
        <time>2022-10-06T05:19:45.000Z</time>
      </trkpt>
      <trkpt lat="46.77892" lon="3.12018">
        <ele>250.60000610352</ele>
        <time>2022-10-06T05:19:49.000Z</time>
      </trkpt>
      <trkpt lat="46.77889" lon="3.12021">
        <ele>250.80000305176</ele>
        <time>2022-10-06T05:19:50.000Z</time>
      </trkpt>
      <trkpt lat="46.77876" lon="3.12035">
        <ele>251.60000610352</ele>
        <time>2022-10-06T05:19:54.000Z</time>
      </trkpt>
      <trkpt lat="46.7786" lon="3.1205">
        <ele>252.19999694824</ele>
        <time>2022-10-06T05:19:58.000Z</time>
      </trkpt>
      <trkpt lat="46.77847" lon="3.12061">
        <ele>252.39999389648</ele>
        <time>2022-10-06T05:20:01.000Z</time>
      </trkpt>
      <trkpt lat="46.77831" lon="3.1207">
        <ele>252.19999694824</ele>
        <time>2022-10-06T05:20:04.000Z</time>
      </trkpt>
      <trkpt lat="46.77818" lon="3.12074">
        <ele>252</ele>
        <time>2022-10-06T05:20:06.000Z</time>
      </trkpt>
      <trkpt lat="46.77791" lon="3.12078">
        <ele>251</ele>
        <time>2022-10-06T05:20:10.000Z</time>
      </trkpt>
      <trkpt lat="46.7777" lon="3.1208">
        <ele>250.60000610352</ele>
        <time>2022-10-06T05:20:13.000Z</time>
      </trkpt>
      <trkpt lat="46.77746" lon="3.12082">
        <ele>249.39999389648</ele>
        <time>2022-10-06T05:20:16.000Z</time>
      </trkpt>
      <trkpt lat="46.77739" lon="3.12083">
        <ele>249.19999694824</ele>
        <time>2022-10-06T05:20:17.000Z</time>
      </trkpt>
      <trkpt lat="46.77715" lon="3.12084">
        <ele>248</ele>
        <time>2022-10-06T05:20:20.000Z</time>
      </trkpt>
      <trkpt lat="46.77681" lon="3.12087">
        <ele>247</ele>
        <time>2022-10-06T05:20:24.000Z</time>
      </trkpt>
      <trkpt lat="46.77665" lon="3.12088">
        <ele>245.60000610352</ele>
        <time>2022-10-06T05:20:26.000Z</time>
      </trkpt>
      <trkpt lat="46.7764" lon="3.1209">
        <ele>244.60000610352</ele>
        <time>2022-10-06T05:20:29.000Z</time>
      </trkpt>
      <trkpt lat="46.77631" lon="3.12091">
        <ele>244</ele>
        <time>2022-10-06T05:20:31.000Z</time>
      </trkpt>
      <trkpt lat="46.77605" lon="3.12094">
        <ele>243.39999389648</ele>
        <time>2022-10-06T05:20:33.000Z</time>
      </trkpt>
      <trkpt lat="46.7757" lon="3.12098">
        <ele>242.39999389648</ele>
        <time>2022-10-06T05:20:37.000Z</time>
      </trkpt>
      <trkpt lat="46.77542" lon="3.12101">
        <ele>241</ele>
        <time>2022-10-06T05:20:40.000Z</time>
      </trkpt>
      <trkpt lat="46.77533" lon="3.12102">
        <ele>240.60000610352</ele>
        <time>2022-10-06T05:20:41.000Z</time>
      </trkpt>
      <trkpt lat="46.77506" lon="3.12104">
        <ele>239.80000305176</ele>
        <time>2022-10-06T05:20:44.000Z</time>
      </trkpt>
      <trkpt lat="46.77478" lon="3.12106">
        <ele>238.39999389648</ele>
        <time>2022-10-06T05:20:47.000Z</time>
      </trkpt>
      <trkpt lat="46.77469" lon="3.12107">
        <ele>238</ele>
        <time>2022-10-06T05:20:48.000Z</time>
      </trkpt>
      <trkpt lat="46.77451" lon="3.12108">
        <ele>237.39999389648</ele>
        <time>2022-10-06T05:20:50.000Z</time>
      </trkpt>
      <trkpt lat="46.77423" lon="3.12111">
        <ele>236</ele>
        <time>2022-10-06T05:20:53.000Z</time>
      </trkpt>
      <trkpt lat="46.77403" lon="3.12115">
        <ele>234.80000305176</ele>
        <time>2022-10-06T05:20:55.000Z</time>
      </trkpt>
      <trkpt lat="46.77383" lon="3.12119">
        <ele>233.39999389648</ele>
        <time>2022-10-06T05:20:57.000Z</time>
      </trkpt>
      <trkpt lat="46.77355" lon="3.12126">
        <ele>232.19999694824</ele>
        <time>2022-10-06T05:21:00.000Z</time>
      </trkpt>
      <trkpt lat="46.77346" lon="3.12129">
        <ele>231.60000610352</ele>
        <time>2022-10-06T05:21:01.000Z</time>
      </trkpt>
      <trkpt lat="46.7733" lon="3.12133">
        <ele>231.19999694824</ele>
        <time>2022-10-06T05:21:03.000Z</time>
      </trkpt>
      <trkpt lat="46.77299" lon="3.12142">
        <ele>230</ele>
        <time>2022-10-06T05:21:07.000Z</time>
      </trkpt>
      <trkpt lat="46.77292" lon="3.12144">
        <ele>229.80000305176</ele>
        <time>2022-10-06T05:21:08.000Z</time>
      </trkpt>
      <trkpt lat="46.77249" lon="3.12155">
        <ele>229.19999694824</ele>
        <time>2022-10-06T05:21:15.000Z</time>
      </trkpt>
      <trkpt lat="46.77206" lon="3.12167">
        <ele>229</ele>
        <time>2022-10-06T05:21:20.000Z</time>
      </trkpt>
      <trkpt lat="46.77157" lon="3.12179">
        <ele>228.80000305176</ele>
        <time>2022-10-06T05:21:27.000Z</time>
      </trkpt>
      <trkpt lat="46.77099" lon="3.12195">
        <ele>228.60000610352</ele>
        <time>2022-10-06T05:21:35.000Z</time>
      </trkpt>
      <trkpt lat="46.7707" lon="3.12202">
        <ele>228.39999389648</ele>
        <time>2022-10-06T05:21:39.000Z</time>
      </trkpt>
      <trkpt lat="46.77017" lon="3.12216">
        <ele>228.80000305176</ele>
        <time>2022-10-06T05:21:47.000Z</time>
      </trkpt>
      <trkpt lat="46.76991" lon="3.12217">
        <ele>229.80000305176</ele>
        <time>2022-10-06T05:21:52.000Z</time>
      </trkpt>
      <trkpt lat="46.76985" lon="3.12218">
        <ele>229.80000305176</ele>
        <time>2022-10-06T05:21:53.000Z</time>
      </trkpt>
      <trkpt lat="46.7698" lon="3.12218">
        <ele>230.39999389648</ele>
        <time>2022-10-06T05:21:54.000Z</time>
      </trkpt>
      <trkpt lat="46.76967" lon="3.12219">
        <ele>231.60000610352</ele>
        <time>2022-10-06T05:21:57.000Z</time>
      </trkpt>
      <trkpt lat="46.76948" lon="3.12218">
        <ele>232.80000305176</ele>
        <time>2022-10-06T05:22:01.000Z</time>
      </trkpt>
      <trkpt lat="46.76937" lon="3.12217">
        <ele>233.60000610352</ele>
        <time>2022-10-06T05:22:03.000Z</time>
      </trkpt>
      <trkpt lat="46.76932" lon="3.12217">
        <ele>234</ele>
        <time>2022-10-06T05:22:04.000Z</time>
      </trkpt>
      <trkpt lat="46.76927" lon="3.12217">
        <ele>234</ele>
        <time>2022-10-06T05:22:05.000Z</time>
      </trkpt>
      <trkpt lat="46.76903" lon="3.12219">
        <ele>235</ele>
        <time>2022-10-06T05:22:10.000Z</time>
      </trkpt>
      <trkpt lat="46.76886" lon="3.12224">
        <ele>235.39999389648</ele>
        <time>2022-10-06T05:22:13.000Z</time>
      </trkpt>
      <trkpt lat="46.76851" lon="3.12236">
        <ele>235.39999389648</ele>
        <time>2022-10-06T05:22:19.000Z</time>
      </trkpt>
      <trkpt lat="46.76813" lon="3.12248">
        <ele>234.60000610352</ele>
        <time>2022-10-06T05:22:25.000Z</time>
      </trkpt>
      <trkpt lat="46.768" lon="3.12251">
        <ele>234.39999389648</ele>
        <time>2022-10-06T05:22:27.000Z</time>
      </trkpt>
      <trkpt lat="46.76782" lon="3.1225">
        <ele>234</ele>
        <time>2022-10-06T05:22:30.000Z</time>
      </trkpt>
      <trkpt lat="46.76774" lon="3.12249">
        <ele>233.80000305176</ele>
        <time>2022-10-06T05:22:31.000Z</time>
      </trkpt>
      <trkpt lat="46.76748" lon="3.12245">
        <ele>233</ele>
        <time>2022-10-06T05:22:35.000Z</time>
      </trkpt>
      <trkpt lat="46.76703" lon="3.12236">
        <ele>232.19999694824</ele>
        <time>2022-10-06T05:22:41.000Z</time>
      </trkpt>
      <trkpt lat="46.76695" lon="3.12234">
        <ele>232</ele>
        <time>2022-10-06T05:22:42.000Z</time>
      </trkpt>
      <trkpt lat="46.76642" lon="3.12223">
        <ele>230.80000305176</ele>
        <time>2022-10-06T05:22:49.000Z</time>
      </trkpt>
      <trkpt lat="46.76632" lon="3.12221">
        <ele>230.60000610352</ele>
        <time>2022-10-06T05:22:50.000Z</time>
      </trkpt>
      <trkpt lat="46.76594" lon="3.12209">
        <ele>229.60000610352</ele>
        <time>2022-10-06T05:22:55.000Z</time>
      </trkpt>
      <trkpt lat="46.7658" lon="3.12203">
        <ele>229.39999389648</ele>
        <time>2022-10-06T05:22:57.000Z</time>
      </trkpt>
      <trkpt lat="46.76533" lon="3.12181">
        <ele>228.80000305176</ele>
        <time>2022-10-06T05:23:04.000Z</time>
      </trkpt>
      <trkpt lat="46.76497" lon="3.12165">
        <ele>229.19999694824</ele>
        <time>2022-10-06T05:23:10.000Z</time>
      </trkpt>
      <trkpt lat="46.76467" lon="3.12152">
        <ele>230.80000305176</ele>
        <time>2022-10-06T05:23:16.000Z</time>
      </trkpt>
      <trkpt lat="46.76462" lon="3.12149">
        <ele>231.19999694824</ele>
        <time>2022-10-06T05:23:17.000Z</time>
      </trkpt>
      <trkpt lat="46.76429" lon="3.12135">
        <ele>231.80000305176</ele>
        <time>2022-10-06T05:23:22.000Z</time>
      </trkpt>
      <trkpt lat="46.7639" lon="3.12131">
        <ele>230.80000305176</ele>
        <time>2022-10-06T05:23:27.000Z</time>
      </trkpt>
      <trkpt lat="46.76347" lon="3.12137">
        <ele>229.39999389648</ele>
        <time>2022-10-06T05:23:32.000Z</time>
      </trkpt>
      <trkpt lat="46.76329" lon="3.1214">
        <ele>228.39999389648</ele>
        <time>2022-10-06T05:23:34.000Z</time>
      </trkpt>
      <trkpt lat="46.7632" lon="3.12142">
        <ele>228.19999694824</ele>
        <time>2022-10-06T05:23:35.000Z</time>
      </trkpt>
      <trkpt lat="46.76296" lon="3.12145">
        <ele>227</ele>
        <time>2022-10-06T05:23:38.000Z</time>
      </trkpt>
      <trkpt lat="46.76273" lon="3.12142">
        <ele>226.19999694824</ele>
        <time>2022-10-06T05:23:41.000Z</time>
      </trkpt>
      <trkpt lat="46.76252" lon="3.12131">
        <ele>226</ele>
        <time>2022-10-06T05:23:44.000Z</time>
      </trkpt>
      <trkpt lat="46.76246" lon="3.12126">
        <ele>226</ele>
        <time>2022-10-06T05:23:45.000Z</time>
      </trkpt>
      <trkpt lat="46.76218" lon="3.12093">
        <ele>226.80000305176</ele>
        <time>2022-10-06T05:23:51.000Z</time>
      </trkpt>
      <trkpt lat="46.76198" lon="3.12071">
        <ele>228.39999389648</ele>
        <time>2022-10-06T05:23:56.000Z</time>
      </trkpt>
      <trkpt lat="46.76194" lon="3.12066">
        <ele>228.39999389648</ele>
        <time>2022-10-06T05:23:57.000Z</time>
      </trkpt>
      <trkpt lat="46.76184" lon="3.12054">
        <ele>229.60000610352</ele>
        <time>2022-10-06T05:24:00.000Z</time>
      </trkpt>
      <trkpt lat="46.76177" lon="3.12048">
        <ele>230.19999694824</ele>
        <time>2022-10-06T05:24:02.000Z</time>
      </trkpt>
      <trkpt lat="46.76173" lon="3.12045">
        <ele>230.80000305176</ele>
        <time>2022-10-06T05:24:03.000Z</time>
      </trkpt>
      <trkpt lat="46.76169" lon="3.12042">
        <ele>231</ele>
        <time>2022-10-06T05:24:04.000Z</time>
      </trkpt>
      <trkpt lat="46.76165" lon="3.12039">
        <ele>231.39999389648</ele>
        <time>2022-10-06T05:24:05.000Z</time>
      </trkpt>
      <trkpt lat="46.76157" lon="3.12035">
        <ele>232</ele>
        <time>2022-10-06T05:24:07.000Z</time>
      </trkpt>
      <trkpt lat="46.76149" lon="3.12031">
        <ele>232.39999389648</ele>
        <time>2022-10-06T05:24:09.000Z</time>
      </trkpt>
      <trkpt lat="46.76144" lon="3.1203">
        <ele>233</ele>
        <time>2022-10-06T05:24:10.000Z</time>
      </trkpt>
      <trkpt lat="46.7614" lon="3.1203">
        <ele>233.60000610352</ele>
        <time>2022-10-06T05:24:11.000Z</time>
      </trkpt>
      <trkpt lat="46.76131" lon="3.1203">
        <ele>234.19999694824</ele>
        <time>2022-10-06T05:24:13.000Z</time>
      </trkpt>
      <trkpt lat="46.76117" lon="3.12031">
        <ele>235</ele>
        <time>2022-10-06T05:24:16.000Z</time>
      </trkpt>
      <trkpt lat="46.76112" lon="3.12031">
        <ele>235.39999389648</ele>
        <time>2022-10-06T05:24:17.000Z</time>
      </trkpt>
      <trkpt lat="46.76084" lon="3.12033">
        <ele>236.39999389648</ele>
        <time>2022-10-06T05:24:23.000Z</time>
      </trkpt>
      <trkpt lat="46.76079" lon="3.12034">
        <ele>236.60000610352</ele>
        <time>2022-10-06T05:24:24.000Z</time>
      </trkpt>
      <trkpt lat="46.7604" lon="3.12039">
        <ele>237.39999389648</ele>
        <time>2022-10-06T05:24:31.000Z</time>
      </trkpt>
      <trkpt lat="46.76" lon="3.12044">
        <ele>236.80000305176</ele>
        <time>2022-10-06T05:24:36.000Z</time>
      </trkpt>
      <trkpt lat="46.75964" lon="3.12048">
        <ele>235</ele>
        <time>2022-10-06T05:24:40.000Z</time>
      </trkpt>
      <trkpt lat="46.75944" lon="3.12049">
        <ele>233.60000610352</ele>
        <time>2022-10-06T05:24:42.000Z</time>
      </trkpt>
      <trkpt lat="46.75934" lon="3.12049">
        <ele>233.19999694824</ele>
        <time>2022-10-06T05:24:43.000Z</time>
      </trkpt>
      <trkpt lat="46.75914" lon="3.1205">
        <ele>232.39999389648</ele>
        <time>2022-10-06T05:24:45.000Z</time>
      </trkpt>
      <trkpt lat="46.75893" lon="3.12047">
        <ele>231</ele>
        <time>2022-10-06T05:24:47.000Z</time>
      </trkpt>
      <trkpt lat="46.75872" lon="3.12041">
        <ele>230.19999694824</ele>
        <time>2022-10-06T05:24:49.000Z</time>
      </trkpt>
      <trkpt lat="46.75852" lon="3.12034">
        <ele>228.19999694824</ele>
        <time>2022-10-06T05:24:51.000Z</time>
      </trkpt>
      <trkpt lat="46.75833" lon="3.12028">
        <ele>227.19999694824</ele>
        <time>2022-10-06T05:24:53.000Z</time>
      </trkpt>
      <trkpt lat="46.75806" lon="3.12019">
        <ele>226</ele>
        <time>2022-10-06T05:24:56.000Z</time>
      </trkpt>
      <trkpt lat="46.75781" lon="3.12012">
        <ele>225.60000610352</ele>
        <time>2022-10-06T05:24:59.000Z</time>
      </trkpt>
      <trkpt lat="46.75727" lon="3.11996">
        <ele>225.39999389648</ele>
        <time>2022-10-06T05:25:06.000Z</time>
      </trkpt>
      <trkpt lat="46.7572" lon="3.11994">
        <ele>225.39999389648</ele>
        <time>2022-10-06T05:25:07.000Z</time>
      </trkpt>
      <trkpt lat="46.75664" lon="3.11976">
        <ele>225.60000610352</ele>
        <time>2022-10-06T05:25:15.000Z</time>
      </trkpt>
      <trkpt lat="46.75656" lon="3.11974">
        <ele>225.60000610352</ele>
        <time>2022-10-06T05:25:16.000Z</time>
      </trkpt>
      <trkpt lat="46.75601" lon="3.11958">
        <ele>225.60000610352</ele>
        <time>2022-10-06T05:25:24.000Z</time>
      </trkpt>
      <trkpt lat="46.75594" lon="3.11955">
        <ele>225.60000610352</ele>
        <time>2022-10-06T05:25:25.000Z</time>
      </trkpt>
      <trkpt lat="46.75544" lon="3.11938">
        <ele>224.80000305176</ele>
        <time>2022-10-06T05:25:32.000Z</time>
      </trkpt>
      <trkpt lat="46.7553" lon="3.11931">
        <ele>224.80000305176</ele>
        <time>2022-10-06T05:25:34.000Z</time>
      </trkpt>
      <trkpt lat="46.75489" lon="3.11911">
        <ele>223.80000305176</ele>
        <time>2022-10-06T05:25:40.000Z</time>
      </trkpt>
      <trkpt lat="46.75464" lon="3.11898">
        <ele>223.19999694824</ele>
        <time>2022-10-06T05:25:44.000Z</time>
      </trkpt>
      <trkpt lat="46.75445" lon="3.11887">
        <ele>222.60000610352</ele>
        <time>2022-10-06T05:25:47.000Z</time>
      </trkpt>
      <trkpt lat="46.7542" lon="3.11873">
        <ele>222</ele>
        <time>2022-10-06T05:25:51.000Z</time>
      </trkpt>
      <trkpt lat="46.75409" lon="3.11864">
        <ele>221.39999389648</ele>
        <time>2022-10-06T05:25:54.000Z</time>
      </trkpt>
      <trkpt lat="46.75387" lon="3.11845">
        <ele>220.39999389648</ele>
        <time>2022-10-06T05:25:57.000Z</time>
      </trkpt>
      <trkpt lat="46.75382" lon="3.11841">
        <ele>220.19999694824</ele>
        <time>2022-10-06T05:25:58.000Z</time>
      </trkpt>
      <trkpt lat="46.75377" lon="3.11839">
        <ele>220</ele>
        <time>2022-10-06T05:25:59.000Z</time>
      </trkpt>
      <trkpt lat="46.75367" lon="3.1184">
        <ele>219.60000610352</ele>
        <time>2022-10-06T05:26:01.000Z</time>
      </trkpt>
      <trkpt lat="46.75357" lon="3.11852">
        <ele>219.19999694824</ele>
        <time>2022-10-06T05:26:03.000Z</time>
      </trkpt>
      <trkpt lat="46.75352" lon="3.11859">
        <ele>219</ele>
        <time>2022-10-06T05:26:04.000Z</time>
      </trkpt>
      <trkpt lat="46.75338" lon="3.11883">
        <ele>218.19999694824</ele>
        <time>2022-10-06T05:26:07.000Z</time>
      </trkpt>
      <trkpt lat="46.75318" lon="3.11916">
        <ele>217.60000610352</ele>
        <time>2022-10-06T05:26:11.000Z</time>
      </trkpt>
      <trkpt lat="46.75303" lon="3.1194">
        <ele>217</ele>
        <time>2022-10-06T05:26:14.000Z</time>
      </trkpt>
      <trkpt lat="46.75282" lon="3.11968">
        <ele>216.39999389648</ele>
        <time>2022-10-06T05:26:18.000Z</time>
      </trkpt>
      <trkpt lat="46.75267" lon="3.11989">
        <ele>215.80000305176</ele>
        <time>2022-10-06T05:26:21.000Z</time>
      </trkpt>
      <trkpt lat="46.75246" lon="3.12016">
        <ele>215.39999389648</ele>
        <time>2022-10-06T05:26:25.000Z</time>
      </trkpt>
      <trkpt lat="46.75204" lon="3.12069">
        <ele>215</ele>
        <time>2022-10-06T05:26:33.000Z</time>
      </trkpt>
      <trkpt lat="46.75199" lon="3.12076">
        <ele>214.80000305176</ele>
        <time>2022-10-06T05:26:34.000Z</time>
      </trkpt>
      <trkpt lat="46.75163" lon="3.12121">
        <ele>214</ele>
        <time>2022-10-06T05:26:41.000Z</time>
      </trkpt>
      <trkpt lat="46.75152" lon="3.12133">
        <ele>213.60000610352</ele>
        <time>2022-10-06T05:26:43.000Z</time>
      </trkpt>
      <trkpt lat="46.75146" lon="3.12138">
        <ele>213.60000610352</ele>
        <time>2022-10-06T05:26:44.000Z</time>
      </trkpt>
      <trkpt lat="46.75135" lon="3.12148">
        <ele>213</ele>
        <time>2022-10-06T05:26:46.000Z</time>
      </trkpt>
      <trkpt lat="46.75129" lon="3.12152">
        <ele>212.60000610352</ele>
        <time>2022-10-06T05:26:47.000Z</time>
      </trkpt>
      <trkpt lat="46.75107" lon="3.12162">
        <ele>211.60000610352</ele>
        <time>2022-10-06T05:26:50.000Z</time>
      </trkpt>
      <trkpt lat="46.75099" lon="3.12165">
        <ele>211.39999389648</ele>
        <time>2022-10-06T05:26:51.000Z</time>
      </trkpt>
      <trkpt lat="46.75043" lon="3.12181">
        <ele>210.19999694824</ele>
        <time>2022-10-06T05:26:58.000Z</time>
      </trkpt>
      <trkpt lat="46.75035" lon="3.12182">
        <ele>210</ele>
        <time>2022-10-06T05:26:59.000Z</time>
      </trkpt>
      <trkpt lat="46.75019" lon="3.12186">
        <ele>209.19999694824</ele>
        <time>2022-10-06T05:27:01.000Z</time>
      </trkpt>
      <trkpt lat="46.74996" lon="3.12193">
        <ele>207.80000305176</ele>
        <time>2022-10-06T05:27:04.000Z</time>
      </trkpt>
      <trkpt lat="46.74973" lon="3.12198">
        <ele>207.39999389648</ele>
        <time>2022-10-06T05:27:07.000Z</time>
      </trkpt>
      <trkpt lat="46.74951" lon="3.12202">
        <ele>206.60000610352</ele>
        <time>2022-10-06T05:27:10.000Z</time>
      </trkpt>
      <trkpt lat="46.74944" lon="3.12204">
        <ele>206.60000610352</ele>
        <time>2022-10-06T05:27:11.000Z</time>
      </trkpt>
      <trkpt lat="46.74931" lon="3.12211">
        <ele>206.19999694824</ele>
        <time>2022-10-06T05:27:13.000Z</time>
      </trkpt>
      <trkpt lat="46.7492" lon="3.12222">
        <ele>206</ele>
        <time>2022-10-06T05:27:15.000Z</time>
      </trkpt>
      <trkpt lat="46.74915" lon="3.1223">
        <ele>205.80000305176</ele>
        <time>2022-10-06T05:27:16.000Z</time>
      </trkpt>
      <trkpt lat="46.74901" lon="3.12254">
        <ele>205.60000610352</ele>
        <time>2022-10-06T05:27:19.000Z</time>
      </trkpt>
      <trkpt lat="46.74873" lon="3.12307">
        <ele>204.60000610352</ele>
        <time>2022-10-06T05:27:25.000Z</time>
      </trkpt>
      <trkpt lat="46.74869" lon="3.12315">
        <ele>204.39999389648</ele>
        <time>2022-10-06T05:27:26.000Z</time>
      </trkpt>
      <trkpt lat="46.7485" lon="3.12348">
        <ele>203.39999389648</ele>
        <time>2022-10-06T05:27:30.000Z</time>
      </trkpt>
      <trkpt lat="46.74838" lon="3.12366">
        <ele>202.60000610352</ele>
        <time>2022-10-06T05:27:32.000Z</time>
      </trkpt>
      <trkpt lat="46.74828" lon="3.12384">
        <ele>202</ele>
        <time>2022-10-06T05:27:34.000Z</time>
      </trkpt>
      <trkpt lat="46.74803" lon="3.12428">
        <ele>200.60000610352</ele>
        <time>2022-10-06T05:27:39.000Z</time>
      </trkpt>
      <trkpt lat="46.74796" lon="3.12443">
        <ele>200.39999389648</ele>
        <time>2022-10-06T05:27:41.000Z</time>
      </trkpt>
      <trkpt lat="46.74784" lon="3.12464">
        <ele>199.39999389648</ele>
        <time>2022-10-06T05:27:44.000Z</time>
      </trkpt>
      <trkpt lat="46.74773" lon="3.12482">
        <ele>199.19999694824</ele>
        <time>2022-10-06T05:27:47.000Z</time>
      </trkpt>
      <trkpt lat="46.74764" lon="3.12487">
        <ele>198.80000305176</ele>
        <time>2022-10-06T05:27:49.000Z</time>
      </trkpt>
      <trkpt lat="46.74759" lon="3.12486">
        <ele>198.80000305176</ele>
        <time>2022-10-06T05:27:50.000Z</time>
      </trkpt>
      <trkpt lat="46.74756" lon="3.12482">
        <ele>198.60000610352</ele>
        <time>2022-10-06T05:27:51.000Z</time>
      </trkpt>
      <trkpt lat="46.74748" lon="3.1247">
        <ele>198.39999389648</ele>
        <time>2022-10-06T05:27:53.000Z</time>
      </trkpt>
      <trkpt lat="46.74721" lon="3.12421">
        <ele>197.80000305176</ele>
        <time>2022-10-06T05:28:00.000Z</time>
      </trkpt>
      <trkpt lat="46.74691" lon="3.1238">
        <ele>197.60000610352</ele>
        <time>2022-10-06T05:28:06.000Z</time>
      </trkpt>
      <trkpt lat="46.74666" lon="3.12348">
        <ele>197.39999389648</ele>
        <time>2022-10-06T05:28:11.000Z</time>
      </trkpt>
      <trkpt lat="46.74655" lon="3.12335">
        <ele>197.19999694824</ele>
        <time>2022-10-06T05:28:13.000Z</time>
      </trkpt>
      <trkpt lat="46.74615" lon="3.12296">
        <ele>197</ele>
        <time>2022-10-06T05:28:20.000Z</time>
      </trkpt>
      <trkpt lat="46.74566" lon="3.12255">
        <ele>196.80000305176</ele>
        <time>2022-10-06T05:28:28.000Z</time>
      </trkpt>
      <trkpt lat="46.74526" lon="3.12221">
        <ele>196.60000610352</ele>
        <time>2022-10-06T05:28:35.000Z</time>
      </trkpt>
      <trkpt lat="46.7448" lon="3.12171">
        <ele>196.19999694824</ele>
        <time>2022-10-06T05:28:43.000Z</time>
      </trkpt>
      <trkpt lat="46.74451" lon="3.12145">
        <ele>196.19999694824</ele>
        <time>2022-10-06T05:28:48.000Z</time>
      </trkpt>
      <trkpt lat="46.74404" lon="3.12123">
        <ele>195.60000610352</ele>
        <time>2022-10-06T05:28:55.000Z</time>
      </trkpt>
      <trkpt lat="46.74374" lon="3.12097">
        <ele>195.39999389648</ele>
        <time>2022-10-06T05:29:00.000Z</time>
      </trkpt>
      <trkpt lat="46.74369" lon="3.1209">
        <ele>195.19999694824</ele>
        <time>2022-10-06T05:29:01.000Z</time>
      </trkpt>
      <trkpt lat="46.74356" lon="3.12068">
        <ele>194.80000305176</ele>
        <time>2022-10-06T05:29:04.000Z</time>
      </trkpt>
      <trkpt lat="46.74353" lon="3.12061">
        <ele>194.60000610352</ele>
        <time>2022-10-06T05:29:05.000Z</time>
      </trkpt>
      <trkpt lat="46.74349" lon="3.12053">
        <ele>194.19999694824</ele>
        <time>2022-10-06T05:29:06.000Z</time>
      </trkpt>
      <trkpt lat="46.74332" lon="3.12018">
        <ele>193.60000610352</ele>
        <time>2022-10-06T05:29:11.000Z</time>
      </trkpt>
      <trkpt lat="46.7432" lon="3.11996">
        <ele>193</ele>
        <time>2022-10-06T05:29:16.000Z</time>
      </trkpt>
      <trkpt lat="46.74314" lon="3.11995">
        <ele>192.80000305176</ele>
        <time>2022-10-06T05:29:18.000Z</time>
      </trkpt>
      <trkpt lat="46.74311" lon="3.11998">
        <ele>192.80000305176</ele>
        <time>2022-10-06T05:29:19.000Z</time>
      </trkpt>
      <trkpt lat="46.74308" lon="3.12002">
        <ele>192.60000610352</ele>
        <time>2022-10-06T05:29:20.000Z</time>
      </trkpt>
      <trkpt lat="46.74297" lon="3.12017">
        <ele>192.60000610352</ele>
        <time>2022-10-06T05:29:23.000Z</time>
      </trkpt>
      <trkpt lat="46.7428" lon="3.12037">
        <ele>192.39999389648</ele>
        <time>2022-10-06T05:29:27.000Z</time>
      </trkpt>
      <trkpt lat="46.7427" lon="3.12046">
        <ele>192.39999389648</ele>
        <time>2022-10-06T05:29:29.000Z</time>
      </trkpt>
      <trkpt lat="46.74264" lon="3.1205">
        <ele>192.39999389648</ele>
        <time>2022-10-06T05:29:30.000Z</time>
      </trkpt>
      <trkpt lat="46.74241" lon="3.12063">
        <ele>192.80000305176</ele>
        <time>2022-10-06T05:29:34.000Z</time>
      </trkpt>
      <trkpt lat="46.74235" lon="3.12066">
        <ele>193</ele>
        <time>2022-10-06T05:29:35.000Z</time>
      </trkpt>
      <trkpt lat="46.74188" lon="3.12086">
        <ele>192.39999389648</ele>
        <time>2022-10-06T05:29:43.000Z</time>
      </trkpt>
      <trkpt lat="46.74146" lon="3.12105">
        <ele>192.39999389648</ele>
        <time>2022-10-06T05:29:50.000Z</time>
      </trkpt>
      <trkpt lat="46.74096" lon="3.12126">
        <ele>192.39999389648</ele>
        <time>2022-10-06T05:29:58.000Z</time>
      </trkpt>
      <trkpt lat="46.74043" lon="3.12152">
        <ele>192</ele>
        <time>2022-10-06T05:30:06.000Z</time>
      </trkpt>
      <trkpt lat="46.74037" lon="3.12157">
        <ele>192</ele>
        <time>2022-10-06T05:30:07.000Z</time>
      </trkpt>
      <trkpt lat="46.74013" lon="3.12179">
        <ele>192</ele>
        <time>2022-10-06T05:30:11.000Z</time>
      </trkpt>
      <trkpt lat="46.73985" lon="3.12221">
        <ele>191.80000305176</ele>
        <time>2022-10-06T05:30:17.000Z</time>
      </trkpt>
      <trkpt lat="46.73955" lon="3.12274">
        <ele>191.80000305176</ele>
        <time>2022-10-06T05:30:24.000Z</time>
      </trkpt>
      <trkpt lat="46.73918" lon="3.12339">
        <ele>192.39999389648</ele>
        <time>2022-10-06T05:30:33.000Z</time>
      </trkpt>
      <trkpt lat="46.73893" lon="3.12384">
        <ele>192.60000610352</ele>
        <time>2022-10-06T05:30:39.000Z</time>
      </trkpt>
      <trkpt lat="46.73883" lon="3.12398">
        <ele>192.60000610352</ele>
        <time>2022-10-06T05:30:41.000Z</time>
      </trkpt>
      <trkpt lat="46.73847" lon="3.12443">
        <ele>192.60000610352</ele>
        <time>2022-10-06T05:30:48.000Z</time>
      </trkpt>
      <trkpt lat="46.73808" lon="3.12501">
        <ele>192.39999389648</ele>
        <time>2022-10-06T05:30:56.000Z</time>
      </trkpt>
      <trkpt lat="46.73804" lon="3.12509">
        <ele>192.39999389648</ele>
        <time>2022-10-06T05:30:57.000Z</time>
      </trkpt>
      <trkpt lat="46.73773" lon="3.12553">
        <ele>192</ele>
        <time>2022-10-06T05:31:03.000Z</time>
      </trkpt>
      <trkpt lat="46.73732" lon="3.12597">
        <ele>191.60000610352</ele>
        <time>2022-10-06T05:31:10.000Z</time>
      </trkpt>
      <trkpt lat="46.73686" lon="3.12652">
        <ele>191.19999694824</ele>
        <time>2022-10-06T05:31:18.000Z</time>
      </trkpt>
      <trkpt lat="46.73638" lon="3.12703">
        <ele>191.60000610352</ele>
        <time>2022-10-06T05:31:27.000Z</time>
      </trkpt>
      <trkpt lat="46.73628" lon="3.12714">
        <ele>192</ele>
        <time>2022-10-06T05:31:29.000Z</time>
      </trkpt>
      <trkpt lat="46.73606" lon="3.12733">
        <ele>192.39999389648</ele>
        <time>2022-10-06T05:31:33.000Z</time>
      </trkpt>
      <trkpt lat="46.73579" lon="3.12758">
        <ele>193.19999694824</ele>
        <time>2022-10-06T05:31:38.000Z</time>
      </trkpt>
      <trkpt lat="46.73569" lon="3.1277">
        <ele>193.19999694824</ele>
        <time>2022-10-06T05:31:40.000Z</time>
      </trkpt>
      <trkpt lat="46.73528" lon="3.12833">
        <ele>193.39999389648</ele>
        <time>2022-10-06T05:31:49.000Z</time>
      </trkpt>
      <trkpt lat="46.73523" lon="3.1284">
        <ele>193.39999389648</ele>
        <time>2022-10-06T05:31:50.000Z</time>
      </trkpt>
      <trkpt lat="46.73485" lon="3.12899">
        <ele>193.19999694824</ele>
        <time>2022-10-06T05:31:58.000Z</time>
      </trkpt>
      <trkpt lat="46.73445" lon="3.12953">
        <ele>192.80000305176</ele>
        <time>2022-10-06T05:32:06.000Z</time>
      </trkpt>
      <trkpt lat="46.73402" lon="3.13011">
        <ele>193</ele>
        <time>2022-10-06T05:32:15.000Z</time>
      </trkpt>
      <trkpt lat="46.73367" lon="3.13068">
        <ele>193.39999389648</ele>
        <time>2022-10-06T05:32:23.000Z</time>
      </trkpt>
      <trkpt lat="46.73343" lon="3.13125">
        <ele>193.39999389648</ele>
        <time>2022-10-06T05:32:30.000Z</time>
      </trkpt>
      <trkpt lat="46.73326" lon="3.13174">
        <ele>193</ele>
        <time>2022-10-06T05:32:35.000Z</time>
      </trkpt>
      <trkpt lat="46.7331" lon="3.13232">
        <ele>192.19999694824</ele>
        <time>2022-10-06T05:32:41.000Z</time>
      </trkpt>
      <trkpt lat="46.73304" lon="3.13249">
        <ele>192</ele>
        <time>2022-10-06T05:32:43.000Z</time>
      </trkpt>
      <trkpt lat="46.73293" lon="3.13272">
        <ele>191.80000305176</ele>
        <time>2022-10-06T05:32:46.000Z</time>
      </trkpt>
      <trkpt lat="46.73257" lon="3.13339">
        <ele>192</ele>
        <time>2022-10-06T05:32:55.000Z</time>
      </trkpt>
      <trkpt lat="46.7324" lon="3.13371">
        <ele>192.19999694824</ele>
        <time>2022-10-06T05:33:00.000Z</time>
      </trkpt>
      <trkpt lat="46.73227" lon="3.1341">
        <ele>193.19999694824</ele>
        <time>2022-10-06T05:33:05.000Z</time>
      </trkpt>
      <trkpt lat="46.73224" lon="3.13419">
        <ele>193.39999389648</ele>
        <time>2022-10-06T05:33:06.000Z</time>
      </trkpt>
      <trkpt lat="46.73197" lon="3.13495">
        <ele>194</ele>
        <time>2022-10-06T05:33:15.000Z</time>
      </trkpt>
      <trkpt lat="46.73187" lon="3.13521">
        <ele>194.19999694824</ele>
        <time>2022-10-06T05:33:18.000Z</time>
      </trkpt>
      <trkpt lat="46.73171" lon="3.13565">
        <ele>194.19999694824</ele>
        <time>2022-10-06T05:33:23.000Z</time>
      </trkpt>
      <trkpt lat="46.73145" lon="3.13636">
        <ele>194</ele>
        <time>2022-10-06T05:33:31.000Z</time>
      </trkpt>
      <trkpt lat="46.73116" lon="3.13713">
        <ele>194.39999389648</ele>
        <time>2022-10-06T05:33:40.000Z</time>
      </trkpt>
      <trkpt lat="46.73088" lon="3.1379">
        <ele>194.80000305176</ele>
        <time>2022-10-06T05:33:49.000Z</time>
      </trkpt>
      <trkpt lat="46.73085" lon="3.13799">
        <ele>194.60000610352</ele>
        <time>2022-10-06T05:33:50.000Z</time>
      </trkpt>
      <trkpt lat="46.73057" lon="3.13878">
        <ele>194.80000305176</ele>
        <time>2022-10-06T05:33:59.000Z</time>
      </trkpt>
      <trkpt lat="46.73051" lon="3.13895">
        <ele>194.80000305176</ele>
        <time>2022-10-06T05:34:01.000Z</time>
      </trkpt>
      <trkpt lat="46.73025" lon="3.13964">
        <ele>194.60000610352</ele>
        <time>2022-10-06T05:34:09.000Z</time>
      </trkpt>
      <trkpt lat="46.73022" lon="3.13973">
        <ele>194.60000610352</ele>
        <time>2022-10-06T05:34:10.000Z</time>
      </trkpt>
      <trkpt lat="46.72996" lon="3.14043">
        <ele>194.80000305176</ele>
        <time>2022-10-06T05:34:18.000Z</time>
      </trkpt>
      <trkpt lat="46.72993" lon="3.14051">
        <ele>194.60000610352</ele>
        <time>2022-10-06T05:34:19.000Z</time>
      </trkpt>
      <trkpt lat="46.72965" lon="3.14129">
        <ele>194.80000305176</ele>
        <time>2022-10-06T05:34:28.000Z</time>
      </trkpt>
      <trkpt lat="46.72956" lon="3.14155">
        <ele>195</ele>
        <time>2022-10-06T05:34:31.000Z</time>
      </trkpt>
      <trkpt lat="46.72942" lon="3.14189">
        <ele>195</ele>
        <time>2022-10-06T05:34:35.000Z</time>
      </trkpt>
      <trkpt lat="46.72936" lon="3.14205">
        <ele>194.80000305176</ele>
        <time>2022-10-06T05:34:37.000Z</time>
      </trkpt>
      <trkpt lat="46.72929" lon="3.14222">
        <ele>194.60000610352</ele>
        <time>2022-10-06T05:34:39.000Z</time>
      </trkpt>
      <trkpt lat="46.72917" lon="3.14259">
        <ele>194.60000610352</ele>
        <time>2022-10-06T05:34:43.000Z</time>
      </trkpt>
      <trkpt lat="46.72895" lon="3.1432">
        <ele>195.19999694824</ele>
        <time>2022-10-06T05:34:50.000Z</time>
      </trkpt>
      <trkpt lat="46.7287" lon="3.1439">
        <ele>195.19999694824</ele>
        <time>2022-10-06T05:34:58.000Z</time>
      </trkpt>
      <trkpt lat="46.72845" lon="3.1446">
        <ele>195.19999694824</ele>
        <time>2022-10-06T05:35:06.000Z</time>
      </trkpt>
      <trkpt lat="46.72842" lon="3.14469">
        <ele>195</ele>
        <time>2022-10-06T05:35:07.000Z</time>
      </trkpt>
      <trkpt lat="46.72816" lon="3.14537">
        <ele>195</ele>
        <time>2022-10-06T05:35:15.000Z</time>
      </trkpt>
      <trkpt lat="46.72814" lon="3.14546">
        <ele>195</ele>
        <time>2022-10-06T05:35:16.000Z</time>
      </trkpt>
      <trkpt lat="46.72813" lon="3.14556">
        <ele>195</ele>
        <time>2022-10-06T05:35:17.000Z</time>
      </trkpt>
      <trkpt lat="46.72816" lon="3.14575">
        <ele>195.19999694824</ele>
        <time>2022-10-06T05:35:19.000Z</time>
      </trkpt>
      <trkpt lat="46.72831" lon="3.14607">
        <ele>195.39999389648</ele>
        <time>2022-10-06T05:35:23.000Z</time>
      </trkpt>
      <trkpt lat="46.72858" lon="3.14674">
        <ele>195</ele>
        <time>2022-10-06T05:35:31.000Z</time>
      </trkpt>
      <trkpt lat="46.72865" lon="3.14694">
        <ele>194.80000305176</ele>
        <time>2022-10-06T05:35:33.000Z</time>
      </trkpt>
      <trkpt lat="46.72871" lon="3.1472">
        <ele>195</ele>
        <time>2022-10-06T05:35:36.000Z</time>
      </trkpt>
      <trkpt lat="46.72884" lon="3.14796">
        <ele>194.80000305176</ele>
        <time>2022-10-06T05:35:44.000Z</time>
      </trkpt>
      <trkpt lat="46.72884" lon="3.14858">
        <ele>194.60000610352</ele>
        <time>2022-10-06T05:35:50.000Z</time>
      </trkpt>
      <trkpt lat="46.72882" lon="3.14939">
        <ele>194.39999389648</ele>
        <time>2022-10-06T05:35:58.000Z</time>
      </trkpt>
      <trkpt lat="46.72885" lon="3.15019">
        <ele>194.19999694824</ele>
        <time>2022-10-06T05:36:06.000Z</time>
      </trkpt>
      <trkpt lat="46.72886" lon="3.15028">
        <ele>194</ele>
        <time>2022-10-06T05:36:07.000Z</time>
      </trkpt>
      <trkpt lat="46.72889" lon="3.15054">
        <ele>194</ele>
        <time>2022-10-06T05:36:10.000Z</time>
      </trkpt>
      <trkpt lat="46.72888" lon="3.15063">
        <ele>194</ele>
        <time>2022-10-06T05:36:11.000Z</time>
      </trkpt>
      <trkpt lat="46.72886" lon="3.15068">
        <ele>194</ele>
        <time>2022-10-06T05:36:12.000Z</time>
      </trkpt>
      <trkpt lat="46.72877" lon="3.15076">
        <ele>194</ele>
        <time>2022-10-06T05:36:14.000Z</time>
      </trkpt>
      <trkpt lat="46.72843" lon="3.15101">
        <ele>194</ele>
        <time>2022-10-06T05:36:20.000Z</time>
      </trkpt>
      <trkpt lat="46.72791" lon="3.15138">
        <ele>194.19999694824</ele>
        <time>2022-10-06T05:36:29.000Z</time>
      </trkpt>
      <trkpt lat="46.72743" lon="3.15174">
        <ele>194</ele>
        <time>2022-10-06T05:36:37.000Z</time>
      </trkpt>
      <trkpt lat="46.72694" lon="3.15208">
        <ele>194.39999389648</ele>
        <time>2022-10-06T05:36:45.000Z</time>
      </trkpt>
      <trkpt lat="46.72645" lon="3.15243">
        <ele>194.39999389648</ele>
        <time>2022-10-06T05:36:53.000Z</time>
      </trkpt>
      <trkpt lat="46.72638" lon="3.15248">
        <ele>194.39999389648</ele>
        <time>2022-10-06T05:36:54.000Z</time>
      </trkpt>
      <trkpt lat="46.72583" lon="3.15286">
        <ele>194.60000610352</ele>
        <time>2022-10-06T05:37:03.000Z</time>
      </trkpt>
      <trkpt lat="46.72571" lon="3.15295">
        <ele>194.60000610352</ele>
        <time>2022-10-06T05:37:05.000Z</time>
      </trkpt>
      <trkpt lat="46.7252" lon="3.15331">
        <ele>194.39999389648</ele>
        <time>2022-10-06T05:37:13.000Z</time>
      </trkpt>
      <trkpt lat="46.72502" lon="3.15342">
        <ele>194.39999389648</ele>
        <time>2022-10-06T05:37:16.000Z</time>
      </trkpt>
      <trkpt lat="46.7247" lon="3.15357">
        <ele>194.39999389648</ele>
        <time>2022-10-06T05:37:21.000Z</time>
      </trkpt>
      <trkpt lat="46.72463" lon="3.15359">
        <ele>194.39999389648</ele>
        <time>2022-10-06T05:37:22.000Z</time>
      </trkpt>
      <trkpt lat="46.72457" lon="3.15362">
        <ele>194.60000610352</ele>
        <time>2022-10-06T05:37:23.000Z</time>
      </trkpt>
      <trkpt lat="46.72445" lon="3.15371">
        <ele>194.60000610352</ele>
        <time>2022-10-06T05:37:25.000Z</time>
      </trkpt>
      <trkpt lat="46.7244" lon="3.15378">
        <ele>194.60000610352</ele>
        <time>2022-10-06T05:37:26.000Z</time>
      </trkpt>
      <trkpt lat="46.72402" lon="3.15435">
        <ele>195.19999694824</ele>
        <time>2022-10-06T05:37:34.000Z</time>
      </trkpt>
      <trkpt lat="46.72398" lon="3.15443">
        <ele>195.19999694824</ele>
        <time>2022-10-06T05:37:35.000Z</time>
      </trkpt>
      <trkpt lat="46.72385" lon="3.15466">
        <ele>195.39999389648</ele>
        <time>2022-10-06T05:37:38.000Z</time>
      </trkpt>
      <trkpt lat="46.72365" lon="3.15506">
        <ele>195.60000610352</ele>
        <time>2022-10-06T05:37:43.000Z</time>
      </trkpt>
      <trkpt lat="46.72333" lon="3.15572">
        <ele>195.19999694824</ele>
        <time>2022-10-06T05:37:51.000Z</time>
      </trkpt>
      <trkpt lat="46.72322" lon="3.15598">
        <ele>195.19999694824</ele>
        <time>2022-10-06T05:37:54.000Z</time>
      </trkpt>
      <trkpt lat="46.72299" lon="3.15661">
        <ele>195.19999694824</ele>
        <time>2022-10-06T05:38:01.000Z</time>
      </trkpt>
      <trkpt lat="46.72297" lon="3.15668">
        <ele>195.19999694824</ele>
        <time>2022-10-06T05:38:02.000Z</time>
      </trkpt>
      <trkpt lat="46.72282" lon="3.157">
        <ele>195.39999389648</ele>
        <time>2022-10-06T05:38:06.000Z</time>
      </trkpt>
      <trkpt lat="46.72252" lon="3.15754">
        <ele>195.60000610352</ele>
        <time>2022-10-06T05:38:13.000Z</time>
      </trkpt>
      <trkpt lat="46.72217" lon="3.15813">
        <ele>195.39999389648</ele>
        <time>2022-10-06T05:38:21.000Z</time>
      </trkpt>
      <trkpt lat="46.72188" lon="3.15865">
        <ele>195</ele>
        <time>2022-10-06T05:38:28.000Z</time>
      </trkpt>
      <trkpt lat="46.72148" lon="3.15931">
        <ele>195</ele>
        <time>2022-10-06T05:38:37.000Z</time>
      </trkpt>
      <trkpt lat="46.72112" lon="3.15991">
        <ele>195.19999694824</ele>
        <time>2022-10-06T05:38:45.000Z</time>
      </trkpt>
      <trkpt lat="46.72108" lon="3.15998">
        <ele>195.19999694824</ele>
        <time>2022-10-06T05:38:46.000Z</time>
      </trkpt>
      <trkpt lat="46.72081" lon="3.16034">
        <ele>195</ele>
        <time>2022-10-06T05:38:52.000Z</time>
      </trkpt>
      <trkpt lat="46.72072" lon="3.16043">
        <ele>194.80000305176</ele>
        <time>2022-10-06T05:38:56.000Z</time>
      </trkpt>
      <trkpt lat="46.72072" lon="3.16044">
        <ele>194.60000610352</ele>
        <time>2022-10-06T05:39:00.000Z</time>
      </trkpt>
      <trkpt lat="46.72072" lon="3.16044">
        <ele>194.39999389648</ele>
        <time>2022-10-06T05:39:24.000Z</time>
      </trkpt>
      <trkpt lat="46.72072" lon="3.16044">
        <ele>194.19999694824</ele>
        <time>2022-10-06T05:39:49.000Z</time>
      </trkpt>
      <trkpt lat="46.72068" lon="3.16051">
        <ele>194.19999694824</ele>
        <time>2022-10-06T05:40:57.000Z</time>
      </trkpt>
      <trkpt lat="46.72055" lon="3.16064">
        <ele>194.60000610352</ele>
        <time>2022-10-06T05:41:02.000Z</time>
      </trkpt>
      <trkpt lat="46.7203" lon="3.16086">
        <ele>194.80000305176</ele>
        <time>2022-10-06T05:41:08.000Z</time>
      </trkpt>
      <trkpt lat="46.72011" lon="3.161">
        <ele>195.19999694824</ele>
        <time>2022-10-06T05:41:12.000Z</time>
      </trkpt>
      <trkpt lat="46.72006" lon="3.16103">
        <ele>195.19999694824</ele>
        <time>2022-10-06T05:41:13.000Z</time>
      </trkpt>
      <trkpt lat="46.7199" lon="3.16113">
        <ele>195.19999694824</ele>
        <time>2022-10-06T05:41:16.000Z</time>
      </trkpt>
      <trkpt lat="46.71944" lon="3.16143">
        <ele>195</ele>
        <time>2022-10-06T05:41:24.000Z</time>
      </trkpt>
      <trkpt lat="46.71906" lon="3.16167">
        <ele>195</ele>
        <time>2022-10-06T05:41:30.000Z</time>
      </trkpt>
      <trkpt lat="46.71853" lon="3.16202">
        <ele>194.80000305176</ele>
        <time>2022-10-06T05:41:38.000Z</time>
      </trkpt>
      <trkpt lat="46.71804" lon="3.16238">
        <ele>195.19999694824</ele>
        <time>2022-10-06T05:41:46.000Z</time>
      </trkpt>
      <trkpt lat="46.71798" lon="3.16242">
        <ele>195.19999694824</ele>
        <time>2022-10-06T05:41:47.000Z</time>
      </trkpt>
      <trkpt lat="46.71749" lon="3.16279">
        <ele>195.39999389648</ele>
        <time>2022-10-06T05:41:55.000Z</time>
      </trkpt>
      <trkpt lat="46.71743" lon="3.16284">
        <ele>195.39999389648</ele>
        <time>2022-10-06T05:41:56.000Z</time>
      </trkpt>
      <trkpt lat="46.71694" lon="3.16319">
        <ele>195.39999389648</ele>
        <time>2022-10-06T05:42:04.000Z</time>
      </trkpt>
      <trkpt lat="46.71651" lon="3.16351">
        <ele>195.39999389648</ele>
        <time>2022-10-06T05:42:11.000Z</time>
      </trkpt>
      <trkpt lat="46.71602" lon="3.1639">
        <ele>195.39999389648</ele>
        <time>2022-10-06T05:42:19.000Z</time>
      </trkpt>
      <trkpt lat="46.71556" lon="3.16434">
        <ele>195.39999389648</ele>
        <time>2022-10-06T05:42:27.000Z</time>
      </trkpt>
      <trkpt lat="46.7155" lon="3.1644">
        <ele>195.39999389648</ele>
        <time>2022-10-06T05:42:28.000Z</time>
      </trkpt>
      <trkpt lat="46.71507" lon="3.1649">
        <ele>195.60000610352</ele>
        <time>2022-10-06T05:42:36.000Z</time>
      </trkpt>
      <trkpt lat="46.7147" lon="3.16547">
        <ele>195.80000305176</ele>
        <time>2022-10-06T05:42:44.000Z</time>
      </trkpt>
      <trkpt lat="46.71456" lon="3.16568">
        <ele>196</ele>
        <time>2022-10-06T05:42:47.000Z</time>
      </trkpt>
      <trkpt lat="46.71421" lon="3.1661">
        <ele>196</ele>
        <time>2022-10-06T05:42:54.000Z</time>
      </trkpt>
      <trkpt lat="46.71379" lon="3.1664">
        <ele>196</ele>
        <time>2022-10-06T05:43:01.000Z</time>
      </trkpt>
      <trkpt lat="46.71326" lon="3.16663">
        <ele>195.80000305176</ele>
        <time>2022-10-06T05:43:09.000Z</time>
      </trkpt>
      <trkpt lat="46.71313" lon="3.1667">
        <ele>195.80000305176</ele>
        <time>2022-10-06T05:43:11.000Z</time>
      </trkpt>
      <trkpt lat="46.71261" lon="3.16703">
        <ele>196</ele>
        <time>2022-10-06T05:43:19.000Z</time>
      </trkpt>
      <trkpt lat="46.71209" lon="3.16739">
        <ele>196</ele>
        <time>2022-10-06T05:43:27.000Z</time>
      </trkpt>
      <trkpt lat="46.71179" lon="3.16761">
        <ele>196.19999694824</ele>
        <time>2022-10-06T05:43:32.000Z</time>
      </trkpt>
      <trkpt lat="46.71138" lon="3.16797">
        <ele>196.39999389648</ele>
        <time>2022-10-06T05:43:39.000Z</time>
      </trkpt>
      <trkpt lat="46.71132" lon="3.16804">
        <ele>196.39999389648</ele>
        <time>2022-10-06T05:43:40.000Z</time>
      </trkpt>
      <trkpt lat="46.7109" lon="3.16855">
        <ele>196.19999694824</ele>
        <time>2022-10-06T05:43:48.000Z</time>
      </trkpt>
      <trkpt lat="46.71079" lon="3.1687">
        <ele>196.19999694824</ele>
        <time>2022-10-06T05:43:50.000Z</time>
      </trkpt>
      <trkpt lat="46.71039" lon="3.16924">
        <ele>196.39999389648</ele>
        <time>2022-10-06T05:43:58.000Z</time>
      </trkpt>
      <trkpt lat="46.71024" lon="3.16944">
        <ele>196.39999389648</ele>
        <time>2022-10-06T05:44:01.000Z</time>
      </trkpt>
      <trkpt lat="46.7098" lon="3.17005">
        <ele>196.19999694824</ele>
        <time>2022-10-06T05:44:10.000Z</time>
      </trkpt>
      <trkpt lat="46.70956" lon="3.17031">
        <ele>196</ele>
        <time>2022-10-06T05:44:14.000Z</time>
      </trkpt>
      <trkpt lat="46.70949" lon="3.17036">
        <ele>196</ele>
        <time>2022-10-06T05:44:15.000Z</time>
      </trkpt>
      <trkpt lat="46.70918" lon="3.17047">
        <ele>195.19999694824</ele>
        <time>2022-10-06T05:44:19.000Z</time>
      </trkpt>
      <trkpt lat="46.70904" lon="3.17052">
        <ele>194.80000305176</ele>
        <time>2022-10-06T05:44:21.000Z</time>
      </trkpt>
      <trkpt lat="46.7088" lon="3.17071">
        <ele>194.80000305176</ele>
        <time>2022-10-06T05:44:25.000Z</time>
      </trkpt>
      <trkpt lat="46.70842" lon="3.17108">
        <ele>196</ele>
        <time>2022-10-06T05:44:32.000Z</time>
      </trkpt>
      <trkpt lat="46.70827" lon="3.17127">
        <ele>196.19999694824</ele>
        <time>2022-10-06T05:44:35.000Z</time>
      </trkpt>
      <trkpt lat="46.70802" lon="3.17161">
        <ele>196.39999389648</ele>
        <time>2022-10-06T05:44:40.000Z</time>
      </trkpt>
      <trkpt lat="46.70759" lon="3.17221">
        <ele>196.80000305176</ele>
        <time>2022-10-06T05:44:49.000Z</time>
      </trkpt>
      <trkpt lat="46.7075" lon="3.17235">
        <ele>196.80000305176</ele>
        <time>2022-10-06T05:44:51.000Z</time>
      </trkpt>
      <trkpt lat="46.70707" lon="3.17296">
        <ele>197</ele>
        <time>2022-10-06T05:45:00.000Z</time>
      </trkpt>
      <trkpt lat="46.70702" lon="3.17303">
        <ele>197</ele>
        <time>2022-10-06T05:45:01.000Z</time>
      </trkpt>
      <trkpt lat="46.70663" lon="3.17359">
        <ele>197</ele>
        <time>2022-10-06T05:45:09.000Z</time>
      </trkpt>
      <trkpt lat="46.70638" lon="3.17395">
        <ele>197</ele>
        <time>2022-10-06T05:45:14.000Z</time>
      </trkpt>
      <trkpt lat="46.70596" lon="3.17455">
        <ele>196.80000305176</ele>
        <time>2022-10-06T05:45:23.000Z</time>
      </trkpt>
      <trkpt lat="46.70586" lon="3.1747">
        <ele>196.80000305176</ele>
        <time>2022-10-06T05:45:25.000Z</time>
      </trkpt>
      <trkpt lat="46.70543" lon="3.1753">
        <ele>197</ele>
        <time>2022-10-06T05:45:34.000Z</time>
      </trkpt>
      <trkpt lat="46.7053" lon="3.17549">
        <ele>197.19999694824</ele>
        <time>2022-10-06T05:45:37.000Z</time>
      </trkpt>
      <trkpt lat="46.70525" lon="3.17556">
        <ele>197.39999389648</ele>
        <time>2022-10-06T05:45:38.000Z</time>
      </trkpt>
      <trkpt lat="46.70486" lon="3.17612">
        <ele>197.19999694824</ele>
        <time>2022-10-06T05:45:46.000Z</time>
      </trkpt>
      <trkpt lat="46.7048" lon="3.17621">
        <ele>197.19999694824</ele>
        <time>2022-10-06T05:45:47.000Z</time>
      </trkpt>
      <trkpt lat="46.70442" lon="3.17676">
        <ele>197.39999389648</ele>
        <time>2022-10-06T05:45:55.000Z</time>
      </trkpt>
      <trkpt lat="46.70403" lon="3.17732">
        <ele>197.39999389648</ele>
        <time>2022-10-06T05:46:03.000Z</time>
      </trkpt>
      <trkpt lat="46.70389" lon="3.17751">
        <ele>197.39999389648</ele>
        <time>2022-10-06T05:46:06.000Z</time>
      </trkpt>
      <trkpt lat="46.70351" lon="3.17807">
        <ele>197.39999389648</ele>
        <time>2022-10-06T05:46:14.000Z</time>
      </trkpt>
      <trkpt lat="46.70346" lon="3.17814">
        <ele>197.39999389648</ele>
        <time>2022-10-06T05:46:15.000Z</time>
      </trkpt>
      <trkpt lat="46.70306" lon="3.1787">
        <ele>197.39999389648</ele>
        <time>2022-10-06T05:46:23.000Z</time>
      </trkpt>
      <trkpt lat="46.70289" lon="3.17893">
        <ele>197.39999389648</ele>
        <time>2022-10-06T05:46:26.000Z</time>
      </trkpt>
      <trkpt lat="46.70252" lon="3.17953">
        <ele>197.19999694824</ele>
        <time>2022-10-06T05:46:34.000Z</time>
      </trkpt>
      <trkpt lat="46.70248" lon="3.1796">
        <ele>197.19999694824</ele>
        <time>2022-10-06T05:46:35.000Z</time>
      </trkpt>
      <trkpt lat="46.70214" lon="3.18023">
        <ele>197.39999389648</ele>
        <time>2022-10-06T05:46:43.000Z</time>
      </trkpt>
      <trkpt lat="46.7018" lon="3.18088">
        <ele>197.19999694824</ele>
        <time>2022-10-06T05:46:51.000Z</time>
      </trkpt>
      <trkpt lat="46.70171" lon="3.18105">
        <ele>197.19999694824</ele>
        <time>2022-10-06T05:46:53.000Z</time>
      </trkpt>
      <trkpt lat="46.70133" lon="3.18174">
        <ele>197.39999389648</ele>
        <time>2022-10-06T05:47:02.000Z</time>
      </trkpt>
      <trkpt lat="46.70125" lon="3.1819">
        <ele>197.39999389648</ele>
        <time>2022-10-06T05:47:04.000Z</time>
      </trkpt>
      <trkpt lat="46.70085" lon="3.18247">
        <ele>197.39999389648</ele>
        <time>2022-10-06T05:47:12.000Z</time>
      </trkpt>
      <trkpt lat="46.70076" lon="3.18259">
        <ele>197.60000610352</ele>
        <time>2022-10-06T05:47:14.000Z</time>
      </trkpt>
      <trkpt lat="46.70036" lon="3.18312">
        <ele>197.60000610352</ele>
        <time>2022-10-06T05:47:22.000Z</time>
      </trkpt>
      <trkpt lat="46.7002" lon="3.18332">
        <ele>197.60000610352</ele>
        <time>2022-10-06T05:47:25.000Z</time>
      </trkpt>
      <trkpt lat="46.69979" lon="3.18386">
        <ele>197.60000610352</ele>
        <time>2022-10-06T05:47:33.000Z</time>
      </trkpt>
      <trkpt lat="46.69974" lon="3.18392">
        <ele>197.60000610352</ele>
        <time>2022-10-06T05:47:34.000Z</time>
      </trkpt>
      <trkpt lat="46.6993" lon="3.18437">
        <ele>197.39999389648</ele>
        <time>2022-10-06T05:47:42.000Z</time>
      </trkpt>
      <trkpt lat="46.69886" lon="3.18483">
        <ele>197.19999694824</ele>
        <time>2022-10-06T05:47:50.000Z</time>
      </trkpt>
      <trkpt lat="46.69877" lon="3.18492">
        <ele>197.19999694824</ele>
        <time>2022-10-06T05:47:52.000Z</time>
      </trkpt>
      <trkpt lat="46.69872" lon="3.18498">
        <ele>197</ele>
        <time>2022-10-06T05:47:53.000Z</time>
      </trkpt>
      <trkpt lat="46.69867" lon="3.18509">
        <ele>197.19999694824</ele>
        <time>2022-10-06T05:47:55.000Z</time>
      </trkpt>
      <trkpt lat="46.69865" lon="3.18517">
        <ele>197</ele>
        <time>2022-10-06T05:47:56.000Z</time>
      </trkpt>
      <trkpt lat="46.69864" lon="3.18524">
        <ele>197</ele>
        <time>2022-10-06T05:47:57.000Z</time>
      </trkpt>
      <trkpt lat="46.69866" lon="3.18549">
        <ele>196.60000610352</ele>
        <time>2022-10-06T05:48:00.000Z</time>
      </trkpt>
      <trkpt lat="46.69878" lon="3.18614">
        <ele>196.39999389648</ele>
        <time>2022-10-06T05:48:08.000Z</time>
      </trkpt>
      <trkpt lat="46.69881" lon="3.18639">
        <ele>196.60000610352</ele>
        <time>2022-10-06T05:48:11.000Z</time>
      </trkpt>
      <trkpt lat="46.69881" lon="3.18657">
        <ele>196.60000610352</ele>
        <time>2022-10-06T05:48:13.000Z</time>
      </trkpt>
      <trkpt lat="46.69879" lon="3.18683">
        <ele>197</ele>
        <time>2022-10-06T05:48:16.000Z</time>
      </trkpt>
      <trkpt lat="46.69875" lon="3.18696">
        <ele>197</ele>
        <time>2022-10-06T05:48:18.000Z</time>
      </trkpt>
      <trkpt lat="46.69872" lon="3.18701">
        <ele>197</ele>
        <time>2022-10-06T05:48:19.000Z</time>
      </trkpt>
      <trkpt lat="46.69867" lon="3.18706">
        <ele>196.80000305176</ele>
        <time>2022-10-06T05:48:21.000Z</time>
      </trkpt>
      <trkpt lat="46.69862" lon="3.18717">
        <ele>197.19999694824</ele>
        <time>2022-10-06T05:48:24.000Z</time>
      </trkpt>
      <trkpt lat="46.69862" lon="3.18722">
        <ele>197.19999694824</ele>
        <time>2022-10-06T05:48:25.000Z</time>
      </trkpt>
      <trkpt lat="46.69866" lon="3.18746">
        <ele>197.19999694824</ele>
        <time>2022-10-06T05:48:30.000Z</time>
      </trkpt>
      <trkpt lat="46.69864" lon="3.18761">
        <ele>197.19999694824</ele>
        <time>2022-10-06T05:48:31.000Z</time>
      </trkpt>
      <trkpt lat="46.6986" lon="3.18767">
        <ele>197.19999694824</ele>
        <time>2022-10-06T05:48:32.000Z</time>
      </trkpt>
      <trkpt lat="46.69854" lon="3.18772">
        <ele>197.19999694824</ele>
        <time>2022-10-06T05:48:33.000Z</time>
      </trkpt>
      <trkpt lat="46.69832" lon="3.18788">
        <ele>197</ele>
        <time>2022-10-06T05:48:37.000Z</time>
      </trkpt>
      <trkpt lat="46.69796" lon="3.18816">
        <ele>197.19999694824</ele>
        <time>2022-10-06T05:48:43.000Z</time>
      </trkpt>
      <trkpt lat="46.69766" lon="3.18836">
        <ele>197.39999389648</ele>
        <time>2022-10-06T05:48:48.000Z</time>
      </trkpt>
      <trkpt lat="46.6976" lon="3.18838">
        <ele>197.19999694824</ele>
        <time>2022-10-06T05:48:49.000Z</time>
      </trkpt>
      <trkpt lat="46.69744" lon="3.18844">
        <ele>197.19999694824</ele>
        <time>2022-10-06T05:48:52.000Z</time>
      </trkpt>
      <trkpt lat="46.69742" lon="3.18846">
        <ele>197.19999694824</ele>
        <time>2022-10-06T05:48:53.000Z</time>
      </trkpt>
      <trkpt lat="46.69737" lon="3.18853">
        <ele>197.19999694824</ele>
        <time>2022-10-06T05:48:56.000Z</time>
      </trkpt>
      <trkpt lat="46.69742" lon="3.18874">
        <ele>197.19999694824</ele>
        <time>2022-10-06T05:49:00.000Z</time>
      </trkpt>
      <trkpt lat="46.69752" lon="3.18912">
        <ele>197.19999694824</ele>
        <time>2022-10-06T05:49:05.000Z</time>
      </trkpt>
      <trkpt lat="46.69769" lon="3.18976">
        <ele>197.60000610352</ele>
        <time>2022-10-06T05:49:12.000Z</time>
      </trkpt>
      <trkpt lat="46.69774" lon="3.18994">
        <ele>197.80000305176</ele>
        <time>2022-10-06T05:49:14.000Z</time>
      </trkpt>
      <trkpt lat="46.69789" lon="3.19032">
        <ele>198</ele>
        <time>2022-10-06T05:49:19.000Z</time>
      </trkpt>
      <trkpt lat="46.69796" lon="3.19048">
        <ele>198</ele>
        <time>2022-10-06T05:49:21.000Z</time>
      </trkpt>
      <trkpt lat="46.69824" lon="3.19111">
        <ele>198.19999694824</ele>
        <time>2022-10-06T05:49:29.000Z</time>
      </trkpt>
      <trkpt lat="46.69854" lon="3.19182">
        <ele>198.19999694824</ele>
        <time>2022-10-06T05:49:38.000Z</time>
      </trkpt>
      <trkpt lat="46.69861" lon="3.19198">
        <ele>198.19999694824</ele>
        <time>2022-10-06T05:49:40.000Z</time>
      </trkpt>
      <trkpt lat="46.69894" lon="3.19269">
        <ele>198.39999389648</ele>
        <time>2022-10-06T05:49:49.000Z</time>
      </trkpt>
      <trkpt lat="46.69925" lon="3.19332">
        <ele>198.80000305176</ele>
        <time>2022-10-06T05:49:57.000Z</time>
      </trkpt>
      <trkpt lat="46.6996" lon="3.19377">
        <ele>198.80000305176</ele>
        <time>2022-10-06T05:50:04.000Z</time>
      </trkpt>
      <trkpt lat="46.69975" lon="3.19396">
        <ele>199.19999694824</ele>
        <time>2022-10-06T05:50:07.000Z</time>
      </trkpt>
      <trkpt lat="46.7001" lon="3.19442">
        <ele>199.60000610352</ele>
        <time>2022-10-06T05:50:14.000Z</time>
      </trkpt>
      <trkpt lat="46.70051" lon="3.19496">
        <ele>199.60000610352</ele>
        <time>2022-10-06T05:50:22.000Z</time>
      </trkpt>
      <trkpt lat="46.70061" lon="3.19511">
        <ele>199.60000610352</ele>
        <time>2022-10-06T05:50:24.000Z</time>
      </trkpt>
      <trkpt lat="46.70093" lon="3.19565">
        <ele>199.60000610352</ele>
        <time>2022-10-06T05:50:31.000Z</time>
      </trkpt>
      <trkpt lat="46.70126" lon="3.19629">
        <ele>199.39999389648</ele>
        <time>2022-10-06T05:50:39.000Z</time>
      </trkpt>
      <trkpt lat="46.70134" lon="3.19646">
        <ele>199.39999389648</ele>
        <time>2022-10-06T05:50:41.000Z</time>
      </trkpt>
      <trkpt lat="46.70166" lon="3.1971">
        <ele>199.60000610352</ele>
        <time>2022-10-06T05:50:49.000Z</time>
      </trkpt>
      <trkpt lat="46.7019" lon="3.19759">
        <ele>200</ele>
        <time>2022-10-06T05:50:55.000Z</time>
      </trkpt>
      <trkpt lat="46.70222" lon="3.19822">
        <ele>200.19999694824</ele>
        <time>2022-10-06T05:51:03.000Z</time>
      </trkpt>
      <trkpt lat="46.70238" lon="3.19854">
        <ele>200.39999389648</ele>
        <time>2022-10-06T05:51:07.000Z</time>
      </trkpt>
      <trkpt lat="46.70266" lon="3.19922">
        <ele>200.60000610352</ele>
        <time>2022-10-06T05:51:15.000Z</time>
      </trkpt>
      <trkpt lat="46.70276" lon="3.19949">
        <ele>200.80000305176</ele>
        <time>2022-10-06T05:51:18.000Z</time>
      </trkpt>
      <trkpt lat="46.70298" lon="3.20028">
        <ele>201</ele>
        <time>2022-10-06T05:51:27.000Z</time>
      </trkpt>
      <trkpt lat="46.70306" lon="3.20064">
        <ele>201</ele>
        <time>2022-10-06T05:51:31.000Z</time>
      </trkpt>
      <trkpt lat="46.70309" lon="3.20088">
        <ele>201.19999694824</ele>
        <time>2022-10-06T05:51:34.000Z</time>
      </trkpt>
      <trkpt lat="46.7031" lon="3.20095">
        <ele>201.19999694824</ele>
        <time>2022-10-06T05:51:35.000Z</time>
      </trkpt>
      <trkpt lat="46.70311" lon="3.20119">
        <ele>201.39999389648</ele>
        <time>2022-10-06T05:51:38.000Z</time>
      </trkpt>
      <trkpt lat="46.7031" lon="3.20128">
        <ele>201.39999389648</ele>
        <time>2022-10-06T05:51:39.000Z</time>
      </trkpt>
      <trkpt lat="46.70308" lon="3.20135">
        <ele>201.60000610352</ele>
        <time>2022-10-06T05:51:40.000Z</time>
      </trkpt>
      <trkpt lat="46.70303" lon="3.2015">
        <ele>201.60000610352</ele>
        <time>2022-10-06T05:51:42.000Z</time>
      </trkpt>
      <trkpt lat="46.703" lon="3.20163">
        <ele>201.39999389648</ele>
        <time>2022-10-06T05:51:45.000Z</time>
      </trkpt>
      <trkpt lat="46.70298" lon="3.20184">
        <ele>201</ele>
        <time>2022-10-06T05:51:50.000Z</time>
      </trkpt>
      <trkpt lat="46.70298" lon="3.20197">
        <ele>201.19999694824</ele>
        <time>2022-10-06T05:51:52.000Z</time>
      </trkpt>
      <trkpt lat="46.703" lon="3.20214">
        <ele>201.19999694824</ele>
        <time>2022-10-06T05:51:54.000Z</time>
      </trkpt>
      <trkpt lat="46.70306" lon="3.20231">
        <ele>201.39999389648</ele>
        <time>2022-10-06T05:51:56.000Z</time>
      </trkpt>
      <trkpt lat="46.70307" lon="3.2025">
        <ele>201.39999389648</ele>
        <time>2022-10-06T05:51:58.000Z</time>
      </trkpt>
      <trkpt lat="46.70302" lon="3.2032">
        <ele>201.60000610352</ele>
        <time>2022-10-06T05:52:05.000Z</time>
      </trkpt>
      <trkpt lat="46.70305" lon="3.20376">
        <ele>201.80000305176</ele>
        <time>2022-10-06T05:52:11.000Z</time>
      </trkpt>
      <trkpt lat="46.70318" lon="3.20439">
        <ele>202.19999694824</ele>
        <time>2022-10-06T05:52:18.000Z</time>
      </trkpt>
      <trkpt lat="46.7032" lon="3.20447">
        <ele>202.39999389648</ele>
        <time>2022-10-06T05:52:19.000Z</time>
      </trkpt>
      <trkpt lat="46.70347" lon="3.20523">
        <ele>202.80000305176</ele>
        <time>2022-10-06T05:52:28.000Z</time>
      </trkpt>
      <trkpt lat="46.7035" lon="3.20531">
        <ele>203</ele>
        <time>2022-10-06T05:52:29.000Z</time>
      </trkpt>
      <trkpt lat="46.70379" lon="3.20599">
        <ele>203.19999694824</ele>
        <time>2022-10-06T05:52:37.000Z</time>
      </trkpt>
      <trkpt lat="46.70386" lon="3.20615">
        <ele>203.19999694824</ele>
        <time>2022-10-06T05:52:39.000Z</time>
      </trkpt>
      <trkpt lat="46.70416" lon="3.2069">
        <ele>204.39999389648</ele>
        <time>2022-10-06T05:52:48.000Z</time>
      </trkpt>
      <trkpt lat="46.70419" lon="3.20697">
        <ele>204.39999389648</ele>
        <time>2022-10-06T05:52:49.000Z</time>
      </trkpt>
      <trkpt lat="46.70446" lon="3.2077">
        <ele>205.19999694824</ele>
        <time>2022-10-06T05:52:58.000Z</time>
      </trkpt>
      <trkpt lat="46.70455" lon="3.20795">
        <ele>205.39999389648</ele>
        <time>2022-10-06T05:53:01.000Z</time>
      </trkpt>
      <trkpt lat="46.70475" lon="3.2085">
        <ele>206</ele>
        <time>2022-10-06T05:53:08.000Z</time>
      </trkpt>
      <trkpt lat="46.70491" lon="3.20899">
        <ele>206.39999389648</ele>
        <time>2022-10-06T05:53:14.000Z</time>
      </trkpt>
      <trkpt lat="46.70501" lon="3.20928">
        <ele>207</ele>
        <time>2022-10-06T05:53:18.000Z</time>
      </trkpt>
      <trkpt lat="46.7052" lon="3.20984">
        <ele>207.39999389648</ele>
        <time>2022-10-06T05:53:25.000Z</time>
      </trkpt>
      <trkpt lat="46.70527" lon="3.21005">
        <ele>208</ele>
        <time>2022-10-06T05:53:28.000Z</time>
      </trkpt>
      <trkpt lat="46.70538" lon="3.21033">
        <ele>208.60000610352</ele>
        <time>2022-10-06T05:53:32.000Z</time>
      </trkpt>
      <trkpt lat="46.70556" lon="3.21074">
        <ele>209.19999694824</ele>
        <time>2022-10-06T05:53:38.000Z</time>
      </trkpt>
      <trkpt lat="46.70562" lon="3.21087">
        <ele>209.60000610352</ele>
        <time>2022-10-06T05:53:40.000Z</time>
      </trkpt>
      <trkpt lat="46.70568" lon="3.21101">
        <ele>209.80000305176</ele>
        <time>2022-10-06T05:53:42.000Z</time>
      </trkpt>
      <trkpt lat="46.70568" lon="3.21109">
        <ele>209.80000305176</ele>
        <time>2022-10-06T05:53:43.000Z</time>
      </trkpt>
      <trkpt lat="46.70567" lon="3.21117">
        <ele>210</ele>
        <time>2022-10-06T05:53:44.000Z</time>
      </trkpt>
      <trkpt lat="46.70561" lon="3.21131">
        <ele>210.39999389648</ele>
        <time>2022-10-06T05:53:46.000Z</time>
      </trkpt>
      <trkpt lat="46.70551" lon="3.2114">
        <ele>210.60000610352</ele>
        <time>2022-10-06T05:53:48.000Z</time>
      </trkpt>
      <trkpt lat="46.7054" lon="3.21145">
        <ele>210.80000305176</ele>
        <time>2022-10-06T05:53:50.000Z</time>
      </trkpt>
      <trkpt lat="46.70522" lon="3.21152">
        <ele>211</ele>
        <time>2022-10-06T05:53:53.000Z</time>
      </trkpt>
      <trkpt lat="46.70508" lon="3.21165">
        <ele>211.19999694824</ele>
        <time>2022-10-06T05:53:56.000Z</time>
      </trkpt>
      <trkpt lat="46.705" lon="3.21175">
        <ele>211.19999694824</ele>
        <time>2022-10-06T05:53:58.000Z</time>
      </trkpt>
      <trkpt lat="46.70493" lon="3.21187">
        <ele>211.19999694824</ele>
        <time>2022-10-06T05:54:00.000Z</time>
      </trkpt>
      <trkpt lat="46.70467" lon="3.21226">
        <ele>211.19999694824</ele>
        <time>2022-10-06T05:54:06.000Z</time>
      </trkpt>
      <trkpt lat="46.70439" lon="3.21276">
        <ele>211</ele>
        <time>2022-10-06T05:54:13.000Z</time>
      </trkpt>
      <trkpt lat="46.7041" lon="3.21313">
        <ele>210.80000305176</ele>
        <time>2022-10-06T05:54:19.000Z</time>
      </trkpt>
      <trkpt lat="46.70391" lon="3.21326">
        <ele>210.80000305176</ele>
        <time>2022-10-06T05:54:22.000Z</time>
      </trkpt>
      <trkpt lat="46.7038" lon="3.21332">
        <ele>210.80000305176</ele>
        <time>2022-10-06T05:54:24.000Z</time>
      </trkpt>
      <trkpt lat="46.70329" lon="3.21353">
        <ele>210.19999694824</ele>
        <time>2022-10-06T05:54:32.000Z</time>
      </trkpt>
      <trkpt lat="46.70276" lon="3.21374">
        <ele>210.19999694824</ele>
        <time>2022-10-06T05:54:40.000Z</time>
      </trkpt>
      <trkpt lat="46.70269" lon="3.21376">
        <ele>210.19999694824</ele>
        <time>2022-10-06T05:54:41.000Z</time>
      </trkpt>
      <trkpt lat="46.70212" lon="3.21397">
        <ele>209.80000305176</ele>
        <time>2022-10-06T05:54:49.000Z</time>
      </trkpt>
      <trkpt lat="46.70197" lon="3.21398">
        <ele>209.60000610352</ele>
        <time>2022-10-06T05:54:51.000Z</time>
      </trkpt>
      <trkpt lat="46.70182" lon="3.21396">
        <ele>209.60000610352</ele>
        <time>2022-10-06T05:54:53.000Z</time>
      </trkpt>
      <trkpt lat="46.70152" lon="3.21393">
        <ele>209.60000610352</ele>
        <time>2022-10-06T05:54:57.000Z</time>
      </trkpt>
      <trkpt lat="46.70137" lon="3.21397">
        <ele>209.39999389648</ele>
        <time>2022-10-06T05:54:59.000Z</time>
      </trkpt>
      <trkpt lat="46.70103" lon="3.2142">
        <ele>209</ele>
        <time>2022-10-06T05:55:04.000Z</time>
      </trkpt>
      <trkpt lat="46.70067" lon="3.21457">
        <ele>208.80000305176</ele>
        <time>2022-10-06T05:55:10.000Z</time>
      </trkpt>
      <trkpt lat="46.70056" lon="3.21472">
        <ele>208.60000610352</ele>
        <time>2022-10-06T05:55:12.000Z</time>
      </trkpt>
      <trkpt lat="46.70014" lon="3.21529">
        <ele>208.39999389648</ele>
        <time>2022-10-06T05:55:20.000Z</time>
      </trkpt>
      <trkpt lat="46.69998" lon="3.21552">
        <ele>208.39999389648</ele>
        <time>2022-10-06T05:55:23.000Z</time>
      </trkpt>
      <trkpt lat="46.69986" lon="3.21578">
        <ele>208</ele>
        <time>2022-10-06T05:55:26.000Z</time>
      </trkpt>
      <trkpt lat="46.69984" lon="3.21587">
        <ele>208</ele>
        <time>2022-10-06T05:55:27.000Z</time>
      </trkpt>
      <trkpt lat="46.69969" lon="3.21657">
        <ele>208</ele>
        <time>2022-10-06T05:55:34.000Z</time>
      </trkpt>
      <trkpt lat="46.69962" lon="3.21684">
        <ele>208</ele>
        <time>2022-10-06T05:55:37.000Z</time>
      </trkpt>
      <trkpt lat="46.69953" lon="3.21708">
        <ele>207.80000305176</ele>
        <time>2022-10-06T05:55:40.000Z</time>
      </trkpt>
      <trkpt lat="46.69944" lon="3.21722">
        <ele>207.80000305176</ele>
        <time>2022-10-06T05:55:42.000Z</time>
      </trkpt>
      <trkpt lat="46.69936" lon="3.2173">
        <ele>207.80000305176</ele>
        <time>2022-10-06T05:55:44.000Z</time>
      </trkpt>
      <trkpt lat="46.69917" lon="3.2175">
        <ele>207.60000610352</ele>
        <time>2022-10-06T05:55:49.000Z</time>
      </trkpt>
      <trkpt lat="46.69892" lon="3.21776">
        <ele>207.60000610352</ele>
        <time>2022-10-06T05:55:54.000Z</time>
      </trkpt>
      <trkpt lat="46.69887" lon="3.21781">
        <ele>207.39999389648</ele>
        <time>2022-10-06T05:55:55.000Z</time>
      </trkpt>
      <trkpt lat="46.69852" lon="3.21813">
        <ele>207.39999389648</ele>
        <time>2022-10-06T05:56:01.000Z</time>
      </trkpt>
      <trkpt lat="46.69848" lon="3.21818">
        <ele>207.39999389648</ele>
        <time>2022-10-06T05:56:02.000Z</time>
      </trkpt>
      <trkpt lat="46.69824" lon="3.21836">
        <ele>207.39999389648</ele>
        <time>2022-10-06T05:56:06.000Z</time>
      </trkpt>
      <trkpt lat="46.69782" lon="3.21865">
        <ele>207.39999389648</ele>
        <time>2022-10-06T05:56:13.000Z</time>
      </trkpt>
      <trkpt lat="46.6977" lon="3.21877">
        <ele>207.19999694824</ele>
        <time>2022-10-06T05:56:15.000Z</time>
      </trkpt>
      <trkpt lat="46.69756" lon="3.21896">
        <ele>207</ele>
        <time>2022-10-06T05:56:18.000Z</time>
      </trkpt>
      <trkpt lat="46.69726" lon="3.21944">
        <ele>207</ele>
        <time>2022-10-06T05:56:25.000Z</time>
      </trkpt>
      <trkpt lat="46.69715" lon="3.21957">
        <ele>207.19999694824</ele>
        <time>2022-10-06T05:56:28.000Z</time>
      </trkpt>
      <trkpt lat="46.69702" lon="3.21967">
        <ele>207.19999694824</ele>
        <time>2022-10-06T05:56:31.000Z</time>
      </trkpt>
      <trkpt lat="46.69674" lon="3.21987">
        <ele>207.39999389648</ele>
        <time>2022-10-06T05:56:38.000Z</time>
      </trkpt>
      <trkpt lat="46.69671" lon="3.21992">
        <ele>207.60000610352</ele>
        <time>2022-10-06T05:56:40.000Z</time>
      </trkpt>
      <trkpt lat="46.6967" lon="3.21997">
        <ele>207.80000305176</ele>
        <time>2022-10-06T05:56:42.000Z</time>
      </trkpt>
      <trkpt lat="46.69671" lon="3.22002">
        <ele>208.19999694824</ele>
        <time>2022-10-06T05:56:47.000Z</time>
      </trkpt>
      <trkpt lat="46.69671" lon="3.22003">
        <ele>208</ele>
        <time>2022-10-06T05:57:22.000Z</time>
      </trkpt>
      <trkpt lat="46.69676" lon="3.22012">
        <ele>208</ele>
        <time>2022-10-06T05:57:25.000Z</time>
      </trkpt>
      <trkpt lat="46.69687" lon="3.22036">
        <ele>208</ele>
        <time>2022-10-06T05:57:30.000Z</time>
      </trkpt>
      <trkpt lat="46.69699" lon="3.22062">
        <ele>208.19999694824</ele>
        <time>2022-10-06T05:57:34.000Z</time>
      </trkpt>
      <trkpt lat="46.69707" lon="3.22077">
        <ele>208.39999389648</ele>
        <time>2022-10-06T05:57:36.000Z</time>
      </trkpt>
      <trkpt lat="46.6972" lon="3.22108">
        <ele>208.80000305176</ele>
        <time>2022-10-06T05:57:40.000Z</time>
      </trkpt>
      <trkpt lat="46.69724" lon="3.22126">
        <ele>209.39999389648</ele>
        <time>2022-10-06T05:57:42.000Z</time>
      </trkpt>
      <trkpt lat="46.69724" lon="3.22137">
        <ele>209.39999389648</ele>
        <time>2022-10-06T05:57:43.000Z</time>
      </trkpt>
      <trkpt lat="46.69723" lon="3.22144">
        <ele>209.60000610352</ele>
        <time>2022-10-06T05:57:44.000Z</time>
      </trkpt>
      <trkpt lat="46.69711" lon="3.22228">
        <ele>210.39999389648</ele>
        <time>2022-10-06T05:57:53.000Z</time>
      </trkpt>
      <trkpt lat="46.69707" lon="3.22247">
        <ele>210.60000610352</ele>
        <time>2022-10-06T05:57:55.000Z</time>
      </trkpt>
      <trkpt lat="46.69694" lon="3.22301">
        <ele>211.19999694824</ele>
        <time>2022-10-06T05:58:01.000Z</time>
      </trkpt>
      <trkpt lat="46.69677" lon="3.22381">
        <ele>211.60000610352</ele>
        <time>2022-10-06T05:58:10.000Z</time>
      </trkpt>
      <trkpt lat="46.69673" lon="3.224">
        <ele>211.60000610352</ele>
        <time>2022-10-06T05:58:12.000Z</time>
      </trkpt>
      <trkpt lat="46.69666" lon="3.22444">
        <ele>212.19999694824</ele>
        <time>2022-10-06T05:58:17.000Z</time>
      </trkpt>
      <trkpt lat="46.69661" lon="3.22476">
        <ele>212.80000305176</ele>
        <time>2022-10-06T05:58:21.000Z</time>
      </trkpt>
      <trkpt lat="46.69656" lon="3.22503">
        <ele>213</ele>
        <time>2022-10-06T05:58:24.000Z</time>
      </trkpt>
      <trkpt lat="46.6964" lon="3.22562">
        <ele>214</ele>
        <time>2022-10-06T05:58:31.000Z</time>
      </trkpt>
      <trkpt lat="46.69638" lon="3.2257">
        <ele>214.19999694824</ele>
        <time>2022-10-06T05:58:32.000Z</time>
      </trkpt>
      <trkpt lat="46.6962" lon="3.22625">
        <ele>215</ele>
        <time>2022-10-06T05:58:39.000Z</time>
      </trkpt>
      <trkpt lat="46.69615" lon="3.22641">
        <ele>215.19999694824</ele>
        <time>2022-10-06T05:58:41.000Z</time>
      </trkpt>
      <trkpt lat="46.696" lon="3.22695">
        <ele>215.60000610352</ele>
        <time>2022-10-06T05:58:48.000Z</time>
      </trkpt>
      <trkpt lat="46.69598" lon="3.22704">
        <ele>215.80000305176</ele>
        <time>2022-10-06T05:58:49.000Z</time>
      </trkpt>
      <trkpt lat="46.69598" lon="3.22712">
        <ele>216</ele>
        <time>2022-10-06T05:58:50.000Z</time>
      </trkpt>
      <trkpt lat="46.69597" lon="3.22721">
        <ele>216</ele>
        <time>2022-10-06T05:58:51.000Z</time>
      </trkpt>
      <trkpt lat="46.69598" lon="3.22729">
        <ele>216.19999694824</ele>
        <time>2022-10-06T05:58:52.000Z</time>
      </trkpt>
      <trkpt lat="46.69599" lon="3.22737">
        <ele>216.19999694824</ele>
        <time>2022-10-06T05:58:53.000Z</time>
      </trkpt>
      <trkpt lat="46.69612" lon="3.22792">
        <ele>216.60000610352</ele>
        <time>2022-10-06T05:59:00.000Z</time>
      </trkpt>
      <trkpt lat="46.69613" lon="3.22806">
        <ele>217</ele>
        <time>2022-10-06T05:59:02.000Z</time>
      </trkpt>
      <trkpt lat="46.69612" lon="3.22813">
        <ele>217.19999694824</ele>
        <time>2022-10-06T05:59:03.000Z</time>
      </trkpt>
      <trkpt lat="46.69611" lon="3.2282">
        <ele>217.39999389648</ele>
        <time>2022-10-06T05:59:04.000Z</time>
      </trkpt>
      <trkpt lat="46.69605" lon="3.22833">
        <ele>217.60000610352</ele>
        <time>2022-10-06T05:59:06.000Z</time>
      </trkpt>
      <trkpt lat="46.69601" lon="3.22839">
        <ele>217.80000305176</ele>
        <time>2022-10-06T05:59:07.000Z</time>
      </trkpt>
      <trkpt lat="46.69597" lon="3.22844">
        <ele>217.80000305176</ele>
        <time>2022-10-06T05:59:08.000Z</time>
      </trkpt>
      <trkpt lat="46.69588" lon="3.22852">
        <ele>218.19999694824</ele>
        <time>2022-10-06T05:59:10.000Z</time>
      </trkpt>
      <trkpt lat="46.69583" lon="3.22855">
        <ele>218.39999389648</ele>
        <time>2022-10-06T05:59:11.000Z</time>
      </trkpt>
      <trkpt lat="46.69578" lon="3.22857">
        <ele>218.39999389648</ele>
        <time>2022-10-06T05:59:12.000Z</time>
      </trkpt>
      <trkpt lat="46.69555" lon="3.22863">
        <ele>218.39999389648</ele>
        <time>2022-10-06T05:59:16.000Z</time>
      </trkpt>
      <trkpt lat="46.69537" lon="3.22871">
        <ele>218</ele>
        <time>2022-10-06T05:59:19.000Z</time>
      </trkpt>
      <trkpt lat="46.69524" lon="3.22872">
        <ele>217.80000305176</ele>
        <time>2022-10-06T05:59:21.000Z</time>
      </trkpt>
      <trkpt lat="46.69518" lon="3.22871">
        <ele>217.80000305176</ele>
        <time>2022-10-06T05:59:22.000Z</time>
      </trkpt>
      <trkpt lat="46.69512" lon="3.22869">
        <ele>217.60000610352</ele>
        <time>2022-10-06T05:59:23.000Z</time>
      </trkpt>
      <trkpt lat="46.69502" lon="3.22861">
        <ele>217</ele>
        <time>2022-10-06T05:59:25.000Z</time>
      </trkpt>
      <trkpt lat="46.69498" lon="3.22857">
        <ele>216.80000305176</ele>
        <time>2022-10-06T05:59:26.000Z</time>
      </trkpt>
      <trkpt lat="46.69489" lon="3.22847">
        <ele>216.39999389648</ele>
        <time>2022-10-06T05:59:30.000Z</time>
      </trkpt>
      <trkpt lat="46.69488" lon="3.22846">
        <ele>215.80000305176</ele>
        <time>2022-10-06T05:59:33.000Z</time>
      </trkpt>
      <trkpt lat="46.69488" lon="3.22847">
        <ele>215.60000610352</ele>
        <time>2022-10-06T05:59:41.000Z</time>
      </trkpt>
      <trkpt lat="46.69488" lon="3.22849">
        <ele>215.39999389648</ele>
        <time>2022-10-06T05:59:44.000Z</time>
      </trkpt>
      <trkpt lat="46.69491" lon="3.22853">
        <ele>215.19999694824</ele>
        <time>2022-10-06T05:59:46.000Z</time>
      </trkpt>
      <trkpt lat="46.69502" lon="3.22867">
        <ele>215.60000610352</ele>
        <time>2022-10-06T05:59:52.000Z</time>
      </trkpt>
      <trkpt lat="46.69518" lon="3.22876">
        <ele>216</ele>
        <time>2022-10-06T05:59:56.000Z</time>
      </trkpt>
      <trkpt lat="46.69544" lon="3.22874">
        <ele>216.39999389648</ele>
        <time>2022-10-06T06:00:02.000Z</time>
      </trkpt>
      <trkpt lat="46.69549" lon="3.22872">
        <ele>216.39999389648</ele>
        <time>2022-10-06T06:00:03.000Z</time>
      </trkpt>
      <trkpt lat="46.69555" lon="3.22869">
        <ele>216.60000610352</ele>
        <time>2022-10-06T06:00:04.000Z</time>
      </trkpt>
      <trkpt lat="46.69567" lon="3.22866">
        <ele>217</ele>
        <time>2022-10-06T06:00:07.000Z</time>
      </trkpt>
      <trkpt lat="46.69578" lon="3.22866">
        <ele>217.60000610352</ele>
        <time>2022-10-06T06:00:10.000Z</time>
      </trkpt>
      <trkpt lat="46.6958" lon="3.22868">
        <ele>217.60000610352</ele>
        <time>2022-10-06T06:00:11.000Z</time>
      </trkpt>
      <trkpt lat="46.6958" lon="3.22871">
        <ele>217.60000610352</ele>
        <time>2022-10-06T06:00:12.000Z</time>
      </trkpt>
      <trkpt lat="46.69582" lon="3.22897">
        <ele>217.80000305176</ele>
        <time>2022-10-06T06:00:16.000Z</time>
      </trkpt>
      <trkpt lat="46.69585" lon="3.22937">
        <ele>218</ele>
        <time>2022-10-06T06:00:22.000Z</time>
      </trkpt>
      <trkpt lat="46.69588" lon="3.22987">
        <ele>218.19999694824</ele>
        <time>2022-10-06T06:00:28.000Z</time>
      </trkpt>
      <trkpt lat="46.69589" lon="3.23018">
        <ele>218.80000305176</ele>
        <time>2022-10-06T06:00:32.000Z</time>
      </trkpt>
      <trkpt lat="46.69588" lon="3.23052">
        <ele>220</ele>
        <time>2022-10-06T06:00:36.000Z</time>
      </trkpt>
      <trkpt lat="46.69586" lon="3.23067">
        <ele>220.19999694824</ele>
        <time>2022-10-06T06:00:38.000Z</time>
      </trkpt>
      <trkpt lat="46.69575" lon="3.23121">
        <ele>220.60000610352</ele>
        <time>2022-10-06T06:00:45.000Z</time>
      </trkpt>
      <trkpt lat="46.69558" lon="3.23184">
        <ele>220</ele>
        <time>2022-10-06T06:00:53.000Z</time>
      </trkpt>
      <trkpt lat="46.69547" lon="3.23214">
        <ele>219.80000305176</ele>
        <time>2022-10-06T06:00:57.000Z</time>
      </trkpt>
      <trkpt lat="46.6954" lon="3.23224">
        <ele>220</ele>
        <time>2022-10-06T06:00:59.000Z</time>
      </trkpt>
      <trkpt lat="46.69524" lon="3.23257">
        <ele>219.80000305176</ele>
        <time>2022-10-06T06:01:04.000Z</time>
      </trkpt>
      <trkpt lat="46.69513" lon="3.23266">
        <ele>219.39999389648</ele>
        <time>2022-10-06T06:01:06.000Z</time>
      </trkpt>
      <trkpt lat="46.69507" lon="3.23269">
        <ele>219.19999694824</ele>
        <time>2022-10-06T06:01:07.000Z</time>
      </trkpt>
      <trkpt lat="46.69494" lon="3.23275">
        <ele>219</ele>
        <time>2022-10-06T06:01:09.000Z</time>
      </trkpt>
      <trkpt lat="46.69488" lon="3.23279">
        <ele>218.60000610352</ele>
        <time>2022-10-06T06:01:10.000Z</time>
      </trkpt>
      <trkpt lat="46.69482" lon="3.23284">
        <ele>218.19999694824</ele>
        <time>2022-10-06T06:01:11.000Z</time>
      </trkpt>
      <trkpt lat="46.69477" lon="3.2329">
        <ele>218</ele>
        <time>2022-10-06T06:01:12.000Z</time>
      </trkpt>
      <trkpt lat="46.69447" lon="3.23319">
        <ele>217.39999389648</ele>
        <time>2022-10-06T06:01:17.000Z</time>
      </trkpt>
      <trkpt lat="46.69427" lon="3.23335">
        <ele>216.60000610352</ele>
        <time>2022-10-06T06:01:20.000Z</time>
      </trkpt>
      <trkpt lat="46.69405" lon="3.23349">
        <ele>216.19999694824</ele>
        <time>2022-10-06T06:01:23.000Z</time>
      </trkpt>
      <trkpt lat="46.69382" lon="3.2336">
        <ele>215.60000610352</ele>
        <time>2022-10-06T06:01:26.000Z</time>
      </trkpt>
      <trkpt lat="46.69367" lon="3.23368">
        <ele>215.19999694824</ele>
        <time>2022-10-06T06:01:28.000Z</time>
      </trkpt>
      <trkpt lat="46.69354" lon="3.23381">
        <ele>214.80000305176</ele>
        <time>2022-10-06T06:01:30.000Z</time>
      </trkpt>
      <trkpt lat="46.69327" lon="3.23421">
        <ele>214.60000610352</ele>
        <time>2022-10-06T06:01:35.000Z</time>
      </trkpt>
      <trkpt lat="46.69304" lon="3.23459">
        <ele>215</ele>
        <time>2022-10-06T06:01:41.000Z</time>
      </trkpt>
      <trkpt lat="46.69285" lon="3.23493">
        <ele>216.19999694824</ele>
        <time>2022-10-06T06:01:46.000Z</time>
      </trkpt>
      <trkpt lat="46.69277" lon="3.23507">
        <ele>216.60000610352</ele>
        <time>2022-10-06T06:01:48.000Z</time>
      </trkpt>
      <trkpt lat="46.6926" lon="3.23534">
        <ele>217.39999389648</ele>
        <time>2022-10-06T06:01:52.000Z</time>
      </trkpt>
      <trkpt lat="46.69246" lon="3.23552">
        <ele>218</ele>
        <time>2022-10-06T06:01:55.000Z</time>
      </trkpt>
      <trkpt lat="46.69231" lon="3.23572">
        <ele>218.39999389648</ele>
        <time>2022-10-06T06:01:58.000Z</time>
      </trkpt>
      <trkpt lat="46.69207" lon="3.23603">
        <ele>218.80000305176</ele>
        <time>2022-10-06T06:02:03.000Z</time>
      </trkpt>
      <trkpt lat="46.69172" lon="3.23649">
        <ele>218.80000305176</ele>
        <time>2022-10-06T06:02:10.000Z</time>
      </trkpt>
      <trkpt lat="46.69146" lon="3.23681">
        <ele>219.19999694824</ele>
        <time>2022-10-06T06:02:15.000Z</time>
      </trkpt>
      <trkpt lat="46.69104" lon="3.23719">
        <ele>219</ele>
        <time>2022-10-06T06:02:22.000Z</time>
      </trkpt>
      <trkpt lat="46.69072" lon="3.2374">
        <ele>218</ele>
        <time>2022-10-06T06:02:27.000Z</time>
      </trkpt>
      <trkpt lat="46.69023" lon="3.23764">
        <ele>218</ele>
        <time>2022-10-06T06:02:34.000Z</time>
      </trkpt>
      <trkpt lat="46.68996" lon="3.23776">
        <ele>218</ele>
        <time>2022-10-06T06:02:38.000Z</time>
      </trkpt>
      <trkpt lat="46.68982" lon="3.23778">
        <ele>218</ele>
        <time>2022-10-06T06:02:40.000Z</time>
      </trkpt>
      <trkpt lat="46.68958" lon="3.2377">
        <ele>218</ele>
        <time>2022-10-06T06:02:44.000Z</time>
      </trkpt>
      <trkpt lat="46.68933" lon="3.23756">
        <ele>217.80000305176</ele>
        <time>2022-10-06T06:02:48.000Z</time>
      </trkpt>
      <trkpt lat="46.68902" lon="3.23746">
        <ele>218.39999389648</ele>
        <time>2022-10-06T06:02:53.000Z</time>
      </trkpt>
      <trkpt lat="46.68845" lon="3.23736">
        <ele>219</ele>
        <time>2022-10-06T06:03:01.000Z</time>
      </trkpt>
      <trkpt lat="46.68813" lon="3.2373">
        <ele>218.60000610352</ele>
        <time>2022-10-06T06:03:06.000Z</time>
      </trkpt>
      <trkpt lat="46.68778" lon="3.23722">
        <ele>218.39999389648</ele>
        <time>2022-10-06T06:03:11.000Z</time>
      </trkpt>
      <trkpt lat="46.68734" lon="3.23713">
        <ele>218.19999694824</ele>
        <time>2022-10-06T06:03:17.000Z</time>
      </trkpt>
      <trkpt lat="46.68725" lon="3.23711">
        <ele>218.19999694824</ele>
        <time>2022-10-06T06:03:18.000Z</time>
      </trkpt>
      <trkpt lat="46.68695" lon="3.23706">
        <ele>218</ele>
        <time>2022-10-06T06:03:22.000Z</time>
      </trkpt>
      <trkpt lat="46.6864" lon="3.23695">
        <ele>217.39999389648</ele>
        <time>2022-10-06T06:03:30.000Z</time>
      </trkpt>
      <trkpt lat="46.68613" lon="3.23692">
        <ele>217</ele>
        <time>2022-10-06T06:03:35.000Z</time>
      </trkpt>
      <trkpt lat="46.68605" lon="3.23686">
        <ele>217</ele>
        <time>2022-10-06T06:03:37.000Z</time>
      </trkpt>
      <trkpt lat="46.68602" lon="3.2368">
        <ele>216.80000305176</ele>
        <time>2022-10-06T06:03:38.000Z</time>
      </trkpt>
      <trkpt lat="46.68599" lon="3.23663">
        <ele>216.60000610352</ele>
        <time>2022-10-06T06:03:40.000Z</time>
      </trkpt>
      <trkpt lat="46.68598" lon="3.23644">
        <ele>216.19999694824</ele>
        <time>2022-10-06T06:03:42.000Z</time>
      </trkpt>
      <trkpt lat="46.68597" lon="3.23635">
        <ele>215.80000305176</ele>
        <time>2022-10-06T06:03:43.000Z</time>
      </trkpt>
      <trkpt lat="46.68593" lon="3.23598">
        <ele>214.80000305176</ele>
        <time>2022-10-06T06:03:46.000Z</time>
      </trkpt>
      <trkpt lat="46.68589" lon="3.2356">
        <ele>213.60000610352</ele>
        <time>2022-10-06T06:03:49.000Z</time>
      </trkpt>
      <trkpt lat="46.68584" lon="3.23521">
        <ele>212.19999694824</ele>
        <time>2022-10-06T06:03:52.000Z</time>
      </trkpt>
      <trkpt lat="46.68575" lon="3.23483">
        <ele>211</ele>
        <time>2022-10-06T06:03:55.000Z</time>
      </trkpt>
      <trkpt lat="46.68572" lon="3.23473">
        <ele>210.39999389648</ele>
        <time>2022-10-06T06:03:56.000Z</time>
      </trkpt>
      <trkpt lat="46.68566" lon="3.23451">
        <ele>210</ele>
        <time>2022-10-06T06:03:58.000Z</time>
      </trkpt>
      <trkpt lat="46.68547" lon="3.23386">
        <ele>209.39999389648</ele>
        <time>2022-10-06T06:04:04.000Z</time>
      </trkpt>
      <trkpt lat="46.68526" lon="3.23314">
        <ele>209</ele>
        <time>2022-10-06T06:04:11.000Z</time>
      </trkpt>
      <trkpt lat="46.6852" lon="3.23292">
        <ele>208.80000305176</ele>
        <time>2022-10-06T06:04:13.000Z</time>
      </trkpt>
      <trkpt lat="46.68505" lon="3.23241">
        <ele>207.80000305176</ele>
        <time>2022-10-06T06:04:19.000Z</time>
      </trkpt>
      <trkpt lat="46.685" lon="3.23224">
        <ele>207.80000305176</ele>
        <time>2022-10-06T06:04:21.000Z</time>
      </trkpt>
      <trkpt lat="46.68498" lon="3.23218">
        <ele>207.60000610352</ele>
        <time>2022-10-06T06:04:22.000Z</time>
      </trkpt>
      <trkpt lat="46.68488" lon="3.23206">
        <ele>207.60000610352</ele>
        <time>2022-10-06T06:04:24.000Z</time>
      </trkpt>
      <trkpt lat="46.68476" lon="3.23208">
        <ele>207.19999694824</ele>
        <time>2022-10-06T06:04:26.000Z</time>
      </trkpt>
      <trkpt lat="46.68446" lon="3.23219">
        <ele>207</ele>
        <time>2022-10-06T06:04:30.000Z</time>
      </trkpt>
      <trkpt lat="46.6843" lon="3.2322">
        <ele>206.60000610352</ele>
        <time>2022-10-06T06:04:32.000Z</time>
      </trkpt>
      <trkpt lat="46.68416" lon="3.23215">
        <ele>206.39999389648</ele>
        <time>2022-10-06T06:04:34.000Z</time>
      </trkpt>
      <trkpt lat="46.68398" lon="3.23207">
        <ele>205.80000305176</ele>
        <time>2022-10-06T06:04:36.000Z</time>
      </trkpt>
      <trkpt lat="46.68389" lon="3.23207">
        <ele>205.19999694824</ele>
        <time>2022-10-06T06:04:37.000Z</time>
      </trkpt>
      <trkpt lat="46.68381" lon="3.23209">
        <ele>205</ele>
        <time>2022-10-06T06:04:38.000Z</time>
      </trkpt>
      <trkpt lat="46.68361" lon="3.23227">
        <ele>204.19999694824</ele>
        <time>2022-10-06T06:04:41.000Z</time>
      </trkpt>
      <trkpt lat="46.68339" lon="3.23254">
        <ele>203</ele>
        <time>2022-10-06T06:04:45.000Z</time>
      </trkpt>
      <trkpt lat="46.68334" lon="3.23259">
        <ele>203</ele>
        <time>2022-10-06T06:04:46.000Z</time>
      </trkpt>
      <trkpt lat="46.68319" lon="3.23271">
        <ele>203.39999389648</ele>
        <time>2022-10-06T06:04:49.000Z</time>
      </trkpt>
      <trkpt lat="46.6831" lon="3.23277">
        <ele>203.80000305176</ele>
        <time>2022-10-06T06:04:51.000Z</time>
      </trkpt>
      <trkpt lat="46.68305" lon="3.23279">
        <ele>204</ele>
        <time>2022-10-06T06:04:52.000Z</time>
      </trkpt>
      <trkpt lat="46.68297" lon="3.23285">
        <ele>204.80000305176</ele>
        <time>2022-10-06T06:04:54.000Z</time>
      </trkpt>
      <trkpt lat="46.68291" lon="3.2329">
        <ele>205.19999694824</ele>
        <time>2022-10-06T06:04:55.000Z</time>
      </trkpt>
      <trkpt lat="46.68286" lon="3.23295">
        <ele>205.80000305176</ele>
        <time>2022-10-06T06:04:56.000Z</time>
      </trkpt>
      <trkpt lat="46.68281" lon="3.233">
        <ele>206.19999694824</ele>
        <time>2022-10-06T06:04:57.000Z</time>
      </trkpt>
      <trkpt lat="46.68254" lon="3.23327">
        <ele>207</ele>
        <time>2022-10-06T06:05:02.000Z</time>
      </trkpt>
      <trkpt lat="46.68243" lon="3.23336">
        <ele>207</ele>
        <time>2022-10-06T06:05:04.000Z</time>
      </trkpt>
      <trkpt lat="46.6823" lon="3.23343">
        <ele>207</ele>
        <time>2022-10-06T06:05:07.000Z</time>
      </trkpt>
      <trkpt lat="46.68216" lon="3.23347">
        <ele>207</ele>
        <time>2022-10-06T06:05:11.000Z</time>
      </trkpt>
      <trkpt lat="46.68211" lon="3.23349">
        <ele>207</ele>
        <time>2022-10-06T06:05:12.000Z</time>
      </trkpt>
      <trkpt lat="46.68194" lon="3.23356">
        <ele>207</ele>
        <time>2022-10-06T06:05:15.000Z</time>
      </trkpt>
      <trkpt lat="46.68152" lon="3.23378">
        <ele>207</ele>
        <time>2022-10-06T06:05:22.000Z</time>
      </trkpt>
      <trkpt lat="46.68099" lon="3.23414">
        <ele>206.39999389648</ele>
        <time>2022-10-06T06:05:30.000Z</time>
      </trkpt>
      <trkpt lat="46.68047" lon="3.23448">
        <ele>205.60000610352</ele>
        <time>2022-10-06T06:05:38.000Z</time>
      </trkpt>
      <trkpt lat="46.68001" lon="3.2347">
        <ele>206</ele>
        <time>2022-10-06T06:05:45.000Z</time>
      </trkpt>
      <trkpt lat="46.67968" lon="3.2347">
        <ele>206.19999694824</ele>
        <time>2022-10-06T06:05:50.000Z</time>
      </trkpt>
      <trkpt lat="46.6796" lon="3.23468">
        <ele>206.19999694824</ele>
        <time>2022-10-06T06:05:51.000Z</time>
      </trkpt>
      <trkpt lat="46.67935" lon="3.23453">
        <ele>206.19999694824</ele>
        <time>2022-10-06T06:05:55.000Z</time>
      </trkpt>
      <trkpt lat="46.67895" lon="3.23435">
        <ele>206.39999389648</ele>
        <time>2022-10-06T06:06:01.000Z</time>
      </trkpt>
      <trkpt lat="46.67887" lon="3.23435">
        <ele>206.39999389648</ele>
        <time>2022-10-06T06:06:02.000Z</time>
      </trkpt>
      <trkpt lat="46.67862" lon="3.23436">
        <ele>206.39999389648</ele>
        <time>2022-10-06T06:06:06.000Z</time>
      </trkpt>
      <trkpt lat="46.67848" lon="3.23439">
        <ele>206.39999389648</ele>
        <time>2022-10-06T06:06:08.000Z</time>
      </trkpt>
      <trkpt lat="46.6783" lon="3.23441">
        <ele>206.60000610352</ele>
        <time>2022-10-06T06:06:11.000Z</time>
      </trkpt>
      <trkpt lat="46.6779" lon="3.23444">
        <ele>207.39999389648</ele>
        <time>2022-10-06T06:06:17.000Z</time>
      </trkpt>
      <trkpt lat="46.67785" lon="3.23445">
        <ele>207.39999389648</ele>
        <time>2022-10-06T06:06:18.000Z</time>
      </trkpt>
      <trkpt lat="46.67754" lon="3.23447">
        <ele>208.39999389648</ele>
        <time>2022-10-06T06:06:23.000Z</time>
      </trkpt>
      <trkpt lat="46.67744" lon="3.23446">
        <ele>208.80000305176</ele>
        <time>2022-10-06T06:06:25.000Z</time>
      </trkpt>
      <trkpt lat="46.67739" lon="3.23444">
        <ele>209</ele>
        <time>2022-10-06T06:06:26.000Z</time>
      </trkpt>
      <trkpt lat="46.67735" lon="3.2344">
        <ele>209</ele>
        <time>2022-10-06T06:06:27.000Z</time>
      </trkpt>
      <trkpt lat="46.67728" lon="3.23424">
        <ele>209.39999389648</ele>
        <time>2022-10-06T06:06:29.000Z</time>
      </trkpt>
      <trkpt lat="46.67719" lon="3.23384">
        <ele>209.39999389648</ele>
        <time>2022-10-06T06:06:33.000Z</time>
      </trkpt>
      <trkpt lat="46.67706" lon="3.2332">
        <ele>208</ele>
        <time>2022-10-06T06:06:39.000Z</time>
      </trkpt>
      <trkpt lat="46.67702" lon="3.23297">
        <ele>207.19999694824</ele>
        <time>2022-10-06T06:06:41.000Z</time>
      </trkpt>
      <trkpt lat="46.67696" lon="3.23277">
        <ele>206.80000305176</ele>
        <time>2022-10-06T06:06:43.000Z</time>
      </trkpt>
      <trkpt lat="46.67692" lon="3.23268">
        <ele>206.80000305176</ele>
        <time>2022-10-06T06:06:44.000Z</time>
      </trkpt>
      <trkpt lat="46.67688" lon="3.23262">
        <ele>206.60000610352</ele>
        <time>2022-10-06T06:06:45.000Z</time>
      </trkpt>
      <trkpt lat="46.67678" lon="3.23249">
        <ele>206</ele>
        <time>2022-10-06T06:06:47.000Z</time>
      </trkpt>
      <trkpt lat="46.67673" lon="3.23245">
        <ele>205.39999389648</ele>
        <time>2022-10-06T06:06:48.000Z</time>
      </trkpt>
      <trkpt lat="46.67664" lon="3.23237">
        <ele>205</ele>
        <time>2022-10-06T06:06:50.000Z</time>
      </trkpt>
      <trkpt lat="46.67655" lon="3.23232">
        <ele>204.80000305176</ele>
        <time>2022-10-06T06:06:52.000Z</time>
      </trkpt>
      <trkpt lat="46.67647" lon="3.23235">
        <ele>204.80000305176</ele>
        <time>2022-10-06T06:06:54.000Z</time>
      </trkpt>
      <trkpt lat="46.67642" lon="3.2324">
        <ele>204.80000305176</ele>
        <time>2022-10-06T06:06:55.000Z</time>
      </trkpt>
      <trkpt lat="46.67639" lon="3.23246">
        <ele>204.80000305176</ele>
        <time>2022-10-06T06:06:56.000Z</time>
      </trkpt>
      <trkpt lat="46.6763" lon="3.23264">
        <ele>204.80000305176</ele>
        <time>2022-10-06T06:06:59.000Z</time>
      </trkpt>
      <trkpt lat="46.67626" lon="3.23271">
        <ele>205</ele>
        <time>2022-10-06T06:07:00.000Z</time>
      </trkpt>
      <trkpt lat="46.67615" lon="3.2329">
        <ele>205.39999389648</ele>
        <time>2022-10-06T06:07:03.000Z</time>
      </trkpt>
      <trkpt lat="46.67607" lon="3.23303">
        <ele>205.80000305176</ele>
        <time>2022-10-06T06:07:05.000Z</time>
      </trkpt>
      <trkpt lat="46.67599" lon="3.23314">
        <ele>206.19999694824</ele>
        <time>2022-10-06T06:07:07.000Z</time>
      </trkpt>
      <trkpt lat="46.67586" lon="3.2333">
        <ele>206.80000305176</ele>
        <time>2022-10-06T06:07:10.000Z</time>
      </trkpt>
      <trkpt lat="46.67576" lon="3.2334">
        <ele>207.19999694824</ele>
        <time>2022-10-06T06:07:12.000Z</time>
      </trkpt>
      <trkpt lat="46.67572" lon="3.23344">
        <ele>207.19999694824</ele>
        <time>2022-10-06T06:07:13.000Z</time>
      </trkpt>
      <trkpt lat="46.67556" lon="3.23356">
        <ele>208.39999389648</ele>
        <time>2022-10-06T06:07:16.000Z</time>
      </trkpt>
      <trkpt lat="46.67535" lon="3.23369">
        <ele>209.60000610352</ele>
        <time>2022-10-06T06:07:20.000Z</time>
      </trkpt>
      <trkpt lat="46.67513" lon="3.23377">
        <ele>210.39999389648</ele>
        <time>2022-10-06T06:07:24.000Z</time>
      </trkpt>
      <trkpt lat="46.67507" lon="3.23379">
        <ele>210.60000610352</ele>
        <time>2022-10-06T06:07:25.000Z</time>
      </trkpt>
      <trkpt lat="46.6746" lon="3.23396">
        <ele>211.60000610352</ele>
        <time>2022-10-06T06:07:33.000Z</time>
      </trkpt>
      <trkpt lat="46.67404" lon="3.23421">
        <ele>212</ele>
        <time>2022-10-06T06:07:42.000Z</time>
      </trkpt>
      <trkpt lat="46.67398" lon="3.23426">
        <ele>212</ele>
        <time>2022-10-06T06:07:43.000Z</time>
      </trkpt>
      <trkpt lat="46.67348" lon="3.23471">
        <ele>211.39999389648</ele>
        <time>2022-10-06T06:07:51.000Z</time>
      </trkpt>
      <trkpt lat="46.67341" lon="3.23477">
        <ele>211.60000610352</ele>
        <time>2022-10-06T06:07:52.000Z</time>
      </trkpt>
      <trkpt lat="46.67315" lon="3.23503">
        <ele>210.80000305176</ele>
        <time>2022-10-06T06:07:56.000Z</time>
      </trkpt>
      <trkpt lat="46.67281" lon="3.23534">
        <ele>209.80000305176</ele>
        <time>2022-10-06T06:08:01.000Z</time>
      </trkpt>
      <trkpt lat="46.67274" lon="3.23541">
        <ele>209.60000610352</ele>
        <time>2022-10-06T06:08:02.000Z</time>
      </trkpt>
      <trkpt lat="46.6724" lon="3.23573">
        <ele>208.60000610352</ele>
        <time>2022-10-06T06:08:07.000Z</time>
      </trkpt>
      <trkpt lat="46.67219" lon="3.23593">
        <ele>208.19999694824</ele>
        <time>2022-10-06T06:08:10.000Z</time>
      </trkpt>
      <trkpt lat="46.6717" lon="3.23639">
        <ele>207.60000610352</ele>
        <time>2022-10-06T06:08:17.000Z</time>
      </trkpt>
      <trkpt lat="46.67156" lon="3.23652">
        <ele>207.60000610352</ele>
        <time>2022-10-06T06:08:19.000Z</time>
      </trkpt>
      <trkpt lat="46.67108" lon="3.23698">
        <ele>207.19999694824</ele>
        <time>2022-10-06T06:08:26.000Z</time>
      </trkpt>
      <trkpt lat="46.67088" lon="3.23717">
        <ele>207</ele>
        <time>2022-10-06T06:08:29.000Z</time>
      </trkpt>
      <trkpt lat="46.67037" lon="3.23766">
        <ele>206.80000305176</ele>
        <time>2022-10-06T06:08:37.000Z</time>
      </trkpt>
      <trkpt lat="46.67018" lon="3.23783">
        <ele>207</ele>
        <time>2022-10-06T06:08:40.000Z</time>
      </trkpt>
      <trkpt lat="46.66991" lon="3.23808">
        <ele>207</ele>
        <time>2022-10-06T06:08:45.000Z</time>
      </trkpt>
      <trkpt lat="46.66951" lon="3.23847">
        <ele>207.39999389648</ele>
        <time>2022-10-06T06:08:53.000Z</time>
      </trkpt>
      <trkpt lat="46.66938" lon="3.23859">
        <ele>207.60000610352</ele>
        <time>2022-10-06T06:08:56.000Z</time>
      </trkpt>
      <trkpt lat="46.66934" lon="3.2386">
        <ele>207.60000610352</ele>
        <time>2022-10-06T06:08:57.000Z</time>
      </trkpt>
      <trkpt lat="46.66929" lon="3.23856">
        <ele>207.60000610352</ele>
        <time>2022-10-06T06:08:58.000Z</time>
      </trkpt>
      <trkpt lat="46.66925" lon="3.23848">
        <ele>207.60000610352</ele>
        <time>2022-10-06T06:08:59.000Z</time>
      </trkpt>
      <trkpt lat="46.66903" lon="3.23789">
        <ele>207.80000305176</ele>
        <time>2022-10-06T06:09:06.000Z</time>
      </trkpt>
      <trkpt lat="46.66901" lon="3.2378">
        <ele>207.80000305176</ele>
        <time>2022-10-06T06:09:07.000Z</time>
      </trkpt>
      <trkpt lat="46.66888" lon="3.23745">
        <ele>208.39999389648</ele>
        <time>2022-10-06T06:09:12.000Z</time>
      </trkpt>
      <trkpt lat="46.66878" lon="3.23717">
        <ele>208.80000305176</ele>
        <time>2022-10-06T06:09:15.000Z</time>
      </trkpt>
      <trkpt lat="46.66871" lon="3.23698">
        <ele>208.80000305176</ele>
        <time>2022-10-06T06:09:17.000Z</time>
      </trkpt>
      <trkpt lat="46.66843" lon="3.23627">
        <ele>208.19999694824</ele>
        <time>2022-10-06T06:09:24.000Z</time>
      </trkpt>
      <trkpt lat="46.66833" lon="3.236">
        <ele>207.80000305176</ele>
        <time>2022-10-06T06:09:27.000Z</time>
      </trkpt>
      <trkpt lat="46.66806" lon="3.23528">
        <ele>207.39999389648</ele>
        <time>2022-10-06T06:09:35.000Z</time>
      </trkpt>
      <trkpt lat="46.66796" lon="3.23501">
        <ele>207.19999694824</ele>
        <time>2022-10-06T06:09:38.000Z</time>
      </trkpt>
      <trkpt lat="46.66768" lon="3.23428">
        <ele>206.80000305176</ele>
        <time>2022-10-06T06:09:46.000Z</time>
      </trkpt>
      <trkpt lat="46.66764" lon="3.2342">
        <ele>206.80000305176</ele>
        <time>2022-10-06T06:09:47.000Z</time>
      </trkpt>
      <trkpt lat="46.66758" lon="3.23404">
        <ele>206.60000610352</ele>
        <time>2022-10-06T06:09:49.000Z</time>
      </trkpt>
      <trkpt lat="46.66731" lon="3.23334">
        <ele>206.80000305176</ele>
        <time>2022-10-06T06:09:57.000Z</time>
      </trkpt>
      <trkpt lat="46.66708" lon="3.23272">
        <ele>206.80000305176</ele>
        <time>2022-10-06T06:10:04.000Z</time>
      </trkpt>
      <trkpt lat="46.66678" lon="3.23197">
        <ele>205.60000610352</ele>
        <time>2022-10-06T06:10:13.000Z</time>
      </trkpt>
      <trkpt lat="46.66651" lon="3.23131">
        <ele>204.80000305176</ele>
        <time>2022-10-06T06:10:21.000Z</time>
      </trkpt>
      <trkpt lat="46.66645" lon="3.23114">
        <ele>204.39999389648</ele>
        <time>2022-10-06T06:10:23.000Z</time>
      </trkpt>
      <trkpt lat="46.66625" lon="3.23065">
        <ele>203.60000610352</ele>
        <time>2022-10-06T06:10:29.000Z</time>
      </trkpt>
      <trkpt lat="46.66614" lon="3.23035">
        <ele>203.39999389648</ele>
        <time>2022-10-06T06:10:33.000Z</time>
      </trkpt>
      <trkpt lat="46.66609" lon="3.23022">
        <ele>203</ele>
        <time>2022-10-06T06:10:35.000Z</time>
      </trkpt>
      <trkpt lat="46.66592" lon="3.22973">
        <ele>202.80000305176</ele>
        <time>2022-10-06T06:10:41.000Z</time>
      </trkpt>
      <trkpt lat="46.66581" lon="3.22939">
        <ele>202.80000305176</ele>
        <time>2022-10-06T06:10:45.000Z</time>
      </trkpt>
      <trkpt lat="46.66577" lon="3.22932">
        <ele>202.80000305176</ele>
        <time>2022-10-06T06:10:46.000Z</time>
      </trkpt>
      <trkpt lat="46.66554" lon="3.22906">
        <ele>202.19999694824</ele>
        <time>2022-10-06T06:10:51.000Z</time>
      </trkpt>
      <trkpt lat="46.66549" lon="3.22903">
        <ele>202</ele>
        <time>2022-10-06T06:10:52.000Z</time>
      </trkpt>
      <trkpt lat="46.66544" lon="3.22901">
        <ele>202</ele>
        <time>2022-10-06T06:10:53.000Z</time>
      </trkpt>
      <trkpt lat="46.66532" lon="3.22895">
        <ele>201.80000305176</ele>
        <time>2022-10-06T06:10:56.000Z</time>
      </trkpt>
      <trkpt lat="46.66495" lon="3.22884">
        <ele>202.19999694824</ele>
        <time>2022-10-06T06:11:03.000Z</time>
      </trkpt>
      <trkpt lat="46.66464" lon="3.22875">
        <ele>203.39999389648</ele>
        <time>2022-10-06T06:11:09.000Z</time>
      </trkpt>
      <trkpt lat="46.66434" lon="3.22868">
        <ele>204</ele>
        <time>2022-10-06T06:11:14.000Z</time>
      </trkpt>
      <trkpt lat="46.66421" lon="3.22863">
        <ele>204</ele>
        <time>2022-10-06T06:11:16.000Z</time>
      </trkpt>
      <trkpt lat="46.66373" lon="3.2284">
        <ele>204</ele>
        <time>2022-10-06T06:11:24.000Z</time>
      </trkpt>
      <trkpt lat="46.66367" lon="3.22837">
        <ele>203.80000305176</ele>
        <time>2022-10-06T06:11:25.000Z</time>
      </trkpt>
      <trkpt lat="46.66346" lon="3.22821">
        <ele>203.39999389648</ele>
        <time>2022-10-06T06:11:29.000Z</time>
      </trkpt>
      <trkpt lat="46.66312" lon="3.22798">
        <ele>202.39999389648</ele>
        <time>2022-10-06T06:11:35.000Z</time>
      </trkpt>
      <trkpt lat="46.66306" lon="3.22794">
        <ele>202.19999694824</ele>
        <time>2022-10-06T06:11:36.000Z</time>
      </trkpt>
      <trkpt lat="46.66281" lon="3.22782">
        <ele>201.60000610352</ele>
        <time>2022-10-06T06:11:40.000Z</time>
      </trkpt>
      <trkpt lat="46.66274" lon="3.2278">
        <ele>201.39999389648</ele>
        <time>2022-10-06T06:11:41.000Z</time>
      </trkpt>
      <trkpt lat="46.66268" lon="3.2278">
        <ele>201.19999694824</ele>
        <time>2022-10-06T06:11:42.000Z</time>
      </trkpt>
      <trkpt lat="46.66247" lon="3.22781">
        <ele>200.60000610352</ele>
        <time>2022-10-06T06:11:45.000Z</time>
      </trkpt>
      <trkpt lat="46.66233" lon="3.22785">
        <ele>200.39999389648</ele>
        <time>2022-10-06T06:11:47.000Z</time>
      </trkpt>
      <trkpt lat="46.6622" lon="3.22792">
        <ele>200.39999389648</ele>
        <time>2022-10-06T06:11:49.000Z</time>
      </trkpt>
      <trkpt lat="46.66215" lon="3.22798">
        <ele>200.39999389648</ele>
        <time>2022-10-06T06:11:50.000Z</time>
      </trkpt>
      <trkpt lat="46.6621" lon="3.22804">
        <ele>200.39999389648</ele>
        <time>2022-10-06T06:11:51.000Z</time>
      </trkpt>
      <trkpt lat="46.66196" lon="3.22826">
        <ele>200.39999389648</ele>
        <time>2022-10-06T06:11:54.000Z</time>
      </trkpt>
      <trkpt lat="46.66191" lon="3.22834">
        <ele>200.60000610352</ele>
        <time>2022-10-06T06:11:55.000Z</time>
      </trkpt>
      <trkpt lat="46.66175" lon="3.22862">
        <ele>200.60000610352</ele>
        <time>2022-10-06T06:11:59.000Z</time>
      </trkpt>
      <trkpt lat="46.66166" lon="3.22874">
        <ele>201</ele>
        <time>2022-10-06T06:12:01.000Z</time>
      </trkpt>
      <trkpt lat="46.66144" lon="3.22901">
        <ele>201.80000305176</ele>
        <time>2022-10-06T06:12:06.000Z</time>
      </trkpt>
      <trkpt lat="46.6614" lon="3.22907">
        <ele>202.19999694824</ele>
        <time>2022-10-06T06:12:07.000Z</time>
      </trkpt>
      <trkpt lat="46.66127" lon="3.22922">
        <ele>203</ele>
        <time>2022-10-06T06:12:10.000Z</time>
      </trkpt>
      <trkpt lat="46.66123" lon="3.22927">
        <ele>203.19999694824</ele>
        <time>2022-10-06T06:12:11.000Z</time>
      </trkpt>
      <trkpt lat="46.66119" lon="3.22932">
        <ele>203.39999389648</ele>
        <time>2022-10-06T06:12:12.000Z</time>
      </trkpt>
      <trkpt lat="46.66107" lon="3.22947">
        <ele>203.80000305176</ele>
        <time>2022-10-06T06:12:15.000Z</time>
      </trkpt>
      <trkpt lat="46.66099" lon="3.22958">
        <ele>204.19999694824</ele>
        <time>2022-10-06T06:12:17.000Z</time>
      </trkpt>
      <trkpt lat="46.66095" lon="3.22963">
        <ele>204.60000610352</ele>
        <time>2022-10-06T06:12:18.000Z</time>
      </trkpt>
      <trkpt lat="46.6607" lon="3.22989">
        <ele>205.39999389648</ele>
        <time>2022-10-06T06:12:23.000Z</time>
      </trkpt>
      <trkpt lat="46.66065" lon="3.22994">
        <ele>205.60000610352</ele>
        <time>2022-10-06T06:12:24.000Z</time>
      </trkpt>
      <trkpt lat="46.66033" lon="3.23033">
        <ele>206</ele>
        <time>2022-10-06T06:12:31.000Z</time>
      </trkpt>
      <trkpt lat="46.66026" lon="3.23047">
        <ele>206</ele>
        <time>2022-10-06T06:12:33.000Z</time>
      </trkpt>
      <trkpt lat="46.66015" lon="3.23064">
        <ele>206</ele>
        <time>2022-10-06T06:12:36.000Z</time>
      </trkpt>
      <trkpt lat="46.6601" lon="3.23072">
        <ele>206</ele>
        <time>2022-10-06T06:12:38.000Z</time>
      </trkpt>
      <trkpt lat="46.66004" lon="3.23073">
        <ele>205.80000305176</ele>
        <time>2022-10-06T06:12:40.000Z</time>
      </trkpt>
      <trkpt lat="46.66" lon="3.23071">
        <ele>205.60000610352</ele>
        <time>2022-10-06T06:12:41.000Z</time>
      </trkpt>
      <trkpt lat="46.65994" lon="3.23058">
        <ele>205.19999694824</ele>
        <time>2022-10-06T06:12:43.000Z</time>
      </trkpt>
      <trkpt lat="46.65987" lon="3.23044">
        <ele>205</ele>
        <time>2022-10-06T06:12:45.000Z</time>
      </trkpt>
      <trkpt lat="46.65971" lon="3.23017">
        <ele>204.80000305176</ele>
        <time>2022-10-06T06:12:49.000Z</time>
      </trkpt>
      <trkpt lat="46.65943" lon="3.22971">
        <ele>204.39999389648</ele>
        <time>2022-10-06T06:12:55.000Z</time>
      </trkpt>
      <trkpt lat="46.65934" lon="3.22956">
        <ele>204.39999389648</ele>
        <time>2022-10-06T06:12:57.000Z</time>
      </trkpt>
      <trkpt lat="46.65896" lon="3.22895">
        <ele>204.39999389648</ele>
        <time>2022-10-06T06:13:05.000Z</time>
      </trkpt>
      <trkpt lat="46.65877" lon="3.22866">
        <ele>204.19999694824</ele>
        <time>2022-10-06T06:13:09.000Z</time>
      </trkpt>
      <trkpt lat="46.65839" lon="3.22805">
        <ele>204</ele>
        <time>2022-10-06T06:13:17.000Z</time>
      </trkpt>
      <trkpt lat="46.65834" lon="3.22797">
        <ele>204</ele>
        <time>2022-10-06T06:13:18.000Z</time>
      </trkpt>
      <trkpt lat="46.65795" lon="3.22735">
        <ele>203.60000610352</ele>
        <time>2022-10-06T06:13:26.000Z</time>
      </trkpt>
      <trkpt lat="46.65785" lon="3.2272">
        <ele>203.60000610352</ele>
        <time>2022-10-06T06:13:28.000Z</time>
      </trkpt>
      <trkpt lat="46.6578" lon="3.22712">
        <ele>203.60000610352</ele>
        <time>2022-10-06T06:13:29.000Z</time>
      </trkpt>
      <trkpt lat="46.65743" lon="3.22649">
        <ele>202.39999389648</ele>
        <time>2022-10-06T06:13:37.000Z</time>
      </trkpt>
      <trkpt lat="46.6573" lon="3.22626">
        <ele>202</ele>
        <time>2022-10-06T06:13:40.000Z</time>
      </trkpt>
      <trkpt lat="46.65705" lon="3.22584">
        <ele>201.39999389648</ele>
        <time>2022-10-06T06:13:45.000Z</time>
      </trkpt>
      <trkpt lat="46.65689" lon="3.22557">
        <ele>200.39999389648</ele>
        <time>2022-10-06T06:13:48.000Z</time>
      </trkpt>
      <trkpt lat="46.65684" lon="3.22548">
        <ele>200.19999694824</ele>
        <time>2022-10-06T06:13:49.000Z</time>
      </trkpt>
      <trkpt lat="46.65656" lon="3.22496">
        <ele>199.19999694824</ele>
        <time>2022-10-06T06:13:55.000Z</time>
      </trkpt>
      <trkpt lat="46.65648" lon="3.22478">
        <ele>198.80000305176</ele>
        <time>2022-10-06T06:13:57.000Z</time>
      </trkpt>
      <trkpt lat="46.65636" lon="3.22427">
        <ele>198.39999389648</ele>
        <time>2022-10-06T06:14:02.000Z</time>
      </trkpt>
      <trkpt lat="46.65634" lon="3.22406">
        <ele>198.39999389648</ele>
        <time>2022-10-06T06:14:04.000Z</time>
      </trkpt>
      <trkpt lat="46.65634" lon="3.22375">
        <ele>198.19999694824</ele>
        <time>2022-10-06T06:14:07.000Z</time>
      </trkpt>
      <trkpt lat="46.65634" lon="3.22365">
        <ele>198</ele>
        <time>2022-10-06T06:14:08.000Z</time>
      </trkpt>
      <trkpt lat="46.65635" lon="3.22283">
        <ele>197.80000305176</ele>
        <time>2022-10-06T06:14:16.000Z</time>
      </trkpt>
      <trkpt lat="46.65635" lon="3.22201">
        <ele>197.60000610352</ele>
        <time>2022-10-06T06:14:24.000Z</time>
      </trkpt>
      <trkpt lat="46.65635" lon="3.22161">
        <ele>197.60000610352</ele>
        <time>2022-10-06T06:14:28.000Z</time>
      </trkpt>
      <trkpt lat="46.65635" lon="3.2208">
        <ele>198</ele>
        <time>2022-10-06T06:14:36.000Z</time>
      </trkpt>
      <trkpt lat="46.65635" lon="3.2206">
        <ele>198</ele>
        <time>2022-10-06T06:14:38.000Z</time>
      </trkpt>
      <trkpt lat="46.65636" lon="3.21979">
        <ele>197.80000305176</ele>
        <time>2022-10-06T06:14:46.000Z</time>
      </trkpt>
      <trkpt lat="46.65636" lon="3.21929">
        <ele>197.80000305176</ele>
        <time>2022-10-06T06:14:51.000Z</time>
      </trkpt>
      <trkpt lat="46.65636" lon="3.2185">
        <ele>197.80000305176</ele>
        <time>2022-10-06T06:14:59.000Z</time>
      </trkpt>
      <trkpt lat="46.65636" lon="3.21781">
        <ele>197.80000305176</ele>
        <time>2022-10-06T06:15:06.000Z</time>
      </trkpt>
      <trkpt lat="46.65636" lon="3.21701">
        <ele>198</ele>
        <time>2022-10-06T06:15:14.000Z</time>
      </trkpt>
      <trkpt lat="46.65636" lon="3.2166">
        <ele>198.19999694824</ele>
        <time>2022-10-06T06:15:18.000Z</time>
      </trkpt>
      <trkpt lat="46.65636" lon="3.21581">
        <ele>198.39999389648</ele>
        <time>2022-10-06T06:15:26.000Z</time>
      </trkpt>
      <trkpt lat="46.65636" lon="3.21561">
        <ele>198.39999389648</ele>
        <time>2022-10-06T06:15:28.000Z</time>
      </trkpt>
      <trkpt lat="46.65637" lon="3.21473">
        <ele>198.19999694824</ele>
        <time>2022-10-06T06:15:37.000Z</time>
      </trkpt>
      <trkpt lat="46.65637" lon="3.21455">
        <ele>198.19999694824</ele>
        <time>2022-10-06T06:15:39.000Z</time>
      </trkpt>
      <trkpt lat="46.65637" lon="3.21366">
        <ele>198.39999389648</ele>
        <time>2022-10-06T06:15:48.000Z</time>
      </trkpt>
      <trkpt lat="46.65637" lon="3.21287">
        <ele>198.60000610352</ele>
        <time>2022-10-06T06:15:56.000Z</time>
      </trkpt>
      <trkpt lat="46.65637" lon="3.21268">
        <ele>198.60000610352</ele>
        <time>2022-10-06T06:15:58.000Z</time>
      </trkpt>
      <trkpt lat="46.65637" lon="3.2118">
        <ele>199</ele>
        <time>2022-10-06T06:16:07.000Z</time>
      </trkpt>
      <trkpt lat="46.65637" lon="3.21151">
        <ele>199</ele>
        <time>2022-10-06T06:16:10.000Z</time>
      </trkpt>
      <trkpt lat="46.65637" lon="3.21122">
        <ele>199.19999694824</ele>
        <time>2022-10-06T06:16:13.000Z</time>
      </trkpt>
      <trkpt lat="46.65636" lon="3.21044">
        <ele>199.19999694824</ele>
        <time>2022-10-06T06:16:21.000Z</time>
      </trkpt>
      <trkpt lat="46.65637" lon="3.20975">
        <ele>199.39999389648</ele>
        <time>2022-10-06T06:16:28.000Z</time>
      </trkpt>
      <trkpt lat="46.65637" lon="3.20886">
        <ele>199.39999389648</ele>
        <time>2022-10-06T06:16:37.000Z</time>
      </trkpt>
      <trkpt lat="46.65637" lon="3.20848">
        <ele>199.60000610352</ele>
        <time>2022-10-06T06:16:41.000Z</time>
      </trkpt>
      <trkpt lat="46.65636" lon="3.20813">
        <ele>200.19999694824</ele>
        <time>2022-10-06T06:16:45.000Z</time>
      </trkpt>
      <trkpt lat="46.65637" lon="3.20797">
        <ele>200.39999389648</ele>
        <time>2022-10-06T06:16:47.000Z</time>
      </trkpt>
      <trkpt lat="46.65637" lon="3.20774">
        <ele>201.19999694824</ele>
        <time>2022-10-06T06:16:50.000Z</time>
      </trkpt>
      <trkpt lat="46.65637" lon="3.20762">
        <ele>202</ele>
        <time>2022-10-06T06:16:52.000Z</time>
      </trkpt>
      <trkpt lat="46.65638" lon="3.20754">
        <ele>202.19999694824</ele>
        <time>2022-10-06T06:16:54.000Z</time>
      </trkpt>
      <trkpt lat="46.6564" lon="3.20751">
        <ele>202.39999389648</ele>
        <time>2022-10-06T06:16:55.000Z</time>
      </trkpt>
      <trkpt lat="46.65643" lon="3.20747">
        <ele>202.60000610352</ele>
        <time>2022-10-06T06:16:56.000Z</time>
      </trkpt>
      <trkpt lat="46.6566" lon="3.20734">
        <ele>203.19999694824</ele>
        <time>2022-10-06T06:17:00.000Z</time>
      </trkpt>
      <trkpt lat="46.65699" lon="3.20706">
        <ele>203</ele>
        <time>2022-10-06T06:17:07.000Z</time>
      </trkpt>
      <trkpt lat="46.6574" lon="3.20675">
        <ele>202.80000305176</ele>
        <time>2022-10-06T06:17:14.000Z</time>
      </trkpt>
      <trkpt lat="46.65789" lon="3.20639">
        <ele>202.19999694824</ele>
        <time>2022-10-06T06:17:22.000Z</time>
      </trkpt>
      <trkpt lat="46.65802" lon="3.2063">
        <ele>202</ele>
        <time>2022-10-06T06:17:24.000Z</time>
      </trkpt>
      <trkpt lat="46.65851" lon="3.20593">
        <ele>201.60000610352</ele>
        <time>2022-10-06T06:17:32.000Z</time>
      </trkpt>
      <trkpt lat="46.65857" lon="3.20588">
        <ele>201.39999389648</ele>
        <time>2022-10-06T06:17:33.000Z</time>
      </trkpt>
      <trkpt lat="46.65888" lon="3.20565">
        <ele>201.19999694824</ele>
        <time>2022-10-06T06:17:38.000Z</time>
      </trkpt>
      <trkpt lat="46.65913" lon="3.20547">
        <ele>201.19999694824</ele>
        <time>2022-10-06T06:17:42.000Z</time>
      </trkpt>
      <trkpt lat="46.65962" lon="3.20509">
        <ele>201</ele>
        <time>2022-10-06T06:17:50.000Z</time>
      </trkpt>
      <trkpt lat="46.65974" lon="3.20499">
        <ele>200.80000305176</ele>
        <time>2022-10-06T06:17:52.000Z</time>
      </trkpt>
      <trkpt lat="46.66026" lon="3.2046">
        <ele>200.39999389648</ele>
        <time>2022-10-06T06:18:00.000Z</time>
      </trkpt>
      <trkpt lat="46.66039" lon="3.2045">
        <ele>200.39999389648</ele>
        <time>2022-10-06T06:18:02.000Z</time>
      </trkpt>
      <trkpt lat="46.66089" lon="3.20412">
        <ele>200.39999389648</ele>
        <time>2022-10-06T06:18:10.000Z</time>
      </trkpt>
      <trkpt lat="46.66096" lon="3.20407">
        <ele>200.39999389648</ele>
        <time>2022-10-06T06:18:11.000Z</time>
      </trkpt>
      <trkpt lat="46.66127" lon="3.20382">
        <ele>200.19999694824</ele>
        <time>2022-10-06T06:18:16.000Z</time>
      </trkpt>
      <trkpt lat="46.66139" lon="3.20372">
        <ele>200.19999694824</ele>
        <time>2022-10-06T06:18:18.000Z</time>
      </trkpt>
      <trkpt lat="46.66176" lon="3.20333">
        <ele>200.19999694824</ele>
        <time>2022-10-06T06:18:25.000Z</time>
      </trkpt>
      <trkpt lat="46.6622" lon="3.20272">
        <ele>200.19999694824</ele>
        <time>2022-10-06T06:18:34.000Z</time>
      </trkpt>
      <trkpt lat="46.66259" lon="3.20217">
        <ele>200.60000610352</ele>
        <time>2022-10-06T06:18:42.000Z</time>
      </trkpt>
      <trkpt lat="46.66268" lon="3.20205">
        <ele>200.60000610352</ele>
        <time>2022-10-06T06:18:44.000Z</time>
      </trkpt>
      <trkpt lat="46.66308" lon="3.2015">
        <ele>200.39999389648</ele>
        <time>2022-10-06T06:18:52.000Z</time>
      </trkpt>
      <trkpt lat="46.66324" lon="3.20128">
        <ele>200.39999389648</ele>
        <time>2022-10-06T06:18:55.000Z</time>
      </trkpt>
      <trkpt lat="46.66368" lon="3.20068">
        <ele>200.60000610352</ele>
        <time>2022-10-06T06:19:04.000Z</time>
      </trkpt>
      <trkpt lat="46.66377" lon="3.20055">
        <ele>200.60000610352</ele>
        <time>2022-10-06T06:19:06.000Z</time>
      </trkpt>
      <trkpt lat="46.66416" lon="3.20001">
        <ele>200.60000610352</ele>
        <time>2022-10-06T06:19:14.000Z</time>
      </trkpt>
      <trkpt lat="46.66455" lon="3.19947">
        <ele>200.60000610352</ele>
        <time>2022-10-06T06:19:22.000Z</time>
      </trkpt>
      <trkpt lat="46.66497" lon="3.19891">
        <ele>200.39999389648</ele>
        <time>2022-10-06T06:19:30.000Z</time>
      </trkpt>
      <trkpt lat="46.66506" lon="3.19877">
        <ele>200.39999389648</ele>
        <time>2022-10-06T06:19:32.000Z</time>
      </trkpt>
      <trkpt lat="46.66546" lon="3.19822">
        <ele>200.19999694824</ele>
        <time>2022-10-06T06:19:40.000Z</time>
      </trkpt>
      <trkpt lat="46.66556" lon="3.19808">
        <ele>200</ele>
        <time>2022-10-06T06:19:42.000Z</time>
      </trkpt>
      <trkpt lat="46.666" lon="3.19748">
        <ele>200</ele>
        <time>2022-10-06T06:19:51.000Z</time>
      </trkpt>
      <trkpt lat="46.66608" lon="3.19737">
        <ele>200</ele>
        <time>2022-10-06T06:19:53.000Z</time>
      </trkpt>
      <trkpt lat="46.6665" lon="3.19678">
        <ele>200.39999389648</ele>
        <time>2022-10-06T06:20:02.000Z</time>
      </trkpt>
      <trkpt lat="46.6667" lon="3.19635">
        <ele>200.39999389648</ele>
        <time>2022-10-06T06:20:07.000Z</time>
      </trkpt>
      <trkpt lat="46.66694" lon="3.19563">
        <ele>200</ele>
        <time>2022-10-06T06:20:15.000Z</time>
      </trkpt>
      <trkpt lat="46.66717" lon="3.19484">
        <ele>199.60000610352</ele>
        <time>2022-10-06T06:20:23.000Z</time>
      </trkpt>
      <trkpt lat="46.66733" lon="3.19428">
        <ele>199.19999694824</ele>
        <time>2022-10-06T06:20:29.000Z</time>
      </trkpt>
      <trkpt lat="46.66739" lon="3.19407">
        <ele>199.19999694824</ele>
        <time>2022-10-06T06:20:31.000Z</time>
      </trkpt>
      <trkpt lat="46.66766" lon="3.19332">
        <ele>198.60000610352</ele>
        <time>2022-10-06T06:20:39.000Z</time>
      </trkpt>
      <trkpt lat="46.6677" lon="3.19323">
        <ele>198.60000610352</ele>
        <time>2022-10-06T06:20:40.000Z</time>
      </trkpt>
      <trkpt lat="46.66784" lon="3.19298">
        <ele>198.19999694824</ele>
        <time>2022-10-06T06:20:43.000Z</time>
      </trkpt>
      <trkpt lat="46.66799" lon="3.19276">
        <ele>198</ele>
        <time>2022-10-06T06:20:46.000Z</time>
      </trkpt>
      <trkpt lat="46.66844" lon="3.19226">
        <ele>197.60000610352</ele>
        <time>2022-10-06T06:20:54.000Z</time>
      </trkpt>
      <trkpt lat="46.6685" lon="3.1922">
        <ele>197.60000610352</ele>
        <time>2022-10-06T06:20:55.000Z</time>
      </trkpt>
      <trkpt lat="46.66894" lon="3.19174">
        <ele>197.80000305176</ele>
        <time>2022-10-06T06:21:03.000Z</time>
      </trkpt>
      <trkpt lat="46.66904" lon="3.19162">
        <ele>197.80000305176</ele>
        <time>2022-10-06T06:21:05.000Z</time>
      </trkpt>
      <trkpt lat="46.66953" lon="3.1911">
        <ele>198</ele>
        <time>2022-10-06T06:21:14.000Z</time>
      </trkpt>
      <trkpt lat="46.66958" lon="3.19104">
        <ele>198</ele>
        <time>2022-10-06T06:21:15.000Z</time>
      </trkpt>
      <trkpt lat="46.67004" lon="3.19057">
        <ele>198</ele>
        <time>2022-10-06T06:21:23.000Z</time>
      </trkpt>
      <trkpt lat="46.6701" lon="3.19051">
        <ele>198</ele>
        <time>2022-10-06T06:21:24.000Z</time>
      </trkpt>
      <trkpt lat="46.67057" lon="3.19007">
        <ele>197.39999389648</ele>
        <time>2022-10-06T06:21:32.000Z</time>
      </trkpt>
      <trkpt lat="46.6707" lon="3.18997">
        <ele>197.39999389648</ele>
        <time>2022-10-06T06:21:34.000Z</time>
      </trkpt>
      <trkpt lat="46.67094" lon="3.18976">
        <ele>197</ele>
        <time>2022-10-06T06:21:38.000Z</time>
      </trkpt>
      <trkpt lat="46.6713" lon="3.18946">
        <ele>196.60000610352</ele>
        <time>2022-10-06T06:21:44.000Z</time>
      </trkpt>
      <trkpt lat="46.67181" lon="3.18902">
        <ele>196.60000610352</ele>
        <time>2022-10-06T06:21:53.000Z</time>
      </trkpt>
      <trkpt lat="46.67207" lon="3.18879">
        <ele>197</ele>
        <time>2022-10-06T06:21:58.000Z</time>
      </trkpt>
      <trkpt lat="46.67251" lon="3.18841">
        <ele>198</ele>
        <time>2022-10-06T06:22:06.000Z</time>
      </trkpt>
      <trkpt lat="46.67257" lon="3.18836">
        <ele>198</ele>
        <time>2022-10-06T06:22:07.000Z</time>
      </trkpt>
      <trkpt lat="46.67296" lon="3.18792">
        <ele>197.39999389648</ele>
        <time>2022-10-06T06:22:14.000Z</time>
      </trkpt>
      <trkpt lat="46.67327" lon="3.18746">
        <ele>196.80000305176</ele>
        <time>2022-10-06T06:22:20.000Z</time>
      </trkpt>
      <trkpt lat="46.67337" lon="3.18731">
        <ele>196.60000610352</ele>
        <time>2022-10-06T06:22:22.000Z</time>
      </trkpt>
      <trkpt lat="46.67377" lon="3.18671">
        <ele>195.80000305176</ele>
        <time>2022-10-06T06:22:30.000Z</time>
      </trkpt>
      <trkpt lat="46.67382" lon="3.18663">
        <ele>195.60000610352</ele>
        <time>2022-10-06T06:22:31.000Z</time>
      </trkpt>
      <trkpt lat="46.67418" lon="3.18614">
        <ele>195.39999389648</ele>
        <time>2022-10-06T06:22:38.000Z</time>
      </trkpt>
      <trkpt lat="46.67452" lon="3.18581">
        <ele>195.19999694824</ele>
        <time>2022-10-06T06:22:44.000Z</time>
      </trkpt>
      <trkpt lat="46.6749" lon="3.1856">
        <ele>195</ele>
        <time>2022-10-06T06:22:50.000Z</time>
      </trkpt>
      <trkpt lat="46.67547" lon="3.1853">
        <ele>195.19999694824</ele>
        <time>2022-10-06T06:22:59.000Z</time>
      </trkpt>
      <trkpt lat="46.67592" lon="3.1849">
        <ele>195.39999389648</ele>
        <time>2022-10-06T06:23:07.000Z</time>
      </trkpt>
      <trkpt lat="46.6764" lon="3.18439">
        <ele>195.39999389648</ele>
        <time>2022-10-06T06:23:16.000Z</time>
      </trkpt>
      <trkpt lat="46.67674" lon="3.18393">
        <ele>195.80000305176</ele>
        <time>2022-10-06T06:23:23.000Z</time>
      </trkpt>
      <trkpt lat="46.67701" lon="3.18339">
        <ele>196.19999694824</ele>
        <time>2022-10-06T06:23:30.000Z</time>
      </trkpt>
      <trkpt lat="46.67729" lon="3.1826">
        <ele>196.19999694824</ele>
        <time>2022-10-06T06:23:39.000Z</time>
      </trkpt>
      <trkpt lat="46.67752" lon="3.18185">
        <ele>195.60000610352</ele>
        <time>2022-10-06T06:23:47.000Z</time>
      </trkpt>
      <trkpt lat="46.67755" lon="3.18176">
        <ele>195.60000610352</ele>
        <time>2022-10-06T06:23:48.000Z</time>
      </trkpt>
      <trkpt lat="46.67777" lon="3.18104">
        <ele>195.60000610352</ele>
        <time>2022-10-06T06:23:56.000Z</time>
      </trkpt>
      <trkpt lat="46.67786" lon="3.18077">
        <ele>195.60000610352</ele>
        <time>2022-10-06T06:23:59.000Z</time>
      </trkpt>
      <trkpt lat="46.6781" lon="3.18018">
        <ele>195.80000305176</ele>
        <time>2022-10-06T06:24:06.000Z</time>
      </trkpt>
      <trkpt lat="46.67842" lon="3.17953">
        <ele>195.80000305176</ele>
        <time>2022-10-06T06:24:14.000Z</time>
      </trkpt>
      <trkpt lat="46.67876" lon="3.17889">
        <ele>195.39999389648</ele>
        <time>2022-10-06T06:24:22.000Z</time>
      </trkpt>
      <trkpt lat="46.67885" lon="3.17873">
        <ele>195.19999694824</ele>
        <time>2022-10-06T06:24:24.000Z</time>
      </trkpt>
      <trkpt lat="46.67918" lon="3.17822">
        <ele>195.19999694824</ele>
        <time>2022-10-06T06:24:31.000Z</time>
      </trkpt>
      <trkpt lat="46.6795" lon="3.17761">
        <ele>195.60000610352</ele>
        <time>2022-10-06T06:24:39.000Z</time>
      </trkpt>
      <trkpt lat="46.67984" lon="3.17691">
        <ele>196</ele>
        <time>2022-10-06T06:24:48.000Z</time>
      </trkpt>
      <trkpt lat="46.68018" lon="3.17619">
        <ele>196.19999694824</ele>
        <time>2022-10-06T06:24:57.000Z</time>
      </trkpt>
      <trkpt lat="46.6805" lon="3.17553">
        <ele>196.19999694824</ele>
        <time>2022-10-06T06:25:05.000Z</time>
      </trkpt>
      <trkpt lat="46.68065" lon="3.1752">
        <ele>196.39999389648</ele>
        <time>2022-10-06T06:25:09.000Z</time>
      </trkpt>
      <trkpt lat="46.681" lon="3.17448">
        <ele>196.39999389648</ele>
        <time>2022-10-06T06:25:18.000Z</time>
      </trkpt>
      <trkpt lat="46.68111" lon="3.17425">
        <ele>196.60000610352</ele>
        <time>2022-10-06T06:25:21.000Z</time>
      </trkpt>
      <trkpt lat="46.68118" lon="3.17409">
        <ele>196.60000610352</ele>
        <time>2022-10-06T06:25:23.000Z</time>
      </trkpt>
      <trkpt lat="46.68151" lon="3.17342">
        <ele>197.60000610352</ele>
        <time>2022-10-06T06:25:32.000Z</time>
      </trkpt>
      <trkpt lat="46.68155" lon="3.17334">
        <ele>197.80000305176</ele>
        <time>2022-10-06T06:25:33.000Z</time>
      </trkpt>
      <trkpt lat="46.68175" lon="3.17291">
        <ele>198.39999389648</ele>
        <time>2022-10-06T06:25:39.000Z</time>
      </trkpt>
      <trkpt lat="46.68182" lon="3.17277">
        <ele>199</ele>
        <time>2022-10-06T06:25:41.000Z</time>
      </trkpt>
      <trkpt lat="46.68201" lon="3.17233">
        <ele>200</ele>
        <time>2022-10-06T06:25:47.000Z</time>
      </trkpt>
      <trkpt lat="46.68204" lon="3.17225">
        <ele>200</ele>
        <time>2022-10-06T06:25:48.000Z</time>
      </trkpt>
      <trkpt lat="46.68207" lon="3.17217">
        <ele>200.39999389648</ele>
        <time>2022-10-06T06:25:49.000Z</time>
      </trkpt>
      <trkpt lat="46.68211" lon="3.17201">
        <ele>200.39999389648</ele>
        <time>2022-10-06T06:25:51.000Z</time>
      </trkpt>
      <trkpt lat="46.68214" lon="3.17183">
        <ele>200.60000610352</ele>
        <time>2022-10-06T06:25:53.000Z</time>
      </trkpt>
      <trkpt lat="46.68216" lon="3.17129">
        <ele>201.19999694824</ele>
        <time>2022-10-06T06:25:59.000Z</time>
      </trkpt>
      <trkpt lat="46.68214" lon="3.17053">
        <ele>201.19999694824</ele>
        <time>2022-10-06T06:26:07.000Z</time>
      </trkpt>
      <trkpt lat="46.68212" lon="3.16966">
        <ele>200.60000610352</ele>
        <time>2022-10-06T06:26:16.000Z</time>
      </trkpt>
      <trkpt lat="46.68211" lon="3.16937">
        <ele>200.80000305176</ele>
        <time>2022-10-06T06:26:19.000Z</time>
      </trkpt>
      <trkpt lat="46.68209" lon="3.16856">
        <ele>201.19999694824</ele>
        <time>2022-10-06T06:26:28.000Z</time>
      </trkpt>
      <trkpt lat="46.68209" lon="3.1684">
        <ele>201.60000610352</ele>
        <time>2022-10-06T06:26:30.000Z</time>
      </trkpt>
      <trkpt lat="46.68209" lon="3.16826">
        <ele>202</ele>
        <time>2022-10-06T06:26:32.000Z</time>
      </trkpt>
      <trkpt lat="46.68209" lon="3.16799">
        <ele>203.19999694824</ele>
        <time>2022-10-06T06:26:36.000Z</time>
      </trkpt>
      <trkpt lat="46.68209" lon="3.16792">
        <ele>203.19999694824</ele>
        <time>2022-10-06T06:26:37.000Z</time>
      </trkpt>
      <trkpt lat="46.68209" lon="3.16772">
        <ele>204.39999389648</ele>
        <time>2022-10-06T06:26:40.000Z</time>
      </trkpt>
      <trkpt lat="46.68208" lon="3.16752">
        <ele>205.39999389648</ele>
        <time>2022-10-06T06:26:43.000Z</time>
      </trkpt>
      <trkpt lat="46.68209" lon="3.16733">
        <ele>206.19999694824</ele>
        <time>2022-10-06T06:26:46.000Z</time>
      </trkpt>
      <trkpt lat="46.68209" lon="3.16727">
        <ele>206.39999389648</ele>
        <time>2022-10-06T06:26:47.000Z</time>
      </trkpt>
      <trkpt lat="46.68208" lon="3.1672">
        <ele>206.80000305176</ele>
        <time>2022-10-06T06:26:48.000Z</time>
      </trkpt>
      <trkpt lat="46.68208" lon="3.16686">
        <ele>208</ele>
        <time>2022-10-06T06:26:53.000Z</time>
      </trkpt>
      <trkpt lat="46.68205" lon="3.16656">
        <ele>209</ele>
        <time>2022-10-06T06:26:57.000Z</time>
      </trkpt>
      <trkpt lat="46.68201" lon="3.16626">
        <ele>210</ele>
        <time>2022-10-06T06:27:01.000Z</time>
      </trkpt>
      <trkpt lat="46.68199" lon="3.16619">
        <ele>210.39999389648</ele>
        <time>2022-10-06T06:27:02.000Z</time>
      </trkpt>
      <trkpt lat="46.68193" lon="3.16586">
        <ele>211.80000305176</ele>
        <time>2022-10-06T06:27:07.000Z</time>
      </trkpt>
      <trkpt lat="46.68188" lon="3.16565">
        <ele>212.60000610352</ele>
        <time>2022-10-06T06:27:10.000Z</time>
      </trkpt>
      <trkpt lat="46.68186" lon="3.16552">
        <ele>213</ele>
        <time>2022-10-06T06:27:12.000Z</time>
      </trkpt>
      <trkpt lat="46.68178" lon="3.16516">
        <ele>214</ele>
        <time>2022-10-06T06:27:17.000Z</time>
      </trkpt>
      <trkpt lat="46.68174" lon="3.16494">
        <ele>214.60000610352</ele>
        <time>2022-10-06T06:27:20.000Z</time>
      </trkpt>
      <trkpt lat="46.68169" lon="3.16472">
        <ele>215.19999694824</ele>
        <time>2022-10-06T06:27:23.000Z</time>
      </trkpt>
      <trkpt lat="46.68163" lon="3.16441">
        <ele>215.39999389648</ele>
        <time>2022-10-06T06:27:27.000Z</time>
      </trkpt>
      <trkpt lat="46.6815" lon="3.16378">
        <ele>216.19999694824</ele>
        <time>2022-10-06T06:27:35.000Z</time>
      </trkpt>
      <trkpt lat="46.68142" lon="3.1634">
        <ele>216.60000610352</ele>
        <time>2022-10-06T06:27:40.000Z</time>
      </trkpt>
      <trkpt lat="46.68129" lon="3.16267">
        <ele>217.19999694824</ele>
        <time>2022-10-06T06:27:49.000Z</time>
      </trkpt>
      <trkpt lat="46.68129" lon="3.16258">
        <ele>217.19999694824</ele>
        <time>2022-10-06T06:27:50.000Z</time>
      </trkpt>
      <trkpt lat="46.68127" lon="3.16233">
        <ele>217.39999389648</ele>
        <time>2022-10-06T06:27:53.000Z</time>
      </trkpt>
      <trkpt lat="46.68127" lon="3.16208">
        <ele>217.19999694824</ele>
        <time>2022-10-06T06:27:56.000Z</time>
      </trkpt>
      <trkpt lat="46.68126" lon="3.16138">
        <ele>217.39999389648</ele>
        <time>2022-10-06T06:28:04.000Z</time>
      </trkpt>
      <trkpt lat="46.68124" lon="3.16065">
        <ele>217.60000610352</ele>
        <time>2022-10-06T06:28:12.000Z</time>
      </trkpt>
      <trkpt lat="46.68122" lon="3.15985">
        <ele>218.19999694824</ele>
        <time>2022-10-06T06:28:21.000Z</time>
      </trkpt>
      <trkpt lat="46.68122" lon="3.15968">
        <ele>218.39999389648</ele>
        <time>2022-10-06T06:28:23.000Z</time>
      </trkpt>
      <trkpt lat="46.6812" lon="3.15917">
        <ele>219.19999694824</ele>
        <time>2022-10-06T06:28:29.000Z</time>
      </trkpt>
      <trkpt lat="46.6812" lon="3.15884">
        <ele>219.60000610352</ele>
        <time>2022-10-06T06:28:33.000Z</time>
      </trkpt>
      <trkpt lat="46.68119" lon="3.15849">
        <ele>220.19999694824</ele>
        <time>2022-10-06T06:28:37.000Z</time>
      </trkpt>
      <trkpt lat="46.68118" lon="3.15806">
        <ele>221.19999694824</ele>
        <time>2022-10-06T06:28:42.000Z</time>
      </trkpt>
      <trkpt lat="46.68118" lon="3.15798">
        <ele>221.39999389648</ele>
        <time>2022-10-06T06:28:43.000Z</time>
      </trkpt>
      <trkpt lat="46.68117" lon="3.15749">
        <ele>222.39999389648</ele>
        <time>2022-10-06T06:28:49.000Z</time>
      </trkpt>
      <trkpt lat="46.68116" lon="3.15717">
        <ele>223.19999694824</ele>
        <time>2022-10-06T06:28:53.000Z</time>
      </trkpt>
      <trkpt lat="46.68117" lon="3.15684">
        <ele>223.39999389648</ele>
        <time>2022-10-06T06:28:57.000Z</time>
      </trkpt>
      <trkpt lat="46.68118" lon="3.15667">
        <ele>224</ele>
        <time>2022-10-06T06:28:59.000Z</time>
      </trkpt>
      <trkpt lat="46.68123" lon="3.15628">
        <ele>224.60000610352</ele>
        <time>2022-10-06T06:29:04.000Z</time>
      </trkpt>
      <trkpt lat="46.68128" lon="3.15594">
        <ele>225</ele>
        <time>2022-10-06T06:29:08.000Z</time>
      </trkpt>
      <trkpt lat="46.68134" lon="3.15553">
        <ele>225.80000305176</ele>
        <time>2022-10-06T06:29:13.000Z</time>
      </trkpt>
      <trkpt lat="46.68144" lon="3.15487">
        <ele>226.39999389648</ele>
        <time>2022-10-06T06:29:21.000Z</time>
      </trkpt>
      <trkpt lat="46.68157" lon="3.1541">
        <ele>226</ele>
        <time>2022-10-06T06:29:30.000Z</time>
      </trkpt>
      <trkpt lat="46.68165" lon="3.15358">
        <ele>225.19999694824</ele>
        <time>2022-10-06T06:29:35.000Z</time>
      </trkpt>
      <trkpt lat="46.68168" lon="3.15336">
        <ele>224.60000610352</ele>
        <time>2022-10-06T06:29:37.000Z</time>
      </trkpt>
      <trkpt lat="46.68173" lon="3.15301">
        <ele>223.39999389648</ele>
        <time>2022-10-06T06:29:40.000Z</time>
      </trkpt>
      <trkpt lat="46.68175" lon="3.15289">
        <ele>223.19999694824</ele>
        <time>2022-10-06T06:29:41.000Z</time>
      </trkpt>
      <trkpt lat="46.6818" lon="3.15251">
        <ele>222</ele>
        <time>2022-10-06T06:29:44.000Z</time>
      </trkpt>
      <trkpt lat="46.68186" lon="3.15214">
        <ele>220.60000610352</ele>
        <time>2022-10-06T06:29:47.000Z</time>
      </trkpt>
      <trkpt lat="46.68188" lon="3.15201">
        <ele>220.19999694824</ele>
        <time>2022-10-06T06:29:48.000Z</time>
      </trkpt>
      <trkpt lat="46.68193" lon="3.15174">
        <ele>219.39999389648</ele>
        <time>2022-10-06T06:29:50.000Z</time>
      </trkpt>
      <trkpt lat="46.68202" lon="3.1512">
        <ele>217.60000610352</ele>
        <time>2022-10-06T06:29:54.000Z</time>
      </trkpt>
      <trkpt lat="46.68205" lon="3.15107">
        <ele>217</ele>
        <time>2022-10-06T06:29:55.000Z</time>
      </trkpt>
      <trkpt lat="46.6821" lon="3.15079">
        <ele>216</ele>
        <time>2022-10-06T06:29:57.000Z</time>
      </trkpt>
      <trkpt lat="46.68216" lon="3.1505">
        <ele>214.80000305176</ele>
        <time>2022-10-06T06:29:59.000Z</time>
      </trkpt>
      <trkpt lat="46.68227" lon="3.15008">
        <ele>213.39999389648</ele>
        <time>2022-10-06T06:30:02.000Z</time>
      </trkpt>
      <trkpt lat="46.68232" lon="3.14995">
        <ele>213</ele>
        <time>2022-10-06T06:30:03.000Z</time>
      </trkpt>
      <trkpt lat="46.68236" lon="3.14981">
        <ele>212.19999694824</ele>
        <time>2022-10-06T06:30:04.000Z</time>
      </trkpt>
      <trkpt lat="46.68247" lon="3.14955">
        <ele>211</ele>
        <time>2022-10-06T06:30:06.000Z</time>
      </trkpt>
      <trkpt lat="46.68266" lon="3.14919">
        <ele>209.19999694824</ele>
        <time>2022-10-06T06:30:09.000Z</time>
      </trkpt>
      <trkpt lat="46.68289" lon="3.14888">
        <ele>208</ele>
        <time>2022-10-06T06:30:12.000Z</time>
      </trkpt>
      <trkpt lat="46.68305" lon="3.14871">
        <ele>206.60000610352</ele>
        <time>2022-10-06T06:30:14.000Z</time>
      </trkpt>
      <trkpt lat="46.68313" lon="3.14864">
        <ele>206</ele>
        <time>2022-10-06T06:30:15.000Z</time>
      </trkpt>
      <trkpt lat="46.68323" lon="3.14858">
        <ele>205.39999389648</ele>
        <time>2022-10-06T06:30:16.000Z</time>
      </trkpt>
      <trkpt lat="46.68332" lon="3.14854">
        <ele>205.19999694824</ele>
        <time>2022-10-06T06:30:17.000Z</time>
      </trkpt>
      <trkpt lat="46.6835" lon="3.1485">
        <ele>203.80000305176</ele>
        <time>2022-10-06T06:30:19.000Z</time>
      </trkpt>
      <trkpt lat="46.6837" lon="3.14849">
        <ele>203.19999694824</ele>
        <time>2022-10-06T06:30:21.000Z</time>
      </trkpt>
      <trkpt lat="46.68389" lon="3.1485">
        <ele>202.39999389648</ele>
        <time>2022-10-06T06:30:23.000Z</time>
      </trkpt>
      <trkpt lat="46.68417" lon="3.14851">
        <ele>200.60000610352</ele>
        <time>2022-10-06T06:30:26.000Z</time>
      </trkpt>
      <trkpt lat="46.68427" lon="3.1485">
        <ele>200.39999389648</ele>
        <time>2022-10-06T06:30:27.000Z</time>
      </trkpt>
      <trkpt lat="46.68436" lon="3.14847">
        <ele>199.60000610352</ele>
        <time>2022-10-06T06:30:28.000Z</time>
      </trkpt>
      <trkpt lat="46.68446" lon="3.14843">
        <ele>199.19999694824</ele>
        <time>2022-10-06T06:30:29.000Z</time>
      </trkpt>
      <trkpt lat="46.68454" lon="3.14838">
        <ele>198.80000305176</ele>
        <time>2022-10-06T06:30:30.000Z</time>
      </trkpt>
      <trkpt lat="46.68462" lon="3.14829">
        <ele>197.60000610352</ele>
        <time>2022-10-06T06:30:31.000Z</time>
      </trkpt>
      <trkpt lat="46.68469" lon="3.14817">
        <ele>197.19999694824</ele>
        <time>2022-10-06T06:30:32.000Z</time>
      </trkpt>
      <trkpt lat="46.68479" lon="3.14792">
        <ele>196.60000610352</ele>
        <time>2022-10-06T06:30:34.000Z</time>
      </trkpt>
      <trkpt lat="46.68497" lon="3.14741">
        <ele>195.19999694824</ele>
        <time>2022-10-06T06:30:38.000Z</time>
      </trkpt>
      <trkpt lat="46.68516" lon="3.14683">
        <ele>194.60000610352</ele>
        <time>2022-10-06T06:30:43.000Z</time>
      </trkpt>
      <trkpt lat="46.68531" lon="3.14631">
        <ele>194.39999389648</ele>
        <time>2022-10-06T06:30:48.000Z</time>
      </trkpt>
      <trkpt lat="46.68558" lon="3.14551">
        <ele>194.39999389648</ele>
        <time>2022-10-06T06:30:56.000Z</time>
      </trkpt>
      <trkpt lat="46.68578" lon="3.14474">
        <ele>195</ele>
        <time>2022-10-06T06:31:04.000Z</time>
      </trkpt>
      <trkpt lat="46.68581" lon="3.14465">
        <ele>195.19999694824</ele>
        <time>2022-10-06T06:31:05.000Z</time>
      </trkpt>
      <trkpt lat="46.68602" lon="3.14391">
        <ele>195.39999389648</ele>
        <time>2022-10-06T06:31:13.000Z</time>
      </trkpt>
      <trkpt lat="46.68608" lon="3.14373">
        <ele>195.39999389648</ele>
        <time>2022-10-06T06:31:15.000Z</time>
      </trkpt>
      <trkpt lat="46.68631" lon="3.14295">
        <ele>196</ele>
        <time>2022-10-06T06:31:24.000Z</time>
      </trkpt>
      <trkpt lat="46.68634" lon="3.14286">
        <ele>196.19999694824</ele>
        <time>2022-10-06T06:31:25.000Z</time>
      </trkpt>
      <trkpt lat="46.68651" lon="3.14228">
        <ele>197</ele>
        <time>2022-10-06T06:31:32.000Z</time>
      </trkpt>
      <trkpt lat="46.68653" lon="3.1422">
        <ele>197</ele>
        <time>2022-10-06T06:31:33.000Z</time>
      </trkpt>
      <trkpt lat="46.68669" lon="3.14164">
        <ele>198.19999694824</ele>
        <time>2022-10-06T06:31:40.000Z</time>
      </trkpt>
      <trkpt lat="46.68672" lon="3.14156">
        <ele>198.39999389648</ele>
        <time>2022-10-06T06:31:41.000Z</time>
      </trkpt>
      <trkpt lat="46.68678" lon="3.14134">
        <ele>199.19999694824</ele>
        <time>2022-10-06T06:31:44.000Z</time>
      </trkpt>
      <trkpt lat="46.68695" lon="3.14077">
        <ele>200.19999694824</ele>
        <time>2022-10-06T06:31:51.000Z</time>
      </trkpt>
      <trkpt lat="46.68699" lon="3.14061">
        <ele>200.39999389648</ele>
        <time>2022-10-06T06:31:53.000Z</time>
      </trkpt>
      <trkpt lat="46.68706" lon="3.14038">
        <ele>200.80000305176</ele>
        <time>2022-10-06T06:31:56.000Z</time>
      </trkpt>
      <trkpt lat="46.6871" lon="3.14024">
        <ele>201.19999694824</ele>
        <time>2022-10-06T06:31:58.000Z</time>
      </trkpt>
      <trkpt lat="46.68712" lon="3.14017">
        <ele>201.19999694824</ele>
        <time>2022-10-06T06:31:59.000Z</time>
      </trkpt>
      <trkpt lat="46.68728" lon="3.13962">
        <ele>202.19999694824</ele>
        <time>2022-10-06T06:32:06.000Z</time>
      </trkpt>
      <trkpt lat="46.68739" lon="3.13925">
        <ele>203.19999694824</ele>
        <time>2022-10-06T06:32:11.000Z</time>
      </trkpt>
      <trkpt lat="46.6875" lon="3.13894">
        <ele>204</ele>
        <time>2022-10-06T06:32:15.000Z</time>
      </trkpt>
      <trkpt lat="46.68756" lon="3.1388">
        <ele>204.39999389648</ele>
        <time>2022-10-06T06:32:17.000Z</time>
      </trkpt>
      <trkpt lat="46.68779" lon="3.13833">
        <ele>205.39999389648</ele>
        <time>2022-10-06T06:32:24.000Z</time>
      </trkpt>
      <trkpt lat="46.68782" lon="3.13827">
        <ele>205.60000610352</ele>
        <time>2022-10-06T06:32:25.000Z</time>
      </trkpt>
      <trkpt lat="46.68808" lon="3.13785">
        <ele>206.60000610352</ele>
        <time>2022-10-06T06:32:32.000Z</time>
      </trkpt>
      <trkpt lat="46.68815" lon="3.13774">
        <ele>207</ele>
        <time>2022-10-06T06:32:34.000Z</time>
      </trkpt>
      <trkpt lat="46.68827" lon="3.13758">
        <ele>207.80000305176</ele>
        <time>2022-10-06T06:32:37.000Z</time>
      </trkpt>
      <trkpt lat="46.68852" lon="3.13732">
        <ele>208.39999389648</ele>
        <time>2022-10-06T06:32:43.000Z</time>
      </trkpt>
      <trkpt lat="46.68856" lon="3.13727">
        <ele>208.80000305176</ele>
        <time>2022-10-06T06:32:44.000Z</time>
      </trkpt>
      <trkpt lat="46.68878" lon="3.13709">
        <ele>209.60000610352</ele>
        <time>2022-10-06T06:32:49.000Z</time>
      </trkpt>
      <trkpt lat="46.68882" lon="3.13706">
        <ele>210</ele>
        <time>2022-10-06T06:32:50.000Z</time>
      </trkpt>
      <trkpt lat="46.68911" lon="3.13691">
        <ele>211</ele>
        <time>2022-10-06T06:32:56.000Z</time>
      </trkpt>
      <trkpt lat="46.68916" lon="3.1369">
        <ele>211.19999694824</ele>
        <time>2022-10-06T06:32:57.000Z</time>
      </trkpt>
      <trkpt lat="46.68931" lon="3.13686">
        <ele>212</ele>
        <time>2022-10-06T06:33:00.000Z</time>
      </trkpt>
      <trkpt lat="46.68936" lon="3.13685">
        <ele>212.19999694824</ele>
        <time>2022-10-06T06:33:01.000Z</time>
      </trkpt>
      <trkpt lat="46.68951" lon="3.13684">
        <ele>212.80000305176</ele>
        <time>2022-10-06T06:33:04.000Z</time>
      </trkpt>
      <trkpt lat="46.68962" lon="3.13682">
        <ele>213.19999694824</ele>
        <time>2022-10-06T06:33:06.000Z</time>
      </trkpt>
      <trkpt lat="46.68994" lon="3.13679">
        <ele>214.19999694824</ele>
        <time>2022-10-06T06:33:12.000Z</time>
      </trkpt>
      <trkpt lat="46.69037" lon="3.13673">
        <ele>215.39999389648</ele>
        <time>2022-10-06T06:33:20.000Z</time>
      </trkpt>
      <trkpt lat="46.69043" lon="3.13673">
        <ele>215.60000610352</ele>
        <time>2022-10-06T06:33:21.000Z</time>
      </trkpt>
      <trkpt lat="46.69096" lon="3.13667">
        <ele>216</ele>
        <time>2022-10-06T06:33:30.000Z</time>
      </trkpt>
      <trkpt lat="46.69152" lon="3.13661">
        <ele>216</ele>
        <time>2022-10-06T06:33:39.000Z</time>
      </trkpt>
      <trkpt lat="46.69156" lon="3.1366">
        <ele>216</ele>
        <time>2022-10-06T06:33:40.000Z</time>
      </trkpt>
      <trkpt lat="46.69205" lon="3.13654">
        <ele>216.39999389648</ele>
        <time>2022-10-06T06:33:48.000Z</time>
      </trkpt>
      <trkpt lat="46.69229" lon="3.13651">
        <ele>216.39999389648</ele>
        <time>2022-10-06T06:33:52.000Z</time>
      </trkpt>
      <trkpt lat="46.69245" lon="3.13649">
        <ele>216.80000305176</ele>
        <time>2022-10-06T06:33:55.000Z</time>
      </trkpt>
      <trkpt lat="46.69286" lon="3.13643">
        <ele>217.60000610352</ele>
        <time>2022-10-06T06:34:02.000Z</time>
      </trkpt>
      <trkpt lat="46.69333" lon="3.13622">
        <ele>218.19999694824</ele>
        <time>2022-10-06T06:34:10.000Z</time>
      </trkpt>
      <trkpt lat="46.69383" lon="3.13581">
        <ele>218.60000610352</ele>
        <time>2022-10-06T06:34:19.000Z</time>
      </trkpt>
      <trkpt lat="46.69394" lon="3.1357">
        <ele>218.60000610352</ele>
        <time>2022-10-06T06:34:21.000Z</time>
      </trkpt>
      <trkpt lat="46.69435" lon="3.1353">
        <ele>218.39999389648</ele>
        <time>2022-10-06T06:34:28.000Z</time>
      </trkpt>
      <trkpt lat="46.69482" lon="3.13484">
        <ele>218</ele>
        <time>2022-10-06T06:34:36.000Z</time>
      </trkpt>
      <trkpt lat="46.69488" lon="3.13478">
        <ele>218</ele>
        <time>2022-10-06T06:34:37.000Z</time>
      </trkpt>
      <trkpt lat="46.69534" lon="3.13433">
        <ele>218</ele>
        <time>2022-10-06T06:34:45.000Z</time>
      </trkpt>
      <trkpt lat="46.69545" lon="3.13421">
        <ele>218</ele>
        <time>2022-10-06T06:34:47.000Z</time>
      </trkpt>
      <trkpt lat="46.69584" lon="3.13374">
        <ele>218.39999389648</ele>
        <time>2022-10-06T06:34:55.000Z</time>
      </trkpt>
      <trkpt lat="46.69622" lon="3.13326">
        <ele>218.80000305176</ele>
        <time>2022-10-06T06:35:03.000Z</time>
      </trkpt>
      <trkpt lat="46.69656" lon="3.13283">
        <ele>219.60000610352</ele>
        <time>2022-10-06T06:35:10.000Z</time>
      </trkpt>
      <trkpt lat="46.69675" lon="3.1326">
        <ele>220.19999694824</ele>
        <time>2022-10-06T06:35:14.000Z</time>
      </trkpt>
      <trkpt lat="46.69714" lon="3.13212">
        <ele>220.80000305176</ele>
        <time>2022-10-06T06:35:22.000Z</time>
      </trkpt>
      <trkpt lat="46.69759" lon="3.13154">
        <ele>220.80000305176</ele>
        <time>2022-10-06T06:35:31.000Z</time>
      </trkpt>
      <trkpt lat="46.69765" lon="3.13148">
        <ele>220.80000305176</ele>
        <time>2022-10-06T06:35:32.000Z</time>
      </trkpt>
      <trkpt lat="46.6981" lon="3.13092">
        <ele>219.80000305176</ele>
        <time>2022-10-06T06:35:40.000Z</time>
      </trkpt>
      <trkpt lat="46.69816" lon="3.13085">
        <ele>219.60000610352</ele>
        <time>2022-10-06T06:35:41.000Z</time>
      </trkpt>
      <trkpt lat="46.69846" lon="3.13051">
        <ele>218.19999694824</ele>
        <time>2022-10-06T06:35:46.000Z</time>
      </trkpt>
      <trkpt lat="46.69865" lon="3.13032">
        <ele>217.60000610352</ele>
        <time>2022-10-06T06:35:49.000Z</time>
      </trkpt>
      <trkpt lat="46.69891" lon="3.13007">
        <ele>217</ele>
        <time>2022-10-06T06:35:53.000Z</time>
      </trkpt>
      <trkpt lat="46.69924" lon="3.12979">
        <ele>216.80000305176</ele>
        <time>2022-10-06T06:35:58.000Z</time>
      </trkpt>
      <trkpt lat="46.69973" lon="3.12935">
        <ele>216.19999694824</ele>
        <time>2022-10-06T06:36:06.000Z</time>
      </trkpt>
      <trkpt lat="46.70021" lon="3.12893">
        <ele>216.39999389648</ele>
        <time>2022-10-06T06:36:14.000Z</time>
      </trkpt>
      <trkpt lat="46.70037" lon="3.12878">
        <ele>216.60000610352</ele>
        <time>2022-10-06T06:36:17.000Z</time>
      </trkpt>
      <trkpt lat="46.7009" lon="3.1283">
        <ele>217.19999694824</ele>
        <time>2022-10-06T06:36:26.000Z</time>
      </trkpt>
      <trkpt lat="46.70095" lon="3.12827">
        <ele>217.19999694824</ele>
        <time>2022-10-06T06:36:27.000Z</time>
      </trkpt>
      <trkpt lat="46.70145" lon="3.12781">
        <ele>218</ele>
        <time>2022-10-06T06:36:36.000Z</time>
      </trkpt>
      <trkpt lat="46.70152" lon="3.12775">
        <ele>218</ele>
        <time>2022-10-06T06:36:37.000Z</time>
      </trkpt>
      <trkpt lat="46.70205" lon="3.12728">
        <ele>217.60000610352</ele>
        <time>2022-10-06T06:36:46.000Z</time>
      </trkpt>
      <trkpt lat="46.70253" lon="3.12685">
        <ele>216.80000305176</ele>
        <time>2022-10-06T06:36:54.000Z</time>
      </trkpt>
      <trkpt lat="46.7026" lon="3.12678">
        <ele>216.80000305176</ele>
        <time>2022-10-06T06:36:55.000Z</time>
      </trkpt>
      <trkpt lat="46.70304" lon="3.1264">
        <ele>216.39999389648</ele>
        <time>2022-10-06T06:37:02.000Z</time>
      </trkpt>
      <trkpt lat="46.70329" lon="3.12615">
        <ele>216</ele>
        <time>2022-10-06T06:37:06.000Z</time>
      </trkpt>
      <trkpt lat="46.70358" lon="3.12582">
        <ele>215.80000305176</ele>
        <time>2022-10-06T06:37:11.000Z</time>
      </trkpt>
      <trkpt lat="46.70405" lon="3.12525">
        <ele>215.19999694824</ele>
        <time>2022-10-06T06:37:19.000Z</time>
      </trkpt>
      <trkpt lat="46.70415" lon="3.12513">
        <ele>215</ele>
        <time>2022-10-06T06:37:21.000Z</time>
      </trkpt>
      <trkpt lat="46.70428" lon="3.12498">
        <ele>215</ele>
        <time>2022-10-06T06:37:23.000Z</time>
      </trkpt>
      <trkpt lat="46.70474" lon="3.12443">
        <ele>214.19999694824</ele>
        <time>2022-10-06T06:37:31.000Z</time>
      </trkpt>
      <trkpt lat="46.70481" lon="3.12434">
        <ele>214</ele>
        <time>2022-10-06T06:37:32.000Z</time>
      </trkpt>
      <trkpt lat="46.70522" lon="3.12385">
        <ele>212.80000305176</ele>
        <time>2022-10-06T06:37:39.000Z</time>
      </trkpt>
      <trkpt lat="46.70536" lon="3.12369">
        <ele>212.60000610352</ele>
        <time>2022-10-06T06:37:41.000Z</time>
      </trkpt>
      <trkpt lat="46.70571" lon="3.12326">
        <ele>211.60000610352</ele>
        <time>2022-10-06T06:37:47.000Z</time>
      </trkpt>
      <trkpt lat="46.70589" lon="3.12303">
        <ele>211.39999389648</ele>
        <time>2022-10-06T06:37:50.000Z</time>
      </trkpt>
      <trkpt lat="46.70627" lon="3.12242">
        <ele>211.19999694824</ele>
        <time>2022-10-06T06:37:58.000Z</time>
      </trkpt>
      <trkpt lat="46.70662" lon="3.12175">
        <ele>210.80000305176</ele>
        <time>2022-10-06T06:38:06.000Z</time>
      </trkpt>
      <trkpt lat="46.70666" lon="3.12167">
        <ele>211</ele>
        <time>2022-10-06T06:38:07.000Z</time>
      </trkpt>
      <trkpt lat="46.70675" lon="3.1215">
        <ele>211</ele>
        <time>2022-10-06T06:38:09.000Z</time>
      </trkpt>
      <trkpt lat="46.70681" lon="3.12136">
        <ele>211</ele>
        <time>2022-10-06T06:38:11.000Z</time>
      </trkpt>
      <trkpt lat="46.70686" lon="3.12127">
        <ele>211.19999694824</ele>
        <time>2022-10-06T06:38:12.000Z</time>
      </trkpt>
      <trkpt lat="46.70707" lon="3.12084">
        <ele>212</ele>
        <time>2022-10-06T06:38:18.000Z</time>
      </trkpt>
      <trkpt lat="46.70726" lon="3.12049">
        <ele>212.80000305176</ele>
        <time>2022-10-06T06:38:23.000Z</time>
      </trkpt>
      <trkpt lat="46.70729" lon="3.12043">
        <ele>212.80000305176</ele>
        <time>2022-10-06T06:38:24.000Z</time>
      </trkpt>
      <trkpt lat="46.70737" lon="3.12026">
        <ele>213.19999694824</ele>
        <time>2022-10-06T06:38:26.000Z</time>
      </trkpt>
      <trkpt lat="46.70747" lon="3.12006">
        <ele>213.60000610352</ele>
        <time>2022-10-06T06:38:29.000Z</time>
      </trkpt>
      <trkpt lat="46.70751" lon="3.11999">
        <ele>213.80000305176</ele>
        <time>2022-10-06T06:38:30.000Z</time>
      </trkpt>
      <trkpt lat="46.70766" lon="3.11971">
        <ele>214.60000610352</ele>
        <time>2022-10-06T06:38:34.000Z</time>
      </trkpt>
      <trkpt lat="46.70781" lon="3.11942">
        <ele>215.60000610352</ele>
        <time>2022-10-06T06:38:38.000Z</time>
      </trkpt>
      <trkpt lat="46.70792" lon="3.1192">
        <ele>216</ele>
        <time>2022-10-06T06:38:41.000Z</time>
      </trkpt>
      <trkpt lat="46.70802" lon="3.11901">
        <ele>216.60000610352</ele>
        <time>2022-10-06T06:38:44.000Z</time>
      </trkpt>
      <trkpt lat="46.70827" lon="3.11853">
        <ele>217.80000305176</ele>
        <time>2022-10-06T06:38:51.000Z</time>
      </trkpt>
      <trkpt lat="46.70854" lon="3.11799">
        <ele>218.80000305176</ele>
        <time>2022-10-06T06:38:59.000Z</time>
      </trkpt>
      <trkpt lat="46.70868" lon="3.11772">
        <ele>219.60000610352</ele>
        <time>2022-10-06T06:39:03.000Z</time>
      </trkpt>
      <trkpt lat="46.70871" lon="3.11765">
        <ele>219.80000305176</ele>
        <time>2022-10-06T06:39:04.000Z</time>
      </trkpt>
      <trkpt lat="46.70895" lon="3.11718">
        <ele>220.39999389648</ele>
        <time>2022-10-06T06:39:11.000Z</time>
      </trkpt>
      <trkpt lat="46.70909" lon="3.11692">
        <ele>220.80000305176</ele>
        <time>2022-10-06T06:39:15.000Z</time>
      </trkpt>
      <trkpt lat="46.70942" lon="3.11629">
        <ele>221.60000610352</ele>
        <time>2022-10-06T06:39:24.000Z</time>
      </trkpt>
      <trkpt lat="46.7095" lon="3.11614">
        <ele>221.80000305176</ele>
        <time>2022-10-06T06:39:26.000Z</time>
      </trkpt>
      <trkpt lat="46.70974" lon="3.11574">
        <ele>222.39999389648</ele>
        <time>2022-10-06T06:39:32.000Z</time>
      </trkpt>
      <trkpt lat="46.70992" lon="3.11551">
        <ele>223</ele>
        <time>2022-10-06T06:39:36.000Z</time>
      </trkpt>
      <trkpt lat="46.71011" lon="3.11528">
        <ele>223.19999694824</ele>
        <time>2022-10-06T06:39:40.000Z</time>
      </trkpt>
      <trkpt lat="46.71056" lon="3.11479">
        <ele>223.80000305176</ele>
        <time>2022-10-06T06:39:49.000Z</time>
      </trkpt>
      <trkpt lat="46.7109" lon="3.11442">
        <ele>224</ele>
        <time>2022-10-06T06:39:56.000Z</time>
      </trkpt>
      <trkpt lat="46.71095" lon="3.11436">
        <ele>224</ele>
        <time>2022-10-06T06:39:57.000Z</time>
      </trkpt>
      <trkpt lat="46.71142" lon="3.11385">
        <ele>224</ele>
        <time>2022-10-06T06:40:06.000Z</time>
      </trkpt>
      <trkpt lat="46.71164" lon="3.11362">
        <ele>224</ele>
        <time>2022-10-06T06:40:10.000Z</time>
      </trkpt>
      <trkpt lat="46.71208" lon="3.11315">
        <ele>223.80000305176</ele>
        <time>2022-10-06T06:40:18.000Z</time>
      </trkpt>
      <trkpt lat="46.71224" lon="3.11297">
        <ele>223.80000305176</ele>
        <time>2022-10-06T06:40:21.000Z</time>
      </trkpt>
      <trkpt lat="46.71267" lon="3.1125">
        <ele>223.80000305176</ele>
        <time>2022-10-06T06:40:29.000Z</time>
      </trkpt>
      <trkpt lat="46.71272" lon="3.11243">
        <ele>223.80000305176</ele>
        <time>2022-10-06T06:40:30.000Z</time>
      </trkpt>
      <trkpt lat="46.71311" lon="3.11192">
        <ele>224</ele>
        <time>2022-10-06T06:40:38.000Z</time>
      </trkpt>
      <trkpt lat="46.71348" lon="3.11144">
        <ele>223.60000610352</ele>
        <time>2022-10-06T06:40:45.000Z</time>
      </trkpt>
      <trkpt lat="46.71391" lon="3.11088">
        <ele>223.19999694824</ele>
        <time>2022-10-06T06:40:53.000Z</time>
      </trkpt>
      <trkpt lat="46.71396" lon="3.1108">
        <ele>223.19999694824</ele>
        <time>2022-10-06T06:40:54.000Z</time>
      </trkpt>
      <trkpt lat="46.71424" lon="3.11044">
        <ele>222.80000305176</ele>
        <time>2022-10-06T06:40:59.000Z</time>
      </trkpt>
      <trkpt lat="46.7144" lon="3.11022">
        <ele>222.60000610352</ele>
        <time>2022-10-06T06:41:02.000Z</time>
      </trkpt>
      <trkpt lat="46.71476" lon="3.10975">
        <ele>222</ele>
        <time>2022-10-06T06:41:09.000Z</time>
      </trkpt>
      <trkpt lat="46.71518" lon="3.10918">
        <ele>222</ele>
        <time>2022-10-06T06:41:17.000Z</time>
      </trkpt>
      <trkpt lat="46.71527" lon="3.10906">
        <ele>222</ele>
        <time>2022-10-06T06:41:19.000Z</time>
      </trkpt>
      <trkpt lat="46.71568" lon="3.10851">
        <ele>222.19999694824</ele>
        <time>2022-10-06T06:41:27.000Z</time>
      </trkpt>
      <trkpt lat="46.71583" lon="3.1083">
        <ele>222.39999389648</ele>
        <time>2022-10-06T06:41:30.000Z</time>
      </trkpt>
      <trkpt lat="46.71623" lon="3.10777">
        <ele>222.60000610352</ele>
        <time>2022-10-06T06:41:38.000Z</time>
      </trkpt>
      <trkpt lat="46.71634" lon="3.10762">
        <ele>222.80000305176</ele>
        <time>2022-10-06T06:41:40.000Z</time>
      </trkpt>
      <trkpt lat="46.71676" lon="3.10709">
        <ele>223</ele>
        <time>2022-10-06T06:41:48.000Z</time>
      </trkpt>
      <trkpt lat="46.7169" lon="3.10691">
        <ele>223.19999694824</ele>
        <time>2022-10-06T06:41:51.000Z</time>
      </trkpt>
      <trkpt lat="46.71731" lon="3.10637">
        <ele>223.60000610352</ele>
        <time>2022-10-06T06:41:59.000Z</time>
      </trkpt>
      <trkpt lat="46.71735" lon="3.10631">
        <ele>223.60000610352</ele>
        <time>2022-10-06T06:42:00.000Z</time>
      </trkpt>
      <trkpt lat="46.71746" lon="3.10616">
        <ele>223.60000610352</ele>
        <time>2022-10-06T06:42:02.000Z</time>
      </trkpt>
      <trkpt lat="46.71776" lon="3.10577">
        <ele>224</ele>
        <time>2022-10-06T06:42:08.000Z</time>
      </trkpt>
      <trkpt lat="46.71814" lon="3.10525">
        <ele>224.39999389648</ele>
        <time>2022-10-06T06:42:16.000Z</time>
      </trkpt>
      <trkpt lat="46.71859" lon="3.10466">
        <ele>224.60000610352</ele>
        <time>2022-10-06T06:42:25.000Z</time>
      </trkpt>
      <trkpt lat="46.71869" lon="3.10452">
        <ele>224.39999389648</ele>
        <time>2022-10-06T06:42:27.000Z</time>
      </trkpt>
      <trkpt lat="46.71915" lon="3.10392">
        <ele>223.39999389648</ele>
        <time>2022-10-06T06:42:35.000Z</time>
      </trkpt>
      <trkpt lat="46.71959" lon="3.10331">
        <ele>222.60000610352</ele>
        <time>2022-10-06T06:42:43.000Z</time>
      </trkpt>
      <trkpt lat="46.71976" lon="3.1031">
        <ele>222</ele>
        <time>2022-10-06T06:42:46.000Z</time>
      </trkpt>
      <trkpt lat="46.71989" lon="3.10293">
        <ele>221.39999389648</ele>
        <time>2022-10-06T06:42:48.000Z</time>
      </trkpt>
      <trkpt lat="46.72024" lon="3.10252">
        <ele>220.80000305176</ele>
        <time>2022-10-06T06:42:54.000Z</time>
      </trkpt>
      <trkpt lat="46.7206" lon="3.10215">
        <ele>220.39999389648</ele>
        <time>2022-10-06T06:43:00.000Z</time>
      </trkpt>
      <trkpt lat="46.72073" lon="3.10202">
        <ele>220.39999389648</ele>
        <time>2022-10-06T06:43:02.000Z</time>
      </trkpt>
      <trkpt lat="46.72118" lon="3.10157">
        <ele>220.39999389648</ele>
        <time>2022-10-06T06:43:10.000Z</time>
      </trkpt>
      <trkpt lat="46.72124" lon="3.10151">
        <ele>220.39999389648</ele>
        <time>2022-10-06T06:43:11.000Z</time>
      </trkpt>
      <trkpt lat="46.72171" lon="3.10103">
        <ele>220</ele>
        <time>2022-10-06T06:43:19.000Z</time>
      </trkpt>
      <trkpt lat="46.72185" lon="3.10089">
        <ele>219.80000305176</ele>
        <time>2022-10-06T06:43:21.000Z</time>
      </trkpt>
      <trkpt lat="46.72204" lon="3.10071">
        <ele>219.19999694824</ele>
        <time>2022-10-06T06:43:24.000Z</time>
      </trkpt>
      <trkpt lat="46.72236" lon="3.10038">
        <ele>218.19999694824</ele>
        <time>2022-10-06T06:43:29.000Z</time>
      </trkpt>
      <trkpt lat="46.72243" lon="3.10031">
        <ele>218</ele>
        <time>2022-10-06T06:43:30.000Z</time>
      </trkpt>
      <trkpt lat="46.72269" lon="3.10004">
        <ele>217</ele>
        <time>2022-10-06T06:43:34.000Z</time>
      </trkpt>
      <trkpt lat="46.72279" lon="3.09989">
        <ele>216.80000305176</ele>
        <time>2022-10-06T06:43:36.000Z</time>
      </trkpt>
      <trkpt lat="46.72299" lon="3.0995">
        <ele>215.80000305176</ele>
        <time>2022-10-06T06:43:40.000Z</time>
      </trkpt>
      <trkpt lat="46.72307" lon="3.09932">
        <ele>215.39999389648</ele>
        <time>2022-10-06T06:43:42.000Z</time>
      </trkpt>
      <trkpt lat="46.72338" lon="3.09864">
        <ele>215</ele>
        <time>2022-10-06T06:43:49.000Z</time>
      </trkpt>
      <trkpt lat="46.7235" lon="3.09839">
        <ele>214.80000305176</ele>
        <time>2022-10-06T06:43:52.000Z</time>
      </trkpt>
      <trkpt lat="46.72371" lon="3.09791">
        <ele>214.60000610352</ele>
        <time>2022-10-06T06:43:57.000Z</time>
      </trkpt>
      <trkpt lat="46.72399" lon="3.09732">
        <ele>214.19999694824</ele>
        <time>2022-10-06T06:44:04.000Z</time>
      </trkpt>
      <trkpt lat="46.72429" lon="3.09672">
        <ele>214.60000610352</ele>
        <time>2022-10-06T06:44:11.000Z</time>
      </trkpt>
      <trkpt lat="46.72451" lon="3.09624">
        <ele>215.19999694824</ele>
        <time>2022-10-06T06:44:17.000Z</time>
      </trkpt>
      <trkpt lat="46.72468" lon="3.09589">
        <ele>215.19999694824</ele>
        <time>2022-10-06T06:44:21.000Z</time>
      </trkpt>
      <trkpt lat="46.72473" lon="3.09573">
        <ele>215.39999389648</ele>
        <time>2022-10-06T06:44:23.000Z</time>
      </trkpt>
      <trkpt lat="46.72481" lon="3.09526">
        <ele>215.80000305176</ele>
        <time>2022-10-06T06:44:28.000Z</time>
      </trkpt>
      <trkpt lat="46.72482" lon="3.09504">
        <ele>215.80000305176</ele>
        <time>2022-10-06T06:44:30.000Z</time>
      </trkpt>
      <trkpt lat="46.72482" lon="3.09454">
        <ele>215.80000305176</ele>
        <time>2022-10-06T06:44:35.000Z</time>
      </trkpt>
      <trkpt lat="46.72482" lon="3.094">
        <ele>216.19999694824</ele>
        <time>2022-10-06T06:44:41.000Z</time>
      </trkpt>
      <trkpt lat="46.72482" lon="3.09389">
        <ele>216.19999694824</ele>
        <time>2022-10-06T06:44:42.000Z</time>
      </trkpt>
      <trkpt lat="46.72482" lon="3.09363">
        <ele>216.19999694824</ele>
        <time>2022-10-06T06:44:45.000Z</time>
      </trkpt>
      <trkpt lat="46.72482" lon="3.09311">
        <ele>216.19999694824</ele>
        <time>2022-10-06T06:44:50.000Z</time>
      </trkpt>
      <trkpt lat="46.72484" lon="3.0929">
        <ele>216.19999694824</ele>
        <time>2022-10-06T06:44:52.000Z</time>
      </trkpt>
      <trkpt lat="46.72488" lon="3.09263">
        <ele>216.39999389648</ele>
        <time>2022-10-06T06:44:55.000Z</time>
      </trkpt>
      <trkpt lat="46.72493" lon="3.09231">
        <ele>216.60000610352</ele>
        <time>2022-10-06T06:44:58.000Z</time>
      </trkpt>
      <trkpt lat="46.72499" lon="3.09204">
        <ele>216.80000305176</ele>
        <time>2022-10-06T06:45:01.000Z</time>
      </trkpt>
      <trkpt lat="46.72513" lon="3.09133">
        <ele>216.60000610352</ele>
        <time>2022-10-06T06:45:08.000Z</time>
      </trkpt>
      <trkpt lat="46.72514" lon="3.09109">
        <ele>216.60000610352</ele>
        <time>2022-10-06T06:45:10.000Z</time>
      </trkpt>
      <trkpt lat="46.72512" lon="3.09079">
        <ele>216.39999389648</ele>
        <time>2022-10-06T06:45:13.000Z</time>
      </trkpt>
      <trkpt lat="46.72507" lon="3.09019">
        <ele>216.19999694824</ele>
        <time>2022-10-06T06:45:19.000Z</time>
      </trkpt>
      <trkpt lat="46.72507" lon="3.0901">
        <ele>216.19999694824</ele>
        <time>2022-10-06T06:45:20.000Z</time>
      </trkpt>
      <trkpt lat="46.72507" lon="3.08961">
        <ele>216.39999389648</ele>
        <time>2022-10-06T06:45:25.000Z</time>
      </trkpt>
      <trkpt lat="46.72509" lon="3.08943">
        <ele>216.39999389648</ele>
        <time>2022-10-06T06:45:27.000Z</time>
      </trkpt>
      <trkpt lat="46.72511" lon="3.08932">
        <ele>216.60000610352</ele>
        <time>2022-10-06T06:45:28.000Z</time>
      </trkpt>
      <trkpt lat="46.72518" lon="3.08897">
        <ele>216.80000305176</ele>
        <time>2022-10-06T06:45:32.000Z</time>
      </trkpt>
      <trkpt lat="46.72529" lon="3.0884">
        <ele>217.60000610352</ele>
        <time>2022-10-06T06:45:38.000Z</time>
      </trkpt>
      <trkpt lat="46.72529" lon="3.08831">
        <ele>217.80000305176</ele>
        <time>2022-10-06T06:45:39.000Z</time>
      </trkpt>
      <trkpt lat="46.72532" lon="3.08789">
        <ele>218</ele>
        <time>2022-10-06T06:45:44.000Z</time>
      </trkpt>
      <trkpt lat="46.72534" lon="3.08742">
        <ele>218.39999389648</ele>
        <time>2022-10-06T06:45:49.000Z</time>
      </trkpt>
      <trkpt lat="46.72532" lon="3.08677">
        <ele>218.60000610352</ele>
        <time>2022-10-06T06:45:56.000Z</time>
      </trkpt>
      <trkpt lat="46.72532" lon="3.08666">
        <ele>218.80000305176</ele>
        <time>2022-10-06T06:45:57.000Z</time>
      </trkpt>
      <trkpt lat="46.72531" lon="3.08611">
        <ele>219.19999694824</ele>
        <time>2022-10-06T06:46:03.000Z</time>
      </trkpt>
      <trkpt lat="46.72531" lon="3.08602">
        <ele>219.19999694824</ele>
        <time>2022-10-06T06:46:04.000Z</time>
      </trkpt>
      <trkpt lat="46.72532" lon="3.08573">
        <ele>219.39999389648</ele>
        <time>2022-10-06T06:46:07.000Z</time>
      </trkpt>
      <trkpt lat="46.7253" lon="3.08541">
        <ele>219.39999389648</ele>
        <time>2022-10-06T06:46:10.000Z</time>
      </trkpt>
      <trkpt lat="46.7253" lon="3.08466">
        <ele>219.60000610352</ele>
        <time>2022-10-06T06:46:18.000Z</time>
      </trkpt>
      <trkpt lat="46.72532" lon="3.08388">
        <ele>219.39999389648</ele>
        <time>2022-10-06T06:46:26.000Z</time>
      </trkpt>
      <trkpt lat="46.72537" lon="3.08347">
        <ele>219.19999694824</ele>
        <time>2022-10-06T06:46:31.000Z</time>
      </trkpt>
      <trkpt lat="46.72543" lon="3.08311">
        <ele>218.80000305176</ele>
        <time>2022-10-06T06:46:35.000Z</time>
      </trkpt>
      <trkpt lat="46.72545" lon="3.08302">
        <ele>218.80000305176</ele>
        <time>2022-10-06T06:46:36.000Z</time>
      </trkpt>
      <trkpt lat="46.72554" lon="3.08255">
        <ele>218.39999389648</ele>
        <time>2022-10-06T06:46:41.000Z</time>
      </trkpt>
      <trkpt lat="46.72555" lon="3.08244">
        <ele>218.19999694824</ele>
        <time>2022-10-06T06:46:42.000Z</time>
      </trkpt>
      <trkpt lat="46.72564" lon="3.08193">
        <ele>217.80000305176</ele>
        <time>2022-10-06T06:46:47.000Z</time>
      </trkpt>
      <trkpt lat="46.72566" lon="3.08181">
        <ele>217.60000610352</ele>
        <time>2022-10-06T06:46:48.000Z</time>
      </trkpt>
      <trkpt lat="46.72581" lon="3.08133">
        <ele>216.80000305176</ele>
        <time>2022-10-06T06:46:53.000Z</time>
      </trkpt>
      <trkpt lat="46.72584" lon="3.08126">
        <ele>216.60000610352</ele>
        <time>2022-10-06T06:46:54.000Z</time>
      </trkpt>
      <trkpt lat="46.72607" lon="3.08082">
        <ele>215.19999694824</ele>
        <time>2022-10-06T06:46:59.000Z</time>
      </trkpt>
      <trkpt lat="46.72613" lon="3.08072">
        <ele>215</ele>
        <time>2022-10-06T06:47:00.000Z</time>
      </trkpt>
      <trkpt lat="46.72623" lon="3.08054">
        <ele>214.60000610352</ele>
        <time>2022-10-06T06:47:02.000Z</time>
      </trkpt>
      <trkpt lat="46.72631" lon="3.08037">
        <ele>214</ele>
        <time>2022-10-06T06:47:04.000Z</time>
      </trkpt>
      <trkpt lat="46.72654" lon="3.07987">
        <ele>212.39999389648</ele>
        <time>2022-10-06T06:47:09.000Z</time>
      </trkpt>
      <trkpt lat="46.72662" lon="3.07964">
        <ele>212</ele>
        <time>2022-10-06T06:47:11.000Z</time>
      </trkpt>
      <trkpt lat="46.72674" lon="3.07932">
        <ele>211.39999389648</ele>
        <time>2022-10-06T06:47:14.000Z</time>
      </trkpt>
      <trkpt lat="46.72687" lon="3.07891">
        <ele>210.60000610352</ele>
        <time>2022-10-06T06:47:18.000Z</time>
      </trkpt>
      <trkpt lat="46.72691" lon="3.07881">
        <ele>210.39999389648</ele>
        <time>2022-10-06T06:47:19.000Z</time>
      </trkpt>
      <trkpt lat="46.72713" lon="3.07819">
        <ele>209.80000305176</ele>
        <time>2022-10-06T06:47:25.000Z</time>
      </trkpt>
      <trkpt lat="46.7273" lon="3.0778">
        <ele>209.39999389648</ele>
        <time>2022-10-06T06:47:29.000Z</time>
      </trkpt>
      <trkpt lat="46.72745" lon="3.07756">
        <ele>209</ele>
        <time>2022-10-06T06:47:32.000Z</time>
      </trkpt>
      <trkpt lat="46.72769" lon="3.07725">
        <ele>208.39999389648</ele>
        <time>2022-10-06T06:47:36.000Z</time>
      </trkpt>
      <trkpt lat="46.72788" lon="3.07698">
        <ele>207.60000610352</ele>
        <time>2022-10-06T06:47:39.000Z</time>
      </trkpt>
      <trkpt lat="46.72799" lon="3.07684">
        <ele>207.19999694824</ele>
        <time>2022-10-06T06:47:41.000Z</time>
      </trkpt>
      <trkpt lat="46.72831" lon="3.07641">
        <ele>205.80000305176</ele>
        <time>2022-10-06T06:47:46.000Z</time>
      </trkpt>
      <trkpt lat="46.72836" lon="3.07635">
        <ele>205.80000305176</ele>
        <time>2022-10-06T06:47:47.000Z</time>
      </trkpt>
      <trkpt lat="46.72844" lon="3.07626">
        <ele>205.60000610352</ele>
        <time>2022-10-06T06:47:48.000Z</time>
      </trkpt>
      <trkpt lat="46.72872" lon="3.07599">
        <ele>205</ele>
        <time>2022-10-06T06:47:52.000Z</time>
      </trkpt>
      <trkpt lat="46.7288" lon="3.07594">
        <ele>204.39999389648</ele>
        <time>2022-10-06T06:47:53.000Z</time>
      </trkpt>
      <trkpt lat="46.72903" lon="3.07582">
        <ele>203.60000610352</ele>
        <time>2022-10-06T06:47:56.000Z</time>
      </trkpt>
      <trkpt lat="46.7291" lon="3.0758">
        <ele>203.19999694824</ele>
        <time>2022-10-06T06:47:57.000Z</time>
      </trkpt>
      <trkpt lat="46.72933" lon="3.07577">
        <ele>201.60000610352</ele>
        <time>2022-10-06T06:48:00.000Z</time>
      </trkpt>
      <trkpt lat="46.72942" lon="3.07577">
        <ele>201.60000610352</ele>
        <time>2022-10-06T06:48:01.000Z</time>
      </trkpt>
      <trkpt lat="46.72964" lon="3.07575">
        <ele>200.60000610352</ele>
        <time>2022-10-06T06:48:04.000Z</time>
      </trkpt>
      <trkpt lat="46.72989" lon="3.07575">
        <ele>199.39999389648</ele>
        <time>2022-10-06T06:48:07.000Z</time>
      </trkpt>
      <trkpt lat="46.72996" lon="3.07576">
        <ele>199</ele>
        <time>2022-10-06T06:48:08.000Z</time>
      </trkpt>
      <trkpt lat="46.73003" lon="3.07575">
        <ele>198.60000610352</ele>
        <time>2022-10-06T06:48:09.000Z</time>
      </trkpt>
      <trkpt lat="46.73011" lon="3.07574">
        <ele>198.19999694824</ele>
        <time>2022-10-06T06:48:10.000Z</time>
      </trkpt>
      <trkpt lat="46.73024" lon="3.07572">
        <ele>197.60000610352</ele>
        <time>2022-10-06T06:48:12.000Z</time>
      </trkpt>
      <trkpt lat="46.73065" lon="3.0757">
        <ele>196.80000305176</ele>
        <time>2022-10-06T06:48:17.000Z</time>
      </trkpt>
      <trkpt lat="46.73073" lon="3.0757">
        <ele>196.60000610352</ele>
        <time>2022-10-06T06:48:18.000Z</time>
      </trkpt>
      <trkpt lat="46.73097" lon="3.07572">
        <ele>195.80000305176</ele>
        <time>2022-10-06T06:48:21.000Z</time>
      </trkpt>
      <trkpt lat="46.73104" lon="3.07573">
        <ele>195.39999389648</ele>
        <time>2022-10-06T06:48:22.000Z</time>
      </trkpt>
      <trkpt lat="46.73112" lon="3.07576">
        <ele>195.19999694824</ele>
        <time>2022-10-06T06:48:23.000Z</time>
      </trkpt>
      <trkpt lat="46.73136" lon="3.07581">
        <ele>194.19999694824</ele>
        <time>2022-10-06T06:48:26.000Z</time>
      </trkpt>
      <trkpt lat="46.73155" lon="3.07588">
        <ele>193.19999694824</ele>
        <time>2022-10-06T06:48:28.000Z</time>
      </trkpt>
      <trkpt lat="46.73163" lon="3.07591">
        <ele>192.80000305176</ele>
        <time>2022-10-06T06:48:29.000Z</time>
      </trkpt>
      <trkpt lat="46.73172" lon="3.07596">
        <ele>192.60000610352</ele>
        <time>2022-10-06T06:48:30.000Z</time>
      </trkpt>
      <trkpt lat="46.73193" lon="3.07605">
        <ele>191.60000610352</ele>
        <time>2022-10-06T06:48:33.000Z</time>
      </trkpt>
      <trkpt lat="46.73214" lon="3.07617">
        <ele>191</ele>
        <time>2022-10-06T06:48:36.000Z</time>
      </trkpt>
      <trkpt lat="46.73242" lon="3.07628">
        <ele>190.80000305176</ele>
        <time>2022-10-06T06:48:40.000Z</time>
      </trkpt>
      <trkpt lat="46.73253" lon="3.07633">
        <ele>190.80000305176</ele>
        <time>2022-10-06T06:48:42.000Z</time>
      </trkpt>
      <trkpt lat="46.73261" lon="3.07638">
        <ele>190.60000610352</ele>
        <time>2022-10-06T06:48:43.000Z</time>
      </trkpt>
      <trkpt lat="46.73268" lon="3.07643">
        <ele>190.60000610352</ele>
        <time>2022-10-06T06:48:44.000Z</time>
      </trkpt>
      <trkpt lat="46.73281" lon="3.0765">
        <ele>190.39999389648</ele>
        <time>2022-10-06T06:48:46.000Z</time>
      </trkpt>
      <trkpt lat="46.73295" lon="3.07659">
        <ele>190.19999694824</ele>
        <time>2022-10-06T06:48:48.000Z</time>
      </trkpt>
      <trkpt lat="46.73336" lon="3.07676">
        <ele>190.19999694824</ele>
        <time>2022-10-06T06:48:54.000Z</time>
      </trkpt>
      <trkpt lat="46.73343" lon="3.07681">
        <ele>190.19999694824</ele>
        <time>2022-10-06T06:48:55.000Z</time>
      </trkpt>
      <trkpt lat="46.73367" lon="3.07691">
        <ele>190.19999694824</ele>
        <time>2022-10-06T06:48:59.000Z</time>
      </trkpt>
      <trkpt lat="46.73381" lon="3.07697">
        <ele>190.19999694824</ele>
        <time>2022-10-06T06:49:01.000Z</time>
      </trkpt>
      <trkpt lat="46.73402" lon="3.07705">
        <ele>190.19999694824</ele>
        <time>2022-10-06T06:49:04.000Z</time>
      </trkpt>
      <trkpt lat="46.73413" lon="3.07707">
        <ele>190.19999694824</ele>
        <time>2022-10-06T06:49:06.000Z</time>
      </trkpt>
      <trkpt lat="46.73419" lon="3.07706">
        <ele>190.19999694824</ele>
        <time>2022-10-06T06:49:07.000Z</time>
      </trkpt>
      <trkpt lat="46.73439" lon="3.07702">
        <ele>190.19999694824</ele>
        <time>2022-10-06T06:49:10.000Z</time>
      </trkpt>
      <trkpt lat="46.73448" lon="3.077">
        <ele>190.19999694824</ele>
        <time>2022-10-06T06:49:11.000Z</time>
      </trkpt>
      <trkpt lat="46.73486" lon="3.07678">
        <ele>190</ele>
        <time>2022-10-06T06:49:16.000Z</time>
      </trkpt>
      <trkpt lat="46.73506" lon="3.07656">
        <ele>189.80000305176</ele>
        <time>2022-10-06T06:49:19.000Z</time>
      </trkpt>
      <trkpt lat="46.73516" lon="3.07641">
        <ele>189.60000610352</ele>
        <time>2022-10-06T06:49:21.000Z</time>
      </trkpt>
      <trkpt lat="46.73527" lon="3.07625">
        <ele>189.39999389648</ele>
        <time>2022-10-06T06:49:23.000Z</time>
      </trkpt>
      <trkpt lat="46.73553" lon="3.07585">
        <ele>188.60000610352</ele>
        <time>2022-10-06T06:49:28.000Z</time>
      </trkpt>
      <trkpt lat="46.73559" lon="3.07577">
        <ele>188.39999389648</ele>
        <time>2022-10-06T06:49:29.000Z</time>
      </trkpt>
      <trkpt lat="46.73581" lon="3.07542">
        <ele>187</ele>
        <time>2022-10-06T06:49:33.000Z</time>
      </trkpt>
      <trkpt lat="46.73601" lon="3.07507">
        <ele>185.80000305176</ele>
        <time>2022-10-06T06:49:37.000Z</time>
      </trkpt>
      <trkpt lat="46.73638" lon="3.07448">
        <ele>184.80000305176</ele>
        <time>2022-10-06T06:49:44.000Z</time>
      </trkpt>
      <trkpt lat="46.73643" lon="3.07439">
        <ele>184.80000305176</ele>
        <time>2022-10-06T06:49:45.000Z</time>
      </trkpt>
      <trkpt lat="46.73682" lon="3.07372">
        <ele>184.60000610352</ele>
        <time>2022-10-06T06:49:53.000Z</time>
      </trkpt>
      <trkpt lat="46.73701" lon="3.07341">
        <ele>184.80000305176</ele>
        <time>2022-10-06T06:49:57.000Z</time>
      </trkpt>
      <trkpt lat="46.73739" lon="3.07277">
        <ele>185</ele>
        <time>2022-10-06T06:50:05.000Z</time>
      </trkpt>
      <trkpt lat="46.73744" lon="3.07269">
        <ele>185</ele>
        <time>2022-10-06T06:50:06.000Z</time>
      </trkpt>
      <trkpt lat="46.7378" lon="3.0721">
        <ele>185.19999694824</ele>
        <time>2022-10-06T06:50:14.000Z</time>
      </trkpt>
      <trkpt lat="46.73811" lon="3.07158">
        <ele>185.60000610352</ele>
        <time>2022-10-06T06:50:21.000Z</time>
      </trkpt>
      <trkpt lat="46.73819" lon="3.07141">
        <ele>185.80000305176</ele>
        <time>2022-10-06T06:50:23.000Z</time>
      </trkpt>
      <trkpt lat="46.73845" lon="3.0708">
        <ele>185.80000305176</ele>
        <time>2022-10-06T06:50:30.000Z</time>
      </trkpt>
      <trkpt lat="46.7387" lon="3.07007">
        <ele>185.80000305176</ele>
        <time>2022-10-06T06:50:38.000Z</time>
      </trkpt>
      <trkpt lat="46.73878" lon="3.06983">
        <ele>185.80000305176</ele>
        <time>2022-10-06T06:50:41.000Z</time>
      </trkpt>
      <trkpt lat="46.73902" lon="3.06911">
        <ele>185.80000305176</ele>
        <time>2022-10-06T06:50:49.000Z</time>
      </trkpt>
      <trkpt lat="46.73908" lon="3.06894">
        <ele>185.80000305176</ele>
        <time>2022-10-06T06:50:51.000Z</time>
      </trkpt>
      <trkpt lat="46.7393" lon="3.06827">
        <ele>186</ele>
        <time>2022-10-06T06:50:59.000Z</time>
      </trkpt>
      <trkpt lat="46.73948" lon="3.06774">
        <ele>186</ele>
        <time>2022-10-06T06:51:05.000Z</time>
      </trkpt>
      <trkpt lat="46.73972" lon="3.06704">
        <ele>185.80000305176</ele>
        <time>2022-10-06T06:51:13.000Z</time>
      </trkpt>
      <trkpt lat="46.73997" lon="3.0663">
        <ele>185.60000610352</ele>
        <time>2022-10-06T06:51:21.000Z</time>
      </trkpt>
      <trkpt lat="46.74" lon="3.06623">
        <ele>185.60000610352</ele>
        <time>2022-10-06T06:51:22.000Z</time>
      </trkpt>
      <trkpt lat="46.74025" lon="3.06551">
        <ele>185.60000610352</ele>
        <time>2022-10-06T06:51:30.000Z</time>
      </trkpt>
      <trkpt lat="46.74037" lon="3.06516">
        <ele>185.60000610352</ele>
        <time>2022-10-06T06:51:34.000Z</time>
      </trkpt>
      <trkpt lat="46.74064" lon="3.06439">
        <ele>185.80000305176</ele>
        <time>2022-10-06T06:51:43.000Z</time>
      </trkpt>
      <trkpt lat="46.74073" lon="3.06413">
        <ele>185.80000305176</ele>
        <time>2022-10-06T06:51:46.000Z</time>
      </trkpt>
      <trkpt lat="46.741" lon="3.06354">
        <ele>186</ele>
        <time>2022-10-06T06:51:53.000Z</time>
      </trkpt>
      <trkpt lat="46.74138" lon="3.06292">
        <ele>185.19999694824</ele>
        <time>2022-10-06T06:52:01.000Z</time>
      </trkpt>
      <trkpt lat="46.74176" lon="3.06233">
        <ele>184.39999389648</ele>
        <time>2022-10-06T06:52:09.000Z</time>
      </trkpt>
      <trkpt lat="46.74196" lon="3.06202">
        <ele>184</ele>
        <time>2022-10-06T06:52:13.000Z</time>
      </trkpt>
      <trkpt lat="46.74217" lon="3.06169">
        <ele>183.39999389648</ele>
        <time>2022-10-06T06:52:17.000Z</time>
      </trkpt>
      <trkpt lat="46.74241" lon="3.06131">
        <ele>182.80000305176</ele>
        <time>2022-10-06T06:52:22.000Z</time>
      </trkpt>
      <trkpt lat="46.74277" lon="3.06075">
        <ele>182.39999389648</ele>
        <time>2022-10-06T06:52:29.000Z</time>
      </trkpt>
      <trkpt lat="46.74309" lon="3.06025">
        <ele>182</ele>
        <time>2022-10-06T06:52:36.000Z</time>
      </trkpt>
      <trkpt lat="46.74346" lon="3.05964">
        <ele>182.19999694824</ele>
        <time>2022-10-06T06:52:44.000Z</time>
      </trkpt>
      <trkpt lat="46.7436" lon="3.05943">
        <ele>182.19999694824</ele>
        <time>2022-10-06T06:52:47.000Z</time>
      </trkpt>
      <trkpt lat="46.74399" lon="3.0588">
        <ele>182.60000610352</ele>
        <time>2022-10-06T06:52:56.000Z</time>
      </trkpt>
      <trkpt lat="46.7443" lon="3.05832">
        <ele>183</ele>
        <time>2022-10-06T06:53:03.000Z</time>
      </trkpt>
      <trkpt lat="46.7447" lon="3.05769">
        <ele>183.19999694824</ele>
        <time>2022-10-06T06:53:12.000Z</time>
      </trkpt>
      <trkpt lat="46.74474" lon="3.05764">
        <ele>183.19999694824</ele>
        <time>2022-10-06T06:53:13.000Z</time>
      </trkpt>
      <trkpt lat="46.74514" lon="3.05701">
        <ele>183.19999694824</ele>
        <time>2022-10-06T06:53:22.000Z</time>
      </trkpt>
      <trkpt lat="46.74523" lon="3.05685">
        <ele>183.39999389648</ele>
        <time>2022-10-06T06:53:24.000Z</time>
      </trkpt>
      <trkpt lat="46.74562" lon="3.05623">
        <ele>183.60000610352</ele>
        <time>2022-10-06T06:53:33.000Z</time>
      </trkpt>
      <trkpt lat="46.74566" lon="3.05617">
        <ele>183.60000610352</ele>
        <time>2022-10-06T06:53:34.000Z</time>
      </trkpt>
      <trkpt lat="46.74604" lon="3.05557">
        <ele>184</ele>
        <time>2022-10-06T06:53:42.000Z</time>
      </trkpt>
      <trkpt lat="46.74613" lon="3.05542">
        <ele>184</ele>
        <time>2022-10-06T06:53:44.000Z</time>
      </trkpt>
      <trkpt lat="46.74651" lon="3.05483">
        <ele>183.60000610352</ele>
        <time>2022-10-06T06:53:52.000Z</time>
      </trkpt>
      <trkpt lat="46.7467" lon="3.05451">
        <ele>183.19999694824</ele>
        <time>2022-10-06T06:53:56.000Z</time>
      </trkpt>
      <trkpt lat="46.74707" lon="3.05385">
        <ele>182.80000305176</ele>
        <time>2022-10-06T06:54:04.000Z</time>
      </trkpt>
      <trkpt lat="46.74716" lon="3.05369">
        <ele>182.60000610352</ele>
        <time>2022-10-06T06:54:06.000Z</time>
      </trkpt>
      <trkpt lat="46.74749" lon="3.05305">
        <ele>182.60000610352</ele>
        <time>2022-10-06T06:54:14.000Z</time>
      </trkpt>
      <trkpt lat="46.74761" lon="3.05281">
        <ele>182.80000305176</ele>
        <time>2022-10-06T06:54:17.000Z</time>
      </trkpt>
      <trkpt lat="46.74794" lon="3.0523">
        <ele>183</ele>
        <time>2022-10-06T06:54:24.000Z</time>
      </trkpt>
      <trkpt lat="46.7484" lon="3.05174">
        <ele>183.19999694824</ele>
        <time>2022-10-06T06:54:33.000Z</time>
      </trkpt>
      <trkpt lat="46.74845" lon="3.05167">
        <ele>183.39999389648</ele>
        <time>2022-10-06T06:54:34.000Z</time>
      </trkpt>
      <trkpt lat="46.74886" lon="3.05102">
        <ele>183.60000610352</ele>
        <time>2022-10-06T06:54:43.000Z</time>
      </trkpt>
      <trkpt lat="46.74926" lon="3.05045">
        <ele>183.39999389648</ele>
        <time>2022-10-06T06:54:51.000Z</time>
      </trkpt>
      <trkpt lat="46.74961" lon="3.05011">
        <ele>183</ele>
        <time>2022-10-06T06:54:57.000Z</time>
      </trkpt>
      <trkpt lat="46.75005" lon="3.04961">
        <ele>182.60000610352</ele>
        <time>2022-10-06T06:55:05.000Z</time>
      </trkpt>
      <trkpt lat="46.75035" lon="3.04918">
        <ele>182.39999389648</ele>
        <time>2022-10-06T06:55:11.000Z</time>
      </trkpt>
      <trkpt lat="46.7506" lon="3.04881">
        <ele>182.39999389648</ele>
        <time>2022-10-06T06:55:16.000Z</time>
      </trkpt>
      <trkpt lat="46.75096" lon="3.0482">
        <ele>182.39999389648</ele>
        <time>2022-10-06T06:55:24.000Z</time>
      </trkpt>
      <trkpt lat="46.75101" lon="3.04812">
        <ele>182.39999389648</ele>
        <time>2022-10-06T06:55:25.000Z</time>
      </trkpt>
      <trkpt lat="46.75131" lon="3.04755">
        <ele>182.39999389648</ele>
        <time>2022-10-06T06:55:32.000Z</time>
      </trkpt>
      <trkpt lat="46.75165" lon="3.04689">
        <ele>182.39999389648</ele>
        <time>2022-10-06T06:55:40.000Z</time>
      </trkpt>
      <trkpt lat="46.75176" lon="3.04666">
        <ele>182.39999389648</ele>
        <time>2022-10-06T06:55:43.000Z</time>
      </trkpt>
      <trkpt lat="46.75204" lon="3.04616">
        <ele>181.80000305176</ele>
        <time>2022-10-06T06:55:49.000Z</time>
      </trkpt>
      <trkpt lat="46.7521" lon="3.04609">
        <ele>181.80000305176</ele>
        <time>2022-10-06T06:55:50.000Z</time>
      </trkpt>
      <trkpt lat="46.75215" lon="3.04605">
        <ele>181.80000305176</ele>
        <time>2022-10-06T06:55:51.000Z</time>
      </trkpt>
      <trkpt lat="46.75228" lon="3.04598">
        <ele>181.80000305176</ele>
        <time>2022-10-06T06:55:53.000Z</time>
      </trkpt>
      <trkpt lat="46.75257" lon="3.04585">
        <ele>182.19999694824</ele>
        <time>2022-10-06T06:55:58.000Z</time>
      </trkpt>
      <trkpt lat="46.75271" lon="3.04573">
        <ele>182.60000610352</ele>
        <time>2022-10-06T06:56:01.000Z</time>
      </trkpt>
      <trkpt lat="46.7528" lon="3.04561">
        <ele>182.80000305176</ele>
        <time>2022-10-06T06:56:03.000Z</time>
      </trkpt>
      <trkpt lat="46.75286" lon="3.04548">
        <ele>183.39999389648</ele>
        <time>2022-10-06T06:56:05.000Z</time>
      </trkpt>
      <trkpt lat="46.75298" lon="3.04522">
        <ele>184.80000305176</ele>
        <time>2022-10-06T06:56:09.000Z</time>
      </trkpt>
      <trkpt lat="46.75304" lon="3.04513">
        <ele>185.39999389648</ele>
        <time>2022-10-06T06:56:11.000Z</time>
      </trkpt>
      <trkpt lat="46.75315" lon="3.04504">
        <ele>186.19999694824</ele>
        <time>2022-10-06T06:56:13.000Z</time>
      </trkpt>
      <trkpt lat="46.7534" lon="3.04485">
        <ele>187.39999389648</ele>
        <time>2022-10-06T06:56:18.000Z</time>
      </trkpt>
      <trkpt lat="46.75344" lon="3.04482">
        <ele>187.19999694824</ele>
        <time>2022-10-06T06:56:19.000Z</time>
      </trkpt>
      <trkpt lat="46.75391" lon="3.04443">
        <ele>187.80000305176</ele>
        <time>2022-10-06T06:56:28.000Z</time>
      </trkpt>
      <trkpt lat="46.75407" lon="3.04412">
        <ele>188.19999694824</ele>
        <time>2022-10-06T06:56:33.000Z</time>
      </trkpt>
      <trkpt lat="46.7541" lon="3.04404">
        <ele>188.19999694824</ele>
        <time>2022-10-06T06:56:34.000Z</time>
      </trkpt>
      <trkpt lat="46.75434" lon="3.04346">
        <ele>189</ele>
        <time>2022-10-06T06:56:42.000Z</time>
      </trkpt>
      <trkpt lat="46.75457" lon="3.04287">
        <ele>189</ele>
        <time>2022-10-06T06:56:50.000Z</time>
      </trkpt>
      <trkpt lat="46.75475" lon="3.04228">
        <ele>188.19999694824</ele>
        <time>2022-10-06T06:56:57.000Z</time>
      </trkpt>
      <trkpt lat="46.75485" lon="3.042">
        <ele>187.60000610352</ele>
        <time>2022-10-06T06:57:00.000Z</time>
      </trkpt>
      <trkpt lat="46.75497" lon="3.04178">
        <ele>187</ele>
        <time>2022-10-06T06:57:03.000Z</time>
      </trkpt>
      <trkpt lat="46.75515" lon="3.04151">
        <ele>186.19999694824</ele>
        <time>2022-10-06T06:57:07.000Z</time>
      </trkpt>
      <trkpt lat="46.75521" lon="3.04148">
        <ele>186</ele>
        <time>2022-10-06T06:57:08.000Z</time>
      </trkpt>
      <trkpt lat="46.75527" lon="3.04146">
        <ele>186</ele>
        <time>2022-10-06T06:57:09.000Z</time>
      </trkpt>
      <trkpt lat="46.75539" lon="3.04147">
        <ele>185.60000610352</ele>
        <time>2022-10-06T06:57:11.000Z</time>
      </trkpt>
      <trkpt lat="46.75587" lon="3.04158">
        <ele>185</ele>
        <time>2022-10-06T06:57:19.000Z</time>
      </trkpt>
      <trkpt lat="46.75593" lon="3.04159">
        <ele>184.80000305176</ele>
        <time>2022-10-06T06:57:20.000Z</time>
      </trkpt>
      <trkpt lat="46.75598" lon="3.04161">
        <ele>184.80000305176</ele>
        <time>2022-10-06T06:57:21.000Z</time>
      </trkpt>
      <trkpt lat="46.75607" lon="3.04166">
        <ele>184.80000305176</ele>
        <time>2022-10-06T06:57:23.000Z</time>
      </trkpt>
      <trkpt lat="46.75629" lon="3.04189">
        <ele>184</ele>
        <time>2022-10-06T06:57:28.000Z</time>
      </trkpt>
      <trkpt lat="46.75631" lon="3.04194">
        <ele>183.80000305176</ele>
        <time>2022-10-06T06:57:29.000Z</time>
      </trkpt>
      <trkpt lat="46.75632" lon="3.04202">
        <ele>183.60000610352</ele>
        <time>2022-10-06T06:57:31.000Z</time>
      </trkpt>
      <trkpt lat="46.75633" lon="3.04203">
        <ele>183.39999389648</ele>
        <time>2022-10-06T06:57:32.000Z</time>
      </trkpt>
      <trkpt lat="46.75634" lon="3.04202">
        <ele>183.19999694824</ele>
        <time>2022-10-06T06:57:33.000Z</time>
      </trkpt>
      <trkpt lat="46.75636" lon="3.04195">
        <ele>183.19999694824</ele>
        <time>2022-10-06T06:57:35.000Z</time>
      </trkpt>
      <trkpt lat="46.75639" lon="3.04165">
        <ele>183</ele>
        <time>2022-10-06T06:57:40.000Z</time>
      </trkpt>
      <trkpt lat="46.7564" lon="3.04158">
        <ele>183</ele>
        <time>2022-10-06T06:57:41.000Z</time>
      </trkpt>
      <trkpt lat="46.7564" lon="3.04142">
        <ele>183</ele>
        <time>2022-10-06T06:57:43.000Z</time>
      </trkpt>
      <trkpt lat="46.75639" lon="3.04124">
        <ele>183.19999694824</ele>
        <time>2022-10-06T06:57:45.000Z</time>
      </trkpt>
      <trkpt lat="46.75636" lon="3.0409">
        <ele>183.39999389648</ele>
        <time>2022-10-06T06:57:49.000Z</time>
      </trkpt>
      <trkpt lat="46.75635" lon="3.04074">
        <ele>183.39999389648</ele>
        <time>2022-10-06T06:57:51.000Z</time>
      </trkpt>
      <trkpt lat="46.75633" lon="3.04052">
        <ele>183.39999389648</ele>
        <time>2022-10-06T06:57:54.000Z</time>
      </trkpt>
      <trkpt lat="46.75633" lon="3.04044">
        <ele>183.39999389648</ele>
        <time>2022-10-06T06:57:55.000Z</time>
      </trkpt>
      <trkpt lat="46.75636" lon="3.04021">
        <ele>183.39999389648</ele>
        <time>2022-10-06T06:57:58.000Z</time>
      </trkpt>
      <trkpt lat="46.75637" lon="3.04007">
        <ele>183.39999389648</ele>
        <time>2022-10-06T06:58:00.000Z</time>
      </trkpt>
      <trkpt lat="46.75641" lon="3.03993">
        <ele>183.80000305176</ele>
        <time>2022-10-06T06:58:02.000Z</time>
      </trkpt>
      <trkpt lat="46.75652" lon="3.03967">
        <ele>184</ele>
        <time>2022-10-06T06:58:06.000Z</time>
      </trkpt>
      <trkpt lat="46.7566" lon="3.03957">
        <ele>184.19999694824</ele>
        <time>2022-10-06T06:58:08.000Z</time>
      </trkpt>
      <trkpt lat="46.75666" lon="3.03943">
        <ele>184.19999694824</ele>
        <time>2022-10-06T06:58:10.000Z</time>
      </trkpt>
      <trkpt lat="46.7567" lon="3.03928">
        <ele>184.19999694824</ele>
        <time>2022-10-06T06:58:12.000Z</time>
      </trkpt>
      <trkpt lat="46.7568" lon="3.03895">
        <ele>183.80000305176</ele>
        <time>2022-10-06T06:58:16.000Z</time>
      </trkpt>
      <trkpt lat="46.75687" lon="3.03879">
        <ele>183.60000610352</ele>
        <time>2022-10-06T06:58:18.000Z</time>
      </trkpt>
      <trkpt lat="46.75708" lon="3.03833">
        <ele>182.80000305176</ele>
        <time>2022-10-06T06:58:24.000Z</time>
      </trkpt>
      <trkpt lat="46.75726" lon="3.03795">
        <ele>182.60000610352</ele>
        <time>2022-10-06T06:58:29.000Z</time>
      </trkpt>
      <trkpt lat="46.75742" lon="3.03764">
        <ele>182.39999389648</ele>
        <time>2022-10-06T06:58:33.000Z</time>
      </trkpt>
      <trkpt lat="46.75773" lon="3.03703">
        <ele>182.19999694824</ele>
        <time>2022-10-06T06:58:41.000Z</time>
      </trkpt>
      <trkpt lat="46.75802" lon="3.03655">
        <ele>182.39999389648</ele>
        <time>2022-10-06T06:58:48.000Z</time>
      </trkpt>
      <trkpt lat="46.75839" lon="3.03592">
        <ele>182.19999694824</ele>
        <time>2022-10-06T06:58:57.000Z</time>
      </trkpt>
      <trkpt lat="46.75844" lon="3.03583">
        <ele>182.19999694824</ele>
        <time>2022-10-06T06:58:58.000Z</time>
      </trkpt>
      <trkpt lat="46.75855" lon="3.03566">
        <ele>182</ele>
        <time>2022-10-06T06:59:01.000Z</time>
      </trkpt>
      <trkpt lat="46.7586" lon="3.03563">
        <ele>182</ele>
        <time>2022-10-06T06:59:02.000Z</time>
      </trkpt>
      <trkpt lat="46.75866" lon="3.03564">
        <ele>182</ele>
        <time>2022-10-06T06:59:03.000Z</time>
      </trkpt>
      <trkpt lat="46.75876" lon="3.03564">
        <ele>182</ele>
        <time>2022-10-06T06:59:05.000Z</time>
      </trkpt>
      <trkpt lat="46.75884" lon="3.03551">
        <ele>182</ele>
        <time>2022-10-06T06:59:07.000Z</time>
      </trkpt>
      <trkpt lat="46.75885" lon="3.03544">
        <ele>181.80000305176</ele>
        <time>2022-10-06T06:59:08.000Z</time>
      </trkpt>
      <trkpt lat="46.75884" lon="3.03526">
        <ele>181.80000305176</ele>
        <time>2022-10-06T06:59:10.000Z</time>
      </trkpt>
      <trkpt lat="46.75886" lon="3.03517">
        <ele>181.80000305176</ele>
        <time>2022-10-06T06:59:11.000Z</time>
      </trkpt>
      <trkpt lat="46.75889" lon="3.03509">
        <ele>181.80000305176</ele>
        <time>2022-10-06T06:59:12.000Z</time>
      </trkpt>
      <trkpt lat="46.75902" lon="3.03487">
        <ele>181.80000305176</ele>
        <time>2022-10-06T06:59:15.000Z</time>
      </trkpt>
      <trkpt lat="46.75942" lon="3.03421">
        <ele>181.80000305176</ele>
        <time>2022-10-06T06:59:24.000Z</time>
      </trkpt>
      <trkpt lat="46.75978" lon="3.03362">
        <ele>181.60000610352</ele>
        <time>2022-10-06T06:59:32.000Z</time>
      </trkpt>
      <trkpt lat="46.75986" lon="3.03348">
        <ele>181.80000305176</ele>
        <time>2022-10-06T06:59:34.000Z</time>
      </trkpt>
      <trkpt lat="46.76025" lon="3.03287">
        <ele>182.19999694824</ele>
        <time>2022-10-06T06:59:43.000Z</time>
      </trkpt>
      <trkpt lat="46.76046" lon="3.03264">
        <ele>182.39999389648</ele>
        <time>2022-10-06T06:59:47.000Z</time>
      </trkpt>
      <trkpt lat="46.76056" lon="3.03256">
        <ele>182.39999389648</ele>
        <time>2022-10-06T06:59:49.000Z</time>
      </trkpt>
      <trkpt lat="46.76108" lon="3.03218">
        <ele>183.39999389648</ele>
        <time>2022-10-06T06:59:58.000Z</time>
      </trkpt>
      <trkpt lat="46.76125" lon="3.03206">
        <ele>183.60000610352</ele>
        <time>2022-10-06T07:00:01.000Z</time>
      </trkpt>
      <trkpt lat="46.7618" lon="3.03169">
        <ele>183.60000610352</ele>
        <time>2022-10-06T07:00:10.000Z</time>
      </trkpt>
      <trkpt lat="46.76233" lon="3.03141">
        <ele>183.60000610352</ele>
        <time>2022-10-06T07:00:19.000Z</time>
      </trkpt>
      <trkpt lat="46.76239" lon="3.03138">
        <ele>183.60000610352</ele>
        <time>2022-10-06T07:00:20.000Z</time>
      </trkpt>
      <trkpt lat="46.76291" lon="3.03113">
        <ele>183.80000305176</ele>
        <time>2022-10-06T07:00:28.000Z</time>
      </trkpt>
      <trkpt lat="46.76297" lon="3.03109">
        <ele>183.80000305176</ele>
        <time>2022-10-06T07:00:29.000Z</time>
      </trkpt>
      <trkpt lat="46.76308" lon="3.03098">
        <ele>183.80000305176</ele>
        <time>2022-10-06T07:00:31.000Z</time>
      </trkpt>
      <trkpt lat="46.76314" lon="3.03092">
        <ele>184</ele>
        <time>2022-10-06T07:00:32.000Z</time>
      </trkpt>
      <trkpt lat="46.76318" lon="3.03085">
        <ele>184</ele>
        <time>2022-10-06T07:00:33.000Z</time>
      </trkpt>
      <trkpt lat="46.76327" lon="3.03071">
        <ele>184</ele>
        <time>2022-10-06T07:00:35.000Z</time>
      </trkpt>
      <trkpt lat="46.76332" lon="3.03065">
        <ele>184</ele>
        <time>2022-10-06T07:00:36.000Z</time>
      </trkpt>
      <trkpt lat="46.76337" lon="3.03063">
        <ele>184</ele>
        <time>2022-10-06T07:00:37.000Z</time>
      </trkpt>
      <trkpt lat="46.76349" lon="3.03063">
        <ele>184</ele>
        <time>2022-10-06T07:00:39.000Z</time>
      </trkpt>
      <trkpt lat="46.76403" lon="3.03081">
        <ele>183.60000610352</ele>
        <time>2022-10-06T07:00:47.000Z</time>
      </trkpt>
      <trkpt lat="46.76408" lon="3.03082">
        <ele>183.60000610352</ele>
        <time>2022-10-06T07:00:48.000Z</time>
      </trkpt>
      <trkpt lat="46.76434" lon="3.03092">
        <ele>184.19999694824</ele>
        <time>2022-10-06T07:00:54.000Z</time>
      </trkpt>
      <trkpt lat="46.76441" lon="3.03095">
        <ele>184.80000305176</ele>
        <time>2022-10-06T07:00:56.000Z</time>
      </trkpt>
      <trkpt lat="46.76452" lon="3.03098">
        <ele>185.60000610352</ele>
        <time>2022-10-06T07:00:59.000Z</time>
      </trkpt>
      <trkpt lat="46.76456" lon="3.03098">
        <ele>185.80000305176</ele>
        <time>2022-10-06T07:01:00.000Z</time>
      </trkpt>
      <trkpt lat="46.76466" lon="3.03102">
        <ele>187</ele>
        <time>2022-10-06T07:01:03.000Z</time>
      </trkpt>
      <trkpt lat="46.76472" lon="3.03105">
        <ele>187.80000305176</ele>
        <time>2022-10-06T07:01:05.000Z</time>
      </trkpt>
      <trkpt lat="46.76475" lon="3.03107">
        <ele>188</ele>
        <time>2022-10-06T07:01:06.000Z</time>
      </trkpt>
      <trkpt lat="46.76491" lon="3.0311">
        <ele>189.39999389648</ele>
        <time>2022-10-06T07:01:10.000Z</time>
      </trkpt>
      <trkpt lat="46.76499" lon="3.0311">
        <ele>189.80000305176</ele>
        <time>2022-10-06T07:01:12.000Z</time>
      </trkpt>
      <trkpt lat="46.7651" lon="3.03109">
        <ele>190.39999389648</ele>
        <time>2022-10-06T07:01:15.000Z</time>
      </trkpt>
      <trkpt lat="46.76517" lon="3.03105">
        <ele>191</ele>
        <time>2022-10-06T07:01:17.000Z</time>
      </trkpt>
      <trkpt lat="46.76524" lon="3.03101">
        <ele>191.60000610352</ele>
        <time>2022-10-06T07:01:19.000Z</time>
      </trkpt>
      <trkpt lat="46.76537" lon="3.03088">
        <ele>192.60000610352</ele>
        <time>2022-10-06T07:01:23.000Z</time>
      </trkpt>
      <trkpt lat="46.76544" lon="3.0307">
        <ele>193.80000305176</ele>
        <time>2022-10-06T07:01:27.000Z</time>
      </trkpt>
      <trkpt lat="46.76545" lon="3.03066">
        <ele>193.80000305176</ele>
        <time>2022-10-06T07:01:28.000Z</time>
      </trkpt>
      <trkpt lat="46.76547" lon="3.03057">
        <ele>195</ele>
        <time>2022-10-06T07:01:30.000Z</time>
      </trkpt>
      <trkpt lat="46.76548" lon="3.03041">
        <ele>196.19999694824</ele>
        <time>2022-10-06T07:01:34.000Z</time>
      </trkpt>
      <trkpt lat="46.76549" lon="3.03026">
        <ele>197.19999694824</ele>
        <time>2022-10-06T07:01:37.000Z</time>
      </trkpt>
      <trkpt lat="46.7655" lon="3.03012">
        <ele>198.19999694824</ele>
        <time>2022-10-06T07:01:40.000Z</time>
      </trkpt>
      <trkpt lat="46.76551" lon="3.02999">
        <ele>199.19999694824</ele>
        <time>2022-10-06T07:01:43.000Z</time>
      </trkpt>
      <trkpt lat="46.76551" lon="3.02994">
        <ele>199.60000610352</ele>
        <time>2022-10-06T07:01:44.000Z</time>
      </trkpt>
      <trkpt lat="46.76552" lon="3.0298">
        <ele>200.80000305176</ele>
        <time>2022-10-06T07:01:47.000Z</time>
      </trkpt>
      <trkpt lat="46.76554" lon="3.02959">
        <ele>202</ele>
        <time>2022-10-06T07:01:51.000Z</time>
      </trkpt>
      <trkpt lat="46.76558" lon="3.02942">
        <ele>203.39999389648</ele>
        <time>2022-10-06T07:01:55.000Z</time>
      </trkpt>
      <trkpt lat="46.76559" lon="3.02934">
        <ele>204</ele>
        <time>2022-10-06T07:01:57.000Z</time>
      </trkpt>
      <trkpt lat="46.76561" lon="3.02924">
        <ele>204.60000610352</ele>
        <time>2022-10-06T07:01:59.000Z</time>
      </trkpt>
      <trkpt lat="46.76566" lon="3.02906">
        <ele>205.80000305176</ele>
        <time>2022-10-06T07:02:03.000Z</time>
      </trkpt>
      <trkpt lat="46.76569" lon="3.02893">
        <ele>206.80000305176</ele>
        <time>2022-10-06T07:02:06.000Z</time>
      </trkpt>
      <trkpt lat="46.76572" lon="3.02875">
        <ele>207.60000610352</ele>
        <time>2022-10-06T07:02:09.000Z</time>
      </trkpt>
      <trkpt lat="46.76575" lon="3.02863">
        <ele>208</ele>
        <time>2022-10-06T07:02:11.000Z</time>
      </trkpt>
      <trkpt lat="46.7658" lon="3.02843">
        <ele>208.19999694824</ele>
        <time>2022-10-06T07:02:14.000Z</time>
      </trkpt>
      <trkpt lat="46.76582" lon="3.02836">
        <ele>208.39999389648</ele>
        <time>2022-10-06T07:02:15.000Z</time>
      </trkpt>
      <trkpt lat="46.76591" lon="3.02808">
        <ele>208.19999694824</ele>
        <time>2022-10-06T07:02:19.000Z</time>
      </trkpt>
      <trkpt lat="46.76604" lon="3.02771">
        <ele>208</ele>
        <time>2022-10-06T07:02:24.000Z</time>
      </trkpt>
      <trkpt lat="46.76608" lon="3.02766">
        <ele>207.80000305176</ele>
        <time>2022-10-06T07:02:25.000Z</time>
      </trkpt>
      <trkpt lat="46.76613" lon="3.02759">
        <ele>207.80000305176</ele>
        <time>2022-10-06T07:02:26.000Z</time>
      </trkpt>
      <trkpt lat="46.76622" lon="3.02749">
        <ele>207.80000305176</ele>
        <time>2022-10-06T07:02:28.000Z</time>
      </trkpt>
      <trkpt lat="46.76631" lon="3.0274">
        <ele>207.60000610352</ele>
        <time>2022-10-06T07:02:30.000Z</time>
      </trkpt>
      <trkpt lat="46.76684" lon="3.02696">
        <ele>207.19999694824</ele>
        <time>2022-10-06T07:02:39.000Z</time>
      </trkpt>
      <trkpt lat="46.76699" lon="3.02682">
        <ele>207</ele>
        <time>2022-10-06T07:02:42.000Z</time>
      </trkpt>
      <trkpt lat="46.76724" lon="3.02663">
        <ele>207</ele>
        <time>2022-10-06T07:02:46.000Z</time>
      </trkpt>
      <trkpt lat="46.76736" lon="3.02657">
        <ele>207</ele>
        <time>2022-10-06T07:02:48.000Z</time>
      </trkpt>
      <trkpt lat="46.76743" lon="3.02656">
        <ele>207</ele>
        <time>2022-10-06T07:02:49.000Z</time>
      </trkpt>
      <trkpt lat="46.76767" lon="3.02654">
        <ele>207</ele>
        <time>2022-10-06T07:02:53.000Z</time>
      </trkpt>
      <trkpt lat="46.76815" lon="3.02648">
        <ele>207</ele>
        <time>2022-10-06T07:03:00.000Z</time>
      </trkpt>
      <trkpt lat="46.7687" lon="3.02624">
        <ele>206.19999694824</ele>
        <time>2022-10-06T07:03:08.000Z</time>
      </trkpt>
      <trkpt lat="46.76883" lon="3.02616">
        <ele>206</ele>
        <time>2022-10-06T07:03:10.000Z</time>
      </trkpt>
      <trkpt lat="46.7691" lon="3.02595">
        <ele>205.39999389648</ele>
        <time>2022-10-06T07:03:14.000Z</time>
      </trkpt>
      <trkpt lat="46.76953" lon="3.02543">
        <ele>205</ele>
        <time>2022-10-06T07:03:22.000Z</time>
      </trkpt>
      <trkpt lat="46.76958" lon="3.02536">
        <ele>205</ele>
        <time>2022-10-06T07:03:23.000Z</time>
      </trkpt>
      <trkpt lat="46.76962" lon="3.02531">
        <ele>205</ele>
        <time>2022-10-06T07:03:24.000Z</time>
      </trkpt>
      <trkpt lat="46.76986" lon="3.02504">
        <ele>205.19999694824</ele>
        <time>2022-10-06T07:03:29.000Z</time>
      </trkpt>
      <trkpt lat="46.76999" lon="3.02501">
        <ele>205.39999389648</ele>
        <time>2022-10-06T07:03:31.000Z</time>
      </trkpt>
      <trkpt lat="46.77005" lon="3.02502">
        <ele>205.39999389648</ele>
        <time>2022-10-06T07:03:32.000Z</time>
      </trkpt>
      <trkpt lat="46.77023" lon="3.02507">
        <ele>205.80000305176</ele>
        <time>2022-10-06T07:03:35.000Z</time>
      </trkpt>
      <trkpt lat="46.77034" lon="3.02509">
        <ele>206.19999694824</ele>
        <time>2022-10-06T07:03:37.000Z</time>
      </trkpt>
      <trkpt lat="46.77039" lon="3.0251">
        <ele>206.39999389648</ele>
        <time>2022-10-06T07:03:38.000Z</time>
      </trkpt>
      <trkpt lat="46.77063" lon="3.02515">
        <ele>207.19999694824</ele>
        <time>2022-10-06T07:03:42.000Z</time>
      </trkpt>
      <trkpt lat="46.77098" lon="3.02521">
        <ele>208.19999694824</ele>
        <time>2022-10-06T07:03:48.000Z</time>
      </trkpt>
      <trkpt lat="46.77154" lon="3.02525">
        <ele>209</ele>
        <time>2022-10-06T07:03:57.000Z</time>
      </trkpt>
      <trkpt lat="46.77161" lon="3.02525">
        <ele>209</ele>
        <time>2022-10-06T07:03:58.000Z</time>
      </trkpt>
      <trkpt lat="46.77167" lon="3.02524">
        <ele>209</ele>
        <time>2022-10-06T07:03:59.000Z</time>
      </trkpt>
      <trkpt lat="46.77224" lon="3.02525">
        <ele>209.39999389648</ele>
        <time>2022-10-06T07:04:08.000Z</time>
      </trkpt>
      <trkpt lat="46.77282" lon="3.02526">
        <ele>209.39999389648</ele>
        <time>2022-10-06T07:04:17.000Z</time>
      </trkpt>
      <trkpt lat="46.77289" lon="3.02527">
        <ele>209.39999389648</ele>
        <time>2022-10-06T07:04:18.000Z</time>
      </trkpt>
      <trkpt lat="46.7735" lon="3.02528">
        <ele>209</ele>
        <time>2022-10-06T07:04:27.000Z</time>
      </trkpt>
      <trkpt lat="46.77404" lon="3.02525">
        <ele>208.39999389648</ele>
        <time>2022-10-06T07:04:35.000Z</time>
      </trkpt>
      <trkpt lat="46.77432" lon="3.02517">
        <ele>208</ele>
        <time>2022-10-06T07:04:39.000Z</time>
      </trkpt>
      <trkpt lat="46.77448" lon="3.02511">
        <ele>207.19999694824</ele>
        <time>2022-10-06T07:04:41.000Z</time>
      </trkpt>
      <trkpt lat="46.77462" lon="3.02506">
        <ele>206.80000305176</ele>
        <time>2022-10-06T07:04:43.000Z</time>
      </trkpt>
      <trkpt lat="46.77471" lon="3.02502">
        <ele>206.60000610352</ele>
        <time>2022-10-06T07:04:44.000Z</time>
      </trkpt>
      <trkpt lat="46.77491" lon="3.02489">
        <ele>205.39999389648</ele>
        <time>2022-10-06T07:04:47.000Z</time>
      </trkpt>
      <trkpt lat="46.77527" lon="3.02469">
        <ele>204.60000610352</ele>
        <time>2022-10-06T07:04:52.000Z</time>
      </trkpt>
      <trkpt lat="46.77534" lon="3.02466">
        <ele>204.39999389648</ele>
        <time>2022-10-06T07:04:53.000Z</time>
      </trkpt>
      <trkpt lat="46.77589" lon="3.02441">
        <ele>204.19999694824</ele>
        <time>2022-10-06T07:05:01.000Z</time>
      </trkpt>
      <trkpt lat="46.77624" lon="3.02409">
        <ele>204.19999694824</ele>
        <time>2022-10-06T07:05:07.000Z</time>
      </trkpt>
      <trkpt lat="46.77663" lon="3.02363">
        <ele>205.19999694824</ele>
        <time>2022-10-06T07:05:15.000Z</time>
      </trkpt>
      <trkpt lat="46.77668" lon="3.02357">
        <ele>205.39999389648</ele>
        <time>2022-10-06T07:05:16.000Z</time>
      </trkpt>
      <trkpt lat="46.77696" lon="3.02327">
        <ele>206.19999694824</ele>
        <time>2022-10-06T07:05:21.000Z</time>
      </trkpt>
      <trkpt lat="46.77709" lon="3.0232">
        <ele>206.19999694824</ele>
        <time>2022-10-06T07:05:23.000Z</time>
      </trkpt>
      <trkpt lat="46.77722" lon="3.0232">
        <ele>206.19999694824</ele>
        <time>2022-10-06T07:05:25.000Z</time>
      </trkpt>
      <trkpt lat="46.77737" lon="3.02324">
        <ele>206.19999694824</ele>
        <time>2022-10-06T07:05:27.000Z</time>
      </trkpt>
      <trkpt lat="46.77788" lon="3.02343">
        <ele>205</ele>
        <time>2022-10-06T07:05:34.000Z</time>
      </trkpt>
      <trkpt lat="46.77805" lon="3.0235">
        <ele>204.39999389648</ele>
        <time>2022-10-06T07:05:36.000Z</time>
      </trkpt>
      <trkpt lat="46.77835" lon="3.02358">
        <ele>203</ele>
        <time>2022-10-06T07:05:40.000Z</time>
      </trkpt>
      <trkpt lat="46.77845" lon="3.02361">
        <ele>202.80000305176</ele>
        <time>2022-10-06T07:05:41.000Z</time>
      </trkpt>
      <trkpt lat="46.77861" lon="3.02366">
        <ele>202</ele>
        <time>2022-10-06T07:05:43.000Z</time>
      </trkpt>
      <trkpt lat="46.7789" lon="3.02373">
        <ele>200.60000610352</ele>
        <time>2022-10-06T07:05:46.000Z</time>
      </trkpt>
      <trkpt lat="46.77917" lon="3.0238">
        <ele>199.39999389648</ele>
        <time>2022-10-06T07:05:49.000Z</time>
      </trkpt>
      <trkpt lat="46.77934" lon="3.02384">
        <ele>198</ele>
        <time>2022-10-06T07:05:51.000Z</time>
      </trkpt>
      <trkpt lat="46.77964" lon="3.02392">
        <ele>196.80000305176</ele>
        <time>2022-10-06T07:05:54.000Z</time>
      </trkpt>
      <trkpt lat="46.77988" lon="3.02397">
        <ele>195.19999694824</ele>
        <time>2022-10-06T07:05:57.000Z</time>
      </trkpt>
      <trkpt lat="46.78016" lon="3.02398">
        <ele>194.19999694824</ele>
        <time>2022-10-06T07:06:00.000Z</time>
      </trkpt>
      <trkpt lat="46.78022" lon="3.02397">
        <ele>194.19999694824</ele>
        <time>2022-10-06T07:06:01.000Z</time>
      </trkpt>
      <trkpt lat="46.7806" lon="3.02394">
        <ele>193.60000610352</ele>
        <time>2022-10-06T07:06:06.000Z</time>
      </trkpt>
      <trkpt lat="46.78097" lon="3.02391">
        <ele>194.19999694824</ele>
        <time>2022-10-06T07:06:12.000Z</time>
      </trkpt>
      <trkpt lat="46.78127" lon="3.02387">
        <ele>195.60000610352</ele>
        <time>2022-10-06T07:06:17.000Z</time>
      </trkpt>
      <trkpt lat="46.78139" lon="3.02385">
        <ele>196.19999694824</ele>
        <time>2022-10-06T07:06:19.000Z</time>
      </trkpt>
      <trkpt lat="46.78149" lon="3.02384">
        <ele>196.60000610352</ele>
        <time>2022-10-06T07:06:21.000Z</time>
      </trkpt>
      <trkpt lat="46.78178" lon="3.02382">
        <ele>197.60000610352</ele>
        <time>2022-10-06T07:06:26.000Z</time>
      </trkpt>
      <trkpt lat="46.78192" lon="3.0238">
        <ele>197.80000305176</ele>
        <time>2022-10-06T07:06:28.000Z</time>
      </trkpt>
      <trkpt lat="46.78218" lon="3.02378">
        <ele>198.39999389648</ele>
        <time>2022-10-06T07:06:32.000Z</time>
      </trkpt>
      <trkpt lat="46.78245" lon="3.02374">
        <ele>198.80000305176</ele>
        <time>2022-10-06T07:06:36.000Z</time>
      </trkpt>
      <trkpt lat="46.78277" lon="3.02371">
        <ele>198.80000305176</ele>
        <time>2022-10-06T07:06:41.000Z</time>
      </trkpt>
      <trkpt lat="46.78322" lon="3.02363">
        <ele>198.80000305176</ele>
        <time>2022-10-06T07:06:48.000Z</time>
      </trkpt>
      <trkpt lat="46.78377" lon="3.02338">
        <ele>198.80000305176</ele>
        <time>2022-10-06T07:06:56.000Z</time>
      </trkpt>
      <trkpt lat="46.78414" lon="3.0232">
        <ele>198.19999694824</ele>
        <time>2022-10-06T07:07:02.000Z</time>
      </trkpt>
      <trkpt lat="46.78426" lon="3.02317">
        <ele>198.19999694824</ele>
        <time>2022-10-06T07:07:04.000Z</time>
      </trkpt>
      <trkpt lat="46.78482" lon="3.023">
        <ele>198</ele>
        <time>2022-10-06T07:07:12.000Z</time>
      </trkpt>
      <trkpt lat="46.7849" lon="3.02299">
        <ele>198</ele>
        <time>2022-10-06T07:07:13.000Z</time>
      </trkpt>
      <trkpt lat="46.78539" lon="3.02302">
        <ele>197.80000305176</ele>
        <time>2022-10-06T07:07:20.000Z</time>
      </trkpt>
      <trkpt lat="46.78598" lon="3.0231">
        <ele>197.80000305176</ele>
        <time>2022-10-06T07:07:28.000Z</time>
      </trkpt>
      <trkpt lat="46.78605" lon="3.02311">
        <ele>197.80000305176</ele>
        <time>2022-10-06T07:07:29.000Z</time>
      </trkpt>
      <trkpt lat="46.78611" lon="3.02311">
        <ele>197.60000610352</ele>
        <time>2022-10-06T07:07:30.000Z</time>
      </trkpt>
      <trkpt lat="46.78668" lon="3.02317">
        <ele>197.80000305176</ele>
        <time>2022-10-06T07:07:38.000Z</time>
      </trkpt>
      <trkpt lat="46.78689" lon="3.02317">
        <ele>197.80000305176</ele>
        <time>2022-10-06T07:07:41.000Z</time>
      </trkpt>
      <trkpt lat="46.78744" lon="3.02314">
        <ele>198</ele>
        <time>2022-10-06T07:07:49.000Z</time>
      </trkpt>
      <trkpt lat="46.788" lon="3.02311">
        <ele>197.60000610352</ele>
        <time>2022-10-06T07:07:57.000Z</time>
      </trkpt>
      <trkpt lat="46.78824" lon="3.0231">
        <ele>197.39999389648</ele>
        <time>2022-10-06T07:08:00.000Z</time>
      </trkpt>
      <trkpt lat="46.78852" lon="3.02311">
        <ele>196.80000305176</ele>
        <time>2022-10-06T07:08:04.000Z</time>
      </trkpt>
      <trkpt lat="46.78874" lon="3.02316">
        <ele>196.39999389648</ele>
        <time>2022-10-06T07:08:07.000Z</time>
      </trkpt>
      <trkpt lat="46.78932" lon="3.02338">
        <ele>196</ele>
        <time>2022-10-06T07:08:15.000Z</time>
      </trkpt>
      <trkpt lat="46.78944" lon="3.02343">
        <ele>196</ele>
        <time>2022-10-06T07:08:17.000Z</time>
      </trkpt>
      <trkpt lat="46.78986" lon="3.02359">
        <ele>195.60000610352</ele>
        <time>2022-10-06T07:08:23.000Z</time>
      </trkpt>
      <trkpt lat="46.79034" lon="3.02378">
        <ele>195.19999694824</ele>
        <time>2022-10-06T07:08:30.000Z</time>
      </trkpt>
      <trkpt lat="46.79093" lon="3.02399">
        <ele>194.60000610352</ele>
        <time>2022-10-06T07:08:38.000Z</time>
      </trkpt>
      <trkpt lat="46.79098" lon="3.02401">
        <ele>194.39999389648</ele>
        <time>2022-10-06T07:08:39.000Z</time>
      </trkpt>
      <trkpt lat="46.79143" lon="3.02418">
        <ele>193.60000610352</ele>
        <time>2022-10-06T07:08:45.000Z</time>
      </trkpt>
      <trkpt lat="46.7916" lon="3.02425">
        <ele>192.19999694824</ele>
        <time>2022-10-06T07:08:47.000Z</time>
      </trkpt>
      <trkpt lat="46.79166" lon="3.02427">
        <ele>192</ele>
        <time>2022-10-06T07:08:48.000Z</time>
      </trkpt>
      <trkpt lat="46.792" lon="3.0244">
        <ele>191</ele>
        <time>2022-10-06T07:08:52.000Z</time>
      </trkpt>
      <trkpt lat="46.79226" lon="3.0245">
        <ele>189.60000610352</ele>
        <time>2022-10-06T07:08:55.000Z</time>
      </trkpt>
      <trkpt lat="46.79235" lon="3.02454">
        <ele>189</ele>
        <time>2022-10-06T07:08:56.000Z</time>
      </trkpt>
      <trkpt lat="46.79252" lon="3.0246">
        <ele>188</ele>
        <time>2022-10-06T07:08:58.000Z</time>
      </trkpt>
      <trkpt lat="46.79272" lon="3.02468">
        <ele>186.80000305176</ele>
        <time>2022-10-06T07:09:00.000Z</time>
      </trkpt>
      <trkpt lat="46.79288" lon="3.02474">
        <ele>185.80000305176</ele>
        <time>2022-10-06T07:09:02.000Z</time>
      </trkpt>
      <trkpt lat="46.79298" lon="3.02477">
        <ele>185.19999694824</ele>
        <time>2022-10-06T07:09:03.000Z</time>
      </trkpt>
      <trkpt lat="46.79316" lon="3.02485">
        <ele>184.60000610352</ele>
        <time>2022-10-06T07:09:05.000Z</time>
      </trkpt>
      <trkpt lat="46.79334" lon="3.02492">
        <ele>183.60000610352</ele>
        <time>2022-10-06T07:09:07.000Z</time>
      </trkpt>
      <trkpt lat="46.79364" lon="3.02502">
        <ele>182.19999694824</ele>
        <time>2022-10-06T07:09:10.000Z</time>
      </trkpt>
      <trkpt lat="46.7938" lon="3.02508">
        <ele>181.60000610352</ele>
        <time>2022-10-06T07:09:12.000Z</time>
      </trkpt>
      <trkpt lat="46.79399" lon="3.02515">
        <ele>181.19999694824</ele>
        <time>2022-10-06T07:09:14.000Z</time>
      </trkpt>
      <trkpt lat="46.79433" lon="3.02527">
        <ele>180.39999389648</ele>
        <time>2022-10-06T07:09:18.000Z</time>
      </trkpt>
      <trkpt lat="46.79479" lon="3.02545">
        <ele>180.39999389648</ele>
        <time>2022-10-06T07:09:24.000Z</time>
      </trkpt>
      <trkpt lat="46.79526" lon="3.02562">
        <ele>180.80000305176</ele>
        <time>2022-10-06T07:09:31.000Z</time>
      </trkpt>
      <trkpt lat="46.79557" lon="3.02575">
        <ele>182.19999694824</ele>
        <time>2022-10-06T07:09:37.000Z</time>
      </trkpt>
      <trkpt lat="46.79572" lon="3.02582">
        <ele>183.19999694824</ele>
        <time>2022-10-06T07:09:40.000Z</time>
      </trkpt>
      <trkpt lat="46.79586" lon="3.02589">
        <ele>183.80000305176</ele>
        <time>2022-10-06T07:09:43.000Z</time>
      </trkpt>
      <trkpt lat="46.79595" lon="3.02592">
        <ele>184.60000610352</ele>
        <time>2022-10-06T07:09:45.000Z</time>
      </trkpt>
      <trkpt lat="46.79604" lon="3.02596">
        <ele>185.19999694824</ele>
        <time>2022-10-06T07:09:47.000Z</time>
      </trkpt>
      <trkpt lat="46.79612" lon="3.02599">
        <ele>185.80000305176</ele>
        <time>2022-10-06T07:09:49.000Z</time>
      </trkpt>
      <trkpt lat="46.79625" lon="3.02603">
        <ele>187.19999694824</ele>
        <time>2022-10-06T07:09:52.000Z</time>
      </trkpt>
      <trkpt lat="46.79641" lon="3.02606">
        <ele>188.19999694824</ele>
        <time>2022-10-06T07:09:55.000Z</time>
      </trkpt>
      <trkpt lat="46.79652" lon="3.02608">
        <ele>189</ele>
        <time>2022-10-06T07:09:57.000Z</time>
      </trkpt>
      <trkpt lat="46.79663" lon="3.02608">
        <ele>189.39999389648</ele>
        <time>2022-10-06T07:09:59.000Z</time>
      </trkpt>
      <trkpt lat="46.79669" lon="3.02609">
        <ele>189.60000610352</ele>
        <time>2022-10-06T07:10:00.000Z</time>
      </trkpt>
      <trkpt lat="46.7969" lon="3.02612">
        <ele>190.80000305176</ele>
        <time>2022-10-06T07:10:04.000Z</time>
      </trkpt>
      <trkpt lat="46.797" lon="3.02614">
        <ele>191.19999694824</ele>
        <time>2022-10-06T07:10:06.000Z</time>
      </trkpt>
      <trkpt lat="46.79706" lon="3.02616">
        <ele>191.80000305176</ele>
        <time>2022-10-06T07:10:07.000Z</time>
      </trkpt>
      <trkpt lat="46.79729" lon="3.02618">
        <ele>193</ele>
        <time>2022-10-06T07:10:11.000Z</time>
      </trkpt>
      <trkpt lat="46.7974" lon="3.0262">
        <ele>193.60000610352</ele>
        <time>2022-10-06T07:10:13.000Z</time>
      </trkpt>
      <trkpt lat="46.79756" lon="3.02623">
        <ele>194.19999694824</ele>
        <time>2022-10-06T07:10:16.000Z</time>
      </trkpt>
      <trkpt lat="46.79789" lon="3.02626">
        <ele>195</ele>
        <time>2022-10-06T07:10:22.000Z</time>
      </trkpt>
      <trkpt lat="46.79836" lon="3.02635">
        <ele>195.19999694824</ele>
        <time>2022-10-06T07:10:30.000Z</time>
      </trkpt>
      <trkpt lat="46.79894" lon="3.02645">
        <ele>194.80000305176</ele>
        <time>2022-10-06T07:10:39.000Z</time>
      </trkpt>
      <trkpt lat="46.79901" lon="3.02646">
        <ele>194.80000305176</ele>
        <time>2022-10-06T07:10:40.000Z</time>
      </trkpt>
      <trkpt lat="46.79959" lon="3.02658">
        <ele>195</ele>
        <time>2022-10-06T07:10:49.000Z</time>
      </trkpt>
      <trkpt lat="46.80014" lon="3.02668">
        <ele>195</ele>
        <time>2022-10-06T07:10:57.000Z</time>
      </trkpt>
      <trkpt lat="46.80021" lon="3.02668">
        <ele>195</ele>
        <time>2022-10-06T07:10:58.000Z</time>
      </trkpt>
      <trkpt lat="46.80055" lon="3.02667">
        <ele>195</ele>
        <time>2022-10-06T07:11:03.000Z</time>
      </trkpt>
      <trkpt lat="46.80062" lon="3.02666">
        <ele>195</ele>
        <time>2022-10-06T07:11:04.000Z</time>
      </trkpt>
      <trkpt lat="46.80121" lon="3.02653">
        <ele>195</ele>
        <time>2022-10-06T07:11:13.000Z</time>
      </trkpt>
      <trkpt lat="46.80182" lon="3.02636">
        <ele>194.19999694824</ele>
        <time>2022-10-06T07:11:21.000Z</time>
      </trkpt>
      <trkpt lat="46.8019" lon="3.02634">
        <ele>193.80000305176</ele>
        <time>2022-10-06T07:11:22.000Z</time>
      </trkpt>
      <trkpt lat="46.80222" lon="3.02626">
        <ele>193.19999694824</ele>
        <time>2022-10-06T07:11:26.000Z</time>
      </trkpt>
      <trkpt lat="46.80268" lon="3.02615">
        <ele>192.60000610352</ele>
        <time>2022-10-06T07:11:32.000Z</time>
      </trkpt>
      <trkpt lat="46.80309" lon="3.02603">
        <ele>192.19999694824</ele>
        <time>2022-10-06T07:11:38.000Z</time>
      </trkpt>
      <trkpt lat="46.80316" lon="3.02601">
        <ele>192.19999694824</ele>
        <time>2022-10-06T07:11:39.000Z</time>
      </trkpt>
      <trkpt lat="46.80341" lon="3.02589">
        <ele>193</ele>
        <time>2022-10-06T07:11:43.000Z</time>
      </trkpt>
      <trkpt lat="46.8036" lon="3.02582">
        <ele>193.39999389648</ele>
        <time>2022-10-06T07:11:46.000Z</time>
      </trkpt>
      <trkpt lat="46.80392" lon="3.02574">
        <ele>194</ele>
        <time>2022-10-06T07:11:51.000Z</time>
      </trkpt>
      <trkpt lat="46.80451" lon="3.02565">
        <ele>194.19999694824</ele>
        <time>2022-10-06T07:12:00.000Z</time>
      </trkpt>
      <trkpt lat="46.80458" lon="3.02564">
        <ele>194.19999694824</ele>
        <time>2022-10-06T07:12:01.000Z</time>
      </trkpt>
      <trkpt lat="46.80471" lon="3.02564">
        <ele>194.39999389648</ele>
        <time>2022-10-06T07:12:03.000Z</time>
      </trkpt>
      <trkpt lat="46.80478" lon="3.02565">
        <ele>194.39999389648</ele>
        <time>2022-10-06T07:12:04.000Z</time>
      </trkpt>
      <trkpt lat="46.80497" lon="3.02571">
        <ele>194.60000610352</ele>
        <time>2022-10-06T07:12:07.000Z</time>
      </trkpt>
      <trkpt lat="46.80544" lon="3.02584">
        <ele>194.80000305176</ele>
        <time>2022-10-06T07:12:14.000Z</time>
      </trkpt>
      <trkpt lat="46.80582" lon="3.02593">
        <ele>194.39999389648</ele>
        <time>2022-10-06T07:12:19.000Z</time>
      </trkpt>
      <trkpt lat="46.80614" lon="3.02599">
        <ele>193.19999694824</ele>
        <time>2022-10-06T07:12:23.000Z</time>
      </trkpt>
      <trkpt lat="46.8064" lon="3.02603">
        <ele>191.80000305176</ele>
        <time>2022-10-06T07:12:26.000Z</time>
      </trkpt>
      <trkpt lat="46.80657" lon="3.02603">
        <ele>191</ele>
        <time>2022-10-06T07:12:28.000Z</time>
      </trkpt>
      <trkpt lat="46.80666" lon="3.02601">
        <ele>190.19999694824</ele>
        <time>2022-10-06T07:12:29.000Z</time>
      </trkpt>
      <trkpt lat="46.80682" lon="3.02597">
        <ele>189.60000610352</ele>
        <time>2022-10-06T07:12:31.000Z</time>
      </trkpt>
      <trkpt lat="46.80698" lon="3.02592">
        <ele>189</ele>
        <time>2022-10-06T07:12:33.000Z</time>
      </trkpt>
      <trkpt lat="46.80714" lon="3.02591">
        <ele>188.39999389648</ele>
        <time>2022-10-06T07:12:35.000Z</time>
      </trkpt>
      <trkpt lat="46.80721" lon="3.02592">
        <ele>188.39999389648</ele>
        <time>2022-10-06T07:12:36.000Z</time>
      </trkpt>
      <trkpt lat="46.80746" lon="3.02599">
        <ele>188.39999389648</ele>
        <time>2022-10-06T07:12:40.000Z</time>
      </trkpt>
      <trkpt lat="46.80751" lon="3.02601">
        <ele>188.60000610352</ele>
        <time>2022-10-06T07:12:41.000Z</time>
      </trkpt>
      <trkpt lat="46.80762" lon="3.02605">
        <ele>189.39999389648</ele>
        <time>2022-10-06T07:12:43.000Z</time>
      </trkpt>
      <trkpt lat="46.80773" lon="3.02607">
        <ele>190</ele>
        <time>2022-10-06T07:12:45.000Z</time>
      </trkpt>
      <trkpt lat="46.80778" lon="3.02607">
        <ele>190.39999389648</ele>
        <time>2022-10-06T07:12:46.000Z</time>
      </trkpt>
      <trkpt lat="46.80783" lon="3.02607">
        <ele>190.60000610352</ele>
        <time>2022-10-06T07:12:47.000Z</time>
      </trkpt>
      <trkpt lat="46.80788" lon="3.02607">
        <ele>191.19999694824</ele>
        <time>2022-10-06T07:12:48.000Z</time>
      </trkpt>
      <trkpt lat="46.80792" lon="3.02606">
        <ele>191.60000610352</ele>
        <time>2022-10-06T07:12:49.000Z</time>
      </trkpt>
      <trkpt lat="46.80802" lon="3.02601">
        <ele>192.19999694824</ele>
        <time>2022-10-06T07:12:51.000Z</time>
      </trkpt>
      <trkpt lat="46.8082" lon="3.02585">
        <ele>193.19999694824</ele>
        <time>2022-10-06T07:12:55.000Z</time>
      </trkpt>
      <trkpt lat="46.80824" lon="3.02581">
        <ele>193.80000305176</ele>
        <time>2022-10-06T07:12:56.000Z</time>
      </trkpt>
      <trkpt lat="46.8083" lon="3.02571">
        <ele>194.60000610352</ele>
        <time>2022-10-06T07:12:58.000Z</time>
      </trkpt>
      <trkpt lat="46.80835" lon="3.02564">
        <ele>195</ele>
        <time>2022-10-06T07:12:59.000Z</time>
      </trkpt>
      <trkpt lat="46.80842" lon="3.02551">
        <ele>195.80000305176</ele>
        <time>2022-10-06T07:13:01.000Z</time>
      </trkpt>
      <trkpt lat="46.80845" lon="3.02544">
        <ele>196</ele>
        <time>2022-10-06T07:13:02.000Z</time>
      </trkpt>
      <trkpt lat="46.8085" lon="3.02529">
        <ele>196.39999389648</ele>
        <time>2022-10-06T07:13:04.000Z</time>
      </trkpt>
      <trkpt lat="46.80852" lon="3.02522">
        <ele>196.60000610352</ele>
        <time>2022-10-06T07:13:05.000Z</time>
      </trkpt>
      <trkpt lat="46.80854" lon="3.02514">
        <ele>196.80000305176</ele>
        <time>2022-10-06T07:13:06.000Z</time>
      </trkpt>
      <trkpt lat="46.80862" lon="3.02465">
        <ele>197.80000305176</ele>
        <time>2022-10-06T07:13:12.000Z</time>
      </trkpt>
      <trkpt lat="46.80865" lon="3.02449">
        <ele>198</ele>
        <time>2022-10-06T07:13:14.000Z</time>
      </trkpt>
      <trkpt lat="46.80873" lon="3.02402">
        <ele>199</ele>
        <time>2022-10-06T07:13:20.000Z</time>
      </trkpt>
      <trkpt lat="46.8088" lon="3.02369">
        <ele>199.39999389648</ele>
        <time>2022-10-06T07:13:24.000Z</time>
      </trkpt>
      <trkpt lat="46.80893" lon="3.02332">
        <ele>200</ele>
        <time>2022-10-06T07:13:29.000Z</time>
      </trkpt>
      <trkpt lat="46.80907" lon="3.02287">
        <ele>201</ele>
        <time>2022-10-06T07:13:35.000Z</time>
      </trkpt>
      <trkpt lat="46.8091" lon="3.02279">
        <ele>201</ele>
        <time>2022-10-06T07:13:36.000Z</time>
      </trkpt>
      <trkpt lat="46.80922" lon="3.02221">
        <ele>201.39999389648</ele>
        <time>2022-10-06T07:13:43.000Z</time>
      </trkpt>
      <trkpt lat="46.80936" lon="3.02143">
        <ele>202</ele>
        <time>2022-10-06T07:13:52.000Z</time>
      </trkpt>
      <trkpt lat="46.8094" lon="3.02128">
        <ele>202</ele>
        <time>2022-10-06T07:13:54.000Z</time>
      </trkpt>
      <trkpt lat="46.80943" lon="3.02119">
        <ele>202</ele>
        <time>2022-10-06T07:13:55.000Z</time>
      </trkpt>
      <trkpt lat="46.8095" lon="3.02105">
        <ele>202.19999694824</ele>
        <time>2022-10-06T07:13:57.000Z</time>
      </trkpt>
      <trkpt lat="46.80954" lon="3.02099">
        <ele>202.39999389648</ele>
        <time>2022-10-06T07:13:58.000Z</time>
      </trkpt>
      <trkpt lat="46.80993" lon="3.02058">
        <ele>203</ele>
        <time>2022-10-06T07:14:06.000Z</time>
      </trkpt>
      <trkpt lat="46.81005" lon="3.0205">
        <ele>203</ele>
        <time>2022-10-06T07:14:08.000Z</time>
      </trkpt>
      <trkpt lat="46.81017" lon="3.02046">
        <ele>203.19999694824</ele>
        <time>2022-10-06T07:14:10.000Z</time>
      </trkpt>
      <trkpt lat="46.81024" lon="3.02045">
        <ele>203.19999694824</ele>
        <time>2022-10-06T07:14:11.000Z</time>
      </trkpt>
      <trkpt lat="46.81031" lon="3.02045">
        <ele>203.19999694824</ele>
        <time>2022-10-06T07:14:12.000Z</time>
      </trkpt>
      <trkpt lat="46.81057" lon="3.02049">
        <ele>203</ele>
        <time>2022-10-06T07:14:16.000Z</time>
      </trkpt>
      <trkpt lat="46.81105" lon="3.02062">
        <ele>202.39999389648</ele>
        <time>2022-10-06T07:14:23.000Z</time>
      </trkpt>
      <trkpt lat="46.81118" lon="3.02068">
        <ele>202</ele>
        <time>2022-10-06T07:14:25.000Z</time>
      </trkpt>
      <trkpt lat="46.81131" lon="3.02071">
        <ele>201.80000305176</ele>
        <time>2022-10-06T07:14:27.000Z</time>
      </trkpt>
      <trkpt lat="46.81145" lon="3.02072">
        <ele>201.39999389648</ele>
        <time>2022-10-06T07:14:29.000Z</time>
      </trkpt>
      <trkpt lat="46.81159" lon="3.02074">
        <ele>201</ele>
        <time>2022-10-06T07:14:31.000Z</time>
      </trkpt>
      <trkpt lat="46.81192" lon="3.02079">
        <ele>200</ele>
        <time>2022-10-06T07:14:35.000Z</time>
      </trkpt>
      <trkpt lat="46.812" lon="3.0208">
        <ele>199.80000305176</ele>
        <time>2022-10-06T07:14:36.000Z</time>
      </trkpt>
      <trkpt lat="46.81229" lon="3.02087">
        <ele>198.39999389648</ele>
        <time>2022-10-06T07:14:39.000Z</time>
      </trkpt>
      <trkpt lat="46.81239" lon="3.0209">
        <ele>197.60000610352</ele>
        <time>2022-10-06T07:14:40.000Z</time>
      </trkpt>
      <trkpt lat="46.81249" lon="3.02092">
        <ele>197.19999694824</ele>
        <time>2022-10-06T07:14:41.000Z</time>
      </trkpt>
      <trkpt lat="46.81271" lon="3.02097">
        <ele>195.80000305176</ele>
        <time>2022-10-06T07:14:43.000Z</time>
      </trkpt>
      <trkpt lat="46.81282" lon="3.021">
        <ele>194.80000305176</ele>
        <time>2022-10-06T07:14:44.000Z</time>
      </trkpt>
      <trkpt lat="46.81293" lon="3.02103">
        <ele>193.80000305176</ele>
        <time>2022-10-06T07:14:45.000Z</time>
      </trkpt>
      <trkpt lat="46.81305" lon="3.02106">
        <ele>193.19999694824</ele>
        <time>2022-10-06T07:14:46.000Z</time>
      </trkpt>
      <trkpt lat="46.81317" lon="3.02109">
        <ele>192.19999694824</ele>
        <time>2022-10-06T07:14:47.000Z</time>
      </trkpt>
      <trkpt lat="46.81328" lon="3.02114">
        <ele>191.39999389648</ele>
        <time>2022-10-06T07:14:48.000Z</time>
      </trkpt>
      <trkpt lat="46.81339" lon="3.02121">
        <ele>190.19999694824</ele>
        <time>2022-10-06T07:14:49.000Z</time>
      </trkpt>
      <trkpt lat="46.81349" lon="3.02129">
        <ele>189</ele>
        <time>2022-10-06T07:14:50.000Z</time>
      </trkpt>
      <trkpt lat="46.81367" lon="3.02144">
        <ele>187</ele>
        <time>2022-10-06T07:14:52.000Z</time>
      </trkpt>
      <trkpt lat="46.81391" lon="3.02166">
        <ele>185.80000305176</ele>
        <time>2022-10-06T07:14:55.000Z</time>
      </trkpt>
      <trkpt lat="46.81423" lon="3.02197">
        <ele>185.60000610352</ele>
        <time>2022-10-06T07:15:00.000Z</time>
      </trkpt>
      <trkpt lat="46.81441" lon="3.02225">
        <ele>187</ele>
        <time>2022-10-06T07:15:04.000Z</time>
      </trkpt>
      <trkpt lat="46.81445" lon="3.02232">
        <ele>187.39999389648</ele>
        <time>2022-10-06T07:15:05.000Z</time>
      </trkpt>
      <trkpt lat="46.81455" lon="3.02252">
        <ele>188.19999694824</ele>
        <time>2022-10-06T07:15:08.000Z</time>
      </trkpt>
      <trkpt lat="46.81464" lon="3.02271">
        <ele>189.39999389648</ele>
        <time>2022-10-06T07:15:11.000Z</time>
      </trkpt>
      <trkpt lat="46.81467" lon="3.02278">
        <ele>189.60000610352</ele>
        <time>2022-10-06T07:15:12.000Z</time>
      </trkpt>
      <trkpt lat="46.81472" lon="3.02291">
        <ele>190.39999389648</ele>
        <time>2022-10-06T07:15:14.000Z</time>
      </trkpt>
      <trkpt lat="46.81483" lon="3.02315">
        <ele>191.60000610352</ele>
        <time>2022-10-06T07:15:18.000Z</time>
      </trkpt>
      <trkpt lat="46.81486" lon="3.0232">
        <ele>192.19999694824</ele>
        <time>2022-10-06T07:15:19.000Z</time>
      </trkpt>
      <trkpt lat="46.81491" lon="3.02331">
        <ele>192.80000305176</ele>
        <time>2022-10-06T07:15:21.000Z</time>
      </trkpt>
      <trkpt lat="46.81497" lon="3.02343">
        <ele>193.39999389648</ele>
        <time>2022-10-06T07:15:23.000Z</time>
      </trkpt>
      <trkpt lat="46.81504" lon="3.02352">
        <ele>194</ele>
        <time>2022-10-06T07:15:25.000Z</time>
      </trkpt>
      <trkpt lat="46.81507" lon="3.02357">
        <ele>194.60000610352</ele>
        <time>2022-10-06T07:15:26.000Z</time>
      </trkpt>
      <trkpt lat="46.81518" lon="3.02369">
        <ele>195.19999694824</ele>
        <time>2022-10-06T07:15:29.000Z</time>
      </trkpt>
      <trkpt lat="46.81531" lon="3.02381">
        <ele>196.39999389648</ele>
        <time>2022-10-06T07:15:32.000Z</time>
      </trkpt>
      <trkpt lat="46.81548" lon="3.02397">
        <ele>197.60000610352</ele>
        <time>2022-10-06T07:15:36.000Z</time>
      </trkpt>
      <trkpt lat="46.8156" lon="3.02409">
        <ele>198.39999389648</ele>
        <time>2022-10-06T07:15:39.000Z</time>
      </trkpt>
      <trkpt lat="46.81569" lon="3.02417">
        <ele>198.80000305176</ele>
        <time>2022-10-06T07:15:41.000Z</time>
      </trkpt>
      <trkpt lat="46.81587" lon="3.02434">
        <ele>200</ele>
        <time>2022-10-06T07:15:45.000Z</time>
      </trkpt>
      <trkpt lat="46.81592" lon="3.02438">
        <ele>200.19999694824</ele>
        <time>2022-10-06T07:15:46.000Z</time>
      </trkpt>
      <trkpt lat="46.8161" lon="3.02453">
        <ele>201.19999694824</ele>
        <time>2022-10-06T07:15:50.000Z</time>
      </trkpt>
      <trkpt lat="46.81628" lon="3.02468">
        <ele>202.19999694824</ele>
        <time>2022-10-06T07:15:54.000Z</time>
      </trkpt>
      <trkpt lat="46.81666" lon="3.02503">
        <ele>203</ele>
        <time>2022-10-06T07:16:02.000Z</time>
      </trkpt>
      <trkpt lat="46.81694" lon="3.02544">
        <ele>203.19999694824</ele>
        <time>2022-10-06T07:16:09.000Z</time>
      </trkpt>
      <trkpt lat="46.81727" lon="3.02608">
        <ele>203.19999694824</ele>
        <time>2022-10-06T07:16:18.000Z</time>
      </trkpt>
      <trkpt lat="46.8173" lon="3.02615">
        <ele>203.19999694824</ele>
        <time>2022-10-06T07:16:19.000Z</time>
      </trkpt>
      <trkpt lat="46.81765" lon="3.02684">
        <ele>203.19999694824</ele>
        <time>2022-10-06T07:16:28.000Z</time>
      </trkpt>
      <trkpt lat="46.81801" lon="3.02754">
        <ele>203.19999694824</ele>
        <time>2022-10-06T07:16:37.000Z</time>
      </trkpt>
      <trkpt lat="46.81826" lon="3.0281">
        <ele>203</ele>
        <time>2022-10-06T07:16:44.000Z</time>
      </trkpt>
      <trkpt lat="46.81852" lon="3.02871">
        <ele>202.80000305176</ele>
        <time>2022-10-06T07:16:52.000Z</time>
      </trkpt>
      <trkpt lat="46.81855" lon="3.02877">
        <ele>202.60000610352</ele>
        <time>2022-10-06T07:16:53.000Z</time>
      </trkpt>
      <trkpt lat="46.81861" lon="3.02887">
        <ele>202.39999389648</ele>
        <time>2022-10-06T07:16:55.000Z</time>
      </trkpt>
      <trkpt lat="46.81865" lon="3.02893">
        <ele>202.39999389648</ele>
        <time>2022-10-06T07:16:57.000Z</time>
      </trkpt>
      <trkpt lat="46.81866" lon="3.02895">
        <ele>202.19999694824</ele>
        <time>2022-10-06T07:16:58.000Z</time>
      </trkpt>
      <trkpt lat="46.81866" lon="3.02895">
        <ele>202.19999694824</ele>
        <time>2022-10-06T07:17:00.000Z</time>
      </trkpt>
      <trkpt lat="46.81866" lon="3.02895">
        <ele>202</ele>
        <time>2022-10-06T07:17:13.000Z</time>
      </trkpt>
      <trkpt lat="46.81867" lon="3.02899">
        <ele>202</ele>
        <time>2022-10-06T07:17:24.000Z</time>
      </trkpt>
      <trkpt lat="46.81871" lon="3.02905">
        <ele>202</ele>
        <time>2022-10-06T07:17:26.000Z</time>
      </trkpt>
      <trkpt lat="46.81887" lon="3.02931">
        <ele>201.80000305176</ele>
        <time>2022-10-06T07:17:32.000Z</time>
      </trkpt>
      <trkpt lat="46.81914" lon="3.02974">
        <ele>201.39999389648</ele>
        <time>2022-10-06T07:17:39.000Z</time>
      </trkpt>
      <trkpt lat="46.81945" lon="3.03007">
        <ele>201.19999694824</ele>
        <time>2022-10-06T07:17:45.000Z</time>
      </trkpt>
      <trkpt lat="46.81962" lon="3.03022">
        <ele>201</ele>
        <time>2022-10-06T07:17:48.000Z</time>
      </trkpt>
      <trkpt lat="46.81973" lon="3.03031">
        <ele>201</ele>
        <time>2022-10-06T07:17:50.000Z</time>
      </trkpt>
      <trkpt lat="46.81984" lon="3.03038">
        <ele>200.80000305176</ele>
        <time>2022-10-06T07:17:52.000Z</time>
      </trkpt>
      <trkpt lat="46.82018" lon="3.03056">
        <ele>200.39999389648</ele>
        <time>2022-10-06T07:17:58.000Z</time>
      </trkpt>
      <trkpt lat="46.82037" lon="3.03066">
        <ele>200</ele>
        <time>2022-10-06T07:18:01.000Z</time>
      </trkpt>
      <trkpt lat="46.82042" lon="3.03069">
        <ele>200</ele>
        <time>2022-10-06T07:18:02.000Z</time>
      </trkpt>
      <trkpt lat="46.82054" lon="3.03078">
        <ele>199.80000305176</ele>
        <time>2022-10-06T07:18:04.000Z</time>
      </trkpt>
      <trkpt lat="46.82061" lon="3.03082">
        <ele>199.60000610352</ele>
        <time>2022-10-06T07:18:05.000Z</time>
      </trkpt>
      <trkpt lat="46.82067" lon="3.03086">
        <ele>199.39999389648</ele>
        <time>2022-10-06T07:18:06.000Z</time>
      </trkpt>
      <trkpt lat="46.82087" lon="3.03091">
        <ele>198.80000305176</ele>
        <time>2022-10-06T07:18:09.000Z</time>
      </trkpt>
      <trkpt lat="46.82132" lon="3.03099">
        <ele>197.39999389648</ele>
        <time>2022-10-06T07:18:15.000Z</time>
      </trkpt>
      <trkpt lat="46.82147" lon="3.031">
        <ele>196.80000305176</ele>
        <time>2022-10-06T07:18:17.000Z</time>
      </trkpt>
      <trkpt lat="46.82164" lon="3.03101">
        <ele>196.39999389648</ele>
        <time>2022-10-06T07:18:19.000Z</time>
      </trkpt>
      <trkpt lat="46.82172" lon="3.03103">
        <ele>196</ele>
        <time>2022-10-06T07:18:20.000Z</time>
      </trkpt>
      <trkpt lat="46.82187" lon="3.03108">
        <ele>195.39999389648</ele>
        <time>2022-10-06T07:18:22.000Z</time>
      </trkpt>
      <trkpt lat="46.82213" lon="3.03129">
        <ele>194.39999389648</ele>
        <time>2022-10-06T07:18:26.000Z</time>
      </trkpt>
      <trkpt lat="46.8222" lon="3.03133">
        <ele>194.19999694824</ele>
        <time>2022-10-06T07:18:27.000Z</time>
      </trkpt>
      <trkpt lat="46.82227" lon="3.03137">
        <ele>194</ele>
        <time>2022-10-06T07:18:28.000Z</time>
      </trkpt>
      <trkpt lat="46.82239" lon="3.03141">
        <ele>194</ele>
        <time>2022-10-06T07:18:30.000Z</time>
      </trkpt>
      <trkpt lat="46.82274" lon="3.03146">
        <ele>194.39999389648</ele>
        <time>2022-10-06T07:18:36.000Z</time>
      </trkpt>
      <trkpt lat="46.82297" lon="3.03149">
        <ele>195.19999694824</ele>
        <time>2022-10-06T07:18:40.000Z</time>
      </trkpt>
      <trkpt lat="46.82308" lon="3.03152">
        <ele>195.80000305176</ele>
        <time>2022-10-06T07:18:42.000Z</time>
      </trkpt>
      <trkpt lat="46.82313" lon="3.03155">
        <ele>196</ele>
        <time>2022-10-06T07:18:43.000Z</time>
      </trkpt>
      <trkpt lat="46.82318" lon="3.03159">
        <ele>196.39999389648</ele>
        <time>2022-10-06T07:18:44.000Z</time>
      </trkpt>
      <trkpt lat="46.82343" lon="3.03179">
        <ele>197.60000610352</ele>
        <time>2022-10-06T07:18:49.000Z</time>
      </trkpt>
      <trkpt lat="46.82348" lon="3.03181">
        <ele>197.80000305176</ele>
        <time>2022-10-06T07:18:50.000Z</time>
      </trkpt>
      <trkpt lat="46.82353" lon="3.03182">
        <ele>198.19999694824</ele>
        <time>2022-10-06T07:18:51.000Z</time>
      </trkpt>
      <trkpt lat="46.82358" lon="3.0318">
        <ele>198.39999389648</ele>
        <time>2022-10-06T07:18:52.000Z</time>
      </trkpt>
      <trkpt lat="46.82363" lon="3.03178">
        <ele>198.60000610352</ele>
        <time>2022-10-06T07:18:53.000Z</time>
      </trkpt>
      <trkpt lat="46.82374" lon="3.03171">
        <ele>199</ele>
        <time>2022-10-06T07:18:55.000Z</time>
      </trkpt>
      <trkpt lat="46.82391" lon="3.03158">
        <ele>199.80000305176</ele>
        <time>2022-10-06T07:18:58.000Z</time>
      </trkpt>
      <trkpt lat="46.82408" lon="3.03148">
        <ele>199.80000305176</ele>
        <time>2022-10-06T07:19:01.000Z</time>
      </trkpt>
      <trkpt lat="46.82414" lon="3.03146">
        <ele>199.80000305176</ele>
        <time>2022-10-06T07:19:02.000Z</time>
      </trkpt>
      <trkpt lat="46.82426" lon="3.03144">
        <ele>200</ele>
        <time>2022-10-06T07:19:04.000Z</time>
      </trkpt>
      <trkpt lat="46.82438" lon="3.03146">
        <ele>200</ele>
        <time>2022-10-06T07:19:06.000Z</time>
      </trkpt>
      <trkpt lat="46.82468" lon="3.0316">
        <ele>200.60000610352</ele>
        <time>2022-10-06T07:19:11.000Z</time>
      </trkpt>
      <trkpt lat="46.82474" lon="3.03163">
        <ele>200.60000610352</ele>
        <time>2022-10-06T07:19:12.000Z</time>
      </trkpt>
      <trkpt lat="46.82522" lon="3.03181">
        <ele>201.19999694824</ele>
        <time>2022-10-06T07:19:20.000Z</time>
      </trkpt>
      <trkpt lat="46.82565" lon="3.03193">
        <ele>201.19999694824</ele>
        <time>2022-10-06T07:19:27.000Z</time>
      </trkpt>
      <trkpt lat="46.82615" lon="3.03207">
        <ele>201.39999389648</ele>
        <time>2022-10-06T07:19:35.000Z</time>
      </trkpt>
      <trkpt lat="46.82669" lon="3.03211">
        <ele>201.39999389648</ele>
        <time>2022-10-06T07:19:43.000Z</time>
      </trkpt>
      <trkpt lat="46.82683" lon="3.03213">
        <ele>201.19999694824</ele>
        <time>2022-10-06T07:19:45.000Z</time>
      </trkpt>
      <trkpt lat="46.82724" lon="3.03226">
        <ele>201</ele>
        <time>2022-10-06T07:19:51.000Z</time>
      </trkpt>
      <trkpt lat="46.82777" lon="3.03256">
        <ele>200.39999389648</ele>
        <time>2022-10-06T07:19:59.000Z</time>
      </trkpt>
      <trkpt lat="46.82784" lon="3.0326">
        <ele>200.39999389648</ele>
        <time>2022-10-06T07:20:00.000Z</time>
      </trkpt>
      <trkpt lat="46.82836" lon="3.03295">
        <ele>199.80000305176</ele>
        <time>2022-10-06T07:20:08.000Z</time>
      </trkpt>
      <trkpt lat="46.82842" lon="3.033">
        <ele>199.60000610352</ele>
        <time>2022-10-06T07:20:09.000Z</time>
      </trkpt>
      <trkpt lat="46.82855" lon="3.03309">
        <ele>199.39999389648</ele>
        <time>2022-10-06T07:20:11.000Z</time>
      </trkpt>
      <trkpt lat="46.82906" lon="3.03344">
        <ele>199.39999389648</ele>
        <time>2022-10-06T07:20:19.000Z</time>
      </trkpt>
      <trkpt lat="46.82937" lon="3.03366">
        <ele>199.60000610352</ele>
        <time>2022-10-06T07:20:24.000Z</time>
      </trkpt>
      <trkpt lat="46.82987" lon="3.03401">
        <ele>199.19999694824</ele>
        <time>2022-10-06T07:20:32.000Z</time>
      </trkpt>
      <trkpt lat="46.82994" lon="3.03406">
        <ele>199</ele>
        <time>2022-10-06T07:20:33.000Z</time>
      </trkpt>
      <trkpt lat="46.83022" lon="3.03425">
        <ele>198.39999389648</ele>
        <time>2022-10-06T07:20:37.000Z</time>
      </trkpt>
      <trkpt lat="46.83044" lon="3.0344">
        <ele>197.80000305176</ele>
        <time>2022-10-06T07:20:40.000Z</time>
      </trkpt>
      <trkpt lat="46.83059" lon="3.03451">
        <ele>197.19999694824</ele>
        <time>2022-10-06T07:20:42.000Z</time>
      </trkpt>
      <trkpt lat="46.83083" lon="3.03467">
        <ele>196</ele>
        <time>2022-10-06T07:20:45.000Z</time>
      </trkpt>
      <trkpt lat="46.83099" lon="3.03479">
        <ele>195</ele>
        <time>2022-10-06T07:20:47.000Z</time>
      </trkpt>
      <trkpt lat="46.83107" lon="3.03484">
        <ele>194.39999389648</ele>
        <time>2022-10-06T07:20:48.000Z</time>
      </trkpt>
      <trkpt lat="46.83124" lon="3.03495">
        <ele>193</ele>
        <time>2022-10-06T07:20:50.000Z</time>
      </trkpt>
      <trkpt lat="46.8315" lon="3.03505">
        <ele>192</ele>
        <time>2022-10-06T07:20:53.000Z</time>
      </trkpt>
      <trkpt lat="46.83185" lon="3.03512">
        <ele>190.39999389648</ele>
        <time>2022-10-06T07:20:57.000Z</time>
      </trkpt>
      <trkpt lat="46.83211" lon="3.03517">
        <ele>189.39999389648</ele>
        <time>2022-10-06T07:21:00.000Z</time>
      </trkpt>
      <trkpt lat="46.83229" lon="3.03519">
        <ele>187.80000305176</ele>
        <time>2022-10-06T07:21:02.000Z</time>
      </trkpt>
      <trkpt lat="46.83255" lon="3.03517">
        <ele>186.80000305176</ele>
        <time>2022-10-06T07:21:05.000Z</time>
      </trkpt>
      <trkpt lat="46.83273" lon="3.03512">
        <ele>185.39999389648</ele>
        <time>2022-10-06T07:21:07.000Z</time>
      </trkpt>
      <trkpt lat="46.83306" lon="3.03497">
        <ele>184.19999694824</ele>
        <time>2022-10-06T07:21:11.000Z</time>
      </trkpt>
      <trkpt lat="46.83337" lon="3.03484">
        <ele>183.39999389648</ele>
        <time>2022-10-06T07:21:15.000Z</time>
      </trkpt>
      <trkpt lat="46.83344" lon="3.03481">
        <ele>183.19999694824</ele>
        <time>2022-10-06T07:21:16.000Z</time>
      </trkpt>
      <trkpt lat="46.83377" lon="3.03468">
        <ele>183.19999694824</ele>
        <time>2022-10-06T07:21:21.000Z</time>
      </trkpt>
      <trkpt lat="46.83406" lon="3.03458">
        <ele>184.19999694824</ele>
        <time>2022-10-06T07:21:26.000Z</time>
      </trkpt>
      <trkpt lat="46.83411" lon="3.03457">
        <ele>184.39999389648</ele>
        <time>2022-10-06T07:21:27.000Z</time>
      </trkpt>
      <trkpt lat="46.83422" lon="3.03454">
        <ele>185.19999694824</ele>
        <time>2022-10-06T07:21:29.000Z</time>
      </trkpt>
      <trkpt lat="46.83442" lon="3.03448">
        <ele>186.39999389648</ele>
        <time>2022-10-06T07:21:33.000Z</time>
      </trkpt>
      <trkpt lat="46.83452" lon="3.03446">
        <ele>187.19999694824</ele>
        <time>2022-10-06T07:21:35.000Z</time>
      </trkpt>
      <trkpt lat="46.83457" lon="3.03444">
        <ele>187.80000305176</ele>
        <time>2022-10-06T07:21:36.000Z</time>
      </trkpt>
      <trkpt lat="46.83467" lon="3.03442">
        <ele>188.60000610352</ele>
        <time>2022-10-06T07:21:38.000Z</time>
      </trkpt>
      <trkpt lat="46.83472" lon="3.03441">
        <ele>188.80000305176</ele>
        <time>2022-10-06T07:21:39.000Z</time>
      </trkpt>
      <trkpt lat="46.83482" lon="3.03438">
        <ele>189.60000610352</ele>
        <time>2022-10-06T07:21:41.000Z</time>
      </trkpt>
      <trkpt lat="46.83487" lon="3.03437">
        <ele>190</ele>
        <time>2022-10-06T07:21:42.000Z</time>
      </trkpt>
      <trkpt lat="46.83502" lon="3.03432">
        <ele>191</ele>
        <time>2022-10-06T07:21:45.000Z</time>
      </trkpt>
      <trkpt lat="46.83517" lon="3.0343">
        <ele>191.60000610352</ele>
        <time>2022-10-06T07:21:48.000Z</time>
      </trkpt>
      <trkpt lat="46.83532" lon="3.03426">
        <ele>192.19999694824</ele>
        <time>2022-10-06T07:21:51.000Z</time>
      </trkpt>
      <trkpt lat="46.83551" lon="3.03421">
        <ele>193.60000610352</ele>
        <time>2022-10-06T07:21:55.000Z</time>
      </trkpt>
      <trkpt lat="46.83561" lon="3.03418">
        <ele>194.19999694824</ele>
        <time>2022-10-06T07:21:57.000Z</time>
      </trkpt>
      <trkpt lat="46.83569" lon="3.03414">
        <ele>194.60000610352</ele>
        <time>2022-10-06T07:21:59.000Z</time>
      </trkpt>
      <trkpt lat="46.83592" lon="3.03396">
        <ele>195.60000610352</ele>
        <time>2022-10-06T07:22:04.000Z</time>
      </trkpt>
      <trkpt lat="46.83609" lon="3.03379">
        <ele>196.60000610352</ele>
        <time>2022-10-06T07:22:08.000Z</time>
      </trkpt>
      <trkpt lat="46.83631" lon="3.03358">
        <ele>197.39999389648</ele>
        <time>2022-10-06T07:22:13.000Z</time>
      </trkpt>
      <trkpt lat="46.83644" lon="3.03344">
        <ele>197.60000610352</ele>
        <time>2022-10-06T07:22:16.000Z</time>
      </trkpt>
      <trkpt lat="46.83674" lon="3.0331">
        <ele>198.39999389648</ele>
        <time>2022-10-06T07:22:23.000Z</time>
      </trkpt>
      <trkpt lat="46.83683" lon="3.03302">
        <ele>198.60000610352</ele>
        <time>2022-10-06T07:22:25.000Z</time>
      </trkpt>
      <trkpt lat="46.83693" lon="3.03299">
        <ele>198.60000610352</ele>
        <time>2022-10-06T07:22:27.000Z</time>
      </trkpt>
      <trkpt lat="46.837" lon="3.033">
        <ele>198.60000610352</ele>
        <time>2022-10-06T07:22:28.000Z</time>
      </trkpt>
      <trkpt lat="46.83704" lon="3.03304">
        <ele>198.60000610352</ele>
        <time>2022-10-06T07:22:29.000Z</time>
      </trkpt>
      <trkpt lat="46.83708" lon="3.03311">
        <ele>198.80000305176</ele>
        <time>2022-10-06T07:22:30.000Z</time>
      </trkpt>
      <trkpt lat="46.83712" lon="3.03318">
        <ele>198.60000610352</ele>
        <time>2022-10-06T07:22:31.000Z</time>
      </trkpt>
      <trkpt lat="46.83722" lon="3.0335">
        <ele>198.60000610352</ele>
        <time>2022-10-06T07:22:35.000Z</time>
      </trkpt>
      <trkpt lat="46.83737" lon="3.03421">
        <ele>198.60000610352</ele>
        <time>2022-10-06T07:22:43.000Z</time>
      </trkpt>
      <trkpt lat="46.83756" lon="3.03501">
        <ele>198.60000610352</ele>
        <time>2022-10-06T07:22:52.000Z</time>
      </trkpt>
      <trkpt lat="46.8378" lon="3.03547">
        <ele>198.39999389648</ele>
        <time>2022-10-06T07:22:58.000Z</time>
      </trkpt>
      <trkpt lat="46.83812" lon="3.03586">
        <ele>197.80000305176</ele>
        <time>2022-10-06T07:23:04.000Z</time>
      </trkpt>
      <trkpt lat="46.83829" lon="3.03604">
        <ele>197.60000610352</ele>
        <time>2022-10-06T07:23:07.000Z</time>
      </trkpt>
      <trkpt lat="46.83862" lon="3.03641">
        <ele>197</ele>
        <time>2022-10-06T07:23:13.000Z</time>
      </trkpt>
      <trkpt lat="46.83897" lon="3.0369">
        <ele>196.60000610352</ele>
        <time>2022-10-06T07:23:20.000Z</time>
      </trkpt>
      <trkpt lat="46.83906" lon="3.03706">
        <ele>196.60000610352</ele>
        <time>2022-10-06T07:23:22.000Z</time>
      </trkpt>
      <trkpt lat="46.8394" lon="3.0377">
        <ele>195.60000610352</ele>
        <time>2022-10-06T07:23:30.000Z</time>
      </trkpt>
      <trkpt lat="46.83943" lon="3.03778">
        <ele>195.60000610352</ele>
        <time>2022-10-06T07:23:31.000Z</time>
      </trkpt>
      <trkpt lat="46.83947" lon="3.03785">
        <ele>195.60000610352</ele>
        <time>2022-10-06T07:23:32.000Z</time>
      </trkpt>
      <trkpt lat="46.83956" lon="3.03802">
        <ele>195.19999694824</ele>
        <time>2022-10-06T07:23:35.000Z</time>
      </trkpt>
      <trkpt lat="46.83957" lon="3.03806">
        <ele>195</ele>
        <time>2022-10-06T07:23:36.000Z</time>
      </trkpt>
      <trkpt lat="46.83957" lon="3.03812">
        <ele>194.80000305176</ele>
        <time>2022-10-06T07:23:38.000Z</time>
      </trkpt>
      <trkpt lat="46.83956" lon="3.03814">
        <ele>194.60000610352</ele>
        <time>2022-10-06T07:23:39.000Z</time>
      </trkpt>
      <trkpt lat="46.83954" lon="3.03815">
        <ele>194.60000610352</ele>
        <time>2022-10-06T07:23:40.000Z</time>
      </trkpt>
      <trkpt lat="46.83953" lon="3.03816">
        <ele>194.39999389648</ele>
        <time>2022-10-06T07:23:41.000Z</time>
      </trkpt>
      <trkpt lat="46.83953" lon="3.03816">
        <ele>194.19999694824</ele>
        <time>2022-10-06T07:23:43.000Z</time>
      </trkpt>
      <trkpt lat="46.83953" lon="3.03816">
        <ele>193.60000610352</ele>
        <time>2022-10-06T07:23:46.000Z</time>
      </trkpt>
      <trkpt lat="46.83953" lon="3.03816">
        <ele>193.19999694824</ele>
        <time>2022-10-06T07:23:56.000Z</time>
      </trkpt>
      <trkpt lat="46.83953" lon="3.03816">
        <ele>193.19999694824</ele>
        <time>2022-10-06T07:24:38.000Z</time>
      </trkpt>
      <trkpt lat="46.83957" lon="3.03816">
        <ele>193</ele>
        <time>2022-10-06T07:24:41.000Z</time>
      </trkpt>
      <trkpt lat="46.83961" lon="3.03817">
        <ele>193.39999389648</ele>
        <time>2022-10-06T07:24:46.000Z</time>
      </trkpt>
      <trkpt lat="46.83962" lon="3.03818">
        <ele>193.39999389648</ele>
        <time>2022-10-06T07:24:47.000Z</time>
      </trkpt>
      <trkpt lat="46.83962" lon="3.03818">
        <ele>193.80000305176</ele>
        <time>2022-10-06T07:25:02.000Z</time>
      </trkpt>
      <trkpt lat="46.83966" lon="3.03824">
        <ele>193.80000305176</ele>
        <time>2022-10-06T07:25:05.000Z</time>
      </trkpt>
      <trkpt lat="46.83977" lon="3.03846">
        <ele>193.80000305176</ele>
        <time>2022-10-06T07:25:10.000Z</time>
      </trkpt>
      <trkpt lat="46.83996" lon="3.03884">
        <ele>193.80000305176</ele>
        <time>2022-10-06T07:25:16.000Z</time>
      </trkpt>
      <trkpt lat="46.84017" lon="3.03927">
        <ele>193.19999694824</ele>
        <time>2022-10-06T07:25:22.000Z</time>
      </trkpt>
      <trkpt lat="46.84041" lon="3.03976">
        <ele>192.39999389648</ele>
        <time>2022-10-06T07:25:28.000Z</time>
      </trkpt>
      <trkpt lat="46.84049" lon="3.03993">
        <ele>192.19999694824</ele>
        <time>2022-10-06T07:25:30.000Z</time>
      </trkpt>
      <trkpt lat="46.84057" lon="3.04008">
        <ele>191.19999694824</ele>
        <time>2022-10-06T07:25:32.000Z</time>
      </trkpt>
      <trkpt lat="46.84078" lon="3.04048">
        <ele>189.80000305176</ele>
        <time>2022-10-06T07:25:37.000Z</time>
      </trkpt>
      <trkpt lat="46.84088" lon="3.04065">
        <ele>189.39999389648</ele>
        <time>2022-10-06T07:25:39.000Z</time>
      </trkpt>
      <trkpt lat="46.84122" lon="3.04109">
        <ele>188.80000305176</ele>
        <time>2022-10-06T07:25:45.000Z</time>
      </trkpt>
      <trkpt lat="46.84128" lon="3.04116">
        <ele>188.80000305176</ele>
        <time>2022-10-06T07:25:46.000Z</time>
      </trkpt>
      <trkpt lat="46.84172" lon="3.04164">
        <ele>187.80000305176</ele>
        <time>2022-10-06T07:25:53.000Z</time>
      </trkpt>
      <trkpt lat="46.84179" lon="3.04171">
        <ele>187.60000610352</ele>
        <time>2022-10-06T07:25:54.000Z</time>
      </trkpt>
      <trkpt lat="46.84192" lon="3.04185">
        <ele>187.39999389648</ele>
        <time>2022-10-06T07:25:56.000Z</time>
      </trkpt>
      <trkpt lat="46.84212" lon="3.04206">
        <ele>186.60000610352</ele>
        <time>2022-10-06T07:25:59.000Z</time>
      </trkpt>
      <trkpt lat="46.84231" lon="3.04229">
        <ele>185.39999389648</ele>
        <time>2022-10-06T07:26:02.000Z</time>
      </trkpt>
      <trkpt lat="46.84236" lon="3.04239">
        <ele>184.80000305176</ele>
        <time>2022-10-06T07:26:03.000Z</time>
      </trkpt>
      <trkpt lat="46.84245" lon="3.04259">
        <ele>184.39999389648</ele>
        <time>2022-10-06T07:26:05.000Z</time>
      </trkpt>
      <trkpt lat="46.84249" lon="3.04271">
        <ele>184</ele>
        <time>2022-10-06T07:26:06.000Z</time>
      </trkpt>
      <trkpt lat="46.84251" lon="3.04283">
        <ele>183.80000305176</ele>
        <time>2022-10-06T07:26:07.000Z</time>
      </trkpt>
      <trkpt lat="46.84258" lon="3.04333">
        <ele>182.60000610352</ele>
        <time>2022-10-06T07:26:11.000Z</time>
      </trkpt>
      <trkpt lat="46.84259" lon="3.04346">
        <ele>182.39999389648</ele>
        <time>2022-10-06T07:26:12.000Z</time>
      </trkpt>
      <trkpt lat="46.84261" lon="3.04372">
        <ele>181.39999389648</ele>
        <time>2022-10-06T07:26:14.000Z</time>
      </trkpt>
      <trkpt lat="46.84264" lon="3.04398">
        <ele>179.80000305176</ele>
        <time>2022-10-06T07:26:16.000Z</time>
      </trkpt>
      <trkpt lat="46.84265" lon="3.0441">
        <ele>179.60000610352</ele>
        <time>2022-10-06T07:26:17.000Z</time>
      </trkpt>
      <trkpt lat="46.84268" lon="3.04423">
        <ele>179.19999694824</ele>
        <time>2022-10-06T07:26:18.000Z</time>
      </trkpt>
      <trkpt lat="46.84272" lon="3.04434">
        <ele>178.80000305176</ele>
        <time>2022-10-06T07:26:19.000Z</time>
      </trkpt>
      <trkpt lat="46.84278" lon="3.04445">
        <ele>178.39999389648</ele>
        <time>2022-10-06T07:26:20.000Z</time>
      </trkpt>
      <trkpt lat="46.84284" lon="3.04456">
        <ele>178.19999694824</ele>
        <time>2022-10-06T07:26:21.000Z</time>
      </trkpt>
      <trkpt lat="46.84302" lon="3.04486">
        <ele>177.19999694824</ele>
        <time>2022-10-06T07:26:24.000Z</time>
      </trkpt>
      <trkpt lat="46.84308" lon="3.04497">
        <ele>176.60000610352</ele>
        <time>2022-10-06T07:26:25.000Z</time>
      </trkpt>
      <trkpt lat="46.84312" lon="3.04509">
        <ele>176.19999694824</ele>
        <time>2022-10-06T07:26:26.000Z</time>
      </trkpt>
      <trkpt lat="46.84316" lon="3.04521">
        <ele>175.60000610352</ele>
        <time>2022-10-06T07:26:27.000Z</time>
      </trkpt>
      <trkpt lat="46.84323" lon="3.04544">
        <ele>175.19999694824</ele>
        <time>2022-10-06T07:26:29.000Z</time>
      </trkpt>
      <trkpt lat="46.84329" lon="3.04553">
        <ele>175</ele>
        <time>2022-10-06T07:26:30.000Z</time>
      </trkpt>
      <trkpt lat="46.84336" lon="3.0456">
        <ele>174.80000305176</ele>
        <time>2022-10-06T07:26:31.000Z</time>
      </trkpt>
      <trkpt lat="46.84344" lon="3.04563">
        <ele>174.60000610352</ele>
        <time>2022-10-06T07:26:32.000Z</time>
      </trkpt>
      <trkpt lat="46.84352" lon="3.04563">
        <ele>174.39999389648</ele>
        <time>2022-10-06T07:26:33.000Z</time>
      </trkpt>
      <trkpt lat="46.84368" lon="3.0456">
        <ele>174</ele>
        <time>2022-10-06T07:26:35.000Z</time>
      </trkpt>
      <trkpt lat="46.84406" lon="3.04551">
        <ele>173.39999389648</ele>
        <time>2022-10-06T07:26:40.000Z</time>
      </trkpt>
      <trkpt lat="46.8442" lon="3.04547">
        <ele>173.19999694824</ele>
        <time>2022-10-06T07:26:42.000Z</time>
      </trkpt>
      <trkpt lat="46.8445" lon="3.04539">
        <ele>173.60000610352</ele>
        <time>2022-10-06T07:26:47.000Z</time>
      </trkpt>
      <trkpt lat="46.8446" lon="3.04528">
        <ele>174.19999694824</ele>
        <time>2022-10-06T07:26:51.000Z</time>
      </trkpt>
      <trkpt lat="46.84462" lon="3.04523">
        <ele>174.60000610352</ele>
        <time>2022-10-06T07:26:52.000Z</time>
      </trkpt>
      <trkpt lat="46.8447" lon="3.04505">
        <ele>175.19999694824</ele>
        <time>2022-10-06T07:26:55.000Z</time>
      </trkpt>
      <trkpt lat="46.84472" lon="3.04498">
        <ele>175.39999389648</ele>
        <time>2022-10-06T07:26:56.000Z</time>
      </trkpt>
      <trkpt lat="46.84474" lon="3.04491">
        <ele>175.60000610352</ele>
        <time>2022-10-06T07:26:57.000Z</time>
      </trkpt>
      <trkpt lat="46.84482" lon="3.04463">
        <ele>176.80000305176</ele>
        <time>2022-10-06T07:27:01.000Z</time>
      </trkpt>
      <trkpt lat="46.8449" lon="3.04442">
        <ele>177.80000305176</ele>
        <time>2022-10-06T07:27:04.000Z</time>
      </trkpt>
      <trkpt lat="46.84493" lon="3.04437">
        <ele>177.80000305176</ele>
        <time>2022-10-06T07:27:05.000Z</time>
      </trkpt>
      <trkpt lat="46.84505" lon="3.04425">
        <ele>178.60000610352</ele>
        <time>2022-10-06T07:27:08.000Z</time>
      </trkpt>
      <trkpt lat="46.84509" lon="3.04421">
        <ele>179</ele>
        <time>2022-10-06T07:27:09.000Z</time>
      </trkpt>
      <trkpt lat="46.84538" lon="3.04405">
        <ele>180</ele>
        <time>2022-10-06T07:27:15.000Z</time>
      </trkpt>
      <trkpt lat="46.84557" lon="3.04397">
        <ele>181.19999694824</ele>
        <time>2022-10-06T07:27:19.000Z</time>
      </trkpt>
      <trkpt lat="46.84572" lon="3.04391">
        <ele>181.80000305176</ele>
        <time>2022-10-06T07:27:22.000Z</time>
      </trkpt>
      <trkpt lat="46.84578" lon="3.04388">
        <ele>182.19999694824</ele>
        <time>2022-10-06T07:27:23.000Z</time>
      </trkpt>
      <trkpt lat="46.84613" lon="3.04363">
        <ele>183.60000610352</ele>
        <time>2022-10-06T07:27:30.000Z</time>
      </trkpt>
      <trkpt lat="46.84654" lon="3.04323">
        <ele>184.19999694824</ele>
        <time>2022-10-06T07:27:39.000Z</time>
      </trkpt>
      <trkpt lat="46.84664" lon="3.04315">
        <ele>184.60000610352</ele>
        <time>2022-10-06T07:27:41.000Z</time>
      </trkpt>
      <trkpt lat="46.84685" lon="3.04304">
        <ele>185.60000610352</ele>
        <time>2022-10-06T07:27:45.000Z</time>
      </trkpt>
      <trkpt lat="46.84712" lon="3.04303">
        <ele>186.19999694824</ele>
        <time>2022-10-06T07:27:50.000Z</time>
      </trkpt>
      <trkpt lat="46.84739" lon="3.04307">
        <ele>186.80000305176</ele>
        <time>2022-10-06T07:27:55.000Z</time>
      </trkpt>
      <trkpt lat="46.84754" lon="3.04307">
        <ele>186.80000305176</ele>
        <time>2022-10-06T07:27:58.000Z</time>
      </trkpt>
      <trkpt lat="46.84776" lon="3.04304">
        <ele>187.60000610352</ele>
        <time>2022-10-06T07:28:02.000Z</time>
      </trkpt>
      <trkpt lat="46.84791" lon="3.04301">
        <ele>188</ele>
        <time>2022-10-06T07:28:05.000Z</time>
      </trkpt>
      <trkpt lat="46.84811" lon="3.04294">
        <ele>188.60000610352</ele>
        <time>2022-10-06T07:28:09.000Z</time>
      </trkpt>
      <trkpt lat="46.84826" lon="3.04289">
        <ele>189.80000305176</ele>
        <time>2022-10-06T07:28:12.000Z</time>
      </trkpt>
      <trkpt lat="46.84851" lon="3.0428">
        <ele>191</ele>
        <time>2022-10-06T07:28:17.000Z</time>
      </trkpt>
      <trkpt lat="46.84862" lon="3.04276">
        <ele>191.19999694824</ele>
        <time>2022-10-06T07:28:19.000Z</time>
      </trkpt>
      <trkpt lat="46.84901" lon="3.04264">
        <ele>192</ele>
        <time>2022-10-06T07:28:26.000Z</time>
      </trkpt>
      <trkpt lat="46.84907" lon="3.04261">
        <ele>192</ele>
        <time>2022-10-06T07:28:27.000Z</time>
      </trkpt>
      <trkpt lat="46.84962" lon="3.04244">
        <ele>192</ele>
        <time>2022-10-06T07:28:36.000Z</time>
      </trkpt>
      <trkpt lat="46.85018" lon="3.04225">
        <ele>191.60000610352</ele>
        <time>2022-10-06T07:28:45.000Z</time>
      </trkpt>
      <trkpt lat="46.85074" lon="3.04209">
        <ele>191.19999694824</ele>
        <time>2022-10-06T07:28:54.000Z</time>
      </trkpt>
      <trkpt lat="46.85081" lon="3.04209">
        <ele>191.19999694824</ele>
        <time>2022-10-06T07:28:55.000Z</time>
      </trkpt>
      <trkpt lat="46.85095" lon="3.04213">
        <ele>191</ele>
        <time>2022-10-06T07:28:57.000Z</time>
      </trkpt>
      <trkpt lat="46.85102" lon="3.04217">
        <ele>190.80000305176</ele>
        <time>2022-10-06T07:28:58.000Z</time>
      </trkpt>
      <trkpt lat="46.85108" lon="3.04223">
        <ele>190.80000305176</ele>
        <time>2022-10-06T07:28:59.000Z</time>
      </trkpt>
      <trkpt lat="46.85126" lon="3.04247">
        <ele>189.80000305176</ele>
        <time>2022-10-06T07:29:02.000Z</time>
      </trkpt>
      <trkpt lat="46.85143" lon="3.04274">
        <ele>188.60000610352</ele>
        <time>2022-10-06T07:29:05.000Z</time>
      </trkpt>
      <trkpt lat="46.85156" lon="3.04293">
        <ele>187.60000610352</ele>
        <time>2022-10-06T07:29:07.000Z</time>
      </trkpt>
      <trkpt lat="46.85162" lon="3.04303">
        <ele>187.19999694824</ele>
        <time>2022-10-06T07:29:08.000Z</time>
      </trkpt>
      <trkpt lat="46.85174" lon="3.04323">
        <ele>186</ele>
        <time>2022-10-06T07:29:10.000Z</time>
      </trkpt>
      <trkpt lat="46.85187" lon="3.04343">
        <ele>184.80000305176</ele>
        <time>2022-10-06T07:29:12.000Z</time>
      </trkpt>
      <trkpt lat="46.85207" lon="3.04376">
        <ele>183.60000610352</ele>
        <time>2022-10-06T07:29:15.000Z</time>
      </trkpt>
      <trkpt lat="46.85218" lon="3.044">
        <ele>182.19999694824</ele>
        <time>2022-10-06T07:29:17.000Z</time>
      </trkpt>
      <trkpt lat="46.85227" lon="3.04425">
        <ele>180.80000305176</ele>
        <time>2022-10-06T07:29:19.000Z</time>
      </trkpt>
      <trkpt lat="46.8524" lon="3.04462">
        <ele>179.39999389648</ele>
        <time>2022-10-06T07:29:22.000Z</time>
      </trkpt>
      <trkpt lat="46.85246" lon="3.04472">
        <ele>179</ele>
        <time>2022-10-06T07:29:23.000Z</time>
      </trkpt>
      <trkpt lat="46.8526" lon="3.04483">
        <ele>178.19999694824</ele>
        <time>2022-10-06T07:29:25.000Z</time>
      </trkpt>
      <trkpt lat="46.85268" lon="3.04484">
        <ele>178</ele>
        <time>2022-10-06T07:29:26.000Z</time>
      </trkpt>
      <trkpt lat="46.85277" lon="3.04484">
        <ele>177.80000305176</ele>
        <time>2022-10-06T07:29:27.000Z</time>
      </trkpt>
      <trkpt lat="46.85293" lon="3.04476">
        <ele>177.19999694824</ele>
        <time>2022-10-06T07:29:29.000Z</time>
      </trkpt>
      <trkpt lat="46.85301" lon="3.04471">
        <ele>177.19999694824</ele>
        <time>2022-10-06T07:29:30.000Z</time>
      </trkpt>
      <trkpt lat="46.85331" lon="3.04451">
        <ele>176.80000305176</ele>
        <time>2022-10-06T07:29:34.000Z</time>
      </trkpt>
      <trkpt lat="46.85337" lon="3.04443">
        <ele>176.80000305176</ele>
        <time>2022-10-06T07:29:35.000Z</time>
      </trkpt>
      <trkpt lat="46.85342" lon="3.04434">
        <ele>176.60000610352</ele>
        <time>2022-10-06T07:29:36.000Z</time>
      </trkpt>
      <trkpt lat="46.85348" lon="3.04413">
        <ele>176.60000610352</ele>
        <time>2022-10-06T07:29:38.000Z</time>
      </trkpt>
      <trkpt lat="46.85353" lon="3.04358">
        <ele>176.60000610352</ele>
        <time>2022-10-06T07:29:43.000Z</time>
      </trkpt>
      <trkpt lat="46.85358" lon="3.0434">
        <ele>176.60000610352</ele>
        <time>2022-10-06T07:29:45.000Z</time>
      </trkpt>
      <trkpt lat="46.85366" lon="3.04324">
        <ele>176.80000305176</ele>
        <time>2022-10-06T07:29:47.000Z</time>
      </trkpt>
      <trkpt lat="46.8538" lon="3.04313">
        <ele>177.19999694824</ele>
        <time>2022-10-06T07:29:50.000Z</time>
      </trkpt>
      <trkpt lat="46.85392" lon="3.04307">
        <ele>178.39999389648</ele>
        <time>2022-10-06T07:29:53.000Z</time>
      </trkpt>
      <trkpt lat="46.854" lon="3.04303">
        <ele>179.39999389648</ele>
        <time>2022-10-06T07:29:55.000Z</time>
      </trkpt>
      <trkpt lat="46.85407" lon="3.043">
        <ele>180.39999389648</ele>
        <time>2022-10-06T07:29:57.000Z</time>
      </trkpt>
      <trkpt lat="46.85414" lon="3.04297">
        <ele>181.60000610352</ele>
        <time>2022-10-06T07:29:59.000Z</time>
      </trkpt>
      <trkpt lat="46.85424" lon="3.04292">
        <ele>183</ele>
        <time>2022-10-06T07:30:02.000Z</time>
      </trkpt>
      <trkpt lat="46.85434" lon="3.04288">
        <ele>184.60000610352</ele>
        <time>2022-10-06T07:30:05.000Z</time>
      </trkpt>
      <trkpt lat="46.85444" lon="3.04284">
        <ele>185.80000305176</ele>
        <time>2022-10-06T07:30:08.000Z</time>
      </trkpt>
      <trkpt lat="46.85453" lon="3.04281">
        <ele>186.60000610352</ele>
        <time>2022-10-06T07:30:11.000Z</time>
      </trkpt>
      <trkpt lat="46.85457" lon="3.0428">
        <ele>187.19999694824</ele>
        <time>2022-10-06T07:30:12.000Z</time>
      </trkpt>
      <trkpt lat="46.85466" lon="3.04275">
        <ele>188.39999389648</ele>
        <time>2022-10-06T07:30:15.000Z</time>
      </trkpt>
      <trkpt lat="46.85477" lon="3.04268">
        <ele>189.39999389648</ele>
        <time>2022-10-06T07:30:18.000Z</time>
      </trkpt>
      <trkpt lat="46.85481" lon="3.04266">
        <ele>189.60000610352</ele>
        <time>2022-10-06T07:30:19.000Z</time>
      </trkpt>
      <trkpt lat="46.85488" lon="3.0426">
        <ele>191</ele>
        <time>2022-10-06T07:30:21.000Z</time>
      </trkpt>
      <trkpt lat="46.855" lon="3.04251">
        <ele>191.80000305176</ele>
        <time>2022-10-06T07:30:24.000Z</time>
      </trkpt>
      <trkpt lat="46.85504" lon="3.04248">
        <ele>192</ele>
        <time>2022-10-06T07:30:25.000Z</time>
      </trkpt>
      <trkpt lat="46.8552" lon="3.0424">
        <ele>193</ele>
        <time>2022-10-06T07:30:29.000Z</time>
      </trkpt>
      <trkpt lat="46.85525" lon="3.04239">
        <ele>193.19999694824</ele>
        <time>2022-10-06T07:30:30.000Z</time>
      </trkpt>
      <trkpt lat="46.85533" lon="3.04236">
        <ele>194</ele>
        <time>2022-10-06T07:30:32.000Z</time>
      </trkpt>
      <trkpt lat="46.85565" lon="3.04228">
        <ele>195.19999694824</ele>
        <time>2022-10-06T07:30:39.000Z</time>
      </trkpt>
      <trkpt lat="46.85574" lon="3.04225">
        <ele>195.39999389648</ele>
        <time>2022-10-06T07:30:41.000Z</time>
      </trkpt>
      <trkpt lat="46.85605" lon="3.04216">
        <ele>196.19999694824</ele>
        <time>2022-10-06T07:30:47.000Z</time>
      </trkpt>
      <trkpt lat="46.85621" lon="3.04211">
        <ele>196.39999389648</ele>
        <time>2022-10-06T07:30:50.000Z</time>
      </trkpt>
      <trkpt lat="46.85659" lon="3.04193">
        <ele>196.39999389648</ele>
        <time>2022-10-06T07:30:57.000Z</time>
      </trkpt>
      <trkpt lat="46.85712" lon="3.04174">
        <ele>196.39999389648</ele>
        <time>2022-10-06T07:31:06.000Z</time>
      </trkpt>
      <trkpt lat="46.85763" lon="3.04159">
        <ele>196</ele>
        <time>2022-10-06T07:31:14.000Z</time>
      </trkpt>
      <trkpt lat="46.85819" lon="3.04131">
        <ele>195.60000610352</ele>
        <time>2022-10-06T07:31:23.000Z</time>
      </trkpt>
      <trkpt lat="46.85874" lon="3.04101">
        <ele>195.19999694824</ele>
        <time>2022-10-06T07:31:32.000Z</time>
      </trkpt>
      <trkpt lat="46.8588" lon="3.04097">
        <ele>195.19999694824</ele>
        <time>2022-10-06T07:31:33.000Z</time>
      </trkpt>
      <trkpt lat="46.85929" lon="3.04073">
        <ele>195.39999389648</ele>
        <time>2022-10-06T07:31:41.000Z</time>
      </trkpt>
      <trkpt lat="46.85982" lon="3.04048">
        <ele>195.39999389648</ele>
        <time>2022-10-06T07:31:50.000Z</time>
      </trkpt>
      <trkpt lat="46.85988" lon="3.04045">
        <ele>195.60000610352</ele>
        <time>2022-10-06T07:31:51.000Z</time>
      </trkpt>
      <trkpt lat="46.86039" lon="3.04005">
        <ele>196</ele>
        <time>2022-10-06T07:32:00.000Z</time>
      </trkpt>
      <trkpt lat="46.86083" lon="3.03979">
        <ele>195.39999389648</ele>
        <time>2022-10-06T07:32:07.000Z</time>
      </trkpt>
      <trkpt lat="46.8609" lon="3.03976">
        <ele>195</ele>
        <time>2022-10-06T07:32:08.000Z</time>
      </trkpt>
      <trkpt lat="46.86144" lon="3.03954">
        <ele>194</ele>
        <time>2022-10-06T07:32:16.000Z</time>
      </trkpt>
      <trkpt lat="46.86151" lon="3.03953">
        <ele>194</ele>
        <time>2022-10-06T07:32:17.000Z</time>
      </trkpt>
      <trkpt lat="46.8618" lon="3.03953">
        <ele>193.60000610352</ele>
        <time>2022-10-06T07:32:21.000Z</time>
      </trkpt>
      <trkpt lat="46.86227" lon="3.03959">
        <ele>192.80000305176</ele>
        <time>2022-10-06T07:32:27.000Z</time>
      </trkpt>
      <trkpt lat="46.86252" lon="3.03966">
        <ele>191</ele>
        <time>2022-10-06T07:32:30.000Z</time>
      </trkpt>
      <trkpt lat="46.86279" lon="3.03974">
        <ele>190.39999389648</ele>
        <time>2022-10-06T07:32:33.000Z</time>
      </trkpt>
      <trkpt lat="46.86288" lon="3.03977">
        <ele>189.80000305176</ele>
        <time>2022-10-06T07:32:34.000Z</time>
      </trkpt>
      <trkpt lat="46.86297" lon="3.03978">
        <ele>188.80000305176</ele>
        <time>2022-10-06T07:32:35.000Z</time>
      </trkpt>
      <trkpt lat="46.86304" lon="3.03978">
        <ele>188.19999694824</ele>
        <time>2022-10-06T07:32:36.000Z</time>
      </trkpt>
      <trkpt lat="46.86313" lon="3.03978">
        <ele>187.60000610352</ele>
        <time>2022-10-06T07:32:37.000Z</time>
      </trkpt>
      <trkpt lat="46.86321" lon="3.03975">
        <ele>187.19999694824</ele>
        <time>2022-10-06T07:32:38.000Z</time>
      </trkpt>
      <trkpt lat="46.86338" lon="3.03964">
        <ele>186.60000610352</ele>
        <time>2022-10-06T07:32:40.000Z</time>
      </trkpt>
      <trkpt lat="46.86343" lon="3.03959">
        <ele>186.60000610352</ele>
        <time>2022-10-06T07:32:41.000Z</time>
      </trkpt>
      <trkpt lat="46.86349" lon="3.03951">
        <ele>186.60000610352</ele>
        <time>2022-10-06T07:32:42.000Z</time>
      </trkpt>
      <trkpt lat="46.86357" lon="3.03935">
        <ele>186.60000610352</ele>
        <time>2022-10-06T07:32:44.000Z</time>
      </trkpt>
      <trkpt lat="46.86367" lon="3.03902">
        <ele>187.60000610352</ele>
        <time>2022-10-06T07:32:48.000Z</time>
      </trkpt>
      <trkpt lat="46.86371" lon="3.03887">
        <ele>188.39999389648</ele>
        <time>2022-10-06T07:32:50.000Z</time>
      </trkpt>
      <trkpt lat="46.86374" lon="3.03879">
        <ele>188.80000305176</ele>
        <time>2022-10-06T07:32:51.000Z</time>
      </trkpt>
      <trkpt lat="46.86384" lon="3.0385">
        <ele>189.80000305176</ele>
        <time>2022-10-06T07:32:55.000Z</time>
      </trkpt>
      <trkpt lat="46.8639" lon="3.03836">
        <ele>190.60000610352</ele>
        <time>2022-10-06T07:32:57.000Z</time>
      </trkpt>
      <trkpt lat="46.86396" lon="3.03823">
        <ele>191.19999694824</ele>
        <time>2022-10-06T07:32:59.000Z</time>
      </trkpt>
      <trkpt lat="46.86411" lon="3.03801">
        <ele>192.60000610352</ele>
        <time>2022-10-06T07:33:03.000Z</time>
      </trkpt>
      <trkpt lat="46.86414" lon="3.03795">
        <ele>192.80000305176</ele>
        <time>2022-10-06T07:33:04.000Z</time>
      </trkpt>
      <trkpt lat="46.86423" lon="3.03776">
        <ele>193.39999389648</ele>
        <time>2022-10-06T07:33:07.000Z</time>
      </trkpt>
      <trkpt lat="46.86426" lon="3.03769">
        <ele>193.80000305176</ele>
        <time>2022-10-06T07:33:08.000Z</time>
      </trkpt>
      <trkpt lat="46.86427" lon="3.03761">
        <ele>194</ele>
        <time>2022-10-06T07:33:09.000Z</time>
      </trkpt>
      <trkpt lat="46.86432" lon="3.03738">
        <ele>194.80000305176</ele>
        <time>2022-10-06T07:33:12.000Z</time>
      </trkpt>
      <trkpt lat="46.86436" lon="3.03723">
        <ele>195.19999694824</ele>
        <time>2022-10-06T07:33:14.000Z</time>
      </trkpt>
      <trkpt lat="46.8644" lon="3.03716">
        <ele>195</ele>
        <time>2022-10-06T07:33:15.000Z</time>
      </trkpt>
      <trkpt lat="46.86444" lon="3.03712">
        <ele>195.19999694824</ele>
        <time>2022-10-06T07:33:16.000Z</time>
      </trkpt>
      <trkpt lat="46.86449" lon="3.03713">
        <ele>195.19999694824</ele>
        <time>2022-10-06T07:33:17.000Z</time>
      </trkpt>
      <trkpt lat="46.86453" lon="3.03715">
        <ele>195.19999694824</ele>
        <time>2022-10-06T07:33:18.000Z</time>
      </trkpt>
      <trkpt lat="46.86477" lon="3.03729">
        <ele>195.19999694824</ele>
        <time>2022-10-06T07:33:23.000Z</time>
      </trkpt>
      <trkpt lat="46.86488" lon="3.03732">
        <ele>195.39999389648</ele>
        <time>2022-10-06T07:33:25.000Z</time>
      </trkpt>
      <trkpt lat="46.86498" lon="3.03736">
        <ele>195.60000610352</ele>
        <time>2022-10-06T07:33:27.000Z</time>
      </trkpt>
      <trkpt lat="46.86502" lon="3.03741">
        <ele>195.80000305176</ele>
        <time>2022-10-06T07:33:28.000Z</time>
      </trkpt>
      <trkpt lat="46.86505" lon="3.03748">
        <ele>195.80000305176</ele>
        <time>2022-10-06T07:33:29.000Z</time>
      </trkpt>
      <trkpt lat="46.86512" lon="3.03771">
        <ele>196.39999389648</ele>
        <time>2022-10-06T07:33:32.000Z</time>
      </trkpt>
      <trkpt lat="46.8652" lon="3.03793">
        <ele>196.80000305176</ele>
        <time>2022-10-06T07:33:35.000Z</time>
      </trkpt>
      <trkpt lat="46.86532" lon="3.03824">
        <ele>197</ele>
        <time>2022-10-06T07:33:39.000Z</time>
      </trkpt>
      <trkpt lat="46.86549" lon="3.03868">
        <ele>197</ele>
        <time>2022-10-06T07:33:45.000Z</time>
      </trkpt>
      <trkpt lat="46.86553" lon="3.03873">
        <ele>197.19999694824</ele>
        <time>2022-10-06T07:33:46.000Z</time>
      </trkpt>
      <trkpt lat="46.8656" lon="3.03876">
        <ele>197.19999694824</ele>
        <time>2022-10-06T07:33:47.000Z</time>
      </trkpt>
      <trkpt lat="46.86571" lon="3.03877">
        <ele>197.19999694824</ele>
        <time>2022-10-06T07:33:49.000Z</time>
      </trkpt>
      <trkpt lat="46.86608" lon="3.03874">
        <ele>197.19999694824</ele>
        <time>2022-10-06T07:33:55.000Z</time>
      </trkpt>
      <trkpt lat="46.86665" lon="3.03869">
        <ele>197.39999389648</ele>
        <time>2022-10-06T07:34:04.000Z</time>
      </trkpt>
      <trkpt lat="46.86723" lon="3.03864">
        <ele>197.19999694824</ele>
        <time>2022-10-06T07:34:13.000Z</time>
      </trkpt>
      <trkpt lat="46.86736" lon="3.03863">
        <ele>197.19999694824</ele>
        <time>2022-10-06T07:34:15.000Z</time>
      </trkpt>
      <trkpt lat="46.8679" lon="3.03861">
        <ele>197.39999389648</ele>
        <time>2022-10-06T07:34:23.000Z</time>
      </trkpt>
      <trkpt lat="46.86835" lon="3.03868">
        <ele>197</ele>
        <time>2022-10-06T07:34:30.000Z</time>
      </trkpt>
      <trkpt lat="46.86885" lon="3.03898">
        <ele>196.80000305176</ele>
        <time>2022-10-06T07:34:38.000Z</time>
      </trkpt>
      <trkpt lat="46.86934" lon="3.03933">
        <ele>197</ele>
        <time>2022-10-06T07:34:46.000Z</time>
      </trkpt>
      <trkpt lat="46.86952" lon="3.03946">
        <ele>196.80000305176</ele>
        <time>2022-10-06T07:34:49.000Z</time>
      </trkpt>
      <trkpt lat="46.87006" lon="3.03983">
        <ele>196.80000305176</ele>
        <time>2022-10-06T07:34:58.000Z</time>
      </trkpt>
      <trkpt lat="46.87018" lon="3.03992">
        <ele>196.60000610352</ele>
        <time>2022-10-06T07:35:00.000Z</time>
      </trkpt>
      <trkpt lat="46.87052" lon="3.04024">
        <ele>196.60000610352</ele>
        <time>2022-10-06T07:35:06.000Z</time>
      </trkpt>
      <trkpt lat="46.87089" lon="3.04084">
        <ele>196.39999389648</ele>
        <time>2022-10-06T07:35:14.000Z</time>
      </trkpt>
      <trkpt lat="46.87126" lon="3.04143">
        <ele>196</ele>
        <time>2022-10-06T07:35:22.000Z</time>
      </trkpt>
      <trkpt lat="46.87137" lon="3.04159">
        <ele>195.80000305176</ele>
        <time>2022-10-06T07:35:24.000Z</time>
      </trkpt>
      <trkpt lat="46.87145" lon="3.04172">
        <ele>195.80000305176</ele>
        <time>2022-10-06T07:35:26.000Z</time>
      </trkpt>
      <trkpt lat="46.87183" lon="3.04233">
        <ele>195.39999389648</ele>
        <time>2022-10-06T07:35:34.000Z</time>
      </trkpt>
      <trkpt lat="46.8721" lon="3.04276">
        <ele>195.19999694824</ele>
        <time>2022-10-06T07:35:40.000Z</time>
      </trkpt>
      <trkpt lat="46.87247" lon="3.04322">
        <ele>195</ele>
        <time>2022-10-06T07:35:47.000Z</time>
      </trkpt>
      <trkpt lat="46.8727" lon="3.04345">
        <ele>194.60000610352</ele>
        <time>2022-10-06T07:35:51.000Z</time>
      </trkpt>
      <trkpt lat="46.87316" lon="3.04393">
        <ele>194.39999389648</ele>
        <time>2022-10-06T07:35:59.000Z</time>
      </trkpt>
      <trkpt lat="46.87321" lon="3.044">
        <ele>194.39999389648</ele>
        <time>2022-10-06T07:36:00.000Z</time>
      </trkpt>
      <trkpt lat="46.87367" lon="3.0445">
        <ele>193.80000305176</ele>
        <time>2022-10-06T07:36:08.000Z</time>
      </trkpt>
      <trkpt lat="46.87372" lon="3.04456">
        <ele>193.60000610352</ele>
        <time>2022-10-06T07:36:09.000Z</time>
      </trkpt>
      <trkpt lat="46.87419" lon="3.04505">
        <ele>193.19999694824</ele>
        <time>2022-10-06T07:36:17.000Z</time>
      </trkpt>
      <trkpt lat="46.87467" lon="3.04548">
        <ele>193.19999694824</ele>
        <time>2022-10-06T07:36:25.000Z</time>
      </trkpt>
      <trkpt lat="46.8751" lon="3.04579">
        <ele>193.19999694824</ele>
        <time>2022-10-06T07:36:32.000Z</time>
      </trkpt>
      <trkpt lat="46.87551" lon="3.04588">
        <ele>193.39999389648</ele>
        <time>2022-10-06T07:36:38.000Z</time>
      </trkpt>
      <trkpt lat="46.87592" lon="3.04587">
        <ele>193.39999389648</ele>
        <time>2022-10-06T07:36:44.000Z</time>
      </trkpt>
      <trkpt lat="46.87646" lon="3.04576">
        <ele>193.19999694824</ele>
        <time>2022-10-06T07:36:52.000Z</time>
      </trkpt>
      <trkpt lat="46.87659" lon="3.04575">
        <ele>193.19999694824</ele>
        <time>2022-10-06T07:36:54.000Z</time>
      </trkpt>
      <trkpt lat="46.87716" lon="3.04568">
        <ele>193.39999389648</ele>
        <time>2022-10-06T07:37:03.000Z</time>
      </trkpt>
      <trkpt lat="46.87723" lon="3.04567">
        <ele>193.39999389648</ele>
        <time>2022-10-06T07:37:04.000Z</time>
      </trkpt>
      <trkpt lat="46.87783" lon="3.04565">
        <ele>193.39999389648</ele>
        <time>2022-10-06T07:37:13.000Z</time>
      </trkpt>
      <trkpt lat="46.87796" lon="3.04565">
        <ele>193.19999694824</ele>
        <time>2022-10-06T07:37:15.000Z</time>
      </trkpt>
      <trkpt lat="46.87844" lon="3.04581">
        <ele>192.80000305176</ele>
        <time>2022-10-06T07:37:22.000Z</time>
      </trkpt>
      <trkpt lat="46.87857" lon="3.0459">
        <ele>192.60000610352</ele>
        <time>2022-10-06T07:37:24.000Z</time>
      </trkpt>
      <trkpt lat="46.87889" lon="3.04612">
        <ele>191.39999389648</ele>
        <time>2022-10-06T07:37:29.000Z</time>
      </trkpt>
      <trkpt lat="46.87896" lon="3.04616">
        <ele>191.19999694824</ele>
        <time>2022-10-06T07:37:30.000Z</time>
      </trkpt>
      <trkpt lat="46.87925" lon="3.04635">
        <ele>190</ele>
        <time>2022-10-06T07:37:34.000Z</time>
      </trkpt>
      <trkpt lat="46.8794" lon="3.04646">
        <ele>189</ele>
        <time>2022-10-06T07:37:36.000Z</time>
      </trkpt>
      <trkpt lat="46.87947" lon="3.04651">
        <ele>188.39999389648</ele>
        <time>2022-10-06T07:37:37.000Z</time>
      </trkpt>
      <trkpt lat="46.87961" lon="3.04662">
        <ele>187.19999694824</ele>
        <time>2022-10-06T07:37:39.000Z</time>
      </trkpt>
      <trkpt lat="46.87982" lon="3.04683">
        <ele>186.39999389648</ele>
        <time>2022-10-06T07:37:42.000Z</time>
      </trkpt>
      <trkpt lat="46.87988" lon="3.0469">
        <ele>185.80000305176</ele>
        <time>2022-10-06T07:37:43.000Z</time>
      </trkpt>
      <trkpt lat="46.88006" lon="3.04715">
        <ele>184.39999389648</ele>
        <time>2022-10-06T07:37:46.000Z</time>
      </trkpt>
      <trkpt lat="46.88016" lon="3.04733">
        <ele>183.19999694824</ele>
        <time>2022-10-06T07:37:48.000Z</time>
      </trkpt>
      <trkpt lat="46.88021" lon="3.04743">
        <ele>182.80000305176</ele>
        <time>2022-10-06T07:37:49.000Z</time>
      </trkpt>
      <trkpt lat="46.88045" lon="3.04802">
        <ele>181.60000610352</ele>
        <time>2022-10-06T07:37:55.000Z</time>
      </trkpt>
      <trkpt lat="46.88057" lon="3.04845">
        <ele>180.39999389648</ele>
        <time>2022-10-06T07:37:59.000Z</time>
      </trkpt>
      <trkpt lat="46.88062" lon="3.04867">
        <ele>179.80000305176</ele>
        <time>2022-10-06T07:38:01.000Z</time>
      </trkpt>
      <trkpt lat="46.88065" lon="3.04878">
        <ele>179.80000305176</ele>
        <time>2022-10-06T07:38:02.000Z</time>
      </trkpt>
      <trkpt lat="46.8807" lon="3.04888">
        <ele>179</ele>
        <time>2022-10-06T07:38:03.000Z</time>
      </trkpt>
      <trkpt lat="46.88076" lon="3.04897">
        <ele>178.80000305176</ele>
        <time>2022-10-06T07:38:04.000Z</time>
      </trkpt>
      <trkpt lat="46.8809" lon="3.04909">
        <ele>178.39999389648</ele>
        <time>2022-10-06T07:38:06.000Z</time>
      </trkpt>
      <trkpt lat="46.88097" lon="3.04913">
        <ele>178</ele>
        <time>2022-10-06T07:38:07.000Z</time>
      </trkpt>
      <trkpt lat="46.88121" lon="3.04925">
        <ele>176.39999389648</ele>
        <time>2022-10-06T07:38:10.000Z</time>
      </trkpt>
      <trkpt lat="46.88149" lon="3.04938">
        <ele>175.19999694824</ele>
        <time>2022-10-06T07:38:13.000Z</time>
      </trkpt>
      <trkpt lat="46.88165" lon="3.04945">
        <ele>174</ele>
        <time>2022-10-06T07:38:15.000Z</time>
      </trkpt>
      <trkpt lat="46.88174" lon="3.04947">
        <ele>173.60000610352</ele>
        <time>2022-10-06T07:38:16.000Z</time>
      </trkpt>
      <trkpt lat="46.88182" lon="3.04948">
        <ele>173.19999694824</ele>
        <time>2022-10-06T07:38:17.000Z</time>
      </trkpt>
      <trkpt lat="46.88207" lon="3.04946">
        <ele>172.80000305176</ele>
        <time>2022-10-06T07:38:20.000Z</time>
      </trkpt>
      <trkpt lat="46.8823" lon="3.04942">
        <ele>172.60000610352</ele>
        <time>2022-10-06T07:38:23.000Z</time>
      </trkpt>
      <trkpt lat="46.88286" lon="3.04932">
        <ele>173.39999389648</ele>
        <time>2022-10-06T07:38:31.000Z</time>
      </trkpt>
      <trkpt lat="46.88299" lon="3.0493">
        <ele>173.80000305176</ele>
        <time>2022-10-06T07:38:33.000Z</time>
      </trkpt>
      <trkpt lat="46.88305" lon="3.0493">
        <ele>174</ele>
        <time>2022-10-06T07:38:34.000Z</time>
      </trkpt>
      <trkpt lat="46.88317" lon="3.04929">
        <ele>174.60000610352</ele>
        <time>2022-10-06T07:38:36.000Z</time>
      </trkpt>
      <trkpt lat="46.88327" lon="3.04928">
        <ele>175.39999389648</ele>
        <time>2022-10-06T07:38:38.000Z</time>
      </trkpt>
      <trkpt lat="46.88332" lon="3.04928">
        <ele>175.60000610352</ele>
        <time>2022-10-06T07:38:39.000Z</time>
      </trkpt>
      <trkpt lat="46.88342" lon="3.04927">
        <ele>176</ele>
        <time>2022-10-06T07:38:41.000Z</time>
      </trkpt>
      <trkpt lat="46.88347" lon="3.04927">
        <ele>176.39999389648</ele>
        <time>2022-10-06T07:38:42.000Z</time>
      </trkpt>
      <trkpt lat="46.88352" lon="3.04927">
        <ele>176.60000610352</ele>
        <time>2022-10-06T07:38:43.000Z</time>
      </trkpt>
      <trkpt lat="46.88366" lon="3.04925">
        <ele>177.60000610352</ele>
        <time>2022-10-06T07:38:46.000Z</time>
      </trkpt>
      <trkpt lat="46.88371" lon="3.04924">
        <ele>177.80000305176</ele>
        <time>2022-10-06T07:38:47.000Z</time>
      </trkpt>
      <trkpt lat="46.88382" lon="3.04924">
        <ele>178.60000610352</ele>
        <time>2022-10-06T07:38:49.000Z</time>
      </trkpt>
      <trkpt lat="46.88401" lon="3.04922">
        <ele>179.80000305176</ele>
        <time>2022-10-06T07:38:53.000Z</time>
      </trkpt>
      <trkpt lat="46.88411" lon="3.04922">
        <ele>180</ele>
        <time>2022-10-06T07:38:55.000Z</time>
      </trkpt>
      <trkpt lat="46.88427" lon="3.04923">
        <ele>180.80000305176</ele>
        <time>2022-10-06T07:38:58.000Z</time>
      </trkpt>
      <trkpt lat="46.88449" lon="3.04926">
        <ele>181.19999694824</ele>
        <time>2022-10-06T07:39:02.000Z</time>
      </trkpt>
      <trkpt lat="46.8846" lon="3.04929">
        <ele>181.19999694824</ele>
        <time>2022-10-06T07:39:04.000Z</time>
      </trkpt>
      <trkpt lat="46.88482" lon="3.0494">
        <ele>181.39999389648</ele>
        <time>2022-10-06T07:39:08.000Z</time>
      </trkpt>
      <trkpt lat="46.88528" lon="3.04969">
        <ele>181.19999694824</ele>
        <time>2022-10-06T07:39:16.000Z</time>
      </trkpt>
      <trkpt lat="46.88583" lon="3.05002">
        <ele>180.19999694824</ele>
        <time>2022-10-06T07:39:25.000Z</time>
      </trkpt>
      <trkpt lat="46.88619" lon="3.05024">
        <ele>179.80000305176</ele>
        <time>2022-10-06T07:39:31.000Z</time>
      </trkpt>
      <trkpt lat="46.88644" lon="3.05042">
        <ele>179</ele>
        <time>2022-10-06T07:39:35.000Z</time>
      </trkpt>
      <trkpt lat="46.88657" lon="3.05051">
        <ele>178.39999389648</ele>
        <time>2022-10-06T07:39:37.000Z</time>
      </trkpt>
      <trkpt lat="46.8869" lon="3.05074">
        <ele>177</ele>
        <time>2022-10-06T07:39:42.000Z</time>
      </trkpt>
      <trkpt lat="46.88697" lon="3.05078">
        <ele>176.80000305176</ele>
        <time>2022-10-06T07:39:43.000Z</time>
      </trkpt>
      <trkpt lat="46.88749" lon="3.05114">
        <ele>176</ele>
        <time>2022-10-06T07:39:51.000Z</time>
      </trkpt>
      <trkpt lat="46.88768" lon="3.05125">
        <ele>175.80000305176</ele>
        <time>2022-10-06T07:39:54.000Z</time>
      </trkpt>
      <trkpt lat="46.88802" lon="3.05134">
        <ele>175.19999694824</ele>
        <time>2022-10-06T07:39:59.000Z</time>
      </trkpt>
      <trkpt lat="46.88823" lon="3.05137">
        <ele>175</ele>
        <time>2022-10-06T07:40:02.000Z</time>
      </trkpt>
      <trkpt lat="46.88873" lon="3.05143">
        <ele>174</ele>
        <time>2022-10-06T07:40:09.000Z</time>
      </trkpt>
      <trkpt lat="46.88888" lon="3.05145">
        <ele>173.80000305176</ele>
        <time>2022-10-06T07:40:11.000Z</time>
      </trkpt>
      <trkpt lat="46.88917" lon="3.05145">
        <ele>173.19999694824</ele>
        <time>2022-10-06T07:40:15.000Z</time>
      </trkpt>
      <trkpt lat="46.88925" lon="3.05143">
        <ele>173</ele>
        <time>2022-10-06T07:40:16.000Z</time>
      </trkpt>
      <trkpt lat="46.88932" lon="3.05139">
        <ele>172.80000305176</ele>
        <time>2022-10-06T07:40:17.000Z</time>
      </trkpt>
      <trkpt lat="46.88939" lon="3.05134">
        <ele>172.60000610352</ele>
        <time>2022-10-06T07:40:18.000Z</time>
      </trkpt>
      <trkpt lat="46.88945" lon="3.05128">
        <ele>172.39999389648</ele>
        <time>2022-10-06T07:40:19.000Z</time>
      </trkpt>
      <trkpt lat="46.88966" lon="3.05099">
        <ele>171.39999389648</ele>
        <time>2022-10-06T07:40:23.000Z</time>
      </trkpt>
      <trkpt lat="46.8897" lon="3.05091">
        <ele>171.39999389648</ele>
        <time>2022-10-06T07:40:24.000Z</time>
      </trkpt>
      <trkpt lat="46.89006" lon="3.05028">
        <ele>171</ele>
        <time>2022-10-06T07:40:32.000Z</time>
      </trkpt>
      <trkpt lat="46.8902" lon="3.05005">
        <ele>170.80000305176</ele>
        <time>2022-10-06T07:40:35.000Z</time>
      </trkpt>
      <trkpt lat="46.89061" lon="3.04953">
        <ele>170.80000305176</ele>
        <time>2022-10-06T07:40:43.000Z</time>
      </trkpt>
      <trkpt lat="46.89102" lon="3.04913">
        <ele>170.39999389648</ele>
        <time>2022-10-06T07:40:50.000Z</time>
      </trkpt>
      <trkpt lat="46.89108" lon="3.0491">
        <ele>170.39999389648</ele>
        <time>2022-10-06T07:40:51.000Z</time>
      </trkpt>
      <trkpt lat="46.89115" lon="3.04908">
        <ele>170.19999694824</ele>
        <time>2022-10-06T07:40:52.000Z</time>
      </trkpt>
      <trkpt lat="46.89122" lon="3.04907">
        <ele>170.19999694824</ele>
        <time>2022-10-06T07:40:53.000Z</time>
      </trkpt>
      <trkpt lat="46.89129" lon="3.04907">
        <ele>170.19999694824</ele>
        <time>2022-10-06T07:40:54.000Z</time>
      </trkpt>
      <trkpt lat="46.89136" lon="3.04908">
        <ele>170.19999694824</ele>
        <time>2022-10-06T07:40:55.000Z</time>
      </trkpt>
      <trkpt lat="46.89191" lon="3.04917">
        <ele>169.80000305176</ele>
        <time>2022-10-06T07:41:03.000Z</time>
      </trkpt>
      <trkpt lat="46.89199" lon="3.04918">
        <ele>169.80000305176</ele>
        <time>2022-10-06T07:41:04.000Z</time>
      </trkpt>
      <trkpt lat="46.89234" lon="3.04915">
        <ele>169.80000305176</ele>
        <time>2022-10-06T07:41:09.000Z</time>
      </trkpt>
      <trkpt lat="46.89261" lon="3.04904">
        <ele>169.19999694824</ele>
        <time>2022-10-06T07:41:13.000Z</time>
      </trkpt>
      <trkpt lat="46.89281" lon="3.04895">
        <ele>168.80000305176</ele>
        <time>2022-10-06T07:41:16.000Z</time>
      </trkpt>
      <trkpt lat="46.89328" lon="3.04887">
        <ele>168.60000610352</ele>
        <time>2022-10-06T07:41:23.000Z</time>
      </trkpt>
      <trkpt lat="46.89388" lon="3.0489">
        <ele>168.60000610352</ele>
        <time>2022-10-06T07:41:32.000Z</time>
      </trkpt>
      <trkpt lat="46.89448" lon="3.04895">
        <ele>168.60000610352</ele>
        <time>2022-10-06T07:41:41.000Z</time>
      </trkpt>
      <trkpt lat="46.89454" lon="3.04894">
        <ele>168.60000610352</ele>
        <time>2022-10-06T07:41:42.000Z</time>
      </trkpt>
      <trkpt lat="46.89512" lon="3.04885">
        <ele>168.60000610352</ele>
        <time>2022-10-06T07:41:51.000Z</time>
      </trkpt>
      <trkpt lat="46.89531" lon="3.04882">
        <ele>168.80000305176</ele>
        <time>2022-10-06T07:41:54.000Z</time>
      </trkpt>
      <trkpt lat="46.89562" lon="3.04874">
        <ele>168.60000610352</ele>
        <time>2022-10-06T07:41:59.000Z</time>
      </trkpt>
      <trkpt lat="46.89568" lon="3.04871">
        <ele>168.60000610352</ele>
        <time>2022-10-06T07:42:00.000Z</time>
      </trkpt>
      <trkpt lat="46.89574" lon="3.04866">
        <ele>168.60000610352</ele>
        <time>2022-10-06T07:42:01.000Z</time>
      </trkpt>
      <trkpt lat="46.89588" lon="3.04849">
        <ele>168.60000610352</ele>
        <time>2022-10-06T07:42:04.000Z</time>
      </trkpt>
      <trkpt lat="46.89612" lon="3.04806">
        <ele>168.80000305176</ele>
        <time>2022-10-06T07:42:10.000Z</time>
      </trkpt>
      <trkpt lat="46.89644" lon="3.04748">
        <ele>168.80000305176</ele>
        <time>2022-10-06T07:42:18.000Z</time>
      </trkpt>
      <trkpt lat="46.89659" lon="3.04731">
        <ele>168.80000305176</ele>
        <time>2022-10-06T07:42:21.000Z</time>
      </trkpt>
      <trkpt lat="46.89671" lon="3.04723">
        <ele>168.80000305176</ele>
        <time>2022-10-06T07:42:23.000Z</time>
      </trkpt>
      <trkpt lat="46.89709" lon="3.04711">
        <ele>168.80000305176</ele>
        <time>2022-10-06T07:42:29.000Z</time>
      </trkpt>
      <trkpt lat="46.89728" lon="3.04709">
        <ele>169</ele>
        <time>2022-10-06T07:42:32.000Z</time>
      </trkpt>
      <trkpt lat="46.89741" lon="3.04711">
        <ele>169</ele>
        <time>2022-10-06T07:42:34.000Z</time>
      </trkpt>
      <trkpt lat="46.89791" lon="3.04727">
        <ele>169.19999694824</ele>
        <time>2022-10-06T07:42:42.000Z</time>
      </trkpt>
      <trkpt lat="46.89843" lon="3.0474">
        <ele>168.80000305176</ele>
        <time>2022-10-06T07:42:50.000Z</time>
      </trkpt>
      <trkpt lat="46.8989" lon="3.04735">
        <ele>168.19999694824</ele>
        <time>2022-10-06T07:42:57.000Z</time>
      </trkpt>
      <trkpt lat="46.89948" lon="3.04725">
        <ele>167.80000305176</ele>
        <time>2022-10-06T07:43:06.000Z</time>
      </trkpt>
      <trkpt lat="46.90003" lon="3.04714">
        <ele>168.60000610352</ele>
        <time>2022-10-06T07:43:15.000Z</time>
      </trkpt>
      <trkpt lat="46.90034" lon="3.04709">
        <ele>168.60000610352</ele>
        <time>2022-10-06T07:43:20.000Z</time>
      </trkpt>
      <trkpt lat="46.90052" lon="3.04709">
        <ele>168.60000610352</ele>
        <time>2022-10-06T07:43:23.000Z</time>
      </trkpt>
      <trkpt lat="46.90098" lon="3.0472">
        <ele>169</ele>
        <time>2022-10-06T07:43:30.000Z</time>
      </trkpt>
      <trkpt lat="46.90124" lon="3.04728">
        <ele>169.19999694824</ele>
        <time>2022-10-06T07:43:34.000Z</time>
      </trkpt>
      <trkpt lat="46.90151" lon="3.04737">
        <ele>169</ele>
        <time>2022-10-06T07:43:38.000Z</time>
      </trkpt>
      <trkpt lat="46.90206" lon="3.04766">
        <ele>168.19999694824</ele>
        <time>2022-10-06T07:43:46.000Z</time>
      </trkpt>
      <trkpt lat="46.90233" lon="3.04781">
        <ele>168</ele>
        <time>2022-10-06T07:43:50.000Z</time>
      </trkpt>
      <trkpt lat="46.9026" lon="3.04797">
        <ele>167.60000610352</ele>
        <time>2022-10-06T07:43:54.000Z</time>
      </trkpt>
      <trkpt lat="46.90271" lon="3.04802">
        <ele>167.39999389648</ele>
        <time>2022-10-06T07:43:56.000Z</time>
      </trkpt>
      <trkpt lat="46.90283" lon="3.04806">
        <ele>167.19999694824</ele>
        <time>2022-10-06T07:43:58.000Z</time>
      </trkpt>
      <trkpt lat="46.90313" lon="3.04817">
        <ele>167.19999694824</ele>
        <time>2022-10-06T07:44:03.000Z</time>
      </trkpt>
      <trkpt lat="46.90326" lon="3.0482">
        <ele>166.80000305176</ele>
        <time>2022-10-06T07:44:05.000Z</time>
      </trkpt>
      <trkpt lat="46.90344" lon="3.04822">
        <ele>166.80000305176</ele>
        <time>2022-10-06T07:44:08.000Z</time>
      </trkpt>
      <trkpt lat="46.90371" lon="3.04827">
        <ele>166.80000305176</ele>
        <time>2022-10-06T07:44:12.000Z</time>
      </trkpt>
      <trkpt lat="46.90388" lon="3.04832">
        <ele>166.80000305176</ele>
        <time>2022-10-06T07:44:15.000Z</time>
      </trkpt>
      <trkpt lat="46.90394" lon="3.04831">
        <ele>166.80000305176</ele>
        <time>2022-10-06T07:44:16.000Z</time>
      </trkpt>
      <trkpt lat="46.90419" lon="3.04837">
        <ele>167.39999389648</ele>
        <time>2022-10-06T07:44:20.000Z</time>
      </trkpt>
      <trkpt lat="46.90457" lon="3.04846">
        <ele>167.39999389648</ele>
        <time>2022-10-06T07:44:25.000Z</time>
      </trkpt>
      <trkpt lat="46.90465" lon="3.04848">
        <ele>167.39999389648</ele>
        <time>2022-10-06T07:44:26.000Z</time>
      </trkpt>
      <trkpt lat="46.90494" lon="3.04851">
        <ele>167</ele>
        <time>2022-10-06T07:44:30.000Z</time>
      </trkpt>
      <trkpt lat="46.90501" lon="3.0485">
        <ele>166.80000305176</ele>
        <time>2022-10-06T07:44:31.000Z</time>
      </trkpt>
      <trkpt lat="46.9052" lon="3.04843">
        <ele>166.60000610352</ele>
        <time>2022-10-06T07:44:34.000Z</time>
      </trkpt>
      <trkpt lat="46.90528" lon="3.04832">
        <ele>166.39999389648</ele>
        <time>2022-10-06T07:44:36.000Z</time>
      </trkpt>
      <trkpt lat="46.90535" lon="3.04821">
        <ele>166.39999389648</ele>
        <time>2022-10-06T07:44:38.000Z</time>
      </trkpt>
      <trkpt lat="46.90538" lon="3.04815">
        <ele>166.19999694824</ele>
        <time>2022-10-06T07:44:39.000Z</time>
      </trkpt>
      <trkpt lat="46.90547" lon="3.04807">
        <ele>166.19999694824</ele>
        <time>2022-10-06T07:44:41.000Z</time>
      </trkpt>
      <trkpt lat="46.90552" lon="3.04805">
        <ele>166.19999694824</ele>
        <time>2022-10-06T07:44:42.000Z</time>
      </trkpt>
      <trkpt lat="46.90579" lon="3.04797">
        <ele>165.80000305176</ele>
        <time>2022-10-06T07:44:47.000Z</time>
      </trkpt>
      <trkpt lat="46.90589" lon="3.04794">
        <ele>165.80000305176</ele>
        <time>2022-10-06T07:44:49.000Z</time>
      </trkpt>
      <trkpt lat="46.90594" lon="3.04793">
        <ele>165.60000610352</ele>
        <time>2022-10-06T07:44:50.000Z</time>
      </trkpt>
      <trkpt lat="46.90615" lon="3.0479">
        <ele>165.60000610352</ele>
        <time>2022-10-06T07:44:54.000Z</time>
      </trkpt>
      <trkpt lat="46.90625" lon="3.04787">
        <ele>165.60000610352</ele>
        <time>2022-10-06T07:44:56.000Z</time>
      </trkpt>
      <trkpt lat="46.90646" lon="3.04784">
        <ele>165.60000610352</ele>
        <time>2022-10-06T07:45:00.000Z</time>
      </trkpt>
      <trkpt lat="46.90657" lon="3.04781">
        <ele>165.80000305176</ele>
        <time>2022-10-06T07:45:02.000Z</time>
      </trkpt>
      <trkpt lat="46.90686" lon="3.04771">
        <ele>166.80000305176</ele>
        <time>2022-10-06T07:45:08.000Z</time>
      </trkpt>
      <trkpt lat="46.90691" lon="3.0477">
        <ele>167</ele>
        <time>2022-10-06T07:45:09.000Z</time>
      </trkpt>
      <trkpt lat="46.90718" lon="3.04775">
        <ele>168.19999694824</ele>
        <time>2022-10-06T07:45:15.000Z</time>
      </trkpt>
      <trkpt lat="46.90723" lon="3.04776">
        <ele>168.19999694824</ele>
        <time>2022-10-06T07:45:16.000Z</time>
      </trkpt>
      <trkpt lat="46.90762" lon="3.04789">
        <ele>169.19999694824</ele>
        <time>2022-10-06T07:45:24.000Z</time>
      </trkpt>
      <trkpt lat="46.90768" lon="3.0479">
        <ele>169.19999694824</ele>
        <time>2022-10-06T07:45:25.000Z</time>
      </trkpt>
      <trkpt lat="46.90779" lon="3.04794">
        <ele>169.19999694824</ele>
        <time>2022-10-06T07:45:27.000Z</time>
      </trkpt>
      <trkpt lat="46.90797" lon="3.04802">
        <ele>169.19999694824</ele>
        <time>2022-10-06T07:45:30.000Z</time>
      </trkpt>
      <trkpt lat="46.90838" lon="3.04819">
        <ele>167.80000305176</ele>
        <time>2022-10-06T07:45:36.000Z</time>
      </trkpt>
      <trkpt lat="46.90845" lon="3.04821">
        <ele>167.39999389648</ele>
        <time>2022-10-06T07:45:37.000Z</time>
      </trkpt>
      <trkpt lat="46.90867" lon="3.04823">
        <ele>166.80000305176</ele>
        <time>2022-10-06T07:45:40.000Z</time>
      </trkpt>
      <trkpt lat="46.90873" lon="3.04823">
        <ele>166.39999389648</ele>
        <time>2022-10-06T07:45:41.000Z</time>
      </trkpt>
      <trkpt lat="46.90899" lon="3.04823">
        <ele>165.60000610352</ele>
        <time>2022-10-06T07:45:45.000Z</time>
      </trkpt>
      <trkpt lat="46.90911" lon="3.04821">
        <ele>165.39999389648</ele>
        <time>2022-10-06T07:45:47.000Z</time>
      </trkpt>
      <trkpt lat="46.90949" lon="3.0482">
        <ele>165.19999694824</ele>
        <time>2022-10-06T07:45:53.000Z</time>
      </trkpt>
      <trkpt lat="46.90975" lon="3.04821">
        <ele>165.39999389648</ele>
        <time>2022-10-06T07:45:57.000Z</time>
      </trkpt>
      <trkpt lat="46.90994" lon="3.04824">
        <ele>165.39999389648</ele>
        <time>2022-10-06T07:46:00.000Z</time>
      </trkpt>
      <trkpt lat="46.9102" lon="3.04833">
        <ele>165.60000610352</ele>
        <time>2022-10-06T07:46:05.000Z</time>
      </trkpt>
      <trkpt lat="46.91039" lon="3.0484">
        <ele>166.39999389648</ele>
        <time>2022-10-06T07:46:09.000Z</time>
      </trkpt>
      <trkpt lat="46.91047" lon="3.04844">
        <ele>166.80000305176</ele>
        <time>2022-10-06T07:46:11.000Z</time>
      </trkpt>
      <trkpt lat="46.91054" lon="3.04846">
        <ele>167.39999389648</ele>
        <time>2022-10-06T07:46:13.000Z</time>
      </trkpt>
      <trkpt lat="46.91063" lon="3.0485">
        <ele>167.60000610352</ele>
        <time>2022-10-06T07:46:15.000Z</time>
      </trkpt>
      <trkpt lat="46.91091" lon="3.04865">
        <ele>168.19999694824</ele>
        <time>2022-10-06T07:46:20.000Z</time>
      </trkpt>
      <trkpt lat="46.91127" lon="3.04879">
        <ele>167.80000305176</ele>
        <time>2022-10-06T07:46:25.000Z</time>
      </trkpt>
      <trkpt lat="46.91157" lon="3.04888">
        <ele>167.39999389648</ele>
        <time>2022-10-06T07:46:29.000Z</time>
      </trkpt>
      <trkpt lat="46.9117" lon="3.04893">
        <ele>167</ele>
        <time>2022-10-06T07:46:31.000Z</time>
      </trkpt>
      <trkpt lat="46.91218" lon="3.04914">
        <ele>166.60000610352</ele>
        <time>2022-10-06T07:46:38.000Z</time>
      </trkpt>
      <trkpt lat="46.91225" lon="3.04916">
        <ele>166.60000610352</ele>
        <time>2022-10-06T07:46:39.000Z</time>
      </trkpt>
      <trkpt lat="46.91272" lon="3.04932">
        <ele>166.19999694824</ele>
        <time>2022-10-06T07:46:46.000Z</time>
      </trkpt>
      <trkpt lat="46.91311" lon="3.04946">
        <ele>166.19999694824</ele>
        <time>2022-10-06T07:46:52.000Z</time>
      </trkpt>
      <trkpt lat="46.91367" lon="3.04966">
        <ele>166.60000610352</ele>
        <time>2022-10-06T07:47:01.000Z</time>
      </trkpt>
      <trkpt lat="46.91409" lon="3.04982">
        <ele>166.80000305176</ele>
        <time>2022-10-06T07:47:08.000Z</time>
      </trkpt>
      <trkpt lat="46.91415" lon="3.04984">
        <ele>166.80000305176</ele>
        <time>2022-10-06T07:47:09.000Z</time>
      </trkpt>
      <trkpt lat="46.91441" lon="3.04997">
        <ele>166.39999389648</ele>
        <time>2022-10-06T07:47:13.000Z</time>
      </trkpt>
      <trkpt lat="46.91453" lon="3.05004">
        <ele>166.19999694824</ele>
        <time>2022-10-06T07:47:15.000Z</time>
      </trkpt>
      <trkpt lat="46.91484" lon="3.05023">
        <ele>165.60000610352</ele>
        <time>2022-10-06T07:47:20.000Z</time>
      </trkpt>
      <trkpt lat="46.91523" lon="3.05043">
        <ele>165.60000610352</ele>
        <time>2022-10-06T07:47:26.000Z</time>
      </trkpt>
      <trkpt lat="46.9153" lon="3.05044">
        <ele>165.60000610352</ele>
        <time>2022-10-06T07:47:27.000Z</time>
      </trkpt>
      <trkpt lat="46.91577" lon="3.05067">
        <ele>165.80000305176</ele>
        <time>2022-10-06T07:47:34.000Z</time>
      </trkpt>
      <trkpt lat="46.91588" lon="3.05075">
        <ele>165.80000305176</ele>
        <time>2022-10-06T07:47:36.000Z</time>
      </trkpt>
      <trkpt lat="46.91602" lon="3.05085">
        <ele>165.80000305176</ele>
        <time>2022-10-06T07:47:38.000Z</time>
      </trkpt>
      <trkpt lat="46.91654" lon="3.05106">
        <ele>166.19999694824</ele>
        <time>2022-10-06T07:47:45.000Z</time>
      </trkpt>
      <trkpt lat="46.91705" lon="3.05135">
        <ele>166</ele>
        <time>2022-10-06T07:47:53.000Z</time>
      </trkpt>
      <trkpt lat="46.91754" lon="3.05168">
        <ele>165.80000305176</ele>
        <time>2022-10-06T07:48:01.000Z</time>
      </trkpt>
      <trkpt lat="46.91795" lon="3.05207">
        <ele>165.80000305176</ele>
        <time>2022-10-06T07:48:08.000Z</time>
      </trkpt>
      <trkpt lat="46.91834" lon="3.05256">
        <ele>165.39999389648</ele>
        <time>2022-10-06T07:48:15.000Z</time>
      </trkpt>
      <trkpt lat="46.9184" lon="3.05262">
        <ele>165.39999389648</ele>
        <time>2022-10-06T07:48:16.000Z</time>
      </trkpt>
      <trkpt lat="46.91872" lon="3.05304">
        <ele>164.60000610352</ele>
        <time>2022-10-06T07:48:22.000Z</time>
      </trkpt>
      <trkpt lat="46.91888" lon="3.05326">
        <ele>164.39999389648</ele>
        <time>2022-10-06T07:48:25.000Z</time>
      </trkpt>
      <trkpt lat="46.9193" lon="3.0538">
        <ele>164.19999694824</ele>
        <time>2022-10-06T07:48:33.000Z</time>
      </trkpt>
      <trkpt lat="46.91972" lon="3.05432">
        <ele>164.19999694824</ele>
        <time>2022-10-06T07:48:41.000Z</time>
      </trkpt>
      <trkpt lat="46.91977" lon="3.05437">
        <ele>164.39999389648</ele>
        <time>2022-10-06T07:48:42.000Z</time>
      </trkpt>
      <trkpt lat="46.92005" lon="3.05458">
        <ele>164.60000610352</ele>
        <time>2022-10-06T07:48:47.000Z</time>
      </trkpt>
      <trkpt lat="46.92011" lon="3.05462">
        <ele>164.60000610352</ele>
        <time>2022-10-06T07:48:48.000Z</time>
      </trkpt>
      <trkpt lat="46.92034" lon="3.05476">
        <ele>164.60000610352</ele>
        <time>2022-10-06T07:48:52.000Z</time>
      </trkpt>
      <trkpt lat="46.92089" lon="3.05504">
        <ele>165.19999694824</ele>
        <time>2022-10-06T07:49:01.000Z</time>
      </trkpt>
      <trkpt lat="46.92112" lon="3.05514">
        <ele>165.60000610352</ele>
        <time>2022-10-06T07:49:05.000Z</time>
      </trkpt>
      <trkpt lat="46.92124" lon="3.05517">
        <ele>165.60000610352</ele>
        <time>2022-10-06T07:49:07.000Z</time>
      </trkpt>
      <trkpt lat="46.92136" lon="3.05519">
        <ele>165.60000610352</ele>
        <time>2022-10-06T07:49:09.000Z</time>
      </trkpt>
      <trkpt lat="46.92154" lon="3.0552">
        <ele>165.80000305176</ele>
        <time>2022-10-06T07:49:12.000Z</time>
      </trkpt>
      <trkpt lat="46.922" lon="3.05534">
        <ele>166.19999694824</ele>
        <time>2022-10-06T07:49:20.000Z</time>
      </trkpt>
      <trkpt lat="46.92223" lon="3.0554">
        <ele>166.39999389648</ele>
        <time>2022-10-06T07:49:24.000Z</time>
      </trkpt>
      <trkpt lat="46.92234" lon="3.05542">
        <ele>166.80000305176</ele>
        <time>2022-10-06T07:49:26.000Z</time>
      </trkpt>
      <trkpt lat="46.92239" lon="3.05544">
        <ele>166.80000305176</ele>
        <time>2022-10-06T07:49:27.000Z</time>
      </trkpt>
      <trkpt lat="46.92247" lon="3.05551">
        <ele>167</ele>
        <time>2022-10-06T07:49:29.000Z</time>
      </trkpt>
      <trkpt lat="46.92253" lon="3.05559">
        <ele>167</ele>
        <time>2022-10-06T07:49:31.000Z</time>
      </trkpt>
      <trkpt lat="46.92252" lon="3.05573">
        <ele>166.80000305176</ele>
        <time>2022-10-06T07:49:34.000Z</time>
      </trkpt>
      <trkpt lat="46.92247" lon="3.05604">
        <ele>166.60000610352</ele>
        <time>2022-10-06T07:49:40.000Z</time>
      </trkpt>
      <trkpt lat="46.92255" lon="3.05611">
        <ele>166.60000610352</ele>
        <time>2022-10-06T07:49:43.000Z</time>
      </trkpt>
      <trkpt lat="46.9228" lon="3.05622">
        <ele>166.60000610352</ele>
        <time>2022-10-06T07:49:49.000Z</time>
      </trkpt>
      <trkpt lat="46.92318" lon="3.0564">
        <ele>166.60000610352</ele>
        <time>2022-10-06T07:49:56.000Z</time>
      </trkpt>
      <trkpt lat="46.92368" lon="3.05669">
        <ele>166.80000305176</ele>
        <time>2022-10-06T07:50:05.000Z</time>
      </trkpt>
      <trkpt lat="46.92405" lon="3.05699">
        <ele>167</ele>
        <time>2022-10-06T07:50:12.000Z</time>
      </trkpt>
      <trkpt lat="46.92432" lon="3.0572">
        <ele>167</ele>
        <time>2022-10-06T07:50:17.000Z</time>
      </trkpt>
      <trkpt lat="46.92438" lon="3.05723">
        <ele>167</ele>
        <time>2022-10-06T07:50:18.000Z</time>
      </trkpt>
      <trkpt lat="46.92462" lon="3.05738">
        <ele>166.80000305176</ele>
        <time>2022-10-06T07:50:23.000Z</time>
      </trkpt>
      <trkpt lat="46.92503" lon="3.05759">
        <ele>166.60000610352</ele>
        <time>2022-10-06T07:50:30.000Z</time>
      </trkpt>
      <trkpt lat="46.92532" lon="3.05772">
        <ele>166.80000305176</ele>
        <time>2022-10-06T07:50:35.000Z</time>
      </trkpt>
      <trkpt lat="46.92537" lon="3.05775">
        <ele>166.80000305176</ele>
        <time>2022-10-06T07:50:36.000Z</time>
      </trkpt>
      <trkpt lat="46.9258" lon="3.05797">
        <ele>166.80000305176</ele>
        <time>2022-10-06T07:50:43.000Z</time>
      </trkpt>
      <trkpt lat="46.92586" lon="3.058">
        <ele>166.80000305176</ele>
        <time>2022-10-06T07:50:44.000Z</time>
      </trkpt>
      <trkpt lat="46.92591" lon="3.05803">
        <ele>166.80000305176</ele>
        <time>2022-10-06T07:50:45.000Z</time>
      </trkpt>
      <trkpt lat="46.92616" lon="3.05813">
        <ele>166.80000305176</ele>
        <time>2022-10-06T07:50:49.000Z</time>
      </trkpt>
      <trkpt lat="46.92639" lon="3.05827">
        <ele>166.80000305176</ele>
        <time>2022-10-06T07:50:53.000Z</time>
      </trkpt>
      <trkpt lat="46.92652" lon="3.05834">
        <ele>166.60000610352</ele>
        <time>2022-10-06T07:50:55.000Z</time>
      </trkpt>
      <trkpt lat="46.92657" lon="3.05836">
        <ele>166.60000610352</ele>
        <time>2022-10-06T07:50:56.000Z</time>
      </trkpt>
      <trkpt lat="46.92679" lon="3.05848">
        <ele>166.39999389648</ele>
        <time>2022-10-06T07:51:00.000Z</time>
      </trkpt>
      <trkpt lat="46.9269" lon="3.05852">
        <ele>166.60000610352</ele>
        <time>2022-10-06T07:51:02.000Z</time>
      </trkpt>
      <trkpt lat="46.92713" lon="3.05863">
        <ele>166.39999389648</ele>
        <time>2022-10-06T07:51:06.000Z</time>
      </trkpt>
      <trkpt lat="46.92737" lon="3.05875">
        <ele>166.39999389648</ele>
        <time>2022-10-06T07:51:11.000Z</time>
      </trkpt>
      <trkpt lat="46.92768" lon="3.05892">
        <ele>166.39999389648</ele>
        <time>2022-10-06T07:51:16.000Z</time>
      </trkpt>
      <trkpt lat="46.92806" lon="3.05912">
        <ele>166.19999694824</ele>
        <time>2022-10-06T07:51:22.000Z</time>
      </trkpt>
      <trkpt lat="46.92813" lon="3.05915">
        <ele>166.19999694824</ele>
        <time>2022-10-06T07:51:23.000Z</time>
      </trkpt>
      <trkpt lat="46.92847" lon="3.05931">
        <ele>166.19999694824</ele>
        <time>2022-10-06T07:51:29.000Z</time>
      </trkpt>
      <trkpt lat="46.92889" lon="3.05949">
        <ele>166.19999694824</ele>
        <time>2022-10-06T07:51:35.000Z</time>
      </trkpt>
      <trkpt lat="46.92938" lon="3.05962">
        <ele>166.19999694824</ele>
        <time>2022-10-06T07:51:42.000Z</time>
      </trkpt>
      <trkpt lat="46.92982" lon="3.05972">
        <ele>166.19999694824</ele>
        <time>2022-10-06T07:51:48.000Z</time>
      </trkpt>
      <trkpt lat="46.93019" lon="3.05974">
        <ele>166</ele>
        <time>2022-10-06T07:51:54.000Z</time>
      </trkpt>
      <trkpt lat="46.93064" lon="3.05978">
        <ele>166.19999694824</ele>
        <time>2022-10-06T07:52:02.000Z</time>
      </trkpt>
      <trkpt lat="46.93084" lon="3.05981">
        <ele>166</ele>
        <time>2022-10-06T07:52:05.000Z</time>
      </trkpt>
      <trkpt lat="46.93095" lon="3.05984">
        <ele>166.19999694824</ele>
        <time>2022-10-06T07:52:07.000Z</time>
      </trkpt>
      <trkpt lat="46.93109" lon="3.05987">
        <ele>166.39999389648</ele>
        <time>2022-10-06T07:52:09.000Z</time>
      </trkpt>
      <trkpt lat="46.93139" lon="3.05994">
        <ele>166.39999389648</ele>
        <time>2022-10-06T07:52:13.000Z</time>
      </trkpt>
      <trkpt lat="46.93172" lon="3.06">
        <ele>166.19999694824</ele>
        <time>2022-10-06T07:52:18.000Z</time>
      </trkpt>
      <trkpt lat="46.93228" lon="3.06009">
        <ele>166</ele>
        <time>2022-10-06T07:52:27.000Z</time>
      </trkpt>
      <trkpt lat="46.93233" lon="3.0601">
        <ele>166.19999694824</ele>
        <time>2022-10-06T07:52:28.000Z</time>
      </trkpt>
      <trkpt lat="46.93277" lon="3.06019">
        <ele>166</ele>
        <time>2022-10-06T07:52:35.000Z</time>
      </trkpt>
      <trkpt lat="46.93316" lon="3.06025">
        <ele>166.19999694824</ele>
        <time>2022-10-06T07:52:41.000Z</time>
      </trkpt>
      <trkpt lat="46.93321" lon="3.06026">
        <ele>166.39999389648</ele>
        <time>2022-10-06T07:52:42.000Z</time>
      </trkpt>
      <trkpt lat="46.9334" lon="3.0603">
        <ele>166.39999389648</ele>
        <time>2022-10-06T07:52:45.000Z</time>
      </trkpt>
      <trkpt lat="46.93362" lon="3.06033">
        <ele>166.39999389648</ele>
        <time>2022-10-06T07:52:48.000Z</time>
      </trkpt>
      <trkpt lat="46.93374" lon="3.06033">
        <ele>166.19999694824</ele>
        <time>2022-10-06T07:52:50.000Z</time>
      </trkpt>
      <trkpt lat="46.93382" lon="3.06032">
        <ele>166.19999694824</ele>
        <time>2022-10-06T07:52:51.000Z</time>
      </trkpt>
      <trkpt lat="46.93407" lon="3.06033">
        <ele>166</ele>
        <time>2022-10-06T07:52:55.000Z</time>
      </trkpt>
      <trkpt lat="46.93449" lon="3.0603">
        <ele>166</ele>
        <time>2022-10-06T07:53:01.000Z</time>
      </trkpt>
      <trkpt lat="46.93495" lon="3.06027">
        <ele>166</ele>
        <time>2022-10-06T07:53:08.000Z</time>
      </trkpt>
      <trkpt lat="46.93552" lon="3.06026">
        <ele>165.80000305176</ele>
        <time>2022-10-06T07:53:16.000Z</time>
      </trkpt>
      <trkpt lat="46.93588" lon="3.06023">
        <ele>165.80000305176</ele>
        <time>2022-10-06T07:53:22.000Z</time>
      </trkpt>
      <trkpt lat="46.93617" lon="3.06022">
        <ele>165.80000305176</ele>
        <time>2022-10-06T07:53:27.000Z</time>
      </trkpt>
      <trkpt lat="46.93623" lon="3.0602">
        <ele>165.80000305176</ele>
        <time>2022-10-06T07:53:28.000Z</time>
      </trkpt>
      <trkpt lat="46.93657" lon="3.06008">
        <ele>165.60000610352</ele>
        <time>2022-10-06T07:53:33.000Z</time>
      </trkpt>
      <trkpt lat="46.93664" lon="3.06007">
        <ele>165.39999389648</ele>
        <time>2022-10-06T07:53:34.000Z</time>
      </trkpt>
      <trkpt lat="46.93683" lon="3.06006">
        <ele>164.39999389648</ele>
        <time>2022-10-06T07:53:37.000Z</time>
      </trkpt>
      <trkpt lat="46.93688" lon="3.06008">
        <ele>164</ele>
        <time>2022-10-06T07:53:38.000Z</time>
      </trkpt>
      <trkpt lat="46.93718" lon="3.06017">
        <ele>163.80000305176</ele>
        <time>2022-10-06T07:53:44.000Z</time>
      </trkpt>
      <trkpt lat="46.93723" lon="3.06019">
        <ele>163.80000305176</ele>
        <time>2022-10-06T07:53:45.000Z</time>
      </trkpt>
      <trkpt lat="46.93748" lon="3.06017">
        <ele>164.80000305176</ele>
        <time>2022-10-06T07:53:49.000Z</time>
      </trkpt>
      <trkpt lat="46.93767" lon="3.06017">
        <ele>165.39999389648</ele>
        <time>2022-10-06T07:53:52.000Z</time>
      </trkpt>
      <trkpt lat="46.93783" lon="3.06017">
        <ele>165.60000610352</ele>
        <time>2022-10-06T07:53:54.000Z</time>
      </trkpt>
      <trkpt lat="46.93836" lon="3.06016">
        <ele>165.80000305176</ele>
        <time>2022-10-06T07:54:02.000Z</time>
      </trkpt>
      <trkpt lat="46.93893" lon="3.06015">
        <ele>165.60000610352</ele>
        <time>2022-10-06T07:54:11.000Z</time>
      </trkpt>
      <trkpt lat="46.93899" lon="3.06014">
        <ele>165.60000610352</ele>
        <time>2022-10-06T07:54:12.000Z</time>
      </trkpt>
      <trkpt lat="46.93957" lon="3.06014">
        <ele>165.60000610352</ele>
        <time>2022-10-06T07:54:21.000Z</time>
      </trkpt>
      <trkpt lat="46.9398" lon="3.06019">
        <ele>165.39999389648</ele>
        <time>2022-10-06T07:54:25.000Z</time>
      </trkpt>
      <trkpt lat="46.93987" lon="3.0602">
        <ele>165.39999389648</ele>
        <time>2022-10-06T07:54:26.000Z</time>
      </trkpt>
      <trkpt lat="46.94041" lon="3.06019">
        <ele>165.39999389648</ele>
        <time>2022-10-06T07:54:34.000Z</time>
      </trkpt>
      <trkpt lat="46.9409" lon="3.06018">
        <ele>165.60000610352</ele>
        <time>2022-10-06T07:54:41.000Z</time>
      </trkpt>
      <trkpt lat="46.94109" lon="3.06017">
        <ele>165.60000610352</ele>
        <time>2022-10-06T07:54:44.000Z</time>
      </trkpt>
      <trkpt lat="46.94134" lon="3.06018">
        <ele>165.60000610352</ele>
        <time>2022-10-06T07:54:47.000Z</time>
      </trkpt>
      <trkpt lat="46.94188" lon="3.06014">
        <ele>165.60000610352</ele>
        <time>2022-10-06T07:54:55.000Z</time>
      </trkpt>
      <trkpt lat="46.94226" lon="3.06012">
        <ele>165.60000610352</ele>
        <time>2022-10-06T07:55:01.000Z</time>
      </trkpt>
      <trkpt lat="46.94284" lon="3.06009">
        <ele>165.39999389648</ele>
        <time>2022-10-06T07:55:10.000Z</time>
      </trkpt>
      <trkpt lat="46.9429" lon="3.06009">
        <ele>165.39999389648</ele>
        <time>2022-10-06T07:55:11.000Z</time>
      </trkpt>
      <trkpt lat="46.94312" lon="3.06008">
        <ele>165.39999389648</ele>
        <time>2022-10-06T07:55:14.000Z</time>
      </trkpt>
      <trkpt lat="46.9433" lon="3.06007">
        <ele>165.39999389648</ele>
        <time>2022-10-06T07:55:17.000Z</time>
      </trkpt>
      <trkpt lat="46.94378" lon="3.06007">
        <ele>165.39999389648</ele>
        <time>2022-10-06T07:55:24.000Z</time>
      </trkpt>
      <trkpt lat="46.94439" lon="3.06005">
        <ele>165.39999389648</ele>
        <time>2022-10-06T07:55:33.000Z</time>
      </trkpt>
      <trkpt lat="46.94445" lon="3.06005">
        <ele>165.39999389648</ele>
        <time>2022-10-06T07:55:34.000Z</time>
      </trkpt>
      <trkpt lat="46.94478" lon="3.05996">
        <ele>165.39999389648</ele>
        <time>2022-10-06T07:55:39.000Z</time>
      </trkpt>
      <trkpt lat="46.94484" lon="3.05994">
        <ele>165.39999389648</ele>
        <time>2022-10-06T07:55:40.000Z</time>
      </trkpt>
      <trkpt lat="46.94504" lon="3.05991">
        <ele>165.39999389648</ele>
        <time>2022-10-06T07:55:43.000Z</time>
      </trkpt>
      <trkpt lat="46.94549" lon="3.0599">
        <ele>165.39999389648</ele>
        <time>2022-10-06T07:55:50.000Z</time>
      </trkpt>
      <trkpt lat="46.94578" lon="3.05986">
        <ele>165.39999389648</ele>
        <time>2022-10-06T07:55:55.000Z</time>
      </trkpt>
      <trkpt lat="46.94595" lon="3.05985">
        <ele>165.39999389648</ele>
        <time>2022-10-06T07:56:00.000Z</time>
      </trkpt>
      <trkpt lat="46.94612" lon="3.05986">
        <ele>165.60000610352</ele>
        <time>2022-10-06T07:56:06.000Z</time>
      </trkpt>
      <trkpt lat="46.94636" lon="3.05982">
        <ele>165.19999694824</ele>
        <time>2022-10-06T07:56:10.000Z</time>
      </trkpt>
      <trkpt lat="46.94661" lon="3.05975">
        <ele>164.39999389648</ele>
        <time>2022-10-06T07:56:14.000Z</time>
      </trkpt>
      <trkpt lat="46.94668" lon="3.05974">
        <ele>164.19999694824</ele>
        <time>2022-10-06T07:56:15.000Z</time>
      </trkpt>
      <trkpt lat="46.94694" lon="3.05971">
        <ele>163.39999389648</ele>
        <time>2022-10-06T07:56:19.000Z</time>
      </trkpt>
      <trkpt lat="46.94741" lon="3.05967">
        <ele>162.80000305176</ele>
        <time>2022-10-06T07:56:26.000Z</time>
      </trkpt>
      <trkpt lat="46.94796" lon="3.05961">
        <ele>162.60000610352</ele>
        <time>2022-10-06T07:56:34.000Z</time>
      </trkpt>
      <trkpt lat="46.94855" lon="3.05956">
        <ele>162.60000610352</ele>
        <time>2022-10-06T07:56:43.000Z</time>
      </trkpt>
      <trkpt lat="46.94915" lon="3.05949">
        <ele>162.80000305176</ele>
        <time>2022-10-06T07:56:52.000Z</time>
      </trkpt>
      <trkpt lat="46.9497" lon="3.05945">
        <ele>162.39999389648</ele>
        <time>2022-10-06T07:57:00.000Z</time>
      </trkpt>
      <trkpt lat="46.94977" lon="3.05944">
        <ele>162.39999389648</ele>
        <time>2022-10-06T07:57:01.000Z</time>
      </trkpt>
      <trkpt lat="46.95028" lon="3.0594">
        <ele>162.60000610352</ele>
        <time>2022-10-06T07:57:09.000Z</time>
      </trkpt>
      <trkpt lat="46.95039" lon="3.05939">
        <ele>162.60000610352</ele>
        <time>2022-10-06T07:57:11.000Z</time>
      </trkpt>
      <trkpt lat="46.95065" lon="3.05934">
        <ele>162.60000610352</ele>
        <time>2022-10-06T07:57:15.000Z</time>
      </trkpt>
      <trkpt lat="46.95077" lon="3.05931">
        <ele>162.60000610352</ele>
        <time>2022-10-06T07:57:17.000Z</time>
      </trkpt>
      <trkpt lat="46.95092" lon="3.05932">
        <ele>162.60000610352</ele>
        <time>2022-10-06T07:57:19.000Z</time>
      </trkpt>
      <trkpt lat="46.951" lon="3.05931">
        <ele>162.39999389648</ele>
        <time>2022-10-06T07:57:20.000Z</time>
      </trkpt>
      <trkpt lat="46.95126" lon="3.05929">
        <ele>162.60000610352</ele>
        <time>2022-10-06T07:57:24.000Z</time>
      </trkpt>
      <trkpt lat="46.95138" lon="3.05928">
        <ele>162.60000610352</ele>
        <time>2022-10-06T07:57:26.000Z</time>
      </trkpt>
      <trkpt lat="46.95147" lon="3.05932">
        <ele>162.80000305176</ele>
        <time>2022-10-06T07:57:28.000Z</time>
      </trkpt>
      <trkpt lat="46.95155" lon="3.05945">
        <ele>163.60000610352</ele>
        <time>2022-10-06T07:57:31.000Z</time>
      </trkpt>
      <trkpt lat="46.95165" lon="3.05958">
        <ele>164.60000610352</ele>
        <time>2022-10-06T07:57:34.000Z</time>
      </trkpt>
      <trkpt lat="46.95172" lon="3.05966">
        <ele>164.80000305176</ele>
        <time>2022-10-06T07:57:36.000Z</time>
      </trkpt>
      <trkpt lat="46.95183" lon="3.0598">
        <ele>165.19999694824</ele>
        <time>2022-10-06T07:57:40.000Z</time>
      </trkpt>
      <trkpt lat="46.95184" lon="3.05984">
        <ele>165</ele>
        <time>2022-10-06T07:57:41.000Z</time>
      </trkpt>
      <trkpt lat="46.95176" lon="3.05994">
        <ele>165</ele>
        <time>2022-10-06T07:57:44.000Z</time>
      </trkpt>
      <trkpt lat="46.95164" lon="3.06015">
        <ele>164.60000610352</ele>
        <time>2022-10-06T07:57:47.000Z</time>
      </trkpt>
      <trkpt lat="46.95146" lon="3.06046">
        <ele>163.19999694824</ele>
        <time>2022-10-06T07:57:51.000Z</time>
      </trkpt>
      <trkpt lat="46.95142" lon="3.06054">
        <ele>163</ele>
        <time>2022-10-06T07:57:52.000Z</time>
      </trkpt>
      <trkpt lat="46.95121" lon="3.06094">
        <ele>162.19999694824</ele>
        <time>2022-10-06T07:57:57.000Z</time>
      </trkpt>
      <trkpt lat="46.95112" lon="3.0611">
        <ele>162</ele>
        <time>2022-10-06T07:57:59.000Z</time>
      </trkpt>
      <trkpt lat="46.95078" lon="3.06176">
        <ele>162.19999694824</ele>
        <time>2022-10-06T07:58:07.000Z</time>
      </trkpt>
      <trkpt lat="46.95048" lon="3.06239">
        <ele>162.19999694824</ele>
        <time>2022-10-06T07:58:15.000Z</time>
      </trkpt>
      <trkpt lat="46.95016" lon="3.06303">
        <ele>162.19999694824</ele>
        <time>2022-10-06T07:58:23.000Z</time>
      </trkpt>
      <trkpt lat="46.95012" lon="3.06311">
        <ele>162.19999694824</ele>
        <time>2022-10-06T07:58:24.000Z</time>
      </trkpt>
      <trkpt lat="46.9498" lon="3.06375">
        <ele>162.19999694824</ele>
        <time>2022-10-06T07:58:32.000Z</time>
      </trkpt>
      <trkpt lat="46.94976" lon="3.06383">
        <ele>162.19999694824</ele>
        <time>2022-10-06T07:58:33.000Z</time>
      </trkpt>
      <trkpt lat="46.94945" lon="3.06448">
        <ele>162.19999694824</ele>
        <time>2022-10-06T07:58:41.000Z</time>
      </trkpt>
      <trkpt lat="46.94941" lon="3.06456">
        <ele>162.19999694824</ele>
        <time>2022-10-06T07:58:42.000Z</time>
      </trkpt>
      <trkpt lat="46.94906" lon="3.06527">
        <ele>162.19999694824</ele>
        <time>2022-10-06T07:58:51.000Z</time>
      </trkpt>
      <trkpt lat="46.9487" lon="3.06597">
        <ele>162.39999389648</ele>
        <time>2022-10-06T07:59:00.000Z</time>
      </trkpt>
      <trkpt lat="46.9484" lon="3.06663">
        <ele>162.19999694824</ele>
        <time>2022-10-06T07:59:08.000Z</time>
      </trkpt>
      <trkpt lat="46.94832" lon="3.0668">
        <ele>162.19999694824</ele>
        <time>2022-10-06T07:59:10.000Z</time>
      </trkpt>
      <trkpt lat="46.94799" lon="3.06747">
        <ele>162.19999694824</ele>
        <time>2022-10-06T07:59:18.000Z</time>
      </trkpt>
      <trkpt lat="46.94764" lon="3.06818">
        <ele>162.19999694824</ele>
        <time>2022-10-06T07:59:27.000Z</time>
      </trkpt>
      <trkpt lat="46.9476" lon="3.06826">
        <ele>162</ele>
        <time>2022-10-06T07:59:28.000Z</time>
      </trkpt>
      <trkpt lat="46.94727" lon="3.06894">
        <ele>162.39999389648</ele>
        <time>2022-10-06T07:59:37.000Z</time>
      </trkpt>
      <trkpt lat="46.94707" lon="3.06933">
        <ele>163.19999694824</ele>
        <time>2022-10-06T07:59:44.000Z</time>
      </trkpt>
      <trkpt lat="46.94706" lon="3.06937">
        <ele>163.39999389648</ele>
        <time>2022-10-06T07:59:45.000Z</time>
      </trkpt>
      <trkpt lat="46.94702" lon="3.06947">
        <ele>164.39999389648</ele>
        <time>2022-10-06T07:59:49.000Z</time>
      </trkpt>
      <trkpt lat="46.94692" lon="3.06954">
        <ele>165.19999694824</ele>
        <time>2022-10-06T07:59:54.000Z</time>
      </trkpt>
      <trkpt lat="46.94682" lon="3.06967">
        <ele>165.60000610352</ele>
        <time>2022-10-06T07:59:58.000Z</time>
      </trkpt>
      <trkpt lat="46.94672" lon="3.06987">
        <ele>166.60000610352</ele>
        <time>2022-10-06T08:00:03.000Z</time>
      </trkpt>
      <trkpt lat="46.94669" lon="3.06997">
        <ele>168</ele>
        <time>2022-10-06T08:00:06.000Z</time>
      </trkpt>
      <trkpt lat="46.94662" lon="3.07014">
        <ele>169.39999389648</ele>
        <time>2022-10-06T08:00:10.000Z</time>
      </trkpt>
      <trkpt lat="46.94641" lon="3.07054">
        <ele>170</ele>
        <time>2022-10-06T08:00:18.000Z</time>
      </trkpt>
      <trkpt lat="46.94632" lon="3.0707">
        <ele>170</ele>
        <time>2022-10-06T08:00:23.000Z</time>
      </trkpt>
      <trkpt lat="46.94618" lon="3.07096">
        <ele>170</ele>
        <time>2022-10-06T08:00:29.000Z</time>
      </trkpt>
      <trkpt lat="46.94597" lon="3.07138">
        <ele>169.80000305176</ele>
        <time>2022-10-06T08:00:37.000Z</time>
      </trkpt>
      <trkpt lat="46.94575" lon="3.07184">
        <ele>170</ele>
        <time>2022-10-06T08:00:45.000Z</time>
      </trkpt>
      <trkpt lat="46.94543" lon="3.07251">
        <ele>170.19999694824</ele>
        <time>2022-10-06T08:00:56.000Z</time>
      </trkpt>
      <trkpt lat="46.9454" lon="3.07257">
        <ele>170.19999694824</ele>
        <time>2022-10-06T08:00:57.000Z</time>
      </trkpt>
      <trkpt lat="46.94506" lon="3.07326">
        <ele>170.19999694824</ele>
        <time>2022-10-06T08:01:08.000Z</time>
      </trkpt>
      <trkpt lat="46.94503" lon="3.07332">
        <ele>170.19999694824</ele>
        <time>2022-10-06T08:01:09.000Z</time>
      </trkpt>
      <trkpt lat="46.94481" lon="3.07376">
        <ele>170</ele>
        <time>2022-10-06T08:01:16.000Z</time>
      </trkpt>
      <trkpt lat="46.94475" lon="3.07389">
        <ele>170</ele>
        <time>2022-10-06T08:01:18.000Z</time>
      </trkpt>
      <trkpt lat="46.94451" lon="3.07436">
        <ele>170.39999389648</ele>
        <time>2022-10-06T08:01:26.000Z</time>
      </trkpt>
      <trkpt lat="46.9445" lon="3.07442">
        <ele>170.19999694824</ele>
        <time>2022-10-06T08:01:28.000Z</time>
      </trkpt>
      <trkpt lat="46.9445" lon="3.07442">
        <ele>170.19999694824</ele>
        <time>2022-10-06T08:01:29.000Z</time>
      </trkpt>
      <trkpt lat="46.9445" lon="3.07441">
        <ele>170.19999694824</ele>
        <time>2022-10-06T08:01:35.000Z</time>
      </trkpt>
      <trkpt lat="46.94451" lon="3.07441">
        <ele>170.19999694824</ele>
        <time>2022-10-06T08:01:46.000Z</time>
      </trkpt>
      <trkpt lat="46.94449" lon="3.07445">
        <ele>170.19999694824</ele>
        <time>2022-10-06T08:01:47.000Z</time>
      </trkpt>
      <trkpt lat="46.94443" lon="3.07462">
        <ele>170.19999694824</ele>
        <time>2022-10-06T08:01:51.000Z</time>
      </trkpt>
      <trkpt lat="46.94441" lon="3.07469">
        <ele>170.19999694824</ele>
        <time>2022-10-06T08:01:52.000Z</time>
      </trkpt>
      <trkpt lat="46.94429" lon="3.07493">
        <ele>170.39999389648</ele>
        <time>2022-10-06T08:01:56.000Z</time>
      </trkpt>
      <trkpt lat="46.94413" lon="3.07526">
        <ele>170.39999389648</ele>
        <time>2022-10-06T08:02:01.000Z</time>
      </trkpt>
      <trkpt lat="46.9439" lon="3.07576">
        <ele>170.39999389648</ele>
        <time>2022-10-06T08:02:08.000Z</time>
      </trkpt>
      <trkpt lat="46.94369" lon="3.07619">
        <ele>170.19999694824</ele>
        <time>2022-10-06T08:02:14.000Z</time>
      </trkpt>
      <trkpt lat="46.94345" lon="3.07669">
        <ele>170</ele>
        <time>2022-10-06T08:02:21.000Z</time>
      </trkpt>
      <trkpt lat="46.94325" lon="3.07708">
        <ele>170.39999389648</ele>
        <time>2022-10-06T08:02:27.000Z</time>
      </trkpt>
      <trkpt lat="46.94306" lon="3.07745">
        <ele>170.39999389648</ele>
        <time>2022-10-06T08:02:32.000Z</time>
      </trkpt>
      <trkpt lat="46.9428" lon="3.078">
        <ele>170.19999694824</ele>
        <time>2022-10-06T08:02:39.000Z</time>
      </trkpt>
      <trkpt lat="46.94254" lon="3.07855">
        <ele>170.60000610352</ele>
        <time>2022-10-06T08:02:46.000Z</time>
      </trkpt>
      <trkpt lat="46.94252" lon="3.07862">
        <ele>170.80000305176</ele>
        <time>2022-10-06T08:02:47.000Z</time>
      </trkpt>
      <trkpt lat="46.94249" lon="3.07869">
        <ele>170.80000305176</ele>
        <time>2022-10-06T08:02:48.000Z</time>
      </trkpt>
      <trkpt lat="46.94245" lon="3.07882">
        <ele>171</ele>
        <time>2022-10-06T08:02:50.000Z</time>
      </trkpt>
      <trkpt lat="46.94242" lon="3.07889">
        <ele>171.19999694824</ele>
        <time>2022-10-06T08:02:51.000Z</time>
      </trkpt>
      <trkpt lat="46.94234" lon="3.07902">
        <ele>171.60000610352</ele>
        <time>2022-10-06T08:02:54.000Z</time>
      </trkpt>
      <trkpt lat="46.94232" lon="3.07904">
        <ele>171.80000305176</ele>
        <time>2022-10-06T08:02:55.000Z</time>
      </trkpt>
      <trkpt lat="46.9423" lon="3.07905">
        <ele>172</ele>
        <time>2022-10-06T08:02:56.000Z</time>
      </trkpt>
      <trkpt lat="46.94227" lon="3.07902">
        <ele>172</ele>
        <time>2022-10-06T08:02:57.000Z</time>
      </trkpt>
      <trkpt lat="46.94222" lon="3.07895">
        <ele>172.80000305176</ele>
        <time>2022-10-06T08:02:59.000Z</time>
      </trkpt>
      <trkpt lat="46.9422" lon="3.07891">
        <ele>173.19999694824</ele>
        <time>2022-10-06T08:03:00.000Z</time>
      </trkpt>
      <trkpt lat="46.94202" lon="3.07883">
        <ele>174</ele>
        <time>2022-10-06T08:03:05.000Z</time>
      </trkpt>
      <trkpt lat="46.94196" lon="3.07884">
        <ele>174</ele>
        <time>2022-10-06T08:03:06.000Z</time>
      </trkpt>
      <trkpt lat="46.94184" lon="3.0789">
        <ele>173.80000305176</ele>
        <time>2022-10-06T08:03:08.000Z</time>
      </trkpt>
      <trkpt lat="46.94176" lon="3.07896">
        <ele>173.80000305176</ele>
        <time>2022-10-06T08:03:09.000Z</time>
      </trkpt>
      <trkpt lat="46.94167" lon="3.07911">
        <ele>173.19999694824</ele>
        <time>2022-10-06T08:03:11.000Z</time>
      </trkpt>
      <trkpt lat="46.94161" lon="3.07929">
        <ele>172.19999694824</ele>
        <time>2022-10-06T08:03:13.000Z</time>
      </trkpt>
      <trkpt lat="46.9416" lon="3.07938">
        <ele>171.80000305176</ele>
        <time>2022-10-06T08:03:14.000Z</time>
      </trkpt>
      <trkpt lat="46.9416" lon="3.07948">
        <ele>171.60000610352</ele>
        <time>2022-10-06T08:03:15.000Z</time>
      </trkpt>
      <trkpt lat="46.94163" lon="3.07964">
        <ele>171.19999694824</ele>
        <time>2022-10-06T08:03:17.000Z</time>
      </trkpt>
      <trkpt lat="46.94167" lon="3.07974">
        <ele>171.19999694824</ele>
        <time>2022-10-06T08:03:18.000Z</time>
      </trkpt>
      <trkpt lat="46.94181" lon="3.08004">
        <ele>171</ele>
        <time>2022-10-06T08:03:22.000Z</time>
      </trkpt>
      <trkpt lat="46.94185" lon="3.08011">
        <ele>171</ele>
        <time>2022-10-06T08:03:23.000Z</time>
      </trkpt>
      <trkpt lat="46.94188" lon="3.08019">
        <ele>171</ele>
        <time>2022-10-06T08:03:24.000Z</time>
      </trkpt>
      <trkpt lat="46.94196" lon="3.0804">
        <ele>171</ele>
        <time>2022-10-06T08:03:27.000Z</time>
      </trkpt>
      <trkpt lat="46.94214" lon="3.08086">
        <ele>170.39999389648</ele>
        <time>2022-10-06T08:03:33.000Z</time>
      </trkpt>
      <trkpt lat="46.94243" lon="3.08148">
        <ele>170.60000610352</ele>
        <time>2022-10-06T08:03:41.000Z</time>
      </trkpt>
      <trkpt lat="46.94277" lon="3.08218">
        <ele>170.60000610352</ele>
        <time>2022-10-06T08:03:50.000Z</time>
      </trkpt>
      <trkpt lat="46.94285" lon="3.08233">
        <ele>170.80000305176</ele>
        <time>2022-10-06T08:03:52.000Z</time>
      </trkpt>
      <trkpt lat="46.94319" lon="3.08304">
        <ele>170.60000610352</ele>
        <time>2022-10-06T08:04:01.000Z</time>
      </trkpt>
      <trkpt lat="46.94323" lon="3.08312">
        <ele>170.60000610352</ele>
        <time>2022-10-06T08:04:02.000Z</time>
      </trkpt>
      <trkpt lat="46.94334" lon="3.08347">
        <ele>170.39999389648</ele>
        <time>2022-10-06T08:04:06.000Z</time>
      </trkpt>
      <trkpt lat="46.94335" lon="3.08355">
        <ele>170.60000610352</ele>
        <time>2022-10-06T08:04:07.000Z</time>
      </trkpt>
      <trkpt lat="46.94343" lon="3.08415">
        <ele>171</ele>
        <time>2022-10-06T08:04:14.000Z</time>
      </trkpt>
      <trkpt lat="46.94344" lon="3.0843">
        <ele>171.39999389648</ele>
        <time>2022-10-06T08:04:16.000Z</time>
      </trkpt>
      <trkpt lat="46.9434" lon="3.08442">
        <ele>171.60000610352</ele>
        <time>2022-10-06T08:04:18.000Z</time>
      </trkpt>
      <trkpt lat="46.94331" lon="3.08448">
        <ele>171.60000610352</ele>
        <time>2022-10-06T08:04:20.000Z</time>
      </trkpt>
      <trkpt lat="46.94327" lon="3.08448">
        <ele>171.80000305176</ele>
        <time>2022-10-06T08:04:21.000Z</time>
      </trkpt>
      <trkpt lat="46.94293" lon="3.08446">
        <ele>172</ele>
        <time>2022-10-06T08:04:26.000Z</time>
      </trkpt>
      <trkpt lat="46.94287" lon="3.08448">
        <ele>172</ele>
        <time>2022-10-06T08:04:27.000Z</time>
      </trkpt>
      <trkpt lat="46.94275" lon="3.08454">
        <ele>172</ele>
        <time>2022-10-06T08:04:29.000Z</time>
      </trkpt>
      <trkpt lat="46.9427" lon="3.08457">
        <ele>172.19999694824</ele>
        <time>2022-10-06T08:04:30.000Z</time>
      </trkpt>
      <trkpt lat="46.94264" lon="3.08464">
        <ele>172.19999694824</ele>
        <time>2022-10-06T08:04:31.000Z</time>
      </trkpt>
      <trkpt lat="46.94256" lon="3.08478">
        <ele>172.39999389648</ele>
        <time>2022-10-06T08:04:33.000Z</time>
      </trkpt>
      <trkpt lat="46.94243" lon="3.08513">
        <ele>172.80000305176</ele>
        <time>2022-10-06T08:04:38.000Z</time>
      </trkpt>
      <trkpt lat="46.94241" lon="3.0852">
        <ele>173</ele>
        <time>2022-10-06T08:04:39.000Z</time>
      </trkpt>
      <trkpt lat="46.94236" lon="3.0854">
        <ele>173.80000305176</ele>
        <time>2022-10-06T08:04:42.000Z</time>
      </trkpt>
      <trkpt lat="46.9423" lon="3.08551">
        <ele>174.19999694824</ele>
        <time>2022-10-06T08:04:44.000Z</time>
      </trkpt>
      <trkpt lat="46.9421" lon="3.0857">
        <ele>175.39999389648</ele>
        <time>2022-10-06T08:04:49.000Z</time>
      </trkpt>
      <trkpt lat="46.94185" lon="3.08579">
        <ele>176.60000610352</ele>
        <time>2022-10-06T08:04:54.000Z</time>
      </trkpt>
      <trkpt lat="46.9418" lon="3.08581">
        <ele>176.80000305176</ele>
        <time>2022-10-06T08:04:55.000Z</time>
      </trkpt>
      <trkpt lat="46.94175" lon="3.08581">
        <ele>177</ele>
        <time>2022-10-06T08:04:56.000Z</time>
      </trkpt>
      <trkpt lat="46.9417" lon="3.08582">
        <ele>177</ele>
        <time>2022-10-06T08:04:57.000Z</time>
      </trkpt>
      <trkpt lat="46.9415" lon="3.08578">
        <ele>177.60000610352</ele>
        <time>2022-10-06T08:05:01.000Z</time>
      </trkpt>
      <trkpt lat="46.94145" lon="3.08577">
        <ele>177.60000610352</ele>
        <time>2022-10-06T08:05:02.000Z</time>
      </trkpt>
      <trkpt lat="46.94118" lon="3.08575">
        <ele>178.60000610352</ele>
        <time>2022-10-06T08:05:07.000Z</time>
      </trkpt>
      <trkpt lat="46.94108" lon="3.08575">
        <ele>179</ele>
        <time>2022-10-06T08:05:09.000Z</time>
      </trkpt>
      <trkpt lat="46.94085" lon="3.08579">
        <ele>179.80000305176</ele>
        <time>2022-10-06T08:05:13.000Z</time>
      </trkpt>
      <trkpt lat="46.94061" lon="3.08583">
        <ele>180.19999694824</ele>
        <time>2022-10-06T08:05:17.000Z</time>
      </trkpt>
      <trkpt lat="46.9402" lon="3.08583">
        <ele>180.60000610352</ele>
        <time>2022-10-06T08:05:24.000Z</time>
      </trkpt>
      <trkpt lat="46.94015" lon="3.08581">
        <ele>180.60000610352</ele>
        <time>2022-10-06T08:05:25.000Z</time>
      </trkpt>
      <trkpt lat="46.93998" lon="3.08577">
        <ele>181</ele>
        <time>2022-10-06T08:05:28.000Z</time>
      </trkpt>
      <trkpt lat="46.93982" lon="3.08573">
        <ele>181.80000305176</ele>
        <time>2022-10-06T08:05:31.000Z</time>
      </trkpt>
      <trkpt lat="46.93972" lon="3.08572">
        <ele>182</ele>
        <time>2022-10-06T08:05:33.000Z</time>
      </trkpt>
      <trkpt lat="46.93966" lon="3.08572">
        <ele>182.19999694824</ele>
        <time>2022-10-06T08:05:34.000Z</time>
      </trkpt>
      <trkpt lat="46.9394" lon="3.08579">
        <ele>183.19999694824</ele>
        <time>2022-10-06T08:05:39.000Z</time>
      </trkpt>
      <trkpt lat="46.93935" lon="3.08582">
        <ele>183.19999694824</ele>
        <time>2022-10-06T08:05:40.000Z</time>
      </trkpt>
      <trkpt lat="46.93904" lon="3.08598">
        <ele>184.19999694824</ele>
        <time>2022-10-06T08:05:46.000Z</time>
      </trkpt>
      <trkpt lat="46.93895" lon="3.08605">
        <ele>184.39999389648</ele>
        <time>2022-10-06T08:05:48.000Z</time>
      </trkpt>
      <trkpt lat="46.9386" lon="3.08632">
        <ele>185.39999389648</ele>
        <time>2022-10-06T08:05:55.000Z</time>
      </trkpt>
      <trkpt lat="46.93839" lon="3.08649">
        <ele>185.80000305176</ele>
        <time>2022-10-06T08:05:59.000Z</time>
      </trkpt>
      <trkpt lat="46.93808" lon="3.08674">
        <ele>186.39999389648</ele>
        <time>2022-10-06T08:06:05.000Z</time>
      </trkpt>
      <trkpt lat="46.93782" lon="3.08691">
        <ele>187</ele>
        <time>2022-10-06T08:06:10.000Z</time>
      </trkpt>
      <trkpt lat="46.9375" lon="3.08712">
        <ele>187.60000610352</ele>
        <time>2022-10-06T08:06:16.000Z</time>
      </trkpt>
      <trkpt lat="46.93745" lon="3.08716">
        <ele>187.60000610352</ele>
        <time>2022-10-06T08:06:17.000Z</time>
      </trkpt>
      <trkpt lat="46.93741" lon="3.08719">
        <ele>187.60000610352</ele>
        <time>2022-10-06T08:06:18.000Z</time>
      </trkpt>
      <trkpt lat="46.93707" lon="3.08739">
        <ele>188.19999694824</ele>
        <time>2022-10-06T08:06:24.000Z</time>
      </trkpt>
      <trkpt lat="46.93692" lon="3.08747">
        <ele>188.60000610352</ele>
        <time>2022-10-06T08:06:27.000Z</time>
      </trkpt>
      <trkpt lat="46.93665" lon="3.08759">
        <ele>189</ele>
        <time>2022-10-06T08:06:32.000Z</time>
      </trkpt>
      <trkpt lat="46.93631" lon="3.08768">
        <ele>189.80000305176</ele>
        <time>2022-10-06T08:06:38.000Z</time>
      </trkpt>
      <trkpt lat="46.93616" lon="3.08772">
        <ele>190.19999694824</ele>
        <time>2022-10-06T08:06:41.000Z</time>
      </trkpt>
      <trkpt lat="46.93588" lon="3.08778">
        <ele>191</ele>
        <time>2022-10-06T08:06:46.000Z</time>
      </trkpt>
      <trkpt lat="46.93572" lon="3.08782">
        <ele>191.39999389648</ele>
        <time>2022-10-06T08:06:49.000Z</time>
      </trkpt>
      <trkpt lat="46.93567" lon="3.08783">
        <ele>191.39999389648</ele>
        <time>2022-10-06T08:06:50.000Z</time>
      </trkpt>
      <trkpt lat="46.93541" lon="3.08786">
        <ele>192</ele>
        <time>2022-10-06T08:06:55.000Z</time>
      </trkpt>
      <trkpt lat="46.93505" lon="3.08788">
        <ele>192.80000305176</ele>
        <time>2022-10-06T08:07:02.000Z</time>
      </trkpt>
      <trkpt lat="46.935" lon="3.08788">
        <ele>193</ele>
        <time>2022-10-06T08:07:03.000Z</time>
      </trkpt>
      <trkpt lat="46.93492" lon="3.08789">
        <ele>193</ele>
        <time>2022-10-06T08:07:05.000Z</time>
      </trkpt>
      <trkpt lat="46.93483" lon="3.08788">
        <ele>193</ele>
        <time>2022-10-06T08:07:07.000Z</time>
      </trkpt>
      <trkpt lat="46.93472" lon="3.08787">
        <ele>193</ele>
        <time>2022-10-06T08:07:11.000Z</time>
      </trkpt>
      <trkpt lat="46.93455" lon="3.08795">
        <ele>193.39999389648</ele>
        <time>2022-10-06T08:07:16.000Z</time>
      </trkpt>
      <trkpt lat="46.93439" lon="3.08804">
        <ele>194.19999694824</ele>
        <time>2022-10-06T08:07:20.000Z</time>
      </trkpt>
      <trkpt lat="46.93432" lon="3.08809">
        <ele>194.39999389648</ele>
        <time>2022-10-06T08:07:22.000Z</time>
      </trkpt>
      <trkpt lat="46.93414" lon="3.0882">
        <ele>195.19999694824</ele>
        <time>2022-10-06T08:07:26.000Z</time>
      </trkpt>
      <trkpt lat="46.9341" lon="3.08823">
        <ele>195.39999389648</ele>
        <time>2022-10-06T08:07:27.000Z</time>
      </trkpt>
      <trkpt lat="46.93402" lon="3.0883">
        <ele>195.80000305176</ele>
        <time>2022-10-06T08:07:29.000Z</time>
      </trkpt>
      <trkpt lat="46.93393" lon="3.08836">
        <ele>196</ele>
        <time>2022-10-06T08:07:31.000Z</time>
      </trkpt>
      <trkpt lat="46.93385" lon="3.08845">
        <ele>196.19999694824</ele>
        <time>2022-10-06T08:07:33.000Z</time>
      </trkpt>
      <trkpt lat="46.9338" lon="3.08848">
        <ele>196.39999389648</ele>
        <time>2022-10-06T08:07:34.000Z</time>
      </trkpt>
      <trkpt lat="46.93376" lon="3.08852">
        <ele>196.39999389648</ele>
        <time>2022-10-06T08:07:35.000Z</time>
      </trkpt>
      <trkpt lat="46.93342" lon="3.0888">
        <ele>197.19999694824</ele>
        <time>2022-10-06T08:07:42.000Z</time>
      </trkpt>
      <trkpt lat="46.93301" lon="3.08917">
        <ele>196.80000305176</ele>
        <time>2022-10-06T08:07:50.000Z</time>
      </trkpt>
      <trkpt lat="46.93255" lon="3.08962">
        <ele>196.80000305176</ele>
        <time>2022-10-06T08:07:59.000Z</time>
      </trkpt>
      <trkpt lat="46.93227" lon="3.08995">
        <ele>197.39999389648</ele>
        <time>2022-10-06T08:08:05.000Z</time>
      </trkpt>
      <trkpt lat="46.93218" lon="3.09007">
        <ele>197.19999694824</ele>
        <time>2022-10-06T08:08:07.000Z</time>
      </trkpt>
      <trkpt lat="46.93194" lon="3.09041">
        <ele>197.39999389648</ele>
        <time>2022-10-06T08:08:13.000Z</time>
      </trkpt>
      <trkpt lat="46.93162" lon="3.09085">
        <ele>198</ele>
        <time>2022-10-06T08:08:21.000Z</time>
      </trkpt>
      <trkpt lat="46.93154" lon="3.09096">
        <ele>198.19999694824</ele>
        <time>2022-10-06T08:08:23.000Z</time>
      </trkpt>
      <trkpt lat="46.9313" lon="3.09127">
        <ele>199.39999389648</ele>
        <time>2022-10-06T08:08:29.000Z</time>
      </trkpt>
      <trkpt lat="46.93126" lon="3.09131">
        <ele>199.39999389648</ele>
        <time>2022-10-06T08:08:30.000Z</time>
      </trkpt>
      <trkpt lat="46.93111" lon="3.09152">
        <ele>200.19999694824</ele>
        <time>2022-10-06T08:08:34.000Z</time>
      </trkpt>
      <trkpt lat="46.93103" lon="3.0916">
        <ele>200.60000610352</ele>
        <time>2022-10-06T08:08:36.000Z</time>
      </trkpt>
      <trkpt lat="46.93098" lon="3.09163">
        <ele>200.80000305176</ele>
        <time>2022-10-06T08:08:37.000Z</time>
      </trkpt>
      <trkpt lat="46.93084" lon="3.09169">
        <ele>201.19999694824</ele>
        <time>2022-10-06T08:08:40.000Z</time>
      </trkpt>
      <trkpt lat="46.93078" lon="3.09171">
        <ele>201.39999389648</ele>
        <time>2022-10-06T08:08:41.000Z</time>
      </trkpt>
      <trkpt lat="46.93073" lon="3.09173">
        <ele>201.60000610352</ele>
        <time>2022-10-06T08:08:42.000Z</time>
      </trkpt>
      <trkpt lat="46.93069" lon="3.09176">
        <ele>202</ele>
        <time>2022-10-06T08:08:43.000Z</time>
      </trkpt>
      <trkpt lat="46.93065" lon="3.09179">
        <ele>202.19999694824</ele>
        <time>2022-10-06T08:08:44.000Z</time>
      </trkpt>
      <trkpt lat="46.93061" lon="3.09182">
        <ele>202.39999389648</ele>
        <time>2022-10-06T08:08:45.000Z</time>
      </trkpt>
      <trkpt lat="46.93045" lon="3.09193">
        <ele>202.80000305176</ele>
        <time>2022-10-06T08:08:49.000Z</time>
      </trkpt>
      <trkpt lat="46.93034" lon="3.09198">
        <ele>203</ele>
        <time>2022-10-06T08:08:51.000Z</time>
      </trkpt>
      <trkpt lat="46.93029" lon="3.092">
        <ele>203</ele>
        <time>2022-10-06T08:08:52.000Z</time>
      </trkpt>
      <trkpt lat="46.92996" lon="3.09206">
        <ele>204</ele>
        <time>2022-10-06T08:08:58.000Z</time>
      </trkpt>
      <trkpt lat="46.9299" lon="3.09208">
        <ele>204</ele>
        <time>2022-10-06T08:08:59.000Z</time>
      </trkpt>
      <trkpt lat="46.92986" lon="3.0921">
        <ele>204.19999694824</ele>
        <time>2022-10-06T08:09:00.000Z</time>
      </trkpt>
      <trkpt lat="46.92977" lon="3.09221">
        <ele>204.39999389648</ele>
        <time>2022-10-06T08:09:02.000Z</time>
      </trkpt>
      <trkpt lat="46.92973" lon="3.09228">
        <ele>204.60000610352</ele>
        <time>2022-10-06T08:09:03.000Z</time>
      </trkpt>
      <trkpt lat="46.9297" lon="3.09235">
        <ele>204.60000610352</ele>
        <time>2022-10-06T08:09:04.000Z</time>
      </trkpt>
      <trkpt lat="46.92967" lon="3.09253">
        <ele>204.80000305176</ele>
        <time>2022-10-06T08:09:06.000Z</time>
      </trkpt>
      <trkpt lat="46.92961" lon="3.09315">
        <ele>204.60000610352</ele>
        <time>2022-10-06T08:09:12.000Z</time>
      </trkpt>
      <trkpt lat="46.92955" lon="3.09379">
        <ele>203</ele>
        <time>2022-10-06T08:09:18.000Z</time>
      </trkpt>
      <trkpt lat="46.92952" lon="3.09402">
        <ele>201.80000305176</ele>
        <time>2022-10-06T08:09:20.000Z</time>
      </trkpt>
      <trkpt lat="46.92944" lon="3.09457">
        <ele>200.80000305176</ele>
        <time>2022-10-06T08:09:25.000Z</time>
      </trkpt>
      <trkpt lat="46.92943" lon="3.09467">
        <ele>200.60000610352</ele>
        <time>2022-10-06T08:09:26.000Z</time>
      </trkpt>
      <trkpt lat="46.92943" lon="3.09497">
        <ele>199.80000305176</ele>
        <time>2022-10-06T08:09:29.000Z</time>
      </trkpt>
      <trkpt lat="46.92945" lon="3.09523">
        <ele>199.39999389648</ele>
        <time>2022-10-06T08:09:32.000Z</time>
      </trkpt>
      <trkpt lat="46.92947" lon="3.09538">
        <ele>199.39999389648</ele>
        <time>2022-10-06T08:09:34.000Z</time>
      </trkpt>
      <trkpt lat="46.92947" lon="3.09545">
        <ele>199.39999389648</ele>
        <time>2022-10-06T08:09:35.000Z</time>
      </trkpt>
      <trkpt lat="46.92945" lon="3.09569">
        <ele>200.39999389648</ele>
        <time>2022-10-06T08:09:39.000Z</time>
      </trkpt>
      <trkpt lat="46.92944" lon="3.09574">
        <ele>200.60000610352</ele>
        <time>2022-10-06T08:09:40.000Z</time>
      </trkpt>
      <trkpt lat="46.92941" lon="3.09589">
        <ele>202</ele>
        <time>2022-10-06T08:09:43.000Z</time>
      </trkpt>
      <trkpt lat="46.9294" lon="3.09593">
        <ele>202.39999389648</ele>
        <time>2022-10-06T08:09:44.000Z</time>
      </trkpt>
      <trkpt lat="46.92936" lon="3.09604">
        <ele>203</ele>
        <time>2022-10-06T08:09:46.000Z</time>
      </trkpt>
      <trkpt lat="46.92927" lon="3.09624">
        <ele>204.19999694824</ele>
        <time>2022-10-06T08:09:50.000Z</time>
      </trkpt>
      <trkpt lat="46.92921" lon="3.09639">
        <ele>205.19999694824</ele>
        <time>2022-10-06T08:09:53.000Z</time>
      </trkpt>
      <trkpt lat="46.92911" lon="3.09658">
        <ele>206.39999389648</ele>
        <time>2022-10-06T08:09:57.000Z</time>
      </trkpt>
      <trkpt lat="46.92899" lon="3.09682">
        <ele>207.60000610352</ele>
        <time>2022-10-06T08:10:02.000Z</time>
      </trkpt>
      <trkpt lat="46.92892" lon="3.09697">
        <ele>208.19999694824</ele>
        <time>2022-10-06T08:10:05.000Z</time>
      </trkpt>
      <trkpt lat="46.92885" lon="3.09711">
        <ele>208.60000610352</ele>
        <time>2022-10-06T08:10:08.000Z</time>
      </trkpt>
      <trkpt lat="46.92878" lon="3.09727">
        <ele>209.80000305176</ele>
        <time>2022-10-06T08:10:12.000Z</time>
      </trkpt>
      <trkpt lat="46.92872" lon="3.0974">
        <ele>210.19999694824</ele>
        <time>2022-10-06T08:10:15.000Z</time>
      </trkpt>
      <trkpt lat="46.92868" lon="3.09749">
        <ele>211</ele>
        <time>2022-10-06T08:10:17.000Z</time>
      </trkpt>
      <trkpt lat="46.92857" lon="3.09769">
        <ele>212</ele>
        <time>2022-10-06T08:10:22.000Z</time>
      </trkpt>
      <trkpt lat="46.92853" lon="3.09774">
        <ele>212.19999694824</ele>
        <time>2022-10-06T08:10:23.000Z</time>
      </trkpt>
      <trkpt lat="46.92842" lon="3.09789">
        <ele>213.19999694824</ele>
        <time>2022-10-06T08:10:27.000Z</time>
      </trkpt>
      <trkpt lat="46.92835" lon="3.09795">
        <ele>213.60000610352</ele>
        <time>2022-10-06T08:10:29.000Z</time>
      </trkpt>
      <trkpt lat="46.92823" lon="3.09807">
        <ele>214.19999694824</ele>
        <time>2022-10-06T08:10:33.000Z</time>
      </trkpt>
      <trkpt lat="46.92813" lon="3.09822">
        <ele>215.19999694824</ele>
        <time>2022-10-06T08:10:37.000Z</time>
      </trkpt>
      <trkpt lat="46.92811" lon="3.09826">
        <ele>215.60000610352</ele>
        <time>2022-10-06T08:10:38.000Z</time>
      </trkpt>
      <trkpt lat="46.92803" lon="3.09851">
        <ele>216.80000305176</ele>
        <time>2022-10-06T08:10:43.000Z</time>
      </trkpt>
      <trkpt lat="46.92802" lon="3.09857">
        <ele>217</ele>
        <time>2022-10-06T08:10:44.000Z</time>
      </trkpt>
      <trkpt lat="46.92799" lon="3.09878">
        <ele>218.39999389648</ele>
        <time>2022-10-06T08:10:48.000Z</time>
      </trkpt>
      <trkpt lat="46.92794" lon="3.09898">
        <ele>219</ele>
        <time>2022-10-06T08:10:51.000Z</time>
      </trkpt>
      <trkpt lat="46.9279" lon="3.09922">
        <ele>219.60000610352</ele>
        <time>2022-10-06T08:10:55.000Z</time>
      </trkpt>
      <trkpt lat="46.92787" lon="3.09934">
        <ele>220.80000305176</ele>
        <time>2022-10-06T08:10:57.000Z</time>
      </trkpt>
      <trkpt lat="46.92781" lon="3.09964">
        <ele>222</ele>
        <time>2022-10-06T08:11:02.000Z</time>
      </trkpt>
      <trkpt lat="46.92778" lon="3.09975">
        <ele>222.19999694824</ele>
        <time>2022-10-06T08:11:04.000Z</time>
      </trkpt>
      <trkpt lat="46.92776" lon="3.09986">
        <ele>223</ele>
        <time>2022-10-06T08:11:06.000Z</time>
      </trkpt>
      <trkpt lat="46.92772" lon="3.10003">
        <ele>224.19999694824</ele>
        <time>2022-10-06T08:11:09.000Z</time>
      </trkpt>
      <trkpt lat="46.92767" lon="3.10027">
        <ele>225.19999694824</ele>
        <time>2022-10-06T08:11:14.000Z</time>
      </trkpt>
      <trkpt lat="46.92766" lon="3.10031">
        <ele>225.19999694824</ele>
        <time>2022-10-06T08:11:15.000Z</time>
      </trkpt>
      <trkpt lat="46.92764" lon="3.10047">
        <ele>226.39999389648</ele>
        <time>2022-10-06T08:11:18.000Z</time>
      </trkpt>
      <trkpt lat="46.92759" lon="3.10068">
        <ele>227.60000610352</ele>
        <time>2022-10-06T08:11:22.000Z</time>
      </trkpt>
      <trkpt lat="46.92757" lon="3.10078">
        <ele>228.19999694824</ele>
        <time>2022-10-06T08:11:24.000Z</time>
      </trkpt>
      <trkpt lat="46.92755" lon="3.10089">
        <ele>228.80000305176</ele>
        <time>2022-10-06T08:11:26.000Z</time>
      </trkpt>
      <trkpt lat="46.92753" lon="3.10103">
        <ele>229.80000305176</ele>
        <time>2022-10-06T08:11:29.000Z</time>
      </trkpt>
      <trkpt lat="46.92751" lon="3.10113">
        <ele>230.19999694824</ele>
        <time>2022-10-06T08:11:31.000Z</time>
      </trkpt>
      <trkpt lat="46.92748" lon="3.1013">
        <ele>230.80000305176</ele>
        <time>2022-10-06T08:11:34.000Z</time>
      </trkpt>
      <trkpt lat="46.92743" lon="3.10153">
        <ele>231.39999389648</ele>
        <time>2022-10-06T08:11:38.000Z</time>
      </trkpt>
      <trkpt lat="46.92739" lon="3.10171">
        <ele>232.39999389648</ele>
        <time>2022-10-06T08:11:41.000Z</time>
      </trkpt>
      <trkpt lat="46.92732" lon="3.10196">
        <ele>233</ele>
        <time>2022-10-06T08:11:45.000Z</time>
      </trkpt>
      <trkpt lat="46.9273" lon="3.10208">
        <ele>233.39999389648</ele>
        <time>2022-10-06T08:11:47.000Z</time>
      </trkpt>
      <trkpt lat="46.92723" lon="3.10245">
        <ele>234.60000610352</ele>
        <time>2022-10-06T08:11:53.000Z</time>
      </trkpt>
      <trkpt lat="46.92722" lon="3.10251">
        <ele>234.80000305176</ele>
        <time>2022-10-06T08:11:54.000Z</time>
      </trkpt>
      <trkpt lat="46.92717" lon="3.10278">
        <ele>235.60000610352</ele>
        <time>2022-10-06T08:11:58.000Z</time>
      </trkpt>
      <trkpt lat="46.92714" lon="3.10302">
        <ele>236.39999389648</ele>
        <time>2022-10-06T08:12:02.000Z</time>
      </trkpt>
      <trkpt lat="46.92714" lon="3.10316">
        <ele>236.60000610352</ele>
        <time>2022-10-06T08:12:04.000Z</time>
      </trkpt>
      <trkpt lat="46.92712" lon="3.1035">
        <ele>237.39999389648</ele>
        <time>2022-10-06T08:12:09.000Z</time>
      </trkpt>
      <trkpt lat="46.92712" lon="3.1037">
        <ele>237.80000305176</ele>
        <time>2022-10-06T08:12:12.000Z</time>
      </trkpt>
      <trkpt lat="46.92712" lon="3.104">
        <ele>238.80000305176</ele>
        <time>2022-10-06T08:12:16.000Z</time>
      </trkpt>
      <trkpt lat="46.9271" lon="3.10435">
        <ele>239.60000610352</ele>
        <time>2022-10-06T08:12:21.000Z</time>
      </trkpt>
      <trkpt lat="46.9271" lon="3.10442">
        <ele>239.80000305176</ele>
        <time>2022-10-06T08:12:22.000Z</time>
      </trkpt>
      <trkpt lat="46.9271" lon="3.10485">
        <ele>240.80000305176</ele>
        <time>2022-10-06T08:12:28.000Z</time>
      </trkpt>
      <trkpt lat="46.92711" lon="3.10501">
        <ele>241</ele>
        <time>2022-10-06T08:12:30.000Z</time>
      </trkpt>
      <trkpt lat="46.92712" lon="3.10525">
        <ele>241.80000305176</ele>
        <time>2022-10-06T08:12:33.000Z</time>
      </trkpt>
      <trkpt lat="46.92712" lon="3.10558">
        <ele>242.60000610352</ele>
        <time>2022-10-06T08:12:37.000Z</time>
      </trkpt>
      <trkpt lat="46.92713" lon="3.10566">
        <ele>243</ele>
        <time>2022-10-06T08:12:38.000Z</time>
      </trkpt>
      <trkpt lat="46.92714" lon="3.10582">
        <ele>243.19999694824</ele>
        <time>2022-10-06T08:12:40.000Z</time>
      </trkpt>
      <trkpt lat="46.92716" lon="3.10613">
        <ele>243.80000305176</ele>
        <time>2022-10-06T08:12:44.000Z</time>
      </trkpt>
      <trkpt lat="46.92715" lon="3.10622">
        <ele>244.19999694824</ele>
        <time>2022-10-06T08:12:45.000Z</time>
      </trkpt>
      <trkpt lat="46.92715" lon="3.1067">
        <ele>245</ele>
        <time>2022-10-06T08:12:51.000Z</time>
      </trkpt>
      <trkpt lat="46.92716" lon="3.10678">
        <ele>245.19999694824</ele>
        <time>2022-10-06T08:12:52.000Z</time>
      </trkpt>
      <trkpt lat="46.92723" lon="3.10744">
        <ele>246.19999694824</ele>
        <time>2022-10-06T08:13:00.000Z</time>
      </trkpt>
      <trkpt lat="46.92732" lon="3.10801">
        <ele>247.19999694824</ele>
        <time>2022-10-06T08:13:07.000Z</time>
      </trkpt>
      <trkpt lat="46.92734" lon="3.10817">
        <ele>247.39999389648</ele>
        <time>2022-10-06T08:13:09.000Z</time>
      </trkpt>
      <trkpt lat="46.92736" lon="3.10848">
        <ele>248</ele>
        <time>2022-10-06T08:13:13.000Z</time>
      </trkpt>
      <trkpt lat="46.92737" lon="3.10856">
        <ele>248.39999389648</ele>
        <time>2022-10-06T08:13:14.000Z</time>
      </trkpt>
      <trkpt lat="46.92737" lon="3.10863">
        <ele>248.39999389648</ele>
        <time>2022-10-06T08:13:15.000Z</time>
      </trkpt>
      <trkpt lat="46.92738" lon="3.10887">
        <ele>248.80000305176</ele>
        <time>2022-10-06T08:13:18.000Z</time>
      </trkpt>
      <trkpt lat="46.92737" lon="3.1091">
        <ele>249</ele>
        <time>2022-10-06T08:13:21.000Z</time>
      </trkpt>
      <trkpt lat="46.92738" lon="3.10918">
        <ele>249.19999694824</ele>
        <time>2022-10-06T08:13:22.000Z</time>
      </trkpt>
      <trkpt lat="46.92738" lon="3.10933">
        <ele>249.39999389648</ele>
        <time>2022-10-06T08:13:24.000Z</time>
      </trkpt>
      <trkpt lat="46.92738" lon="3.10951">
        <ele>249.60000610352</ele>
        <time>2022-10-06T08:13:26.000Z</time>
      </trkpt>
      <trkpt lat="46.92739" lon="3.10959">
        <ele>249.60000610352</ele>
        <time>2022-10-06T08:13:27.000Z</time>
      </trkpt>
      <trkpt lat="46.92739" lon="3.10975">
        <ele>249.60000610352</ele>
        <time>2022-10-06T08:13:29.000Z</time>
      </trkpt>
      <trkpt lat="46.92735" lon="3.10986">
        <ele>249.60000610352</ele>
        <time>2022-10-06T08:13:31.000Z</time>
      </trkpt>
      <trkpt lat="46.92725" lon="3.10992">
        <ele>249.39999389648</ele>
        <time>2022-10-06T08:13:33.000Z</time>
      </trkpt>
      <trkpt lat="46.92712" lon="3.10995">
        <ele>249.39999389648</ele>
        <time>2022-10-06T08:13:35.000Z</time>
      </trkpt>
      <trkpt lat="46.9268" lon="3.11002">
        <ele>249</ele>
        <time>2022-10-06T08:13:40.000Z</time>
      </trkpt>
      <trkpt lat="46.92644" lon="3.1101">
        <ele>248.19999694824</ele>
        <time>2022-10-06T08:13:45.000Z</time>
      </trkpt>
      <trkpt lat="46.9263" lon="3.11013">
        <ele>248</ele>
        <time>2022-10-06T08:13:47.000Z</time>
      </trkpt>
      <trkpt lat="46.92571" lon="3.11026">
        <ele>247.39999389648</ele>
        <time>2022-10-06T08:13:55.000Z</time>
      </trkpt>
      <trkpt lat="46.92557" lon="3.1103">
        <ele>247.19999694824</ele>
        <time>2022-10-06T08:13:57.000Z</time>
      </trkpt>
      <trkpt lat="46.92496" lon="3.11042">
        <ele>246.19999694824</ele>
        <time>2022-10-06T08:14:05.000Z</time>
      </trkpt>
      <trkpt lat="46.92442" lon="3.11054">
        <ele>245</ele>
        <time>2022-10-06T08:14:12.000Z</time>
      </trkpt>
      <trkpt lat="46.92427" lon="3.11057">
        <ele>244.80000305176</ele>
        <time>2022-10-06T08:14:14.000Z</time>
      </trkpt>
      <trkpt lat="46.92404" lon="3.11062">
        <ele>244.19999694824</ele>
        <time>2022-10-06T08:14:17.000Z</time>
      </trkpt>
      <trkpt lat="46.92367" lon="3.11073">
        <ele>243.60000610352</ele>
        <time>2022-10-06T08:14:22.000Z</time>
      </trkpt>
      <trkpt lat="46.92353" lon="3.11079">
        <ele>243.19999694824</ele>
        <time>2022-10-06T08:14:24.000Z</time>
      </trkpt>
      <trkpt lat="46.9234" lon="3.11088">
        <ele>243</ele>
        <time>2022-10-06T08:14:26.000Z</time>
      </trkpt>
      <trkpt lat="46.92329" lon="3.11095">
        <ele>242.80000305176</ele>
        <time>2022-10-06T08:14:28.000Z</time>
      </trkpt>
      <trkpt lat="46.92298" lon="3.11119">
        <ele>242.60000610352</ele>
        <time>2022-10-06T08:14:33.000Z</time>
      </trkpt>
      <trkpt lat="46.92283" lon="3.11137">
        <ele>242.80000305176</ele>
        <time>2022-10-06T08:14:36.000Z</time>
      </trkpt>
      <trkpt lat="46.92275" lon="3.11152">
        <ele>243</ele>
        <time>2022-10-06T08:14:38.000Z</time>
      </trkpt>
      <trkpt lat="46.92256" lon="3.11197">
        <ele>243.80000305176</ele>
        <time>2022-10-06T08:14:44.000Z</time>
      </trkpt>
      <trkpt lat="46.92247" lon="3.11219">
        <ele>244.19999694824</ele>
        <time>2022-10-06T08:14:47.000Z</time>
      </trkpt>
      <trkpt lat="46.92231" lon="3.11253">
        <ele>245.39999389648</ele>
        <time>2022-10-06T08:14:52.000Z</time>
      </trkpt>
      <trkpt lat="46.92213" lon="3.11295">
        <ele>246.39999389648</ele>
        <time>2022-10-06T08:14:58.000Z</time>
      </trkpt>
      <trkpt lat="46.9221" lon="3.11303">
        <ele>246.80000305176</ele>
        <time>2022-10-06T08:14:59.000Z</time>
      </trkpt>
      <trkpt lat="46.92208" lon="3.11311">
        <ele>247</ele>
        <time>2022-10-06T08:15:00.000Z</time>
      </trkpt>
      <trkpt lat="46.92202" lon="3.11344">
        <ele>247.39999389648</ele>
        <time>2022-10-06T08:15:04.000Z</time>
      </trkpt>
      <trkpt lat="46.92201" lon="3.11361">
        <ele>247.60000610352</ele>
        <time>2022-10-06T08:15:06.000Z</time>
      </trkpt>
      <trkpt lat="46.922" lon="3.11403">
        <ele>248.60000610352</ele>
        <time>2022-10-06T08:15:11.000Z</time>
      </trkpt>
      <trkpt lat="46.92199" lon="3.11424">
        <ele>249</ele>
        <time>2022-10-06T08:15:14.000Z</time>
      </trkpt>
      <trkpt lat="46.92198" lon="3.11449">
        <ele>249.80000305176</ele>
        <time>2022-10-06T08:15:17.000Z</time>
      </trkpt>
      <trkpt lat="46.92198" lon="3.11457">
        <ele>250</ele>
        <time>2022-10-06T08:15:18.000Z</time>
      </trkpt>
      <trkpt lat="46.92197" lon="3.11472">
        <ele>250.60000610352</ele>
        <time>2022-10-06T08:15:20.000Z</time>
      </trkpt>
      <trkpt lat="46.92197" lon="3.11487">
        <ele>250.80000305176</ele>
        <time>2022-10-06T08:15:22.000Z</time>
      </trkpt>
      <trkpt lat="46.92196" lon="3.11523">
        <ele>251.80000305176</ele>
        <time>2022-10-06T08:15:27.000Z</time>
      </trkpt>
      <trkpt lat="46.92195" lon="3.11531">
        <ele>252.39999389648</ele>
        <time>2022-10-06T08:15:28.000Z</time>
      </trkpt>
      <trkpt lat="46.92195" lon="3.11552">
        <ele>253</ele>
        <time>2022-10-06T08:15:31.000Z</time>
      </trkpt>
      <trkpt lat="46.92194" lon="3.1158">
        <ele>254.19999694824</ele>
        <time>2022-10-06T08:15:35.000Z</time>
      </trkpt>
      <trkpt lat="46.92193" lon="3.11602">
        <ele>255.39999389648</ele>
        <time>2022-10-06T08:15:38.000Z</time>
      </trkpt>
      <trkpt lat="46.92193" lon="3.11629">
        <ele>256.39999389648</ele>
        <time>2022-10-06T08:15:42.000Z</time>
      </trkpt>
      <trkpt lat="46.92192" lon="3.11636">
        <ele>256.79998779297</ele>
        <time>2022-10-06T08:15:43.000Z</time>
      </trkpt>
      <trkpt lat="46.92192" lon="3.11665">
        <ele>257.79998779297</ele>
        <time>2022-10-06T08:15:47.000Z</time>
      </trkpt>
      <trkpt lat="46.92191" lon="3.11693">
        <ele>258.79998779297</ele>
        <time>2022-10-06T08:15:51.000Z</time>
      </trkpt>
      <trkpt lat="46.92187" lon="3.11767">
        <ele>259.20001220703</ele>
        <time>2022-10-06T08:16:00.000Z</time>
      </trkpt>
      <trkpt lat="46.92184" lon="3.11816">
        <ele>258.39999389648</ele>
        <time>2022-10-06T08:16:05.000Z</time>
      </trkpt>
      <trkpt lat="46.92181" lon="3.11859">
        <ele>257.39999389648</ele>
        <time>2022-10-06T08:16:09.000Z</time>
      </trkpt>
      <trkpt lat="46.92177" lon="3.11894">
        <ele>256.60000610352</ele>
        <time>2022-10-06T08:16:12.000Z</time>
      </trkpt>
      <trkpt lat="46.92175" lon="3.11906">
        <ele>256.39999389648</ele>
        <time>2022-10-06T08:16:13.000Z</time>
      </trkpt>
      <trkpt lat="46.9217" lon="3.11942">
        <ele>255.19999694824</ele>
        <time>2022-10-06T08:16:16.000Z</time>
      </trkpt>
      <trkpt lat="46.92168" lon="3.11953">
        <ele>254.60000610352</ele>
        <time>2022-10-06T08:16:17.000Z</time>
      </trkpt>
      <trkpt lat="46.92164" lon="3.11976">
        <ele>254.19999694824</ele>
        <time>2022-10-06T08:16:19.000Z</time>
      </trkpt>
      <trkpt lat="46.92156" lon="3.12021">
        <ele>253</ele>
        <time>2022-10-06T08:16:23.000Z</time>
      </trkpt>
      <trkpt lat="46.9215" lon="3.12055">
        <ele>252</ele>
        <time>2022-10-06T08:16:26.000Z</time>
      </trkpt>
      <trkpt lat="46.92148" lon="3.12067">
        <ele>251.80000305176</ele>
        <time>2022-10-06T08:16:27.000Z</time>
      </trkpt>
      <trkpt lat="46.92145" lon="3.12124">
        <ele>250.80000305176</ele>
        <time>2022-10-06T08:16:32.000Z</time>
      </trkpt>
      <trkpt lat="46.92145" lon="3.12135">
        <ele>250.80000305176</ele>
        <time>2022-10-06T08:16:33.000Z</time>
      </trkpt>
      <trkpt lat="46.92148" lon="3.12204">
        <ele>250.19999694824</ele>
        <time>2022-10-06T08:16:39.000Z</time>
      </trkpt>
      <trkpt lat="46.92159" lon="3.12289">
        <ele>250.19999694824</ele>
        <time>2022-10-06T08:16:47.000Z</time>
      </trkpt>
      <trkpt lat="46.92182" lon="3.12363">
        <ele>251</ele>
        <time>2022-10-06T08:16:55.000Z</time>
      </trkpt>
      <trkpt lat="46.92201" lon="3.12424">
        <ele>251.80000305176</ele>
        <time>2022-10-06T08:17:02.000Z</time>
      </trkpt>
      <trkpt lat="46.92221" lon="3.12492">
        <ele>252</ele>
        <time>2022-10-06T08:17:10.000Z</time>
      </trkpt>
      <trkpt lat="46.92244" lon="3.12553">
        <ele>252.60000610352</ele>
        <time>2022-10-06T08:17:17.000Z</time>
      </trkpt>
      <trkpt lat="46.92257" lon="3.12584">
        <ele>253</ele>
        <time>2022-10-06T08:17:21.000Z</time>
      </trkpt>
      <trkpt lat="46.92275" lon="3.12622">
        <ele>253.19999694824</ele>
        <time>2022-10-06T08:17:26.000Z</time>
      </trkpt>
      <trkpt lat="46.92293" lon="3.1266">
        <ele>254</ele>
        <time>2022-10-06T08:17:31.000Z</time>
      </trkpt>
      <trkpt lat="46.92298" lon="3.12676">
        <ele>254.19999694824</ele>
        <time>2022-10-06T08:17:33.000Z</time>
      </trkpt>
      <trkpt lat="46.92304" lon="3.12703">
        <ele>254.39999389648</ele>
        <time>2022-10-06T08:17:36.000Z</time>
      </trkpt>
      <trkpt lat="46.92306" lon="3.1272">
        <ele>254.39999389648</ele>
        <time>2022-10-06T08:17:38.000Z</time>
      </trkpt>
      <trkpt lat="46.92306" lon="3.12729">
        <ele>254.39999389648</ele>
        <time>2022-10-06T08:17:39.000Z</time>
      </trkpt>
      <trkpt lat="46.92306" lon="3.12774">
        <ele>254.39999389648</ele>
        <time>2022-10-06T08:17:44.000Z</time>
      </trkpt>
      <trkpt lat="46.92306" lon="3.12802">
        <ele>254.19999694824</ele>
        <time>2022-10-06T08:17:47.000Z</time>
      </trkpt>
      <trkpt lat="46.92305" lon="3.12817">
        <ele>254</ele>
        <time>2022-10-06T08:17:49.000Z</time>
      </trkpt>
      <trkpt lat="46.92303" lon="3.12826">
        <ele>253.80000305176</ele>
        <time>2022-10-06T08:17:50.000Z</time>
      </trkpt>
      <trkpt lat="46.92295" lon="3.12836">
        <ele>253.60000610352</ele>
        <time>2022-10-06T08:17:52.000Z</time>
      </trkpt>
      <trkpt lat="46.92274" lon="3.12842">
        <ele>253.19999694824</ele>
        <time>2022-10-06T08:17:55.000Z</time>
      </trkpt>
      <trkpt lat="46.92266" lon="3.12842">
        <ele>253</ele>
        <time>2022-10-06T08:17:56.000Z</time>
      </trkpt>
      <trkpt lat="46.92232" lon="3.12841">
        <ele>251.60000610352</ele>
        <time>2022-10-06T08:18:00.000Z</time>
      </trkpt>
      <trkpt lat="46.92217" lon="3.12842">
        <ele>250.60000610352</ele>
        <time>2022-10-06T08:18:02.000Z</time>
      </trkpt>
      <trkpt lat="46.92207" lon="3.12843">
        <ele>250.39999389648</ele>
        <time>2022-10-06T08:18:03.000Z</time>
      </trkpt>
      <trkpt lat="46.92189" lon="3.12845">
        <ele>249.39999389648</ele>
        <time>2022-10-06T08:18:05.000Z</time>
      </trkpt>
      <trkpt lat="46.9218" lon="3.12845">
        <ele>249</ele>
        <time>2022-10-06T08:18:06.000Z</time>
      </trkpt>
      <trkpt lat="46.92162" lon="3.12845">
        <ele>248.19999694824</ele>
        <time>2022-10-06T08:18:08.000Z</time>
      </trkpt>
      <trkpt lat="46.92152" lon="3.12845">
        <ele>247.60000610352</ele>
        <time>2022-10-06T08:18:09.000Z</time>
      </trkpt>
      <trkpt lat="46.92143" lon="3.12846">
        <ele>247.19999694824</ele>
        <time>2022-10-06T08:18:10.000Z</time>
      </trkpt>
      <trkpt lat="46.92117" lon="3.12851">
        <ele>246.39999389648</ele>
        <time>2022-10-06T08:18:13.000Z</time>
      </trkpt>
      <trkpt lat="46.92109" lon="3.12857">
        <ele>246</ele>
        <time>2022-10-06T08:18:14.000Z</time>
      </trkpt>
      <trkpt lat="46.92101" lon="3.12864">
        <ele>246</ele>
        <time>2022-10-06T08:18:15.000Z</time>
      </trkpt>
      <trkpt lat="46.92091" lon="3.12882">
        <ele>245.39999389648</ele>
        <time>2022-10-06T08:18:17.000Z</time>
      </trkpt>
      <trkpt lat="46.92084" lon="3.12905">
        <ele>244.80000305176</ele>
        <time>2022-10-06T08:18:19.000Z</time>
      </trkpt>
      <trkpt lat="46.92079" lon="3.12927">
        <ele>244.39999389648</ele>
        <time>2022-10-06T08:18:21.000Z</time>
      </trkpt>
      <trkpt lat="46.92069" lon="3.12961">
        <ele>244</ele>
        <time>2022-10-06T08:18:25.000Z</time>
      </trkpt>
      <trkpt lat="46.92065" lon="3.12966">
        <ele>243.80000305176</ele>
        <time>2022-10-06T08:18:26.000Z</time>
      </trkpt>
      <trkpt lat="46.92058" lon="3.12968">
        <ele>243.60000610352</ele>
        <time>2022-10-06T08:18:28.000Z</time>
      </trkpt>
      <trkpt lat="46.92041" lon="3.12953">
        <ele>242.80000305176</ele>
        <time>2022-10-06T08:18:32.000Z</time>
      </trkpt>
      <trkpt lat="46.92008" lon="3.12923">
        <ele>242</ele>
        <time>2022-10-06T08:18:38.000Z</time>
      </trkpt>
      <trkpt lat="46.91994" lon="3.12911">
        <ele>241.19999694824</ele>
        <time>2022-10-06T08:18:40.000Z</time>
      </trkpt>
      <trkpt lat="46.91972" lon="3.1289">
        <ele>240</ele>
        <time>2022-10-06T08:18:43.000Z</time>
      </trkpt>
      <trkpt lat="46.9195" lon="3.12869">
        <ele>238.80000305176</ele>
        <time>2022-10-06T08:18:46.000Z</time>
      </trkpt>
      <trkpt lat="46.91932" lon="3.12853">
        <ele>237.60000610352</ele>
        <time>2022-10-06T08:18:48.000Z</time>
      </trkpt>
      <trkpt lat="46.91923" lon="3.12845">
        <ele>237.19999694824</ele>
        <time>2022-10-06T08:18:49.000Z</time>
      </trkpt>
      <trkpt lat="46.91906" lon="3.12827">
        <ele>236.39999389648</ele>
        <time>2022-10-06T08:18:51.000Z</time>
      </trkpt>
      <trkpt lat="46.91897" lon="3.12819">
        <ele>235.39999389648</ele>
        <time>2022-10-06T08:18:52.000Z</time>
      </trkpt>
      <trkpt lat="46.9187" lon="3.12794">
        <ele>234</ele>
        <time>2022-10-06T08:18:55.000Z</time>
      </trkpt>
      <trkpt lat="46.91852" lon="3.12777">
        <ele>232.60000610352</ele>
        <time>2022-10-06T08:18:57.000Z</time>
      </trkpt>
      <trkpt lat="46.91843" lon="3.12768">
        <ele>231.60000610352</ele>
        <time>2022-10-06T08:18:58.000Z</time>
      </trkpt>
      <trkpt lat="46.91824" lon="3.12751">
        <ele>230.39999389648</ele>
        <time>2022-10-06T08:19:00.000Z</time>
      </trkpt>
      <trkpt lat="46.91805" lon="3.12734">
        <ele>228.39999389648</ele>
        <time>2022-10-06T08:19:02.000Z</time>
      </trkpt>
      <trkpt lat="46.91786" lon="3.12716">
        <ele>227.19999694824</ele>
        <time>2022-10-06T08:19:04.000Z</time>
      </trkpt>
      <trkpt lat="46.91767" lon="3.12699">
        <ele>226.19999694824</ele>
        <time>2022-10-06T08:19:06.000Z</time>
      </trkpt>
      <trkpt lat="46.91748" lon="3.12682">
        <ele>225.19999694824</ele>
        <time>2022-10-06T08:19:08.000Z</time>
      </trkpt>
      <trkpt lat="46.91738" lon="3.12673">
        <ele>224</ele>
        <time>2022-10-06T08:19:09.000Z</time>
      </trkpt>
      <trkpt lat="46.91709" lon="3.12647">
        <ele>222</ele>
        <time>2022-10-06T08:19:12.000Z</time>
      </trkpt>
      <trkpt lat="46.9169" lon="3.12629">
        <ele>221.19999694824</ele>
        <time>2022-10-06T08:19:14.000Z</time>
      </trkpt>
      <trkpt lat="46.9168" lon="3.1262">
        <ele>220.60000610352</ele>
        <time>2022-10-06T08:19:15.000Z</time>
      </trkpt>
      <trkpt lat="46.91661" lon="3.12602">
        <ele>219</ele>
        <time>2022-10-06T08:19:17.000Z</time>
      </trkpt>
      <trkpt lat="46.9164" lon="3.12584">
        <ele>217.60000610352</ele>
        <time>2022-10-06T08:19:19.000Z</time>
      </trkpt>
      <trkpt lat="46.91621" lon="3.12564">
        <ele>216.19999694824</ele>
        <time>2022-10-06T08:19:21.000Z</time>
      </trkpt>
      <trkpt lat="46.91612" lon="3.12553">
        <ele>216</ele>
        <time>2022-10-06T08:19:22.000Z</time>
      </trkpt>
      <trkpt lat="46.91603" lon="3.12542">
        <ele>215.19999694824</ele>
        <time>2022-10-06T08:19:23.000Z</time>
      </trkpt>
      <trkpt lat="46.91594" lon="3.12531">
        <ele>214.19999694824</ele>
        <time>2022-10-06T08:19:24.000Z</time>
      </trkpt>
      <trkpt lat="46.91575" lon="3.12509">
        <ele>213.19999694824</ele>
        <time>2022-10-06T08:19:26.000Z</time>
      </trkpt>
      <trkpt lat="46.91559" lon="3.12487">
        <ele>211.39999389648</ele>
        <time>2022-10-06T08:19:28.000Z</time>
      </trkpt>
      <trkpt lat="46.91542" lon="3.12466">
        <ele>210.19999694824</ele>
        <time>2022-10-06T08:19:30.000Z</time>
      </trkpt>
      <trkpt lat="46.91534" lon="3.12456">
        <ele>209.19999694824</ele>
        <time>2022-10-06T08:19:31.000Z</time>
      </trkpt>
      <trkpt lat="46.91517" lon="3.12436">
        <ele>208.19999694824</ele>
        <time>2022-10-06T08:19:33.000Z</time>
      </trkpt>
      <trkpt lat="46.91508" lon="3.12427">
        <ele>208</ele>
        <time>2022-10-06T08:19:34.000Z</time>
      </trkpt>
      <trkpt lat="46.91489" lon="3.12409">
        <ele>206.80000305176</ele>
        <time>2022-10-06T08:19:36.000Z</time>
      </trkpt>
      <trkpt lat="46.91471" lon="3.12395">
        <ele>205.60000610352</ele>
        <time>2022-10-06T08:19:38.000Z</time>
      </trkpt>
      <trkpt lat="46.91462" lon="3.12389">
        <ele>205.39999389648</ele>
        <time>2022-10-06T08:19:39.000Z</time>
      </trkpt>
      <trkpt lat="46.91444" lon="3.12378">
        <ele>204.19999694824</ele>
        <time>2022-10-06T08:19:41.000Z</time>
      </trkpt>
      <trkpt lat="46.91416" lon="3.12362">
        <ele>203</ele>
        <time>2022-10-06T08:19:44.000Z</time>
      </trkpt>
      <trkpt lat="46.91398" lon="3.12352">
        <ele>202.19999694824</ele>
        <time>2022-10-06T08:19:46.000Z</time>
      </trkpt>
      <trkpt lat="46.9139" lon="3.12348">
        <ele>202</ele>
        <time>2022-10-06T08:19:47.000Z</time>
      </trkpt>
      <trkpt lat="46.91345" lon="3.12324">
        <ele>200.80000305176</ele>
        <time>2022-10-06T08:19:52.000Z</time>
      </trkpt>
      <trkpt lat="46.91338" lon="3.1232">
        <ele>200.60000610352</ele>
        <time>2022-10-06T08:19:53.000Z</time>
      </trkpt>
      <trkpt lat="46.91301" lon="3.12295">
        <ele>200.60000610352</ele>
        <time>2022-10-06T08:19:58.000Z</time>
      </trkpt>
      <trkpt lat="46.9129" lon="3.12279">
        <ele>200.80000305176</ele>
        <time>2022-10-06T08:20:00.000Z</time>
      </trkpt>
      <trkpt lat="46.91287" lon="3.12272">
        <ele>201</ele>
        <time>2022-10-06T08:20:01.000Z</time>
      </trkpt>
      <trkpt lat="46.91283" lon="3.12262">
        <ele>201.19999694824</ele>
        <time>2022-10-06T08:20:02.000Z</time>
      </trkpt>
      <trkpt lat="46.91281" lon="3.12244">
        <ele>201.60000610352</ele>
        <time>2022-10-06T08:20:04.000Z</time>
      </trkpt>
      <trkpt lat="46.9128" lon="3.12234">
        <ele>201.80000305176</ele>
        <time>2022-10-06T08:20:05.000Z</time>
      </trkpt>
      <trkpt lat="46.91281" lon="3.12215">
        <ele>201.80000305176</ele>
        <time>2022-10-06T08:20:07.000Z</time>
      </trkpt>
      <trkpt lat="46.91282" lon="3.12198">
        <ele>202</ele>
        <time>2022-10-06T08:20:09.000Z</time>
      </trkpt>
      <trkpt lat="46.91288" lon="3.12114">
        <ele>201</ele>
        <time>2022-10-06T08:20:17.000Z</time>
      </trkpt>
      <trkpt lat="46.91289" lon="3.12103">
        <ele>200.80000305176</ele>
        <time>2022-10-06T08:20:18.000Z</time>
      </trkpt>
      <trkpt lat="46.91293" lon="3.12035">
        <ele>199.60000610352</ele>
        <time>2022-10-06T08:20:24.000Z</time>
      </trkpt>
      <trkpt lat="46.91294" lon="3.12024">
        <ele>199.60000610352</ele>
        <time>2022-10-06T08:20:25.000Z</time>
      </trkpt>
      <trkpt lat="46.913" lon="3.11947">
        <ele>198.60000610352</ele>
        <time>2022-10-06T08:20:32.000Z</time>
      </trkpt>
      <trkpt lat="46.913" lon="3.11933">
        <ele>198.39999389648</ele>
        <time>2022-10-06T08:20:33.000Z</time>
      </trkpt>
      <trkpt lat="46.91302" lon="3.11873">
        <ele>197.19999694824</ele>
        <time>2022-10-06T08:20:38.000Z</time>
      </trkpt>
      <trkpt lat="46.91301" lon="3.11862">
        <ele>197.19999694824</ele>
        <time>2022-10-06T08:20:39.000Z</time>
      </trkpt>
      <trkpt lat="46.91289" lon="3.11775">
        <ele>197</ele>
        <time>2022-10-06T08:20:47.000Z</time>
      </trkpt>
      <trkpt lat="46.91288" lon="3.11764">
        <ele>197</ele>
        <time>2022-10-06T08:20:48.000Z</time>
      </trkpt>
      <trkpt lat="46.91275" lon="3.11695">
        <ele>197</ele>
        <time>2022-10-06T08:20:55.000Z</time>
      </trkpt>
      <trkpt lat="46.91266" lon="3.11675">
        <ele>197</ele>
        <time>2022-10-06T08:20:57.000Z</time>
      </trkpt>
      <trkpt lat="46.91258" lon="3.11661">
        <ele>196.80000305176</ele>
        <time>2022-10-06T08:20:59.000Z</time>
      </trkpt>
      <trkpt lat="46.91229" lon="3.11617">
        <ele>196.80000305176</ele>
        <time>2022-10-06T08:21:05.000Z</time>
      </trkpt>
      <trkpt lat="46.9119" lon="3.11564">
        <ele>196.60000610352</ele>
        <time>2022-10-06T08:21:12.000Z</time>
      </trkpt>
      <trkpt lat="46.91179" lon="3.1155">
        <ele>196.19999694824</ele>
        <time>2022-10-06T08:21:14.000Z</time>
      </trkpt>
      <trkpt lat="46.91148" lon="3.11506">
        <ele>195</ele>
        <time>2022-10-06T08:21:19.000Z</time>
      </trkpt>
      <trkpt lat="46.91136" lon="3.1149">
        <ele>194.39999389648</ele>
        <time>2022-10-06T08:21:21.000Z</time>
      </trkpt>
      <trkpt lat="46.91125" lon="3.11475">
        <ele>193.60000610352</ele>
        <time>2022-10-06T08:21:23.000Z</time>
      </trkpt>
      <trkpt lat="46.91092" lon="3.1143">
        <ele>192.39999389648</ele>
        <time>2022-10-06T08:21:28.000Z</time>
      </trkpt>
      <trkpt lat="46.91055" lon="3.11378">
        <ele>191.60000610352</ele>
        <time>2022-10-06T08:21:35.000Z</time>
      </trkpt>
      <trkpt lat="46.91049" lon="3.11371">
        <ele>191.39999389648</ele>
        <time>2022-10-06T08:21:36.000Z</time>
      </trkpt>
      <trkpt lat="46.9101" lon="3.11316">
        <ele>191.19999694824</ele>
        <time>2022-10-06T08:21:43.000Z</time>
      </trkpt>
      <trkpt lat="46.91" lon="3.11303">
        <ele>191.19999694824</ele>
        <time>2022-10-06T08:21:45.000Z</time>
      </trkpt>
      <trkpt lat="46.90958" lon="3.11244">
        <ele>191.60000610352</ele>
        <time>2022-10-06T08:21:52.000Z</time>
      </trkpt>
      <trkpt lat="46.9095" lon="3.11232">
        <ele>191.60000610352</ele>
        <time>2022-10-06T08:21:55.000Z</time>
      </trkpt>
      <trkpt lat="46.90901" lon="3.11166">
        <ele>192.19999694824</ele>
        <time>2022-10-06T08:22:04.000Z</time>
      </trkpt>
      <trkpt lat="46.90891" lon="3.11154">
        <ele>192.39999389648</ele>
        <time>2022-10-06T08:22:06.000Z</time>
      </trkpt>
      <trkpt lat="46.90876" lon="3.11142">
        <ele>192.60000610352</ele>
        <time>2022-10-06T08:22:09.000Z</time>
      </trkpt>
      <trkpt lat="46.90869" lon="3.11138">
        <ele>192.80000305176</ele>
        <time>2022-10-06T08:22:10.000Z</time>
      </trkpt>
      <trkpt lat="46.9083" lon="3.11129">
        <ele>193</ele>
        <time>2022-10-06T08:22:17.000Z</time>
      </trkpt>
      <trkpt lat="46.90772" lon="3.11115">
        <ele>192.80000305176</ele>
        <time>2022-10-06T08:22:24.000Z</time>
      </trkpt>
      <trkpt lat="46.90766" lon="3.11114">
        <ele>192.80000305176</ele>
        <time>2022-10-06T08:22:26.000Z</time>
      </trkpt>
      <trkpt lat="46.90706" lon="3.11099">
        <ele>192.39999389648</ele>
        <time>2022-10-06T08:22:33.000Z</time>
      </trkpt>
      <trkpt lat="46.90692" lon="3.11096">
        <ele>191.80000305176</ele>
        <time>2022-10-06T08:22:36.000Z</time>
      </trkpt>
      <trkpt lat="46.90663" lon="3.11089">
        <ele>191.39999389648</ele>
        <time>2022-10-06T08:22:40.000Z</time>
      </trkpt>
      <trkpt lat="46.90641" lon="3.11084">
        <ele>191</ele>
        <time>2022-10-06T08:22:43.000Z</time>
      </trkpt>
      <trkpt lat="46.90623" lon="3.11079">
        <ele>190.60000610352</ele>
        <time>2022-10-06T08:22:45.000Z</time>
      </trkpt>
      <trkpt lat="46.90616" lon="3.11075">
        <ele>190.39999389648</ele>
        <time>2022-10-06T08:22:47.000Z</time>
      </trkpt>
      <trkpt lat="46.90602" lon="3.11066">
        <ele>190</ele>
        <time>2022-10-06T08:22:51.000Z</time>
      </trkpt>
      <trkpt lat="46.90598" lon="3.11062">
        <ele>189.80000305176</ele>
        <time>2022-10-06T08:22:52.000Z</time>
      </trkpt>
      <trkpt lat="46.90576" lon="3.11036">
        <ele>189.80000305176</ele>
        <time>2022-10-06T08:22:58.000Z</time>
      </trkpt>
      <trkpt lat="46.90551" lon="3.11004">
        <ele>190</ele>
        <time>2022-10-06T08:23:02.000Z</time>
      </trkpt>
      <trkpt lat="46.90525" lon="3.10974">
        <ele>190.60000610352</ele>
        <time>2022-10-06T08:23:07.000Z</time>
      </trkpt>
      <trkpt lat="46.90519" lon="3.10966">
        <ele>190.60000610352</ele>
        <time>2022-10-06T08:23:08.000Z</time>
      </trkpt>
      <trkpt lat="46.90479" lon="3.10913">
        <ele>190.60000610352</ele>
        <time>2022-10-06T08:23:16.000Z</time>
      </trkpt>
      <trkpt lat="46.90435" lon="3.10858">
        <ele>191</ele>
        <time>2022-10-06T08:23:24.000Z</time>
      </trkpt>
      <trkpt lat="46.9039" lon="3.10801">
        <ele>191.19999694824</ele>
        <time>2022-10-06T08:23:33.000Z</time>
      </trkpt>
      <trkpt lat="46.90349" lon="3.10749">
        <ele>190.39999389648</ele>
        <time>2022-10-06T08:23:41.000Z</time>
      </trkpt>
      <trkpt lat="46.90342" lon="3.1074">
        <ele>190.39999389648</ele>
        <time>2022-10-06T08:23:42.000Z</time>
      </trkpt>
      <trkpt lat="46.90309" lon="3.10698">
        <ele>189.39999389648</ele>
        <time>2022-10-06T08:23:48.000Z</time>
      </trkpt>
      <trkpt lat="46.90309" lon="3.10698">
        <ele>189.39999389648</ele>
        <time>2022-10-06T08:23:49.000Z</time>
      </trkpt>
      <trkpt lat="46.90265" lon="3.10643">
        <ele>188</ele>
        <time>2022-10-06T08:23:55.000Z</time>
      </trkpt>
      <trkpt lat="46.90253" lon="3.10627">
        <ele>187.80000305176</ele>
        <time>2022-10-06T08:23:57.000Z</time>
      </trkpt>
      <trkpt lat="46.90221" lon="3.10587">
        <ele>187</ele>
        <time>2022-10-06T08:24:02.000Z</time>
      </trkpt>
      <trkpt lat="46.90183" lon="3.10538">
        <ele>186.19999694824</ele>
        <time>2022-10-06T08:24:08.000Z</time>
      </trkpt>
      <trkpt lat="46.90174" lon="3.10518">
        <ele>186</ele>
        <time>2022-10-06T08:24:10.000Z</time>
      </trkpt>
      <trkpt lat="46.90172" lon="3.10509">
        <ele>186</ele>
        <time>2022-10-06T08:24:11.000Z</time>
      </trkpt>
      <trkpt lat="46.9017" lon="3.10485">
        <ele>186</ele>
        <time>2022-10-06T08:24:13.000Z</time>
      </trkpt>
      <trkpt lat="46.90172" lon="3.10471">
        <ele>185.80000305176</ele>
        <time>2022-10-06T08:24:14.000Z</time>
      </trkpt>
      <trkpt lat="46.90178" lon="3.10427">
        <ele>185.19999694824</ele>
        <time>2022-10-06T08:24:18.000Z</time>
      </trkpt>
      <trkpt lat="46.90176" lon="3.10409">
        <ele>185.19999694824</ele>
        <time>2022-10-06T08:24:20.000Z</time>
      </trkpt>
      <trkpt lat="46.90167" lon="3.10391">
        <ele>185.39999389648</ele>
        <time>2022-10-06T08:24:22.000Z</time>
      </trkpt>
      <trkpt lat="46.90162" lon="3.10386">
        <ele>185.39999389648</ele>
        <time>2022-10-06T08:24:23.000Z</time>
      </trkpt>
      <trkpt lat="46.90111" lon="3.10336">
        <ele>185.80000305176</ele>
        <time>2022-10-06T08:24:31.000Z</time>
      </trkpt>
      <trkpt lat="46.90093" lon="3.10318">
        <ele>185.39999389648</ele>
        <time>2022-10-06T08:24:34.000Z</time>
      </trkpt>
      <trkpt lat="46.90072" lon="3.10298">
        <ele>185</ele>
        <time>2022-10-06T08:24:37.000Z</time>
      </trkpt>
      <trkpt lat="46.90047" lon="3.10273">
        <ele>184.60000610352</ele>
        <time>2022-10-06T08:24:41.000Z</time>
      </trkpt>
      <trkpt lat="46.90007" lon="3.10235">
        <ele>184</ele>
        <time>2022-10-06T08:24:47.000Z</time>
      </trkpt>
      <trkpt lat="46.89957" lon="3.10184">
        <ele>182.80000305176</ele>
        <time>2022-10-06T08:24:55.000Z</time>
      </trkpt>
      <trkpt lat="46.8995" lon="3.10178">
        <ele>182.80000305176</ele>
        <time>2022-10-06T08:24:56.000Z</time>
      </trkpt>
      <trkpt lat="46.89928" lon="3.10153">
        <ele>182.39999389648</ele>
        <time>2022-10-06T08:25:00.000Z</time>
      </trkpt>
      <trkpt lat="46.89923" lon="3.10143">
        <ele>182.39999389648</ele>
        <time>2022-10-06T08:25:01.000Z</time>
      </trkpt>
      <trkpt lat="46.89922" lon="3.10136">
        <ele>182.39999389648</ele>
        <time>2022-10-06T08:25:02.000Z</time>
      </trkpt>
      <trkpt lat="46.89918" lon="3.10106">
        <ele>182.60000610352</ele>
        <time>2022-10-06T08:25:05.000Z</time>
      </trkpt>
      <trkpt lat="46.89909" lon="3.10029">
        <ele>183</ele>
        <time>2022-10-06T08:25:13.000Z</time>
      </trkpt>
      <trkpt lat="46.89907" lon="3.10006">
        <ele>183.19999694824</ele>
        <time>2022-10-06T08:25:15.000Z</time>
      </trkpt>
      <trkpt lat="46.89898" lon="3.09924">
        <ele>183.19999694824</ele>
        <time>2022-10-06T08:25:23.000Z</time>
      </trkpt>
      <trkpt lat="46.89893" lon="3.09902">
        <ele>182.80000305176</ele>
        <time>2022-10-06T08:25:25.000Z</time>
      </trkpt>
      <trkpt lat="46.89886" lon="3.09885">
        <ele>182.39999389648</ele>
        <time>2022-10-06T08:25:27.000Z</time>
      </trkpt>
      <trkpt lat="46.89881" lon="3.09874">
        <ele>182.19999694824</ele>
        <time>2022-10-06T08:25:28.000Z</time>
      </trkpt>
      <trkpt lat="46.89868" lon="3.09851">
        <ele>181.80000305176</ele>
        <time>2022-10-06T08:25:31.000Z</time>
      </trkpt>
      <trkpt lat="46.89859" lon="3.09834">
        <ele>181.80000305176</ele>
        <time>2022-10-06T08:25:33.000Z</time>
      </trkpt>
      <trkpt lat="46.89821" lon="3.09766">
        <ele>180.80000305176</ele>
        <time>2022-10-06T08:25:41.000Z</time>
      </trkpt>
      <trkpt lat="46.89816" lon="3.09754">
        <ele>180.80000305176</ele>
        <time>2022-10-06T08:25:42.000Z</time>
      </trkpt>
      <trkpt lat="46.89813" lon="3.09744">
        <ele>180.80000305176</ele>
        <time>2022-10-06T08:25:43.000Z</time>
      </trkpt>
      <trkpt lat="46.8981" lon="3.09734">
        <ele>180.60000610352</ele>
        <time>2022-10-06T08:25:44.000Z</time>
      </trkpt>
      <trkpt lat="46.89806" lon="3.09703">
        <ele>180.39999389648</ele>
        <time>2022-10-06T08:25:47.000Z</time>
      </trkpt>
      <trkpt lat="46.89807" lon="3.09616">
        <ele>179.80000305176</ele>
        <time>2022-10-06T08:25:55.000Z</time>
      </trkpt>
      <trkpt lat="46.89807" lon="3.09594">
        <ele>179.60000610352</ele>
        <time>2022-10-06T08:25:57.000Z</time>
      </trkpt>
      <trkpt lat="46.89807" lon="3.09507">
        <ele>179.39999389648</ele>
        <time>2022-10-06T08:26:05.000Z</time>
      </trkpt>
      <trkpt lat="46.89807" lon="3.09496">
        <ele>179.60000610352</ele>
        <time>2022-10-06T08:26:06.000Z</time>
      </trkpt>
      <trkpt lat="46.89804" lon="3.09412">
        <ele>180</ele>
        <time>2022-10-06T08:26:14.000Z</time>
      </trkpt>
      <trkpt lat="46.89804" lon="3.09377">
        <ele>179.80000305176</ele>
        <time>2022-10-06T08:26:17.000Z</time>
      </trkpt>
      <trkpt lat="46.89807" lon="3.09292">
        <ele>179.60000610352</ele>
        <time>2022-10-06T08:26:25.000Z</time>
      </trkpt>
      <trkpt lat="46.89818" lon="3.0921">
        <ele>179.39999389648</ele>
        <time>2022-10-06T08:26:33.000Z</time>
      </trkpt>
      <trkpt lat="46.89835" lon="3.09127">
        <ele>179.60000610352</ele>
        <time>2022-10-06T08:26:41.000Z</time>
      </trkpt>
      <trkpt lat="46.89842" lon="3.0909">
        <ele>179.80000305176</ele>
        <time>2022-10-06T08:26:45.000Z</time>
      </trkpt>
      <trkpt lat="46.89858" lon="3.09001">
        <ele>180.39999389648</ele>
        <time>2022-10-06T08:26:54.000Z</time>
      </trkpt>
      <trkpt lat="46.89872" lon="3.08924">
        <ele>180.60000610352</ele>
        <time>2022-10-06T08:27:02.000Z</time>
      </trkpt>
      <trkpt lat="46.89879" lon="3.08885">
        <ele>180.60000610352</ele>
        <time>2022-10-06T08:27:06.000Z</time>
      </trkpt>
      <trkpt lat="46.89893" lon="3.08805">
        <ele>180.80000305176</ele>
        <time>2022-10-06T08:27:14.000Z</time>
      </trkpt>
      <trkpt lat="46.89897" lon="3.08787">
        <ele>180.80000305176</ele>
        <time>2022-10-06T08:27:17.000Z</time>
      </trkpt>
      <trkpt lat="46.89908" lon="3.08726">
        <ele>180.80000305176</ele>
        <time>2022-10-06T08:27:22.000Z</time>
      </trkpt>
      <trkpt lat="46.89912" lon="3.08699">
        <ele>181</ele>
        <time>2022-10-06T08:27:26.000Z</time>
      </trkpt>
      <trkpt lat="46.89926" lon="3.08623">
        <ele>181.60000610352</ele>
        <time>2022-10-06T08:27:33.000Z</time>
      </trkpt>
      <trkpt lat="46.89934" lon="3.08577">
        <ele>182</ele>
        <time>2022-10-06T08:27:38.000Z</time>
      </trkpt>
      <trkpt lat="46.89948" lon="3.08505">
        <ele>183</ele>
        <time>2022-10-06T08:27:46.000Z</time>
      </trkpt>
      <trkpt lat="46.89963" lon="3.08415">
        <ele>183.80000305176</ele>
        <time>2022-10-06T08:27:56.000Z</time>
      </trkpt>
      <trkpt lat="46.89968" lon="3.08387">
        <ele>184</ele>
        <time>2022-10-06T08:27:59.000Z</time>
      </trkpt>
      <trkpt lat="46.89983" lon="3.08305">
        <ele>184.60000610352</ele>
        <time>2022-10-06T08:28:08.000Z</time>
      </trkpt>
      <trkpt lat="46.89997" lon="3.08227">
        <ele>184.60000610352</ele>
        <time>2022-10-06T08:28:16.000Z</time>
      </trkpt>
      <trkpt lat="46.90004" lon="3.08188">
        <ele>184.39999389648</ele>
        <time>2022-10-06T08:28:20.000Z</time>
      </trkpt>
      <trkpt lat="46.90018" lon="3.08111">
        <ele>183.80000305176</ele>
        <time>2022-10-06T08:28:28.000Z</time>
      </trkpt>
      <trkpt lat="46.90021" lon="3.08091">
        <ele>183.39999389648</ele>
        <time>2022-10-06T08:28:30.000Z</time>
      </trkpt>
      <trkpt lat="46.90027" lon="3.0805">
        <ele>182.80000305176</ele>
        <time>2022-10-06T08:28:34.000Z</time>
      </trkpt>
      <trkpt lat="46.90038" lon="3.07991">
        <ele>182.19999694824</ele>
        <time>2022-10-06T08:28:40.000Z</time>
      </trkpt>
      <trkpt lat="46.9004" lon="3.07971">
        <ele>181.80000305176</ele>
        <time>2022-10-06T08:28:43.000Z</time>
      </trkpt>
      <trkpt lat="46.90045" lon="3.07923">
        <ele>181.60000610352</ele>
        <time>2022-10-06T08:28:47.000Z</time>
      </trkpt>
      <trkpt lat="46.90047" lon="3.07899">
        <ele>181.60000610352</ele>
        <time>2022-10-06T08:28:50.000Z</time>
      </trkpt>
      <trkpt lat="46.90045" lon="3.07889">
        <ele>181.39999389648</ele>
        <time>2022-10-06T08:28:52.000Z</time>
      </trkpt>
      <trkpt lat="46.90035" lon="3.07888">
        <ele>181.39999389648</ele>
        <time>2022-10-06T08:28:54.000Z</time>
      </trkpt>
      <trkpt lat="46.9003" lon="3.07891">
        <ele>181.39999389648</ele>
        <time>2022-10-06T08:28:55.000Z</time>
      </trkpt>
      <trkpt lat="46.90004" lon="3.07907">
        <ele>181.39999389648</ele>
        <time>2022-10-06T08:28:59.000Z</time>
      </trkpt>
      <trkpt lat="46.89998" lon="3.07909">
        <ele>181.39999389648</ele>
        <time>2022-10-06T08:29:00.000Z</time>
      </trkpt>
      <trkpt lat="46.89945" lon="3.07933">
        <ele>181.80000305176</ele>
        <time>2022-10-06T08:29:08.000Z</time>
      </trkpt>
      <trkpt lat="46.89925" lon="3.07942">
        <ele>182</ele>
        <time>2022-10-06T08:29:11.000Z</time>
      </trkpt>
      <trkpt lat="46.89879" lon="3.07967">
        <ele>182.80000305176</ele>
        <time>2022-10-06T08:29:18.000Z</time>
      </trkpt>
      <trkpt lat="46.89867" lon="3.07978">
        <ele>183</ele>
        <time>2022-10-06T08:29:20.000Z</time>
      </trkpt>
      <trkpt lat="46.89856" lon="3.0799">
        <ele>183.19999694824</ele>
        <time>2022-10-06T08:29:22.000Z</time>
      </trkpt>
      <trkpt lat="46.8984" lon="3.08007">
        <ele>183.39999389648</ele>
        <time>2022-10-06T08:29:25.000Z</time>
      </trkpt>
      <trkpt lat="46.89826" lon="3.08024">
        <ele>184.19999694824</ele>
        <time>2022-10-06T08:29:29.000Z</time>
      </trkpt>
      <trkpt lat="46.89812" lon="3.0804">
        <ele>184.39999389648</ele>
        <time>2022-10-06T08:29:31.000Z</time>
      </trkpt>
      <trkpt lat="46.89781" lon="3.08088">
        <ele>184.80000305176</ele>
        <time>2022-10-06T08:29:38.000Z</time>
      </trkpt>
      <trkpt lat="46.89753" lon="3.08144">
        <ele>183.19999694824</ele>
        <time>2022-10-06T08:29:45.000Z</time>
      </trkpt>
      <trkpt lat="46.89742" lon="3.08159">
        <ele>182.60000610352</ele>
        <time>2022-10-06T08:29:46.000Z</time>
      </trkpt>
      <trkpt lat="46.89727" lon="3.08174">
        <ele>181.80000305176</ele>
        <time>2022-10-06T08:29:48.000Z</time>
      </trkpt>
      <trkpt lat="46.89719" lon="3.0818">
        <ele>181.60000610352</ele>
        <time>2022-10-06T08:29:49.000Z</time>
      </trkpt>
      <trkpt lat="46.89699" lon="3.08189">
        <ele>180.80000305176</ele>
        <time>2022-10-06T08:29:51.000Z</time>
      </trkpt>
      <trkpt lat="46.89686" lon="3.08192">
        <ele>180.19999694824</ele>
        <time>2022-10-06T08:29:52.000Z</time>
      </trkpt>
      <trkpt lat="46.89657" lon="3.08196">
        <ele>178.80000305176</ele>
        <time>2022-10-06T08:29:55.000Z</time>
      </trkpt>
      <trkpt lat="46.89657" lon="3.08196">
        <ele>178.39999389648</ele>
        <time>2022-10-06T08:29:56.000Z</time>
      </trkpt>
      <trkpt lat="46.89637" lon="3.08199">
        <ele>177.39999389648</ele>
        <time>2022-10-06T08:29:57.000Z</time>
      </trkpt>
      <trkpt lat="46.89615" lon="3.08203">
        <ele>176.19999694824</ele>
        <time>2022-10-06T08:29:59.000Z</time>
      </trkpt>
      <trkpt lat="46.89587" lon="3.0821">
        <ele>175</ele>
        <time>2022-10-06T08:30:02.000Z</time>
      </trkpt>
      <trkpt lat="46.89545" lon="3.08224">
        <ele>173.80000305176</ele>
        <time>2022-10-06T08:30:07.000Z</time>
      </trkpt>
      <trkpt lat="46.89537" lon="3.08228">
        <ele>173.80000305176</ele>
        <time>2022-10-06T08:30:08.000Z</time>
      </trkpt>
      <trkpt lat="46.89479" lon="3.08254">
        <ele>173</ele>
        <time>2022-10-06T08:30:15.000Z</time>
      </trkpt>
      <trkpt lat="46.89471" lon="3.08257">
        <ele>173</ele>
        <time>2022-10-06T08:30:16.000Z</time>
      </trkpt>
      <trkpt lat="46.89463" lon="3.08261">
        <ele>172.80000305176</ele>
        <time>2022-10-06T08:30:17.000Z</time>
      </trkpt>
      <trkpt lat="46.89416" lon="3.08287">
        <ele>172.19999694824</ele>
        <time>2022-10-06T08:30:23.000Z</time>
      </trkpt>
      <trkpt lat="46.89403" lon="3.08304">
        <ele>172</ele>
        <time>2022-10-06T08:30:25.000Z</time>
      </trkpt>
      <trkpt lat="46.89398" lon="3.08311">
        <ele>172</ele>
        <time>2022-10-06T08:30:26.000Z</time>
      </trkpt>
      <trkpt lat="46.89393" lon="3.08321">
        <ele>171.80000305176</ele>
        <time>2022-10-06T08:30:28.000Z</time>
      </trkpt>
      <trkpt lat="46.89364" lon="3.08381">
        <ele>171.19999694824</ele>
        <time>2022-10-06T08:30:33.000Z</time>
      </trkpt>
      <trkpt lat="46.89352" lon="3.08395">
        <ele>170.80000305176</ele>
        <time>2022-10-06T08:30:35.000Z</time>
      </trkpt>
      <trkpt lat="46.89344" lon="3.08399">
        <ele>170.80000305176</ele>
        <time>2022-10-06T08:30:36.000Z</time>
      </trkpt>
      <trkpt lat="46.89336" lon="3.08401">
        <ele>170.80000305176</ele>
        <time>2022-10-06T08:30:37.000Z</time>
      </trkpt>
      <trkpt lat="46.89321" lon="3.08397">
        <ele>170.60000610352</ele>
        <time>2022-10-06T08:30:39.000Z</time>
      </trkpt>
      <trkpt lat="46.89306" lon="3.0839">
        <ele>170.39999389648</ele>
        <time>2022-10-06T08:30:41.000Z</time>
      </trkpt>
      <trkpt lat="46.89291" lon="3.08385">
        <ele>170.19999694824</ele>
        <time>2022-10-06T08:30:43.000Z</time>
      </trkpt>
      <trkpt lat="46.89276" lon="3.0839">
        <ele>170.19999694824</ele>
        <time>2022-10-06T08:30:45.000Z</time>
      </trkpt>
      <trkpt lat="46.89269" lon="3.08395">
        <ele>170.19999694824</ele>
        <time>2022-10-06T08:30:46.000Z</time>
      </trkpt>
      <trkpt lat="46.89215" lon="3.08429">
        <ele>170.39999389648</ele>
        <time>2022-10-06T08:30:53.000Z</time>
      </trkpt>
      <trkpt lat="46.89208" lon="3.08433">
        <ele>170.39999389648</ele>
        <time>2022-10-06T08:30:54.000Z</time>
      </trkpt>
      <trkpt lat="46.89173" lon="3.08461">
        <ele>170.60000610352</ele>
        <time>2022-10-06T08:30:59.000Z</time>
      </trkpt>
      <trkpt lat="46.89131" lon="3.08512">
        <ele>170</ele>
        <time>2022-10-06T08:31:06.000Z</time>
      </trkpt>
      <trkpt lat="46.89123" lon="3.08521">
        <ele>170</ele>
        <time>2022-10-06T08:31:07.000Z</time>
      </trkpt>
      <trkpt lat="46.89103" lon="3.08539">
        <ele>169.80000305176</ele>
        <time>2022-10-06T08:31:11.000Z</time>
      </trkpt>
      <trkpt lat="46.89087" lon="3.08551">
        <ele>169.80000305176</ele>
        <time>2022-10-06T08:31:12.000Z</time>
      </trkpt>
      <trkpt lat="46.89079" lon="3.08556">
        <ele>169.60000610352</ele>
        <time>2022-10-06T08:31:13.000Z</time>
      </trkpt>
      <trkpt lat="46.89025" lon="3.08579">
        <ele>169.19999694824</ele>
        <time>2022-10-06T08:31:20.000Z</time>
      </trkpt>
      <trkpt lat="46.88969" lon="3.08599">
        <ele>169</ele>
        <time>2022-10-06T08:31:27.000Z</time>
      </trkpt>
      <trkpt lat="46.88926" lon="3.08615">
        <ele>168.80000305176</ele>
        <time>2022-10-06T08:31:32.000Z</time>
      </trkpt>
      <trkpt lat="46.88918" lon="3.08618">
        <ele>168.80000305176</ele>
        <time>2022-10-06T08:31:33.000Z</time>
      </trkpt>
      <trkpt lat="46.88855" lon="3.08641">
        <ele>168.60000610352</ele>
        <time>2022-10-06T08:31:41.000Z</time>
      </trkpt>
      <trkpt lat="46.88846" lon="3.08645">
        <ele>168.60000610352</ele>
        <time>2022-10-06T08:31:42.000Z</time>
      </trkpt>
      <trkpt lat="46.88792" lon="3.08666">
        <ele>168.19999694824</ele>
        <time>2022-10-06T08:31:49.000Z</time>
      </trkpt>
      <trkpt lat="46.88736" lon="3.08693">
        <ele>168</ele>
        <time>2022-10-06T08:31:56.000Z</time>
      </trkpt>
      <trkpt lat="46.88736" lon="3.08693">
        <ele>167.80000305176</ele>
        <time>2022-10-06T08:31:57.000Z</time>
      </trkpt>
      <trkpt lat="46.88721" lon="3.08704">
        <ele>167.80000305176</ele>
        <time>2022-10-06T08:31:58.000Z</time>
      </trkpt>
      <trkpt lat="46.88678" lon="3.0874">
        <ele>167.60000610352</ele>
        <time>2022-10-06T08:32:04.000Z</time>
      </trkpt>
      <trkpt lat="46.88632" lon="3.08782">
        <ele>167.80000305176</ele>
        <time>2022-10-06T08:32:11.000Z</time>
      </trkpt>
      <trkpt lat="46.88619" lon="3.08794">
        <ele>168</ele>
        <time>2022-10-06T08:32:13.000Z</time>
      </trkpt>
      <trkpt lat="46.8857" lon="3.08834">
        <ele>168.19999694824</ele>
        <time>2022-10-06T08:32:20.000Z</time>
      </trkpt>
      <trkpt lat="46.88541" lon="3.08855">
        <ele>167.80000305176</ele>
        <time>2022-10-06T08:32:24.000Z</time>
      </trkpt>
      <trkpt lat="46.88503" lon="3.0887">
        <ele>167.60000610352</ele>
        <time>2022-10-06T08:32:29.000Z</time>
      </trkpt>
      <trkpt lat="46.88447" lon="3.08881">
        <ele>167.39999389648</ele>
        <time>2022-10-06T08:32:36.000Z</time>
      </trkpt>
      <trkpt lat="46.88434" lon="3.08882">
        <ele>167.60000610352</ele>
        <time>2022-10-06T08:32:38.000Z</time>
      </trkpt>
      <trkpt lat="46.88379" lon="3.08883">
        <ele>167.80000305176</ele>
        <time>2022-10-06T08:32:45.000Z</time>
      </trkpt>
      <trkpt lat="46.88364" lon="3.08886">
        <ele>167.80000305176</ele>
        <time>2022-10-06T08:32:47.000Z</time>
      </trkpt>
      <trkpt lat="46.88349" lon="3.08893">
        <ele>167.60000610352</ele>
        <time>2022-10-06T08:32:49.000Z</time>
      </trkpt>
      <trkpt lat="46.88335" lon="3.08904">
        <ele>167.60000610352</ele>
        <time>2022-10-06T08:32:51.000Z</time>
      </trkpt>
      <trkpt lat="46.88323" lon="3.0892">
        <ele>167.80000305176</ele>
        <time>2022-10-06T08:32:53.000Z</time>
      </trkpt>
      <trkpt lat="46.88313" lon="3.08937">
        <ele>167.80000305176</ele>
        <time>2022-10-06T08:32:55.000Z</time>
      </trkpt>
      <trkpt lat="46.88302" lon="3.08953">
        <ele>168</ele>
        <time>2022-10-06T08:32:57.000Z</time>
      </trkpt>
      <trkpt lat="46.88282" lon="3.08973">
        <ele>168</ele>
        <time>2022-10-06T08:33:00.000Z</time>
      </trkpt>
      <trkpt lat="46.88246" lon="3.08994">
        <ele>168.19999694824</ele>
        <time>2022-10-06T08:33:05.000Z</time>
      </trkpt>
      <trkpt lat="46.88196" lon="3.09028">
        <ele>168.39999389648</ele>
        <time>2022-10-06T08:33:12.000Z</time>
      </trkpt>
      <trkpt lat="46.88182" lon="3.09038">
        <ele>168.60000610352</ele>
        <time>2022-10-06T08:33:14.000Z</time>
      </trkpt>
      <trkpt lat="46.88138" lon="3.09073">
        <ele>168.60000610352</ele>
        <time>2022-10-06T08:33:21.000Z</time>
      </trkpt>
      <trkpt lat="46.8811" lon="3.09095">
        <ele>168.39999389648</ele>
        <time>2022-10-06T08:33:26.000Z</time>
      </trkpt>
      <trkpt lat="46.88104" lon="3.091">
        <ele>168.39999389648</ele>
        <time>2022-10-06T08:33:27.000Z</time>
      </trkpt>
      <trkpt lat="46.88094" lon="3.09112">
        <ele>168.80000305176</ele>
        <time>2022-10-06T08:33:29.000Z</time>
      </trkpt>
      <trkpt lat="46.88089" lon="3.0912">
        <ele>168.80000305176</ele>
        <time>2022-10-06T08:33:30.000Z</time>
      </trkpt>
      <trkpt lat="46.88065" lon="3.09165">
        <ele>169</ele>
        <time>2022-10-06T08:33:36.000Z</time>
      </trkpt>
      <trkpt lat="46.88057" lon="3.0918">
        <ele>169.19999694824</ele>
        <time>2022-10-06T08:33:38.000Z</time>
      </trkpt>
      <trkpt lat="46.88023" lon="3.09243">
        <ele>169.60000610352</ele>
        <time>2022-10-06T08:33:46.000Z</time>
      </trkpt>
      <trkpt lat="46.88019" lon="3.0925">
        <ele>169.60000610352</ele>
        <time>2022-10-06T08:33:47.000Z</time>
      </trkpt>
      <trkpt lat="46.88004" lon="3.09279">
        <ele>170.19999694824</ele>
        <time>2022-10-06T08:33:51.000Z</time>
      </trkpt>
      <trkpt lat="46.87988" lon="3.0931">
        <ele>171</ele>
        <time>2022-10-06T08:33:55.000Z</time>
      </trkpt>
      <trkpt lat="46.8798" lon="3.09325">
        <ele>171.19999694824</ele>
        <time>2022-10-06T08:33:57.000Z</time>
      </trkpt>
      <trkpt lat="46.87952" lon="3.09378">
        <ele>172.19999694824</ele>
        <time>2022-10-06T08:34:04.000Z</time>
      </trkpt>
      <trkpt lat="46.8794" lon="3.09401">
        <ele>172.60000610352</ele>
        <time>2022-10-06T08:34:07.000Z</time>
      </trkpt>
      <trkpt lat="46.87909" lon="3.09461">
        <ele>173.39999389648</ele>
        <time>2022-10-06T08:34:15.000Z</time>
      </trkpt>
      <trkpt lat="46.87897" lon="3.09485">
        <ele>174</ele>
        <time>2022-10-06T08:34:18.000Z</time>
      </trkpt>
      <trkpt lat="46.87886" lon="3.09506">
        <ele>174.60000610352</ele>
        <time>2022-10-06T08:34:21.000Z</time>
      </trkpt>
      <trkpt lat="46.87863" lon="3.09549">
        <ele>175.39999389648</ele>
        <time>2022-10-06T08:34:27.000Z</time>
      </trkpt>
      <trkpt lat="46.8786" lon="3.09557">
        <ele>175.60000610352</ele>
        <time>2022-10-06T08:34:28.000Z</time>
      </trkpt>
      <trkpt lat="46.87829" lon="3.09615">
        <ele>176.80000305176</ele>
        <time>2022-10-06T08:34:36.000Z</time>
      </trkpt>
      <trkpt lat="46.87826" lon="3.09622">
        <ele>176.80000305176</ele>
        <time>2022-10-06T08:34:37.000Z</time>
      </trkpt>
      <trkpt lat="46.87813" lon="3.09653">
        <ele>177.80000305176</ele>
        <time>2022-10-06T08:34:41.000Z</time>
      </trkpt>
      <trkpt lat="46.87793" lon="3.09705">
        <ele>178.80000305176</ele>
        <time>2022-10-06T08:34:48.000Z</time>
      </trkpt>
      <trkpt lat="46.87787" lon="3.09719">
        <ele>178.80000305176</ele>
        <time>2022-10-06T08:34:50.000Z</time>
      </trkpt>
      <trkpt lat="46.87775" lon="3.09748">
        <ele>179.19999694824</ele>
        <time>2022-10-06T08:34:54.000Z</time>
      </trkpt>
      <trkpt lat="46.87765" lon="3.09772">
        <ele>179.80000305176</ele>
        <time>2022-10-06T08:34:59.000Z</time>
      </trkpt>
      <trkpt lat="46.87762" lon="3.09781">
        <ele>180</ele>
        <time>2022-10-06T08:35:00.000Z</time>
      </trkpt>
      <trkpt lat="46.87764" lon="3.09788">
        <ele>180.19999694824</ele>
        <time>2022-10-06T08:35:02.000Z</time>
      </trkpt>
      <trkpt lat="46.87766" lon="3.09791">
        <ele>180.60000610352</ele>
        <time>2022-10-06T08:35:07.000Z</time>
      </trkpt>
      <trkpt lat="46.87767" lon="3.09791">
        <ele>180.60000610352</ele>
        <time>2022-10-06T08:35:16.000Z</time>
      </trkpt>
      <trkpt lat="46.87769" lon="3.09791">
        <ele>180.39999389648</ele>
        <time>2022-10-06T08:35:28.000Z</time>
      </trkpt>
      <trkpt lat="46.87772" lon="3.09793">
        <ele>180.19999694824</ele>
        <time>2022-10-06T08:35:33.000Z</time>
      </trkpt>
      <trkpt lat="46.87777" lon="3.09794">
        <ele>180.19999694824</ele>
        <time>2022-10-06T08:35:39.000Z</time>
      </trkpt>
      <trkpt lat="46.87777" lon="3.09794">
        <ele>180.19999694824</ele>
        <time>2022-10-06T08:35:48.000Z</time>
      </trkpt>
      <trkpt lat="46.87777" lon="3.09794">
        <ele>180.39999389648</ele>
        <time>2022-10-06T08:37:18.000Z</time>
      </trkpt>
      <trkpt lat="46.87777" lon="3.09794">
        <ele>180.19999694824</ele>
        <time>2022-10-06T08:38:37.000Z</time>
      </trkpt>
      <trkpt lat="46.87777" lon="3.09794">
        <ele>180</ele>
        <time>2022-10-06T08:39:58.000Z</time>
      </trkpt>
      <trkpt lat="46.87777" lon="3.09794">
        <ele>180</ele>
        <time>2022-10-06T08:41:10.000Z</time>
      </trkpt>
      <trkpt lat="46.87777" lon="3.09794">
        <ele>179.80000305176</ele>
        <time>2022-10-06T08:42:21.000Z</time>
      </trkpt>
      <trkpt lat="46.87777" lon="3.09794">
        <ele>180.19999694824</ele>
        <time>2022-10-06T08:44:09.000Z</time>
      </trkpt>
      <trkpt lat="46.87777" lon="3.09794">
        <ele>179.39999389648</ele>
        <time>2022-10-06T08:46:58.000Z</time>
      </trkpt>
      <trkpt lat="46.87776" lon="3.09793">
        <ele>179.39999389648</ele>
        <time>2022-10-06T08:47:15.000Z</time>
      </trkpt>
      <trkpt lat="46.87775" lon="3.09793">
        <ele>179.60000610352</ele>
        <time>2022-10-06T08:47:16.000Z</time>
      </trkpt>
      <trkpt lat="46.87768" lon="3.09791">
        <ele>180</ele>
        <time>2022-10-06T08:47:24.000Z</time>
      </trkpt>
      <trkpt lat="46.87768" lon="3.0979">
        <ele>179.80000305176</ele>
        <time>2022-10-06T08:47:28.000Z</time>
      </trkpt>
      <trkpt lat="46.87767" lon="3.09789">
        <ele>180.19999694824</ele>
        <time>2022-10-06T08:47:40.000Z</time>
      </trkpt>
      <trkpt lat="46.87764" lon="3.0979">
        <ele>180</ele>
        <time>2022-10-06T08:47:43.000Z</time>
      </trkpt>
      <trkpt lat="46.87762" lon="3.09792">
        <ele>180.19999694824</ele>
        <time>2022-10-06T08:47:44.000Z</time>
      </trkpt>
      <trkpt lat="46.87752" lon="3.09816">
        <ele>180.19999694824</ele>
        <time>2022-10-06T08:47:50.000Z</time>
      </trkpt>
      <trkpt lat="46.87743" lon="3.0985">
        <ele>180.60000610352</ele>
        <time>2022-10-06T08:47:56.000Z</time>
      </trkpt>
      <trkpt lat="46.87738" lon="3.0987">
        <ele>181</ele>
        <time>2022-10-06T08:47:59.000Z</time>
      </trkpt>
      <trkpt lat="46.87734" lon="3.09883">
        <ele>181.19999694824</ele>
        <time>2022-10-06T08:48:01.000Z</time>
      </trkpt>
      <trkpt lat="46.87726" lon="3.09917">
        <ele>182</ele>
        <time>2022-10-06T08:48:06.000Z</time>
      </trkpt>
      <trkpt lat="46.87719" lon="3.09945">
        <ele>182.60000610352</ele>
        <time>2022-10-06T08:48:10.000Z</time>
      </trkpt>
      <trkpt lat="46.87717" lon="3.09952">
        <ele>182.80000305176</ele>
        <time>2022-10-06T08:48:11.000Z</time>
      </trkpt>
      <trkpt lat="46.87713" lon="3.09965">
        <ele>183</ele>
        <time>2022-10-06T08:48:13.000Z</time>
      </trkpt>
      <trkpt lat="46.87705" lon="3.09993">
        <ele>183.60000610352</ele>
        <time>2022-10-06T08:48:17.000Z</time>
      </trkpt>
      <trkpt lat="46.87689" lon="3.10046">
        <ele>183.80000305176</ele>
        <time>2022-10-06T08:48:24.000Z</time>
      </trkpt>
      <trkpt lat="46.87664" lon="3.10098">
        <ele>184</ele>
        <time>2022-10-06T08:48:31.000Z</time>
      </trkpt>
      <trkpt lat="46.87661" lon="3.10104">
        <ele>184.19999694824</ele>
        <time>2022-10-06T08:48:32.000Z</time>
      </trkpt>
      <trkpt lat="46.87628" lon="3.10155">
        <ele>185</ele>
        <time>2022-10-06T08:48:40.000Z</time>
      </trkpt>
      <trkpt lat="46.87608" lon="3.10187">
        <ele>185.19999694824</ele>
        <time>2022-10-06T08:48:45.000Z</time>
      </trkpt>
      <trkpt lat="46.876" lon="3.10201">
        <ele>185.60000610352</ele>
        <time>2022-10-06T08:48:47.000Z</time>
      </trkpt>
      <trkpt lat="46.87574" lon="3.10252">
        <ele>185.60000610352</ele>
        <time>2022-10-06T08:48:54.000Z</time>
      </trkpt>
      <trkpt lat="46.87549" lon="3.10306">
        <ele>184.80000305176</ele>
        <time>2022-10-06T08:49:00.000Z</time>
      </trkpt>
      <trkpt lat="46.87529" lon="3.10363">
        <ele>184.19999694824</ele>
        <time>2022-10-06T08:49:06.000Z</time>
      </trkpt>
      <trkpt lat="46.87527" lon="3.10374">
        <ele>184</ele>
        <time>2022-10-06T08:49:07.000Z</time>
      </trkpt>
      <trkpt lat="46.87523" lon="3.10427">
        <ele>183.80000305176</ele>
        <time>2022-10-06T08:49:12.000Z</time>
      </trkpt>
      <trkpt lat="46.87516" lon="3.10511">
        <ele>183.19999694824</ele>
        <time>2022-10-06T08:49:20.000Z</time>
      </trkpt>
      <trkpt lat="46.87515" lon="3.10542">
        <ele>183</ele>
        <time>2022-10-06T08:49:23.000Z</time>
      </trkpt>
      <trkpt lat="46.8751" lon="3.10614">
        <ele>183</ele>
        <time>2022-10-06T08:49:30.000Z</time>
      </trkpt>
      <trkpt lat="46.87507" lon="3.10655">
        <ele>183</ele>
        <time>2022-10-06T08:49:34.000Z</time>
      </trkpt>
      <trkpt lat="46.87499" lon="3.10734">
        <ele>183.19999694824</ele>
        <time>2022-10-06T08:49:42.000Z</time>
      </trkpt>
      <trkpt lat="46.87497" lon="3.10741">
        <ele>183.19999694824</ele>
        <time>2022-10-06T08:49:43.000Z</time>
      </trkpt>
      <trkpt lat="46.87495" lon="3.1075">
        <ele>183.19999694824</ele>
        <time>2022-10-06T08:49:44.000Z</time>
      </trkpt>
      <trkpt lat="46.87487" lon="3.10765">
        <ele>183.19999694824</ele>
        <time>2022-10-06T08:49:46.000Z</time>
      </trkpt>
      <trkpt lat="46.87482" lon="3.10772">
        <ele>183.19999694824</ele>
        <time>2022-10-06T08:49:47.000Z</time>
      </trkpt>
      <trkpt lat="46.87476" lon="3.10777">
        <ele>183.19999694824</ele>
        <time>2022-10-06T08:49:48.000Z</time>
      </trkpt>
      <trkpt lat="46.87456" lon="3.10789">
        <ele>183.19999694824</ele>
        <time>2022-10-06T08:49:51.000Z</time>
      </trkpt>
      <trkpt lat="46.87434" lon="3.108">
        <ele>182.80000305176</ele>
        <time>2022-10-06T08:49:54.000Z</time>
      </trkpt>
      <trkpt lat="46.87429" lon="3.10805">
        <ele>182.60000610352</ele>
        <time>2022-10-06T08:49:55.000Z</time>
      </trkpt>
      <trkpt lat="46.87424" lon="3.10812">
        <ele>182.60000610352</ele>
        <time>2022-10-06T08:49:56.000Z</time>
      </trkpt>
      <trkpt lat="46.87417" lon="3.10829">
        <ele>182.39999389648</ele>
        <time>2022-10-06T08:49:58.000Z</time>
      </trkpt>
      <trkpt lat="46.87414" lon="3.10838">
        <ele>182.39999389648</ele>
        <time>2022-10-06T08:49:59.000Z</time>
      </trkpt>
      <trkpt lat="46.87395" lon="3.10909">
        <ele>183.19999694824</ele>
        <time>2022-10-06T08:50:07.000Z</time>
      </trkpt>
      <trkpt lat="46.87375" lon="3.1098">
        <ele>184</ele>
        <time>2022-10-06T08:50:15.000Z</time>
      </trkpt>
      <trkpt lat="46.8737" lon="3.11006">
        <ele>184.19999694824</ele>
        <time>2022-10-06T08:50:18.000Z</time>
      </trkpt>
      <trkpt lat="46.87365" lon="3.1105">
        <ele>184.80000305176</ele>
        <time>2022-10-06T08:50:23.000Z</time>
      </trkpt>
      <trkpt lat="46.87363" lon="3.11077">
        <ele>185.19999694824</ele>
        <time>2022-10-06T08:50:26.000Z</time>
      </trkpt>
      <trkpt lat="46.87353" lon="3.11149">
        <ele>186.19999694824</ele>
        <time>2022-10-06T08:50:34.000Z</time>
      </trkpt>
      <trkpt lat="46.8735" lon="3.11166">
        <ele>186.39999389648</ele>
        <time>2022-10-06T08:50:36.000Z</time>
      </trkpt>
      <trkpt lat="46.8734" lon="3.11209">
        <ele>186.60000610352</ele>
        <time>2022-10-06T08:50:41.000Z</time>
      </trkpt>
      <trkpt lat="46.87326" lon="3.1126">
        <ele>187.19999694824</ele>
        <time>2022-10-06T08:50:47.000Z</time>
      </trkpt>
      <trkpt lat="46.87323" lon="3.11268">
        <ele>187.39999389648</ele>
        <time>2022-10-06T08:50:48.000Z</time>
      </trkpt>
      <trkpt lat="46.87319" lon="3.11276">
        <ele>187.39999389648</ele>
        <time>2022-10-06T08:50:49.000Z</time>
      </trkpt>
      <trkpt lat="46.87309" lon="3.11295">
        <ele>187.60000610352</ele>
        <time>2022-10-06T08:50:52.000Z</time>
      </trkpt>
      <trkpt lat="46.87302" lon="3.11301">
        <ele>187.80000305176</ele>
        <time>2022-10-06T08:50:54.000Z</time>
      </trkpt>
      <trkpt lat="46.87287" lon="3.11301">
        <ele>188</ele>
        <time>2022-10-06T08:50:57.000Z</time>
      </trkpt>
      <trkpt lat="46.87277" lon="3.11307">
        <ele>188</ele>
        <time>2022-10-06T08:50:59.000Z</time>
      </trkpt>
      <trkpt lat="46.87273" lon="3.11312">
        <ele>188</ele>
        <time>2022-10-06T08:51:00.000Z</time>
      </trkpt>
      <trkpt lat="46.87246" lon="3.11351">
        <ele>187.80000305176</ele>
        <time>2022-10-06T08:51:08.000Z</time>
      </trkpt>
      <trkpt lat="46.87239" lon="3.11358">
        <ele>187.80000305176</ele>
        <time>2022-10-06T08:51:10.000Z</time>
      </trkpt>
      <trkpt lat="46.87223" lon="3.1137">
        <ele>187.39999389648</ele>
        <time>2022-10-06T08:51:14.000Z</time>
      </trkpt>
      <trkpt lat="46.87196" lon="3.11387">
        <ele>187</ele>
        <time>2022-10-06T08:51:20.000Z</time>
      </trkpt>
      <trkpt lat="46.87164" lon="3.11407">
        <ele>186.80000305176</ele>
        <time>2022-10-06T08:51:25.000Z</time>
      </trkpt>
      <trkpt lat="46.87138" lon="3.11425">
        <ele>186.39999389648</ele>
        <time>2022-10-06T08:51:29.000Z</time>
      </trkpt>
      <trkpt lat="46.87131" lon="3.11429">
        <ele>186.39999389648</ele>
        <time>2022-10-06T08:51:30.000Z</time>
      </trkpt>
      <trkpt lat="46.8711" lon="3.11443">
        <ele>186</ele>
        <time>2022-10-06T08:51:33.000Z</time>
      </trkpt>
      <trkpt lat="46.87083" lon="3.11461">
        <ele>184.80000305176</ele>
        <time>2022-10-06T08:51:37.000Z</time>
      </trkpt>
      <trkpt lat="46.87045" lon="3.11486">
        <ele>184.19999694824</ele>
        <time>2022-10-06T08:51:42.000Z</time>
      </trkpt>
      <trkpt lat="46.87029" lon="3.11497">
        <ele>183.80000305176</ele>
        <time>2022-10-06T08:51:44.000Z</time>
      </trkpt>
      <trkpt lat="46.86986" lon="3.11519">
        <ele>183</ele>
        <time>2022-10-06T08:51:49.000Z</time>
      </trkpt>
      <trkpt lat="46.86944" lon="3.11538">
        <ele>181.19999694824</ele>
        <time>2022-10-06T08:51:54.000Z</time>
      </trkpt>
      <trkpt lat="46.86909" lon="3.11552">
        <ele>180.19999694824</ele>
        <time>2022-10-06T08:51:58.000Z</time>
      </trkpt>
      <trkpt lat="46.86874" lon="3.11567">
        <ele>179</ele>
        <time>2022-10-06T08:52:02.000Z</time>
      </trkpt>
      <trkpt lat="46.86847" lon="3.11579">
        <ele>177.80000305176</ele>
        <time>2022-10-06T08:52:05.000Z</time>
      </trkpt>
      <trkpt lat="46.86832" lon="3.11585">
        <ele>177.39999389648</ele>
        <time>2022-10-06T08:52:07.000Z</time>
      </trkpt>
      <trkpt lat="46.86806" lon="3.11597">
        <ele>176.80000305176</ele>
        <time>2022-10-06T08:52:10.000Z</time>
      </trkpt>
      <trkpt lat="46.86756" lon="3.11618">
        <ele>175.60000610352</ele>
        <time>2022-10-06T08:52:16.000Z</time>
      </trkpt>
      <trkpt lat="46.86729" lon="3.11629">
        <ele>175.39999389648</ele>
        <time>2022-10-06T08:52:19.000Z</time>
      </trkpt>
      <trkpt lat="46.8667" lon="3.1165">
        <ele>175</ele>
        <time>2022-10-06T08:52:26.000Z</time>
      </trkpt>
      <trkpt lat="46.86655" lon="3.11655">
        <ele>174.60000610352</ele>
        <time>2022-10-06T08:52:28.000Z</time>
      </trkpt>
      <trkpt lat="46.86638" lon="3.11661">
        <ele>174.19999694824</ele>
        <time>2022-10-06T08:52:30.000Z</time>
      </trkpt>
      <trkpt lat="46.8658" lon="3.11681">
        <ele>173.39999389648</ele>
        <time>2022-10-06T08:52:37.000Z</time>
      </trkpt>
      <trkpt lat="46.86564" lon="3.11687">
        <ele>173</ele>
        <time>2022-10-06T08:52:39.000Z</time>
      </trkpt>
      <trkpt lat="46.86521" lon="3.11701">
        <ele>172.39999389648</ele>
        <time>2022-10-06T08:52:44.000Z</time>
      </trkpt>
      <trkpt lat="46.86496" lon="3.1171">
        <ele>172</ele>
        <time>2022-10-06T08:52:47.000Z</time>
      </trkpt>
      <trkpt lat="46.8644" lon="3.11728">
        <ele>171.60000610352</ele>
        <time>2022-10-06T08:52:54.000Z</time>
      </trkpt>
      <trkpt lat="46.86432" lon="3.1173">
        <ele>171.39999389648</ele>
        <time>2022-10-06T08:52:55.000Z</time>
      </trkpt>
      <trkpt lat="46.86417" lon="3.11734">
        <ele>171.39999389648</ele>
        <time>2022-10-06T08:52:57.000Z</time>
      </trkpt>
      <trkpt lat="46.86383" lon="3.11742">
        <ele>171.19999694824</ele>
        <time>2022-10-06T08:53:02.000Z</time>
      </trkpt>
      <trkpt lat="46.86371" lon="3.11744">
        <ele>171.19999694824</ele>
        <time>2022-10-06T08:53:04.000Z</time>
      </trkpt>
      <trkpt lat="46.86363" lon="3.11745">
        <ele>171</ele>
        <time>2022-10-06T08:53:06.000Z</time>
      </trkpt>
      <trkpt lat="46.86343" lon="3.11756">
        <ele>171</ele>
        <time>2022-10-06T08:53:11.000Z</time>
      </trkpt>
      <trkpt lat="46.86319" lon="3.1177">
        <ele>171</ele>
        <time>2022-10-06T08:53:15.000Z</time>
      </trkpt>
      <trkpt lat="46.86306" lon="3.11778">
        <ele>171</ele>
        <time>2022-10-06T08:53:17.000Z</time>
      </trkpt>
      <trkpt lat="46.86274" lon="3.11791">
        <ele>171.19999694824</ele>
        <time>2022-10-06T08:53:22.000Z</time>
      </trkpt>
      <trkpt lat="46.86214" lon="3.11806">
        <ele>171.60000610352</ele>
        <time>2022-10-06T08:53:31.000Z</time>
      </trkpt>
      <trkpt lat="46.86207" lon="3.11808">
        <ele>171.60000610352</ele>
        <time>2022-10-06T08:53:32.000Z</time>
      </trkpt>
      <trkpt lat="46.86154" lon="3.1182">
        <ele>171.80000305176</ele>
        <time>2022-10-06T08:53:40.000Z</time>
      </trkpt>
      <trkpt lat="46.86125" lon="3.11825">
        <ele>172</ele>
        <time>2022-10-06T08:53:44.000Z</time>
      </trkpt>
      <trkpt lat="46.8607" lon="3.11836">
        <ele>172.19999694824</ele>
        <time>2022-10-06T08:53:52.000Z</time>
      </trkpt>
      <trkpt lat="46.8605" lon="3.1184">
        <ele>172.19999694824</ele>
        <time>2022-10-06T08:53:55.000Z</time>
      </trkpt>
      <trkpt lat="46.86029" lon="3.11843">
        <ele>172.39999389648</ele>
        <time>2022-10-06T08:53:58.000Z</time>
      </trkpt>
      <trkpt lat="46.85974" lon="3.1185">
        <ele>173</ele>
        <time>2022-10-06T08:54:06.000Z</time>
      </trkpt>
      <trkpt lat="46.85961" lon="3.11851">
        <ele>173</ele>
        <time>2022-10-06T08:54:08.000Z</time>
      </trkpt>
      <trkpt lat="46.85927" lon="3.11852">
        <ele>173.39999389648</ele>
        <time>2022-10-06T08:54:13.000Z</time>
      </trkpt>
      <trkpt lat="46.85893" lon="3.11853">
        <ele>174</ele>
        <time>2022-10-06T08:54:18.000Z</time>
      </trkpt>
      <trkpt lat="46.85853" lon="3.11855">
        <ele>174.39999389648</ele>
        <time>2022-10-06T08:54:24.000Z</time>
      </trkpt>
      <trkpt lat="46.85842" lon="3.11854">
        <ele>174.80000305176</ele>
        <time>2022-10-06T08:54:26.000Z</time>
      </trkpt>
      <trkpt lat="46.85835" lon="3.11851">
        <ele>174.80000305176</ele>
        <time>2022-10-06T08:54:27.000Z</time>
      </trkpt>
      <trkpt lat="46.85831" lon="3.11846">
        <ele>175</ele>
        <time>2022-10-06T08:54:28.000Z</time>
      </trkpt>
      <trkpt lat="46.85826" lon="3.11833">
        <ele>175</ele>
        <time>2022-10-06T08:54:30.000Z</time>
      </trkpt>
      <trkpt lat="46.85818" lon="3.11774">
        <ele>175.19999694824</ele>
        <time>2022-10-06T08:54:36.000Z</time>
      </trkpt>
      <trkpt lat="46.85809" lon="3.11693">
        <ele>174.80000305176</ele>
        <time>2022-10-06T08:54:44.000Z</time>
      </trkpt>
      <trkpt lat="46.85807" lon="3.11683">
        <ele>174.80000305176</ele>
        <time>2022-10-06T08:54:45.000Z</time>
      </trkpt>
      <trkpt lat="46.85796" lon="3.11601">
        <ele>174.80000305176</ele>
        <time>2022-10-06T08:54:53.000Z</time>
      </trkpt>
      <trkpt lat="46.85794" lon="3.11582">
        <ele>174.80000305176</ele>
        <time>2022-10-06T08:54:55.000Z</time>
      </trkpt>
      <trkpt lat="46.85783" lon="3.115">
        <ele>174.60000610352</ele>
        <time>2022-10-06T08:55:03.000Z</time>
      </trkpt>
      <trkpt lat="46.85776" lon="3.11449">
        <ele>174.39999389648</ele>
        <time>2022-10-06T08:55:08.000Z</time>
      </trkpt>
      <trkpt lat="46.85765" lon="3.11368">
        <ele>174.19999694824</ele>
        <time>2022-10-06T08:55:16.000Z</time>
      </trkpt>
      <trkpt lat="46.85759" lon="3.11315">
        <ele>174</ele>
        <time>2022-10-06T08:55:21.000Z</time>
      </trkpt>
      <trkpt lat="46.85754" lon="3.11239">
        <ele>173.80000305176</ele>
        <time>2022-10-06T08:55:28.000Z</time>
      </trkpt>
      <trkpt lat="46.85749" lon="3.11155">
        <ele>173.60000610352</ele>
        <time>2022-10-06T08:55:36.000Z</time>
      </trkpt>
      <trkpt lat="46.85748" lon="3.11134">
        <ele>173.39999389648</ele>
        <time>2022-10-06T08:55:38.000Z</time>
      </trkpt>
      <trkpt lat="46.85746" lon="3.11113">
        <ele>173.39999389648</ele>
        <time>2022-10-06T08:55:40.000Z</time>
      </trkpt>
      <trkpt lat="46.85741" lon="3.1103">
        <ele>172.80000305176</ele>
        <time>2022-10-06T08:55:48.000Z</time>
      </trkpt>
      <trkpt lat="46.85739" lon="3.10987">
        <ele>172.80000305176</ele>
        <time>2022-10-06T08:55:52.000Z</time>
      </trkpt>
      <trkpt lat="46.85734" lon="3.10901">
        <ele>172.60000610352</ele>
        <time>2022-10-06T08:56:00.000Z</time>
      </trkpt>
      <trkpt lat="46.85732" lon="3.10869">
        <ele>172.39999389648</ele>
        <time>2022-10-06T08:56:03.000Z</time>
      </trkpt>
      <trkpt lat="46.85726" lon="3.10784">
        <ele>172.19999694824</ele>
        <time>2022-10-06T08:56:11.000Z</time>
      </trkpt>
      <trkpt lat="46.85724" lon="3.10754">
        <ele>172.19999694824</ele>
        <time>2022-10-06T08:56:14.000Z</time>
      </trkpt>
      <trkpt lat="46.85711" lon="3.1067">
        <ele>171.39999389648</ele>
        <time>2022-10-06T08:56:22.000Z</time>
      </trkpt>
      <trkpt lat="46.85709" lon="3.10659">
        <ele>171.39999389648</ele>
        <time>2022-10-06T08:56:23.000Z</time>
      </trkpt>
      <trkpt lat="46.85692" lon="3.10576">
        <ele>170.80000305176</ele>
        <time>2022-10-06T08:56:31.000Z</time>
      </trkpt>
      <trkpt lat="46.85688" lon="3.10553">
        <ele>170.60000610352</ele>
        <time>2022-10-06T08:56:33.000Z</time>
      </trkpt>
      <trkpt lat="46.85686" lon="3.10542">
        <ele>170.60000610352</ele>
        <time>2022-10-06T08:56:34.000Z</time>
      </trkpt>
      <trkpt lat="46.85673" lon="3.1048">
        <ele>170.39999389648</ele>
        <time>2022-10-06T08:56:40.000Z</time>
      </trkpt>
      <trkpt lat="46.85665" lon="3.10441">
        <ele>170.39999389648</ele>
        <time>2022-10-06T08:56:44.000Z</time>
      </trkpt>
      <trkpt lat="46.85648" lon="3.1036">
        <ele>170.19999694824</ele>
        <time>2022-10-06T08:56:52.000Z</time>
      </trkpt>
      <trkpt lat="46.85644" lon="3.1034">
        <ele>170.19999694824</ele>
        <time>2022-10-06T08:56:54.000Z</time>
      </trkpt>
      <trkpt lat="46.85627" lon="3.10256">
        <ele>170.19999694824</ele>
        <time>2022-10-06T08:57:02.000Z</time>
      </trkpt>
      <trkpt lat="46.85621" lon="3.10229">
        <ele>170.19999694824</ele>
        <time>2022-10-06T08:57:05.000Z</time>
      </trkpt>
      <trkpt lat="46.85605" lon="3.10148">
        <ele>170.19999694824</ele>
        <time>2022-10-06T08:57:13.000Z</time>
      </trkpt>
      <trkpt lat="46.85603" lon="3.1014">
        <ele>170.19999694824</ele>
        <time>2022-10-06T08:57:14.000Z</time>
      </trkpt>
      <trkpt lat="46.85591" lon="3.10058">
        <ele>169.80000305176</ele>
        <time>2022-10-06T08:57:22.000Z</time>
      </trkpt>
      <trkpt lat="46.85587" lon="3.09977">
        <ele>169.80000305176</ele>
        <time>2022-10-06T08:57:30.000Z</time>
      </trkpt>
      <trkpt lat="46.85586" lon="3.09955">
        <ele>169.80000305176</ele>
        <time>2022-10-06T08:57:32.000Z</time>
      </trkpt>
      <trkpt lat="46.85586" lon="3.09873">
        <ele>169.80000305176</ele>
        <time>2022-10-06T08:57:40.000Z</time>
      </trkpt>
      <trkpt lat="46.85585" lon="3.09854">
        <ele>169.80000305176</ele>
        <time>2022-10-06T08:57:42.000Z</time>
      </trkpt>
      <trkpt lat="46.85585" lon="3.09774">
        <ele>169.80000305176</ele>
        <time>2022-10-06T08:57:50.000Z</time>
      </trkpt>
      <trkpt lat="46.85584" lon="3.09754">
        <ele>169.80000305176</ele>
        <time>2022-10-06T08:57:52.000Z</time>
      </trkpt>
      <trkpt lat="46.85583" lon="3.09668">
        <ele>169.60000610352</ele>
        <time>2022-10-06T08:58:01.000Z</time>
      </trkpt>
      <trkpt lat="46.85582" lon="3.09643">
        <ele>169.39999389648</ele>
        <time>2022-10-06T08:58:04.000Z</time>
      </trkpt>
      <trkpt lat="46.85578" lon="3.09638">
        <ele>169.19999694824</ele>
        <time>2022-10-06T08:58:05.000Z</time>
      </trkpt>
      <trkpt lat="46.85573" lon="3.09635">
        <ele>169.19999694824</ele>
        <time>2022-10-06T08:58:06.000Z</time>
      </trkpt>
      <trkpt lat="46.8556" lon="3.09632">
        <ele>169</ele>
        <time>2022-10-06T08:58:08.000Z</time>
      </trkpt>
      <trkpt lat="46.85517" lon="3.09627">
        <ele>168.60000610352</ele>
        <time>2022-10-06T08:58:14.000Z</time>
      </trkpt>
      <trkpt lat="46.85458" lon="3.09612">
        <ele>168.39999389648</ele>
        <time>2022-10-06T08:58:22.000Z</time>
      </trkpt>
      <trkpt lat="46.85401" lon="3.09588">
        <ele>168.60000610352</ele>
        <time>2022-10-06T08:58:30.000Z</time>
      </trkpt>
      <trkpt lat="46.85387" lon="3.0958">
        <ele>168.60000610352</ele>
        <time>2022-10-06T08:58:32.000Z</time>
      </trkpt>
      <trkpt lat="46.85332" lon="3.09542">
        <ele>169.19999694824</ele>
        <time>2022-10-06T08:58:40.000Z</time>
      </trkpt>
      <trkpt lat="46.85312" lon="3.09528">
        <ele>169</ele>
        <time>2022-10-06T08:58:43.000Z</time>
      </trkpt>
      <trkpt lat="46.85271" lon="3.095">
        <ele>169</ele>
        <time>2022-10-06T08:58:49.000Z</time>
      </trkpt>
      <trkpt lat="46.85217" lon="3.09464">
        <ele>169.19999694824</ele>
        <time>2022-10-06T08:58:57.000Z</time>
      </trkpt>
      <trkpt lat="46.85196" lon="3.09452">
        <ele>169.19999694824</ele>
        <time>2022-10-06T08:59:00.000Z</time>
      </trkpt>
      <trkpt lat="46.8516" lon="3.0944">
        <ele>169</ele>
        <time>2022-10-06T08:59:05.000Z</time>
      </trkpt>
      <trkpt lat="46.8513" lon="3.09431">
        <ele>169</ele>
        <time>2022-10-06T08:59:09.000Z</time>
      </trkpt>
      <trkpt lat="46.85116" lon="3.09422">
        <ele>169</ele>
        <time>2022-10-06T08:59:11.000Z</time>
      </trkpt>
      <trkpt lat="46.85074" lon="3.09384">
        <ele>168.80000305176</ele>
        <time>2022-10-06T08:59:18.000Z</time>
      </trkpt>
      <trkpt lat="46.85024" lon="3.09336">
        <ele>169</ele>
        <time>2022-10-06T08:59:26.000Z</time>
      </trkpt>
      <trkpt lat="46.85017" lon="3.09329">
        <ele>169</ele>
        <time>2022-10-06T08:59:27.000Z</time>
      </trkpt>
      <trkpt lat="46.84979" lon="3.09295">
        <ele>169.19999694824</ele>
        <time>2022-10-06T08:59:33.000Z</time>
      </trkpt>
      <trkpt lat="46.84971" lon="3.09292">
        <ele>169.19999694824</ele>
        <time>2022-10-06T08:59:34.000Z</time>
      </trkpt>
      <trkpt lat="46.84964" lon="3.09292">
        <ele>169.19999694824</ele>
        <time>2022-10-06T08:59:35.000Z</time>
      </trkpt>
      <trkpt lat="46.84951" lon="3.093">
        <ele>169.39999389648</ele>
        <time>2022-10-06T08:59:37.000Z</time>
      </trkpt>
      <trkpt lat="46.84942" lon="3.09317">
        <ele>169.39999389648</ele>
        <time>2022-10-06T08:59:39.000Z</time>
      </trkpt>
      <trkpt lat="46.84938" lon="3.09326">
        <ele>169.39999389648</ele>
        <time>2022-10-06T08:59:40.000Z</time>
      </trkpt>
      <trkpt lat="46.84919" lon="3.0938">
        <ele>170.19999694824</ele>
        <time>2022-10-06T08:59:46.000Z</time>
      </trkpt>
      <trkpt lat="46.84916" lon="3.09387">
        <ele>170.39999389648</ele>
        <time>2022-10-06T08:59:47.000Z</time>
      </trkpt>
      <trkpt lat="46.84912" lon="3.09395">
        <ele>170.60000610352</ele>
        <time>2022-10-06T08:59:48.000Z</time>
      </trkpt>
      <trkpt lat="46.84907" lon="3.09401">
        <ele>170.80000305176</ele>
        <time>2022-10-06T08:59:49.000Z</time>
      </trkpt>
      <trkpt lat="46.84896" lon="3.0941">
        <ele>171</ele>
        <time>2022-10-06T08:59:51.000Z</time>
      </trkpt>
      <trkpt lat="46.84883" lon="3.09412">
        <ele>171.39999389648</ele>
        <time>2022-10-06T08:59:53.000Z</time>
      </trkpt>
      <trkpt lat="46.8487" lon="3.09411">
        <ele>171.80000305176</ele>
        <time>2022-10-06T08:59:55.000Z</time>
      </trkpt>
      <trkpt lat="46.84851" lon="3.09408">
        <ele>173</ele>
        <time>2022-10-06T08:59:58.000Z</time>
      </trkpt>
      <trkpt lat="46.8482" lon="3.09403">
        <ele>174</ele>
        <time>2022-10-06T09:00:03.000Z</time>
      </trkpt>
      <trkpt lat="46.84814" lon="3.09403">
        <ele>174.19999694824</ele>
        <time>2022-10-06T09:00:04.000Z</time>
      </trkpt>
      <trkpt lat="46.84767" lon="3.09391">
        <ele>175</ele>
        <time>2022-10-06T09:00:11.000Z</time>
      </trkpt>
      <trkpt lat="46.84748" lon="3.09381">
        <ele>175</ele>
        <time>2022-10-06T09:00:14.000Z</time>
      </trkpt>
      <trkpt lat="46.84723" lon="3.09365">
        <ele>175</ele>
        <time>2022-10-06T09:00:18.000Z</time>
      </trkpt>
      <trkpt lat="46.84672" lon="3.09331">
        <ele>175.39999389648</ele>
        <time>2022-10-06T09:00:26.000Z</time>
      </trkpt>
      <trkpt lat="46.84652" lon="3.09318">
        <ele>175.39999389648</ele>
        <time>2022-10-06T09:00:29.000Z</time>
      </trkpt>
      <trkpt lat="46.84599" lon="3.09283">
        <ele>175.19999694824</ele>
        <time>2022-10-06T09:00:37.000Z</time>
      </trkpt>
      <trkpt lat="46.84579" lon="3.09272">
        <ele>175.19999694824</ele>
        <time>2022-10-06T09:00:40.000Z</time>
      </trkpt>
      <trkpt lat="46.84536" lon="3.09265">
        <ele>175.60000610352</ele>
        <time>2022-10-06T09:00:46.000Z</time>
      </trkpt>
      <trkpt lat="46.84479" lon="3.09259">
        <ele>175.80000305176</ele>
        <time>2022-10-06T09:00:54.000Z</time>
      </trkpt>
      <trkpt lat="46.84464" lon="3.09259">
        <ele>175.60000610352</ele>
        <time>2022-10-06T09:00:56.000Z</time>
      </trkpt>
      <trkpt lat="46.84442" lon="3.09264">
        <ele>175.60000610352</ele>
        <time>2022-10-06T09:00:59.000Z</time>
      </trkpt>
      <trkpt lat="46.84428" lon="3.0927">
        <ele>175.39999389648</ele>
        <time>2022-10-06T09:01:01.000Z</time>
      </trkpt>
      <trkpt lat="46.84386" lon="3.09301">
        <ele>174.39999389648</ele>
        <time>2022-10-06T09:01:07.000Z</time>
      </trkpt>
      <trkpt lat="46.84358" lon="3.09323">
        <ele>173.80000305176</ele>
        <time>2022-10-06T09:01:11.000Z</time>
      </trkpt>
      <trkpt lat="46.84336" lon="3.09339">
        <ele>172.60000610352</ele>
        <time>2022-10-06T09:01:14.000Z</time>
      </trkpt>
      <trkpt lat="46.84329" lon="3.09345">
        <ele>172.19999694824</ele>
        <time>2022-10-06T09:01:15.000Z</time>
      </trkpt>
      <trkpt lat="46.843" lon="3.09368">
        <ele>171.39999389648</ele>
        <time>2022-10-06T09:01:19.000Z</time>
      </trkpt>
      <trkpt lat="46.84266" lon="3.09396">
        <ele>170.60000610352</ele>
        <time>2022-10-06T09:01:24.000Z</time>
      </trkpt>
      <trkpt lat="46.84213" lon="3.0944">
        <ele>170.60000610352</ele>
        <time>2022-10-06T09:01:32.000Z</time>
      </trkpt>
      <trkpt lat="46.84206" lon="3.09446">
        <ele>170.60000610352</ele>
        <time>2022-10-06T09:01:33.000Z</time>
      </trkpt>
      <trkpt lat="46.84153" lon="3.09488">
        <ele>170.60000610352</ele>
        <time>2022-10-06T09:01:41.000Z</time>
      </trkpt>
      <trkpt lat="46.84123" lon="3.09517">
        <ele>170.60000610352</ele>
        <time>2022-10-06T09:01:46.000Z</time>
      </trkpt>
      <trkpt lat="46.84077" lon="3.09571">
        <ele>171</ele>
        <time>2022-10-06T09:01:54.000Z</time>
      </trkpt>
      <trkpt lat="46.84072" lon="3.09578">
        <ele>171</ele>
        <time>2022-10-06T09:01:55.000Z</time>
      </trkpt>
      <trkpt lat="46.84045" lon="3.09625">
        <ele>171.19999694824</ele>
        <time>2022-10-06T09:02:01.000Z</time>
      </trkpt>
      <trkpt lat="46.84023" lon="3.09688">
        <ele>172</ele>
        <time>2022-10-06T09:02:08.000Z</time>
      </trkpt>
      <trkpt lat="46.84006" lon="3.0974">
        <ele>172.60000610352</ele>
        <time>2022-10-06T09:02:14.000Z</time>
      </trkpt>
      <trkpt lat="46.83994" lon="3.09776">
        <ele>173</ele>
        <time>2022-10-06T09:02:18.000Z</time>
      </trkpt>
      <trkpt lat="46.83983" lon="3.098">
        <ele>173.19999694824</ele>
        <time>2022-10-06T09:02:21.000Z</time>
      </trkpt>
      <trkpt lat="46.8397" lon="3.09821">
        <ele>173.80000305176</ele>
        <time>2022-10-06T09:02:24.000Z</time>
      </trkpt>
      <trkpt lat="46.83942" lon="3.09847">
        <ele>174.19999694824</ele>
        <time>2022-10-06T09:02:29.000Z</time>
      </trkpt>
      <trkpt lat="46.83902" lon="3.09859">
        <ele>174.39999389648</ele>
        <time>2022-10-06T09:02:35.000Z</time>
      </trkpt>
      <trkpt lat="46.83848" lon="3.09856">
        <ele>174.60000610352</ele>
        <time>2022-10-06T09:02:43.000Z</time>
      </trkpt>
      <trkpt lat="46.83841" lon="3.09856">
        <ele>174.80000305176</ele>
        <time>2022-10-06T09:02:44.000Z</time>
      </trkpt>
      <trkpt lat="46.8379" lon="3.09852">
        <ele>175</ele>
        <time>2022-10-06T09:02:51.000Z</time>
      </trkpt>
      <trkpt lat="46.83733" lon="3.09848">
        <ele>175</ele>
        <time>2022-10-06T09:02:59.000Z</time>
      </trkpt>
      <trkpt lat="46.83726" lon="3.09848">
        <ele>175</ele>
        <time>2022-10-06T09:03:00.000Z</time>
      </trkpt>
      <trkpt lat="46.83671" lon="3.09855">
        <ele>175.39999389648</ele>
        <time>2022-10-06T09:03:08.000Z</time>
      </trkpt>
      <trkpt lat="46.83664" lon="3.09856">
        <ele>175.39999389648</ele>
        <time>2022-10-06T09:03:09.000Z</time>
      </trkpt>
      <trkpt lat="46.8362" lon="3.0987">
        <ele>175.80000305176</ele>
        <time>2022-10-06T09:03:15.000Z</time>
      </trkpt>
      <trkpt lat="46.83608" lon="3.09874">
        <ele>175.80000305176</ele>
        <time>2022-10-06T09:03:17.000Z</time>
      </trkpt>
      <trkpt lat="46.83552" lon="3.09889">
        <ele>175.80000305176</ele>
        <time>2022-10-06T09:03:25.000Z</time>
      </trkpt>
      <trkpt lat="46.83536" lon="3.09894">
        <ele>176</ele>
        <time>2022-10-06T09:03:27.000Z</time>
      </trkpt>
      <trkpt lat="46.8348" lon="3.09911">
        <ele>176.19999694824</ele>
        <time>2022-10-06T09:03:35.000Z</time>
      </trkpt>
      <trkpt lat="46.83473" lon="3.09913">
        <ele>176.19999694824</ele>
        <time>2022-10-06T09:03:36.000Z</time>
      </trkpt>
      <trkpt lat="46.83416" lon="3.09926">
        <ele>176.39999389648</ele>
        <time>2022-10-06T09:03:44.000Z</time>
      </trkpt>
      <trkpt lat="46.83401" lon="3.09929">
        <ele>176.39999389648</ele>
        <time>2022-10-06T09:03:46.000Z</time>
      </trkpt>
      <trkpt lat="46.83379" lon="3.09936">
        <ele>176.60000610352</ele>
        <time>2022-10-06T09:03:49.000Z</time>
      </trkpt>
      <trkpt lat="46.83374" lon="3.09938">
        <ele>176.80000305176</ele>
        <time>2022-10-06T09:03:50.000Z</time>
      </trkpt>
      <trkpt lat="46.83359" lon="3.09947">
        <ele>176.60000610352</ele>
        <time>2022-10-06T09:03:52.000Z</time>
      </trkpt>
      <trkpt lat="46.83353" lon="3.09953">
        <ele>176.80000305176</ele>
        <time>2022-10-06T09:03:53.000Z</time>
      </trkpt>
      <trkpt lat="46.83338" lon="3.09973">
        <ele>176.80000305176</ele>
        <time>2022-10-06T09:03:56.000Z</time>
      </trkpt>
      <trkpt lat="46.83302" lon="3.10026">
        <ele>176.80000305176</ele>
        <time>2022-10-06T09:04:03.000Z</time>
      </trkpt>
      <trkpt lat="46.83266" lon="3.10057">
        <ele>177.19999694824</ele>
        <time>2022-10-06T09:04:09.000Z</time>
      </trkpt>
      <trkpt lat="46.83225" lon="3.10077">
        <ele>177.19999694824</ele>
        <time>2022-10-06T09:04:15.000Z</time>
      </trkpt>
      <trkpt lat="46.83176" lon="3.10092">
        <ele>177.60000610352</ele>
        <time>2022-10-06T09:04:22.000Z</time>
      </trkpt>
      <trkpt lat="46.83155" lon="3.10098">
        <ele>177.60000610352</ele>
        <time>2022-10-06T09:04:25.000Z</time>
      </trkpt>
      <trkpt lat="46.83127" lon="3.10109">
        <ele>177.80000305176</ele>
        <time>2022-10-06T09:04:29.000Z</time>
      </trkpt>
      <trkpt lat="46.83114" lon="3.10118">
        <ele>177.80000305176</ele>
        <time>2022-10-06T09:04:31.000Z</time>
      </trkpt>
      <trkpt lat="46.83082" lon="3.10155">
        <ele>178.19999694824</ele>
        <time>2022-10-06T09:04:37.000Z</time>
      </trkpt>
      <trkpt lat="46.83042" lon="3.10209">
        <ele>178.60000610352</ele>
        <time>2022-10-06T09:04:45.000Z</time>
      </trkpt>
      <trkpt lat="46.83032" lon="3.10223">
        <ele>178.60000610352</ele>
        <time>2022-10-06T09:04:47.000Z</time>
      </trkpt>
      <trkpt lat="46.83026" lon="3.1023">
        <ele>178.60000610352</ele>
        <time>2022-10-06T09:04:48.000Z</time>
      </trkpt>
      <trkpt lat="46.82986" lon="3.10283">
        <ele>178.80000305176</ele>
        <time>2022-10-06T09:04:56.000Z</time>
      </trkpt>
      <trkpt lat="46.82967" lon="3.1031">
        <ele>179</ele>
        <time>2022-10-06T09:05:00.000Z</time>
      </trkpt>
      <trkpt lat="46.82927" lon="3.10366">
        <ele>179.19999694824</ele>
        <time>2022-10-06T09:05:08.000Z</time>
      </trkpt>
      <trkpt lat="46.82923" lon="3.10373">
        <ele>179.19999694824</ele>
        <time>2022-10-06T09:05:09.000Z</time>
      </trkpt>
      <trkpt lat="46.82886" lon="3.10434">
        <ele>179.19999694824</ele>
        <time>2022-10-06T09:05:17.000Z</time>
      </trkpt>
      <trkpt lat="46.82872" lon="3.10456">
        <ele>179.19999694824</ele>
        <time>2022-10-06T09:05:20.000Z</time>
      </trkpt>
      <trkpt lat="46.82845" lon="3.1049">
        <ele>179.19999694824</ele>
        <time>2022-10-06T09:05:25.000Z</time>
      </trkpt>
      <trkpt lat="46.82832" lon="3.105">
        <ele>179.39999389648</ele>
        <time>2022-10-06T09:05:27.000Z</time>
      </trkpt>
      <trkpt lat="46.82819" lon="3.10505">
        <ele>179.39999389648</ele>
        <time>2022-10-06T09:05:29.000Z</time>
      </trkpt>
      <trkpt lat="46.82812" lon="3.10507">
        <ele>179.39999389648</ele>
        <time>2022-10-06T09:05:30.000Z</time>
      </trkpt>
      <trkpt lat="46.82797" lon="3.10506">
        <ele>179.19999694824</ele>
        <time>2022-10-06T09:05:32.000Z</time>
      </trkpt>
      <trkpt lat="46.82777" lon="3.10501">
        <ele>179.19999694824</ele>
        <time>2022-10-06T09:05:35.000Z</time>
      </trkpt>
      <trkpt lat="46.82719" lon="3.10479">
        <ele>178.80000305176</ele>
        <time>2022-10-06T09:05:43.000Z</time>
      </trkpt>
      <trkpt lat="46.82707" lon="3.10475">
        <ele>178.80000305176</ele>
        <time>2022-10-06T09:05:45.000Z</time>
      </trkpt>
      <trkpt lat="46.82663" lon="3.10461">
        <ele>179.19999694824</ele>
        <time>2022-10-06T09:05:51.000Z</time>
      </trkpt>
      <trkpt lat="46.82655" lon="3.1046">
        <ele>179.19999694824</ele>
        <time>2022-10-06T09:05:52.000Z</time>
      </trkpt>
      <trkpt lat="46.82648" lon="3.10461">
        <ele>179.39999389648</ele>
        <time>2022-10-06T09:05:53.000Z</time>
      </trkpt>
      <trkpt lat="46.82619" lon="3.10469">
        <ele>179.39999389648</ele>
        <time>2022-10-06T09:05:57.000Z</time>
      </trkpt>
      <trkpt lat="46.82586" lon="3.10491">
        <ele>179.39999389648</ele>
        <time>2022-10-06T09:06:02.000Z</time>
      </trkpt>
      <trkpt lat="46.82555" lon="3.10528">
        <ele>179.60000610352</ele>
        <time>2022-10-06T09:06:08.000Z</time>
      </trkpt>
      <trkpt lat="46.8255" lon="3.10535">
        <ele>179.60000610352</ele>
        <time>2022-10-06T09:06:09.000Z</time>
      </trkpt>
      <trkpt lat="46.82542" lon="3.10547">
        <ele>179.80000305176</ele>
        <time>2022-10-06T09:06:11.000Z</time>
      </trkpt>
      <trkpt lat="46.8254" lon="3.10554">
        <ele>179.80000305176</ele>
        <time>2022-10-06T09:06:12.000Z</time>
      </trkpt>
      <trkpt lat="46.82539" lon="3.1056">
        <ele>179.80000305176</ele>
        <time>2022-10-06T09:06:13.000Z</time>
      </trkpt>
      <trkpt lat="46.82542" lon="3.10579">
        <ele>179.80000305176</ele>
        <time>2022-10-06T09:06:15.000Z</time>
      </trkpt>
      <trkpt lat="46.82546" lon="3.10595">
        <ele>180</ele>
        <time>2022-10-06T09:06:17.000Z</time>
      </trkpt>
      <trkpt lat="46.82547" lon="3.10615">
        <ele>180</ele>
        <time>2022-10-06T09:06:19.000Z</time>
      </trkpt>
      <trkpt lat="46.82546" lon="3.10623">
        <ele>180</ele>
        <time>2022-10-06T09:06:20.000Z</time>
      </trkpt>
      <trkpt lat="46.82543" lon="3.1063">
        <ele>180</ele>
        <time>2022-10-06T09:06:21.000Z</time>
      </trkpt>
      <trkpt lat="46.82535" lon="3.10636">
        <ele>180.19999694824</ele>
        <time>2022-10-06T09:06:23.000Z</time>
      </trkpt>
      <trkpt lat="46.82521" lon="3.10635">
        <ele>180.19999694824</ele>
        <time>2022-10-06T09:06:25.000Z</time>
      </trkpt>
      <trkpt lat="46.8251" lon="3.10632">
        <ele>180.19999694824</ele>
        <time>2022-10-06T09:06:27.000Z</time>
      </trkpt>
      <trkpt lat="46.82468" lon="3.10622">
        <ele>180.60000610352</ele>
        <time>2022-10-06T09:06:33.000Z</time>
      </trkpt>
      <trkpt lat="46.82454" lon="3.10619">
        <ele>180.60000610352</ele>
        <time>2022-10-06T09:06:35.000Z</time>
      </trkpt>
      <trkpt lat="46.82398" lon="3.10606">
        <ele>180.80000305176</ele>
        <time>2022-10-06T09:06:43.000Z</time>
      </trkpt>
      <trkpt lat="46.8234" lon="3.10598">
        <ele>181.19999694824</ele>
        <time>2022-10-06T09:06:51.000Z</time>
      </trkpt>
      <trkpt lat="46.82281" lon="3.10598">
        <ele>181.19999694824</ele>
        <time>2022-10-06T09:06:59.000Z</time>
      </trkpt>
      <trkpt lat="46.82266" lon="3.10598">
        <ele>181.39999389648</ele>
        <time>2022-10-06T09:07:01.000Z</time>
      </trkpt>
      <trkpt lat="46.82222" lon="3.10598">
        <ele>181.60000610352</ele>
        <time>2022-10-06T09:07:07.000Z</time>
      </trkpt>
      <trkpt lat="46.82186" lon="3.10599">
        <ele>182</ele>
        <time>2022-10-06T09:07:12.000Z</time>
      </trkpt>
      <trkpt lat="46.82126" lon="3.10601">
        <ele>182.60000610352</ele>
        <time>2022-10-06T09:07:21.000Z</time>
      </trkpt>
      <trkpt lat="46.82119" lon="3.10601">
        <ele>182.80000305176</ele>
        <time>2022-10-06T09:07:22.000Z</time>
      </trkpt>
      <trkpt lat="46.82063" lon="3.10608">
        <ele>183.19999694824</ele>
        <time>2022-10-06T09:07:30.000Z</time>
      </trkpt>
      <trkpt lat="46.82008" lon="3.10616">
        <ele>183.39999389648</ele>
        <time>2022-10-06T09:07:38.000Z</time>
      </trkpt>
      <trkpt lat="46.81981" lon="3.10619">
        <ele>183.60000610352</ele>
        <time>2022-10-06T09:07:42.000Z</time>
      </trkpt>
      <trkpt lat="46.81968" lon="3.10621">
        <ele>183.60000610352</ele>
        <time>2022-10-06T09:07:44.000Z</time>
      </trkpt>
      <trkpt lat="46.81908" lon="3.10628">
        <ele>184.19999694824</ele>
        <time>2022-10-06T09:07:53.000Z</time>
      </trkpt>
      <trkpt lat="46.81888" lon="3.1063">
        <ele>184.19999694824</ele>
        <time>2022-10-06T09:07:56.000Z</time>
      </trkpt>
      <trkpt lat="46.8184" lon="3.10636">
        <ele>184.80000305176</ele>
        <time>2022-10-06T09:08:03.000Z</time>
      </trkpt>
      <trkpt lat="46.81813" lon="3.1064">
        <ele>185</ele>
        <time>2022-10-06T09:08:07.000Z</time>
      </trkpt>
      <trkpt lat="46.81759" lon="3.10647">
        <ele>185.60000610352</ele>
        <time>2022-10-06T09:08:15.000Z</time>
      </trkpt>
      <trkpt lat="46.81746" lon="3.10649">
        <ele>185.60000610352</ele>
        <time>2022-10-06T09:08:17.000Z</time>
      </trkpt>
      <trkpt lat="46.81719" lon="3.10654">
        <ele>185.80000305176</ele>
        <time>2022-10-06T09:08:21.000Z</time>
      </trkpt>
      <trkpt lat="46.81673" lon="3.10664">
        <ele>186</ele>
        <time>2022-10-06T09:08:28.000Z</time>
      </trkpt>
      <trkpt lat="46.81618" lon="3.10676">
        <ele>185.80000305176</ele>
        <time>2022-10-06T09:08:36.000Z</time>
      </trkpt>
      <trkpt lat="46.81611" lon="3.10677">
        <ele>185.80000305176</ele>
        <time>2022-10-06T09:08:37.000Z</time>
      </trkpt>
      <trkpt lat="46.81555" lon="3.10685">
        <ele>185.80000305176</ele>
        <time>2022-10-06T09:08:45.000Z</time>
      </trkpt>
      <trkpt lat="46.81499" lon="3.10687">
        <ele>186</ele>
        <time>2022-10-06T09:08:53.000Z</time>
      </trkpt>
      <trkpt lat="46.81485" lon="3.10687">
        <ele>186</ele>
        <time>2022-10-06T09:08:55.000Z</time>
      </trkpt>
      <trkpt lat="46.8143" lon="3.10688">
        <ele>186.19999694824</ele>
        <time>2022-10-06T09:09:03.000Z</time>
      </trkpt>
      <trkpt lat="46.81395" lon="3.1069">
        <ele>186.60000610352</ele>
        <time>2022-10-06T09:09:08.000Z</time>
      </trkpt>
      <trkpt lat="46.81366" lon="3.10692">
        <ele>186.80000305176</ele>
        <time>2022-10-06T09:09:12.000Z</time>
      </trkpt>
      <trkpt lat="46.81345" lon="3.10694">
        <ele>187.39999389648</ele>
        <time>2022-10-06T09:09:15.000Z</time>
      </trkpt>
      <trkpt lat="46.81297" lon="3.10703">
        <ele>187.80000305176</ele>
        <time>2022-10-06T09:09:22.000Z</time>
      </trkpt>
      <trkpt lat="46.81283" lon="3.10706">
        <ele>188</ele>
        <time>2022-10-06T09:09:24.000Z</time>
      </trkpt>
      <trkpt lat="46.81229" lon="3.10718">
        <ele>188.80000305176</ele>
        <time>2022-10-06T09:09:32.000Z</time>
      </trkpt>
      <trkpt lat="46.81207" lon="3.10722">
        <ele>188.80000305176</ele>
        <time>2022-10-06T09:09:35.000Z</time>
      </trkpt>
      <trkpt lat="46.81193" lon="3.10725">
        <ele>189</ele>
        <time>2022-10-06T09:09:37.000Z</time>
      </trkpt>
      <trkpt lat="46.81175" lon="3.10729">
        <ele>189</ele>
        <time>2022-10-06T09:09:41.000Z</time>
      </trkpt>
      <trkpt lat="46.81176" lon="3.10729">
        <ele>189.19999694824</ele>
        <time>2022-10-06T09:09:44.000Z</time>
      </trkpt>
      <trkpt lat="46.81179" lon="3.10728">
        <ele>189.19999694824</ele>
        <time>2022-10-06T09:09:46.000Z</time>
      </trkpt>
      <trkpt lat="46.81182" lon="3.10728">
        <ele>189.19999694824</ele>
        <time>2022-10-06T09:09:48.000Z</time>
      </trkpt>
      <trkpt lat="46.81183" lon="3.10725">
        <ele>189.19999694824</ele>
        <time>2022-10-06T09:09:50.000Z</time>
      </trkpt>
      <trkpt lat="46.81183" lon="3.10725">
        <ele>189.19999694824</ele>
        <time>2022-10-06T09:09:56.000Z</time>
      </trkpt>
      <trkpt lat="46.81183" lon="3.10725">
        <ele>189.19999694824</ele>
        <time>2022-10-06T09:10:01.000Z</time>
      </trkpt>
      <trkpt lat="46.81181" lon="3.10726">
        <ele>189.19999694824</ele>
        <time>2022-10-06T09:10:02.000Z</time>
      </trkpt>
      <trkpt lat="46.81179" lon="3.10727">
        <ele>189.19999694824</ele>
        <time>2022-10-06T09:10:03.000Z</time>
      </trkpt>
      <trkpt lat="46.8117" lon="3.10728">
        <ele>189.19999694824</ele>
        <time>2022-10-06T09:10:06.000Z</time>
      </trkpt>
      <trkpt lat="46.81148" lon="3.10733">
        <ele>189.39999389648</ele>
        <time>2022-10-06T09:10:11.000Z</time>
      </trkpt>
      <trkpt lat="46.81113" lon="3.1074">
        <ele>189.80000305176</ele>
        <time>2022-10-06T09:10:18.000Z</time>
      </trkpt>
      <trkpt lat="46.81108" lon="3.10741">
        <ele>189.80000305176</ele>
        <time>2022-10-06T09:10:19.000Z</time>
      </trkpt>
      <trkpt lat="46.8109" lon="3.10745">
        <ele>189.80000305176</ele>
        <time>2022-10-06T09:10:23.000Z</time>
      </trkpt>
      <trkpt lat="46.81072" lon="3.10749">
        <ele>190</ele>
        <time>2022-10-06T09:10:26.000Z</time>
      </trkpt>
      <trkpt lat="46.81052" lon="3.10752">
        <ele>190.19999694824</ele>
        <time>2022-10-06T09:10:29.000Z</time>
      </trkpt>
      <trkpt lat="46.80995" lon="3.10763">
        <ele>190.80000305176</ele>
        <time>2022-10-06T09:10:38.000Z</time>
      </trkpt>
      <trkpt lat="46.80988" lon="3.10764">
        <ele>191</ele>
        <time>2022-10-06T09:10:39.000Z</time>
      </trkpt>
      <trkpt lat="46.80934" lon="3.10777">
        <ele>191.19999694824</ele>
        <time>2022-10-06T09:10:47.000Z</time>
      </trkpt>
      <trkpt lat="46.8092" lon="3.10781">
        <ele>191.39999389648</ele>
        <time>2022-10-06T09:10:49.000Z</time>
      </trkpt>
      <trkpt lat="46.80863" lon="3.108">
        <ele>191.80000305176</ele>
        <time>2022-10-06T09:10:57.000Z</time>
      </trkpt>
      <trkpt lat="46.80856" lon="3.10803">
        <ele>191.80000305176</ele>
        <time>2022-10-06T09:10:58.000Z</time>
      </trkpt>
      <trkpt lat="46.80821" lon="3.10816">
        <ele>191.80000305176</ele>
        <time>2022-10-06T09:11:03.000Z</time>
      </trkpt>
      <trkpt lat="46.80814" lon="3.10819">
        <ele>191.80000305176</ele>
        <time>2022-10-06T09:11:04.000Z</time>
      </trkpt>
      <trkpt lat="46.80759" lon="3.10843">
        <ele>191.80000305176</ele>
        <time>2022-10-06T09:11:12.000Z</time>
      </trkpt>
      <trkpt lat="46.80745" lon="3.10849">
        <ele>192</ele>
        <time>2022-10-06T09:11:14.000Z</time>
      </trkpt>
      <trkpt lat="46.8069" lon="3.1087">
        <ele>192.60000610352</ele>
        <time>2022-10-06T09:11:22.000Z</time>
      </trkpt>
      <trkpt lat="46.80676" lon="3.10874">
        <ele>193</ele>
        <time>2022-10-06T09:11:24.000Z</time>
      </trkpt>
      <trkpt lat="46.80663" lon="3.10877">
        <ele>193.19999694824</ele>
        <time>2022-10-06T09:11:26.000Z</time>
      </trkpt>
      <trkpt lat="46.80614" lon="3.10886">
        <ele>193.80000305176</ele>
        <time>2022-10-06T09:11:33.000Z</time>
      </trkpt>
      <trkpt lat="46.80593" lon="3.1089">
        <ele>194.19999694824</ele>
        <time>2022-10-06T09:11:36.000Z</time>
      </trkpt>
      <trkpt lat="46.80544" lon="3.10898">
        <ele>194.80000305176</ele>
        <time>2022-10-06T09:11:43.000Z</time>
      </trkpt>
      <trkpt lat="46.80516" lon="3.10901">
        <ele>195.39999389648</ele>
        <time>2022-10-06T09:11:47.000Z</time>
      </trkpt>
      <trkpt lat="46.80483" lon="3.10904">
        <ele>195.80000305176</ele>
        <time>2022-10-06T09:11:52.000Z</time>
      </trkpt>
      <trkpt lat="46.80427" lon="3.10907">
        <ele>196.60000610352</ele>
        <time>2022-10-06T09:12:00.000Z</time>
      </trkpt>
      <trkpt lat="46.80414" lon="3.10908">
        <ele>196.80000305176</ele>
        <time>2022-10-06T09:12:02.000Z</time>
      </trkpt>
      <trkpt lat="46.80358" lon="3.1091">
        <ele>197</ele>
        <time>2022-10-06T09:12:10.000Z</time>
      </trkpt>
      <trkpt lat="46.80304" lon="3.10911">
        <ele>197.39999389648</ele>
        <time>2022-10-06T09:12:18.000Z</time>
      </trkpt>
      <trkpt lat="46.80279" lon="3.10911">
        <ele>197.39999389648</ele>
        <time>2022-10-06T09:12:22.000Z</time>
      </trkpt>
      <trkpt lat="46.80244" lon="3.10908">
        <ele>197.19999694824</ele>
        <time>2022-10-06T09:12:28.000Z</time>
      </trkpt>
      <trkpt lat="46.80222" lon="3.10904">
        <ele>197.19999694824</ele>
        <time>2022-10-06T09:12:32.000Z</time>
      </trkpt>
      <trkpt lat="46.80216" lon="3.10904">
        <ele>197.19999694824</ele>
        <time>2022-10-06T09:12:33.000Z</time>
      </trkpt>
      <trkpt lat="46.80189" lon="3.10907">
        <ele>197.19999694824</ele>
        <time>2022-10-06T09:12:37.000Z</time>
      </trkpt>
      <trkpt lat="46.8014" lon="3.10906">
        <ele>197.19999694824</ele>
        <time>2022-10-06T09:12:44.000Z</time>
      </trkpt>
      <trkpt lat="46.80095" lon="3.1091">
        <ele>197.39999389648</ele>
        <time>2022-10-06T09:12:50.000Z</time>
      </trkpt>
      <trkpt lat="46.80088" lon="3.10913">
        <ele>197.39999389648</ele>
        <time>2022-10-06T09:12:51.000Z</time>
      </trkpt>
      <trkpt lat="46.80066" lon="3.10924">
        <ele>197.39999389648</ele>
        <time>2022-10-06T09:12:54.000Z</time>
      </trkpt>
      <trkpt lat="46.80046" lon="3.10937">
        <ele>197.39999389648</ele>
        <time>2022-10-06T09:12:57.000Z</time>
      </trkpt>
      <trkpt lat="46.79994" lon="3.10975">
        <ele>197.80000305176</ele>
        <time>2022-10-06T09:13:05.000Z</time>
      </trkpt>
      <trkpt lat="46.79987" lon="3.10979">
        <ele>197.80000305176</ele>
        <time>2022-10-06T09:13:06.000Z</time>
      </trkpt>
      <trkpt lat="46.79956" lon="3.11002">
        <ele>198.39999389648</ele>
        <time>2022-10-06T09:13:11.000Z</time>
      </trkpt>
      <trkpt lat="46.79943" lon="3.11011">
        <ele>198.60000610352</ele>
        <time>2022-10-06T09:13:13.000Z</time>
      </trkpt>
      <trkpt lat="46.79893" lon="3.11047">
        <ele>199.39999389648</ele>
        <time>2022-10-06T09:13:21.000Z</time>
      </trkpt>
      <trkpt lat="46.79887" lon="3.11052">
        <ele>199.39999389648</ele>
        <time>2022-10-06T09:13:22.000Z</time>
      </trkpt>
      <trkpt lat="46.7987" lon="3.11064">
        <ele>199.60000610352</ele>
        <time>2022-10-06T09:13:25.000Z</time>
      </trkpt>
      <trkpt lat="46.79822" lon="3.11097">
        <ele>200.39999389648</ele>
        <time>2022-10-06T09:13:33.000Z</time>
      </trkpt>
      <trkpt lat="46.79785" lon="3.11123">
        <ele>201.80000305176</ele>
        <time>2022-10-06T09:13:39.000Z</time>
      </trkpt>
      <trkpt lat="46.79769" lon="3.11134">
        <ele>202.19999694824</ele>
        <time>2022-10-06T09:13:42.000Z</time>
      </trkpt>
      <trkpt lat="46.79754" lon="3.11144">
        <ele>202.60000610352</ele>
        <time>2022-10-06T09:13:45.000Z</time>
      </trkpt>
      <trkpt lat="46.79751" lon="3.11148">
        <ele>202.80000305176</ele>
        <time>2022-10-06T09:13:46.000Z</time>
      </trkpt>
      <trkpt lat="46.79747" lon="3.11153">
        <ele>203.19999694824</ele>
        <time>2022-10-06T09:13:47.000Z</time>
      </trkpt>
      <trkpt lat="46.79735" lon="3.1117">
        <ele>203.39999389648</ele>
        <time>2022-10-06T09:13:50.000Z</time>
      </trkpt>
      <trkpt lat="46.79731" lon="3.11174">
        <ele>203.80000305176</ele>
        <time>2022-10-06T09:13:51.000Z</time>
      </trkpt>
      <trkpt lat="46.79725" lon="3.11178">
        <ele>204</ele>
        <time>2022-10-06T09:13:52.000Z</time>
      </trkpt>
      <trkpt lat="46.79714" lon="3.1118">
        <ele>204</ele>
        <time>2022-10-06T09:13:54.000Z</time>
      </trkpt>
      <trkpt lat="46.79707" lon="3.1118">
        <ele>204.19999694824</ele>
        <time>2022-10-06T09:13:55.000Z</time>
      </trkpt>
      <trkpt lat="46.79663" lon="3.11172">
        <ele>204.80000305176</ele>
        <time>2022-10-06T09:14:02.000Z</time>
      </trkpt>
      <trkpt lat="46.79617" lon="3.11152">
        <ele>205</ele>
        <time>2022-10-06T09:14:09.000Z</time>
      </trkpt>
      <trkpt lat="46.79566" lon="3.11124">
        <ele>205.19999694824</ele>
        <time>2022-10-06T09:14:17.000Z</time>
      </trkpt>
      <trkpt lat="46.79559" lon="3.11121">
        <ele>205.19999694824</ele>
        <time>2022-10-06T09:14:18.000Z</time>
      </trkpt>
      <trkpt lat="46.79504" lon="3.11104">
        <ele>205.19999694824</ele>
        <time>2022-10-06T09:14:26.000Z</time>
      </trkpt>
      <trkpt lat="46.79464" lon="3.11097">
        <ele>205.19999694824</ele>
        <time>2022-10-06T09:14:32.000Z</time>
      </trkpt>
      <trkpt lat="46.7941" lon="3.11091">
        <ele>205.39999389648</ele>
        <time>2022-10-06T09:14:40.000Z</time>
      </trkpt>
      <trkpt lat="46.79351" lon="3.11084">
        <ele>205.19999694824</ele>
        <time>2022-10-06T09:14:49.000Z</time>
      </trkpt>
      <trkpt lat="46.79344" lon="3.11083">
        <ele>205.19999694824</ele>
        <time>2022-10-06T09:14:50.000Z</time>
      </trkpt>
      <trkpt lat="46.79331" lon="3.11082">
        <ele>205</ele>
        <time>2022-10-06T09:14:52.000Z</time>
      </trkpt>
      <trkpt lat="46.79308" lon="3.11079">
        <ele>204.80000305176</ele>
        <time>2022-10-06T09:14:56.000Z</time>
      </trkpt>
      <trkpt lat="46.7926" lon="3.11079">
        <ele>204.39999389648</ele>
        <time>2022-10-06T09:15:03.000Z</time>
      </trkpt>
      <trkpt lat="46.79238" lon="3.11084">
        <ele>204</ele>
        <time>2022-10-06T09:15:06.000Z</time>
      </trkpt>
      <trkpt lat="46.792" lon="3.11096">
        <ele>202.80000305176</ele>
        <time>2022-10-06T09:15:11.000Z</time>
      </trkpt>
      <trkpt lat="46.79188" lon="3.11105">
        <ele>202.19999694824</ele>
        <time>2022-10-06T09:15:13.000Z</time>
      </trkpt>
      <trkpt lat="46.79183" lon="3.11112">
        <ele>202</ele>
        <time>2022-10-06T09:15:14.000Z</time>
      </trkpt>
      <trkpt lat="46.79179" lon="3.11119">
        <ele>201.60000610352</ele>
        <time>2022-10-06T09:15:15.000Z</time>
      </trkpt>
      <trkpt lat="46.79175" lon="3.11135">
        <ele>201</ele>
        <time>2022-10-06T09:15:17.000Z</time>
      </trkpt>
      <trkpt lat="46.79173" lon="3.11147">
        <ele>200.60000610352</ele>
        <time>2022-10-06T09:15:19.000Z</time>
      </trkpt>
      <trkpt lat="46.79171" lon="3.11153">
        <ele>200.39999389648</ele>
        <time>2022-10-06T09:15:20.000Z</time>
      </trkpt>
      <trkpt lat="46.79167" lon="3.11158">
        <ele>200.39999389648</ele>
        <time>2022-10-06T09:15:21.000Z</time>
      </trkpt>
      <trkpt lat="46.79156" lon="3.11162">
        <ele>200.39999389648</ele>
        <time>2022-10-06T09:15:23.000Z</time>
      </trkpt>
      <trkpt lat="46.7915" lon="3.11161">
        <ele>200.39999389648</ele>
        <time>2022-10-06T09:15:24.000Z</time>
      </trkpt>
      <trkpt lat="46.79112" lon="3.11156">
        <ele>200.39999389648</ele>
        <time>2022-10-06T09:15:30.000Z</time>
      </trkpt>
      <trkpt lat="46.79098" lon="3.11155">
        <ele>200.39999389648</ele>
        <time>2022-10-06T09:15:32.000Z</time>
      </trkpt>
      <trkpt lat="46.79074" lon="3.11152">
        <ele>200.39999389648</ele>
        <time>2022-10-06T09:15:36.000Z</time>
      </trkpt>
      <trkpt lat="46.79045" lon="3.11149">
        <ele>200.39999389648</ele>
        <time>2022-10-06T09:15:41.000Z</time>
      </trkpt>
      <trkpt lat="46.7904" lon="3.11148">
        <ele>200.39999389648</ele>
        <time>2022-10-06T09:15:42.000Z</time>
      </trkpt>
      <trkpt lat="46.79031" lon="3.11138">
        <ele>200.19999694824</ele>
        <time>2022-10-06T09:15:45.000Z</time>
      </trkpt>
      <trkpt lat="46.79028" lon="3.11129">
        <ele>200.39999389648</ele>
        <time>2022-10-06T09:15:47.000Z</time>
      </trkpt>
      <trkpt lat="46.79026" lon="3.11115">
        <ele>200.19999694824</ele>
        <time>2022-10-06T09:15:49.000Z</time>
      </trkpt>
      <trkpt lat="46.79016" lon="3.11074">
        <ele>200.19999694824</ele>
        <time>2022-10-06T09:15:54.000Z</time>
      </trkpt>
      <trkpt lat="46.79006" lon="3.11017">
        <ele>200.60000610352</ele>
        <time>2022-10-06T09:16:00.000Z</time>
      </trkpt>
      <trkpt lat="46.78997" lon="3.10952">
        <ele>201.39999389648</ele>
        <time>2022-10-06T09:16:07.000Z</time>
      </trkpt>
      <trkpt lat="46.78996" lon="3.10942">
        <ele>201.39999389648</ele>
        <time>2022-10-06T09:16:08.000Z</time>
      </trkpt>
      <trkpt lat="46.78985" lon="3.10864">
        <ele>201.19999694824</ele>
        <time>2022-10-06T09:16:16.000Z</time>
      </trkpt>
      <trkpt lat="46.78964" lon="3.10788">
        <ele>200.80000305176</ele>
        <time>2022-10-06T09:16:24.000Z</time>
      </trkpt>
      <trkpt lat="46.78961" lon="3.10779">
        <ele>200.80000305176</ele>
        <time>2022-10-06T09:16:25.000Z</time>
      </trkpt>
      <trkpt lat="46.78941" lon="3.10704">
        <ele>200.80000305176</ele>
        <time>2022-10-06T09:16:33.000Z</time>
      </trkpt>
      <trkpt lat="46.78936" lon="3.10685">
        <ele>200.80000305176</ele>
        <time>2022-10-06T09:16:35.000Z</time>
      </trkpt>
      <trkpt lat="46.78918" lon="3.10605">
        <ele>200.60000610352</ele>
        <time>2022-10-06T09:16:43.000Z</time>
      </trkpt>
      <trkpt lat="46.78903" lon="3.10522">
        <ele>200.39999389648</ele>
        <time>2022-10-06T09:16:51.000Z</time>
      </trkpt>
      <trkpt lat="46.78899" lon="3.105">
        <ele>200.19999694824</ele>
        <time>2022-10-06T09:16:53.000Z</time>
      </trkpt>
      <trkpt lat="46.78885" lon="3.10423">
        <ele>199.39999389648</ele>
        <time>2022-10-06T09:17:00.000Z</time>
      </trkpt>
      <trkpt lat="46.78881" lon="3.10401">
        <ele>199.19999694824</ele>
        <time>2022-10-06T09:17:02.000Z</time>
      </trkpt>
      <trkpt lat="46.78866" lon="3.10316">
        <ele>199</ele>
        <time>2022-10-06T09:17:10.000Z</time>
      </trkpt>
      <trkpt lat="46.78861" lon="3.10285">
        <ele>198.80000305176</ele>
        <time>2022-10-06T09:17:13.000Z</time>
      </trkpt>
      <trkpt lat="46.78846" lon="3.10202">
        <ele>198.39999389648</ele>
        <time>2022-10-06T09:17:21.000Z</time>
      </trkpt>
      <trkpt lat="46.78834" lon="3.10137">
        <ele>198.19999694824</ele>
        <time>2022-10-06T09:17:27.000Z</time>
      </trkpt>
      <trkpt lat="46.7882" lon="3.10056">
        <ele>198.39999389648</ele>
        <time>2022-10-06T09:17:35.000Z</time>
      </trkpt>
      <trkpt lat="46.78806" lon="3.09979">
        <ele>199.80000305176</ele>
        <time>2022-10-06T09:17:43.000Z</time>
      </trkpt>
      <trkpt lat="46.78799" lon="3.09941">
        <ele>200.39999389648</ele>
        <time>2022-10-06T09:17:47.000Z</time>
      </trkpt>
      <trkpt lat="46.78789" lon="3.09887">
        <ele>200.80000305176</ele>
        <time>2022-10-06T09:17:53.000Z</time>
      </trkpt>
      <trkpt lat="46.78769" lon="3.09814">
        <ele>201.19999694824</ele>
        <time>2022-10-06T09:18:01.000Z</time>
      </trkpt>
      <trkpt lat="46.78744" lon="3.09767">
        <ele>201.39999389648</ele>
        <time>2022-10-06T09:18:07.000Z</time>
      </trkpt>
      <trkpt lat="46.78734" lon="3.09752">
        <ele>201.60000610352</ele>
        <time>2022-10-06T09:18:09.000Z</time>
      </trkpt>
      <trkpt lat="46.78713" lon="3.09717">
        <ele>201.60000610352</ele>
        <time>2022-10-06T09:18:14.000Z</time>
      </trkpt>
      <trkpt lat="46.78705" lon="3.09717">
        <ele>201.39999389648</ele>
        <time>2022-10-06T09:18:16.000Z</time>
      </trkpt>
      <trkpt lat="46.78699" lon="3.09731">
        <ele>201.60000610352</ele>
        <time>2022-10-06T09:18:20.000Z</time>
      </trkpt>
      <trkpt lat="46.78688" lon="3.09733">
        <ele>201.60000610352</ele>
        <time>2022-10-06T09:18:25.000Z</time>
      </trkpt>
      <trkpt lat="46.78687" lon="3.09733">
        <ele>201.80000305176</ele>
        <time>2022-10-06T09:18:29.000Z</time>
      </trkpt>
      <trkpt lat="46.78687" lon="3.09733">
        <ele>201.80000305176</ele>
        <time>2022-10-06T09:18:32.000Z</time>
      </trkpt>
    </trkseg>
  </trk>
</gpx>